<?xml version="1.0" encoding="UTF-8" standalone="no" ?>
<gpx xmlns="http://www.topografix.com/GPX/1/1" xmlns:xsi="http://www.w3.org/2001/XMLSchema-instance" xsi:schemaLocation="http://www.topografix.com/GPX/1/1 http://www.topografix.com/GPX/1/1/gpx.xsd" version="1.1" creator="VisuGPX - https://www.visugpx.com">
  <metadata>
    <name>Pornichet 06/02/2022</name>
    <desc><![CDATA[Sortie dimanche 06 février 2022]]></desc>
  </metadata>
  <trk>
    <name><![CDATA[Pornichet Cyclisme]]></name>
    <trkseg>
      <trkpt lat="47.26392" lon="-2.31585">
        <ele>9.1</ele>
        <time>2022-02-06T07:56:41.000Z</time>
      </trkpt>
      <trkpt lat="47.26392" lon="-2.31596">
        <ele>9.1</ele>
        <time>2022-02-06T07:56:44.000Z</time>
      </trkpt>
      <trkpt lat="47.26392" lon="-2.316">
        <ele>0.60000002384186</ele>
        <time>2022-02-06T07:56:45.000Z</time>
      </trkpt>
      <trkpt lat="47.26392" lon="-2.31615">
        <ele>0.60000002384186</ele>
        <time>2022-02-06T07:56:48.000Z</time>
      </trkpt>
      <trkpt lat="47.26392" lon="-2.31647">
        <ele>0.60000002384186</ele>
        <time>2022-02-06T07:56:54.000Z</time>
      </trkpt>
      <trkpt lat="47.26403" lon="-2.31679">
        <ele>0.60000002384186</ele>
        <time>2022-02-06T07:57:01.000Z</time>
      </trkpt>
      <trkpt lat="47.26401" lon="-2.3168">
        <ele>0.60000002384186</ele>
        <time>2022-02-06T07:57:02.000Z</time>
      </trkpt>
      <trkpt lat="47.26394" lon="-2.31683">
        <ele>0.60000002384186</ele>
        <time>2022-02-06T07:57:04.000Z</time>
      </trkpt>
      <trkpt lat="47.2637" lon="-2.31697">
        <ele>0.20000000298023</ele>
        <time>2022-02-06T07:57:10.000Z</time>
      </trkpt>
      <trkpt lat="47.26366" lon="-2.317">
        <ele>-0.60000002384186</ele>
        <time>2022-02-06T07:57:11.000Z</time>
      </trkpt>
      <trkpt lat="47.26362" lon="-2.31702">
        <ele>-1</ele>
        <time>2022-02-06T07:57:12.000Z</time>
      </trkpt>
      <trkpt lat="47.26357" lon="-2.31704">
        <ele>-1.3999999761581</ele>
        <time>2022-02-06T07:57:13.000Z</time>
      </trkpt>
      <trkpt lat="47.26334" lon="-2.31716">
        <ele>-1.3999999761581</ele>
        <time>2022-02-06T07:57:18.000Z</time>
      </trkpt>
      <trkpt lat="47.26314" lon="-2.31726">
        <ele>-2</ele>
        <time>2022-02-06T07:57:22.000Z</time>
      </trkpt>
      <trkpt lat="47.26309" lon="-2.31727">
        <ele>-2.4000000953674</ele>
        <time>2022-02-06T07:57:23.000Z</time>
      </trkpt>
      <trkpt lat="47.26305" lon="-2.3173">
        <ele>-2.7999999523163</ele>
        <time>2022-02-06T07:57:24.000Z</time>
      </trkpt>
      <trkpt lat="47.26303" lon="-2.31736">
        <ele>-3.2000000476837</ele>
        <time>2022-02-06T07:57:25.000Z</time>
      </trkpt>
      <trkpt lat="47.26302" lon="-2.3174">
        <ele>-3.5999999046326</ele>
        <time>2022-02-06T07:57:26.000Z</time>
      </trkpt>
      <trkpt lat="47.26303" lon="-2.31746">
        <ele>-3.5999999046326</ele>
        <time>2022-02-06T07:57:27.000Z</time>
      </trkpt>
      <trkpt lat="47.26305" lon="-2.31762">
        <ele>-3.5999999046326</ele>
        <time>2022-02-06T07:57:30.000Z</time>
      </trkpt>
      <trkpt lat="47.26307" lon="-2.31775">
        <ele>-3.5999999046326</ele>
        <time>2022-02-06T07:57:32.000Z</time>
      </trkpt>
      <trkpt lat="47.26307" lon="-2.31813">
        <ele>-3.5999999046326</ele>
        <time>2022-02-06T07:57:38.000Z</time>
      </trkpt>
      <trkpt lat="47.26305" lon="-2.31833">
        <ele>-3.5999999046326</ele>
        <time>2022-02-06T07:57:41.000Z</time>
      </trkpt>
      <trkpt lat="47.26303" lon="-2.31852">
        <ele>-3.5999999046326</ele>
        <time>2022-02-06T07:57:44.000Z</time>
      </trkpt>
      <trkpt lat="47.26303" lon="-2.31858">
        <ele>-3.5999999046326</ele>
        <time>2022-02-06T07:57:45.000Z</time>
      </trkpt>
      <trkpt lat="47.26301" lon="-2.31891">
        <ele>-3.5999999046326</ele>
        <time>2022-02-06T07:57:51.000Z</time>
      </trkpt>
      <trkpt lat="47.26299" lon="-2.31895">
        <ele>-3.5999999046326</ele>
        <time>2022-02-06T07:57:52.000Z</time>
      </trkpt>
      <trkpt lat="47.26292" lon="-2.319">
        <ele>-3.5999999046326</ele>
        <time>2022-02-06T07:57:54.000Z</time>
      </trkpt>
      <trkpt lat="47.26276" lon="-2.31917">
        <ele>-3.5999999046326</ele>
        <time>2022-02-06T07:57:59.000Z</time>
      </trkpt>
      <trkpt lat="47.26266" lon="-2.31931">
        <ele>-3.5999999046326</ele>
        <time>2022-02-06T07:58:03.000Z</time>
      </trkpt>
      <trkpt lat="47.26264" lon="-2.31935">
        <ele>-3.5999999046326</ele>
        <time>2022-02-06T07:58:04.000Z</time>
      </trkpt>
      <trkpt lat="47.26262" lon="-2.3194">
        <ele>-4</ele>
        <time>2022-02-06T07:58:05.000Z</time>
      </trkpt>
      <trkpt lat="47.2626" lon="-2.31944">
        <ele>-4.4000000953674</ele>
        <time>2022-02-06T07:58:06.000Z</time>
      </trkpt>
      <trkpt lat="47.26258" lon="-2.31948">
        <ele>-4.8000001907349</ele>
        <time>2022-02-06T07:58:07.000Z</time>
      </trkpt>
      <trkpt lat="47.26256" lon="-2.31953">
        <ele>-5.4000000953674</ele>
        <time>2022-02-06T07:58:08.000Z</time>
      </trkpt>
      <trkpt lat="47.26253" lon="-2.31957">
        <ele>-5.8000001907349</ele>
        <time>2022-02-06T07:58:09.000Z</time>
      </trkpt>
      <trkpt lat="47.26237" lon="-2.31975">
        <ele>-5.8000001907349</ele>
        <time>2022-02-06T07:58:14.000Z</time>
      </trkpt>
      <trkpt lat="47.26226" lon="-2.31988">
        <ele>-5.8000001907349</ele>
        <time>2022-02-06T07:58:19.000Z</time>
      </trkpt>
      <trkpt lat="47.26207" lon="-2.32005">
        <ele>-5.8000001907349</ele>
        <time>2022-02-06T07:58:26.000Z</time>
      </trkpt>
      <trkpt lat="47.26206" lon="-2.32011">
        <ele>-5.8000001907349</ele>
        <time>2022-02-06T07:58:28.000Z</time>
      </trkpt>
      <trkpt lat="47.26204" lon="-2.32019">
        <ele>-5.8000001907349</ele>
        <time>2022-02-06T07:58:30.000Z</time>
      </trkpt>
      <trkpt lat="47.26198" lon="-2.32023">
        <ele>-5.8000001907349</ele>
        <time>2022-02-06T07:58:34.000Z</time>
      </trkpt>
      <trkpt lat="47.26189" lon="-2.32025">
        <ele>-5.8000001907349</ele>
        <time>2022-02-06T07:58:37.000Z</time>
      </trkpt>
      <trkpt lat="47.26181" lon="-2.32027">
        <ele>-5.8000001907349</ele>
        <time>2022-02-06T07:58:39.000Z</time>
      </trkpt>
      <trkpt lat="47.26164" lon="-2.32043">
        <ele>-5.8000001907349</ele>
        <time>2022-02-06T07:58:44.000Z</time>
      </trkpt>
      <trkpt lat="47.2616" lon="-2.32054">
        <ele>-5.8000001907349</ele>
        <time>2022-02-06T07:58:46.000Z</time>
      </trkpt>
      <trkpt lat="47.26155" lon="-2.32072">
        <ele>-5.8000001907349</ele>
        <time>2022-02-06T07:58:49.000Z</time>
      </trkpt>
      <trkpt lat="47.26145" lon="-2.32107">
        <ele>-5.8000001907349</ele>
        <time>2022-02-06T07:58:55.000Z</time>
      </trkpt>
      <trkpt lat="47.26134" lon="-2.32136">
        <ele>-5.8000001907349</ele>
        <time>2022-02-06T07:59:01.000Z</time>
      </trkpt>
      <trkpt lat="47.2612" lon="-2.3217">
        <ele>-5.8000001907349</ele>
        <time>2022-02-06T07:59:08.000Z</time>
      </trkpt>
      <trkpt lat="47.26116" lon="-2.32181">
        <ele>-5.8000001907349</ele>
        <time>2022-02-06T07:59:10.000Z</time>
      </trkpt>
      <trkpt lat="47.26108" lon="-2.32202">
        <ele>-5.8000001907349</ele>
        <time>2022-02-06T07:59:14.000Z</time>
      </trkpt>
      <trkpt lat="47.26091" lon="-2.3223">
        <ele>-5.8000001907349</ele>
        <time>2022-02-06T07:59:20.000Z</time>
      </trkpt>
      <trkpt lat="47.26064" lon="-2.32262">
        <ele>-5.8000001907349</ele>
        <time>2022-02-06T07:59:28.000Z</time>
      </trkpt>
      <trkpt lat="47.26039" lon="-2.32288">
        <ele>-5.8000001907349</ele>
        <time>2022-02-06T07:59:35.000Z</time>
      </trkpt>
      <trkpt lat="47.26011" lon="-2.32317">
        <ele>-5.8000001907349</ele>
        <time>2022-02-06T07:59:43.000Z</time>
      </trkpt>
      <trkpt lat="47.25989" lon="-2.32345">
        <ele>-5.8000001907349</ele>
        <time>2022-02-06T07:59:50.000Z</time>
      </trkpt>
      <trkpt lat="47.25964" lon="-2.3238">
        <ele>-5.8000001907349</ele>
        <time>2022-02-06T07:59:58.000Z</time>
      </trkpt>
      <trkpt lat="47.25941" lon="-2.32414">
        <ele>-5.8000001907349</ele>
        <time>2022-02-06T08:00:06.000Z</time>
      </trkpt>
      <trkpt lat="47.25917" lon="-2.32445">
        <ele>-5.8000001907349</ele>
        <time>2022-02-06T08:00:14.000Z</time>
      </trkpt>
      <trkpt lat="47.25897" lon="-2.32468">
        <ele>-5.8000001907349</ele>
        <time>2022-02-06T08:00:21.000Z</time>
      </trkpt>
      <trkpt lat="47.25883" lon="-2.3248">
        <ele>-5.8000001907349</ele>
        <time>2022-02-06T08:00:26.000Z</time>
      </trkpt>
      <trkpt lat="47.25872" lon="-2.32483">
        <ele>-5.8000001907349</ele>
        <time>2022-02-06T08:00:29.000Z</time>
      </trkpt>
      <trkpt lat="47.25865" lon="-2.32482">
        <ele>-5.8000001907349</ele>
        <time>2022-02-06T08:00:31.000Z</time>
      </trkpt>
      <trkpt lat="47.2584" lon="-2.3248">
        <ele>-5.8000001907349</ele>
        <time>2022-02-06T08:00:37.000Z</time>
      </trkpt>
      <trkpt lat="47.25836" lon="-2.32479">
        <ele>-5.8000001907349</ele>
        <time>2022-02-06T08:00:38.000Z</time>
      </trkpt>
      <trkpt lat="47.25816" lon="-2.32468">
        <ele>-5.8000001907349</ele>
        <time>2022-02-06T08:00:43.000Z</time>
      </trkpt>
      <trkpt lat="47.258" lon="-2.32461">
        <ele>-5.8000001907349</ele>
        <time>2022-02-06T08:00:48.000Z</time>
      </trkpt>
      <trkpt lat="47.2579" lon="-2.32464">
        <ele>-5.8000001907349</ele>
        <time>2022-02-06T08:00:52.000Z</time>
      </trkpt>
      <trkpt lat="47.25778" lon="-2.32455">
        <ele>-5.8000001907349</ele>
        <time>2022-02-06T08:00:56.000Z</time>
      </trkpt>
      <trkpt lat="47.25762" lon="-2.32431">
        <ele>-5.8000001907349</ele>
        <time>2022-02-06T08:01:02.000Z</time>
      </trkpt>
      <trkpt lat="47.25758" lon="-2.3243">
        <ele>-5.8000001907349</ele>
        <time>2022-02-06T08:01:03.000Z</time>
      </trkpt>
      <trkpt lat="47.25745" lon="-2.3243">
        <ele>-5.8000001907349</ele>
        <time>2022-02-06T08:01:06.000Z</time>
      </trkpt>
      <trkpt lat="47.25718" lon="-2.32429">
        <ele>-5.8000001907349</ele>
        <time>2022-02-06T08:01:12.000Z</time>
      </trkpt>
      <trkpt lat="47.25688" lon="-2.32426">
        <ele>-5.8000001907349</ele>
        <time>2022-02-06T08:01:19.000Z</time>
      </trkpt>
      <trkpt lat="47.25666" lon="-2.32424">
        <ele>-5.8000001907349</ele>
        <time>2022-02-06T08:01:25.000Z</time>
      </trkpt>
      <trkpt lat="47.25661" lon="-2.32437">
        <ele>-5.8000001907349</ele>
        <time>2022-02-06T08:01:28.000Z</time>
      </trkpt>
      <trkpt lat="47.25665" lon="-2.3246">
        <ele>-5.8000001907349</ele>
        <time>2022-02-06T08:01:32.000Z</time>
      </trkpt>
      <trkpt lat="47.25678" lon="-2.32503">
        <ele>-5.8000001907349</ele>
        <time>2022-02-06T08:01:41.000Z</time>
      </trkpt>
      <trkpt lat="47.25692" lon="-2.32545">
        <ele>-5.8000001907349</ele>
        <time>2022-02-06T08:01:50.000Z</time>
      </trkpt>
      <trkpt lat="47.25699" lon="-2.32568">
        <ele>-5.4000000953674</ele>
        <time>2022-02-06T08:01:55.000Z</time>
      </trkpt>
      <trkpt lat="47.25701" lon="-2.32573">
        <ele>-4.8000001907349</ele>
        <time>2022-02-06T08:01:56.000Z</time>
      </trkpt>
      <trkpt lat="47.25702" lon="-2.32578">
        <ele>-4.4000000953674</ele>
        <time>2022-02-06T08:01:57.000Z</time>
      </trkpt>
      <trkpt lat="47.25704" lon="-2.32582">
        <ele>-4</ele>
        <time>2022-02-06T08:01:58.000Z</time>
      </trkpt>
      <trkpt lat="47.25705" lon="-2.32587">
        <ele>-3.5999999046326</ele>
        <time>2022-02-06T08:01:59.000Z</time>
      </trkpt>
      <trkpt lat="47.25709" lon="-2.32614">
        <ele>-3.5999999046326</ele>
        <time>2022-02-06T08:02:04.000Z</time>
      </trkpt>
      <trkpt lat="47.25708" lon="-2.32619">
        <ele>-3.5999999046326</ele>
        <time>2022-02-06T08:02:05.000Z</time>
      </trkpt>
      <trkpt lat="47.25695" lon="-2.32632">
        <ele>-3.5999999046326</ele>
        <time>2022-02-06T08:02:09.000Z</time>
      </trkpt>
      <trkpt lat="47.25688" lon="-2.32635">
        <ele>-3.2000000476837</ele>
        <time>2022-02-06T08:02:11.000Z</time>
      </trkpt>
      <trkpt lat="47.25685" lon="-2.32637">
        <ele>-2.7999999523163</ele>
        <time>2022-02-06T08:02:12.000Z</time>
      </trkpt>
      <trkpt lat="47.25682" lon="-2.32639">
        <ele>-2.4000000953674</ele>
        <time>2022-02-06T08:02:13.000Z</time>
      </trkpt>
      <trkpt lat="47.25678" lon="-2.3264">
        <ele>-2</ele>
        <time>2022-02-06T08:02:14.000Z</time>
      </trkpt>
      <trkpt lat="47.25675" lon="-2.32641">
        <ele>-1.6000000238419</ele>
        <time>2022-02-06T08:02:15.000Z</time>
      </trkpt>
      <trkpt lat="47.25648" lon="-2.32653">
        <ele>-1.6000000238419</ele>
        <time>2022-02-06T08:02:23.000Z</time>
      </trkpt>
      <trkpt lat="47.25644" lon="-2.32655">
        <ele>-1.2000000476837</ele>
        <time>2022-02-06T08:02:24.000Z</time>
      </trkpt>
      <trkpt lat="47.25641" lon="-2.32656">
        <ele>-0.80000001192093</ele>
        <time>2022-02-06T08:02:25.000Z</time>
      </trkpt>
      <trkpt lat="47.25637" lon="-2.32658">
        <ele>-0.40000000596046</ele>
        <time>2022-02-06T08:02:26.000Z</time>
      </trkpt>
      <trkpt lat="47.25634" lon="-2.32659">
        <ele>12.6</ele>
        <time>2022-02-06T08:02:27.000Z</time>
      </trkpt>
      <trkpt lat="47.25631" lon="-2.3266">
        <ele>0.40000000596046</ele>
        <time>2022-02-06T08:02:28.000Z</time>
      </trkpt>
      <trkpt lat="47.25621" lon="-2.32665">
        <ele>0.40000000596046</ele>
        <time>2022-02-06T08:02:31.000Z</time>
      </trkpt>
      <trkpt lat="47.25593" lon="-2.32676">
        <ele>0.40000000596046</ele>
        <time>2022-02-06T08:02:39.000Z</time>
      </trkpt>
      <trkpt lat="47.25566" lon="-2.32687">
        <ele>0.40000000596046</ele>
        <time>2022-02-06T08:02:46.000Z</time>
      </trkpt>
      <trkpt lat="47.25531" lon="-2.327">
        <ele>0.40000000596046</ele>
        <time>2022-02-06T08:02:55.000Z</time>
      </trkpt>
      <trkpt lat="47.25515" lon="-2.32705">
        <ele>0.40000000596046</ele>
        <time>2022-02-06T08:02:59.000Z</time>
      </trkpt>
      <trkpt lat="47.25504" lon="-2.32705">
        <ele>0.40000000596046</ele>
        <time>2022-02-06T08:03:02.000Z</time>
      </trkpt>
      <trkpt lat="47.25491" lon="-2.32706">
        <ele>0.40000000596046</ele>
        <time>2022-02-06T08:03:05.000Z</time>
      </trkpt>
      <trkpt lat="47.25477" lon="-2.32714">
        <ele>0.40000000596046</ele>
        <time>2022-02-06T08:03:09.000Z</time>
      </trkpt>
      <trkpt lat="47.25453" lon="-2.32747">
        <ele>0.40000000596046</ele>
        <time>2022-02-06T08:03:17.000Z</time>
      </trkpt>
      <trkpt lat="47.25435" lon="-2.32776">
        <ele>11.4</ele>
        <time>2022-02-06T08:03:24.000Z</time>
      </trkpt>
      <trkpt lat="47.25433" lon="-2.32782">
        <ele>-0.40000000596046</ele>
        <time>2022-02-06T08:03:25.000Z</time>
      </trkpt>
      <trkpt lat="47.2543" lon="-2.32787">
        <ele>-0.80000001192093</ele>
        <time>2022-02-06T08:03:26.000Z</time>
      </trkpt>
      <trkpt lat="47.25427" lon="-2.32791">
        <ele>-1.2000000476837</ele>
        <time>2022-02-06T08:03:27.000Z</time>
      </trkpt>
      <trkpt lat="47.25424" lon="-2.32795">
        <ele>-1.6000000238419</ele>
        <time>2022-02-06T08:03:28.000Z</time>
      </trkpt>
      <trkpt lat="47.25421" lon="-2.328">
        <ele>-1.6000000238419</ele>
        <time>2022-02-06T08:03:29.000Z</time>
      </trkpt>
      <trkpt lat="47.25397" lon="-2.32835">
        <ele>-1.6000000238419</ele>
        <time>2022-02-06T08:03:37.000Z</time>
      </trkpt>
      <trkpt lat="47.25373" lon="-2.32866">
        <ele>-1.6000000238419</ele>
        <time>2022-02-06T08:03:44.000Z</time>
      </trkpt>
      <trkpt lat="47.25353" lon="-2.32886">
        <ele>-2.2000000476837</ele>
        <time>2022-02-06T08:03:50.000Z</time>
      </trkpt>
      <trkpt lat="47.2535" lon="-2.32889">
        <ele>-2.5999999046326</ele>
        <time>2022-02-06T08:03:51.000Z</time>
      </trkpt>
      <trkpt lat="47.25347" lon="-2.32892">
        <ele>-3</ele>
        <time>2022-02-06T08:03:52.000Z</time>
      </trkpt>
      <trkpt lat="47.25344" lon="-2.32895">
        <ele>-3.4000000953674</ele>
        <time>2022-02-06T08:03:53.000Z</time>
      </trkpt>
      <trkpt lat="47.25341" lon="-2.32899">
        <ele>-3.7999999523163</ele>
        <time>2022-02-06T08:03:54.000Z</time>
      </trkpt>
      <trkpt lat="47.25327" lon="-2.32911">
        <ele>-3.7999999523163</ele>
        <time>2022-02-06T08:03:58.000Z</time>
      </trkpt>
      <trkpt lat="47.25313" lon="-2.32925">
        <ele>-3.7999999523163</ele>
        <time>2022-02-06T08:04:03.000Z</time>
      </trkpt>
      <trkpt lat="47.25309" lon="-2.32932">
        <ele>-3.7999999523163</ele>
        <time>2022-02-06T08:04:05.000Z</time>
      </trkpt>
      <trkpt lat="47.25306" lon="-2.32943">
        <ele>-3.7999999523163</ele>
        <time>2022-02-06T08:04:07.000Z</time>
      </trkpt>
      <trkpt lat="47.25307" lon="-2.32954">
        <ele>-3.7999999523163</ele>
        <time>2022-02-06T08:04:09.000Z</time>
      </trkpt>
      <trkpt lat="47.25312" lon="-2.32969">
        <ele>-3.7999999523163</ele>
        <time>2022-02-06T08:04:12.000Z</time>
      </trkpt>
      <trkpt lat="47.25317" lon="-2.32978">
        <ele>-3.7999999523163</ele>
        <time>2022-02-06T08:04:14.000Z</time>
      </trkpt>
      <trkpt lat="47.25331" lon="-2.3301">
        <ele>-3.7999999523163</ele>
        <time>2022-02-06T08:04:21.000Z</time>
      </trkpt>
      <trkpt lat="47.25343" lon="-2.33039">
        <ele>-4.1999998092651</ele>
        <time>2022-02-06T08:04:27.000Z</time>
      </trkpt>
      <trkpt lat="47.25345" lon="-2.33044">
        <ele>-4.5999999046326</ele>
        <time>2022-02-06T08:04:28.000Z</time>
      </trkpt>
      <trkpt lat="47.25347" lon="-2.33049">
        <ele>-5</ele>
        <time>2022-02-06T08:04:29.000Z</time>
      </trkpt>
      <trkpt lat="47.25349" lon="-2.33054">
        <ele>-5.4000000953674</ele>
        <time>2022-02-06T08:04:30.000Z</time>
      </trkpt>
      <trkpt lat="47.2535" lon="-2.33059">
        <ele>-5.8000001907349</ele>
        <time>2022-02-06T08:04:31.000Z</time>
      </trkpt>
      <trkpt lat="47.25354" lon="-2.33076">
        <ele>-5.8000001907349</ele>
        <time>2022-02-06T08:04:35.000Z</time>
      </trkpt>
      <trkpt lat="47.2536" lon="-2.33094">
        <ele>-5.8000001907349</ele>
        <time>2022-02-06T08:04:41.000Z</time>
      </trkpt>
      <trkpt lat="47.2536" lon="-2.33097">
        <ele>-5.8000001907349</ele>
        <time>2022-02-06T08:04:44.000Z</time>
      </trkpt>
      <trkpt lat="47.2536" lon="-2.33086">
        <ele>-12.199999809265</ele>
        <time>2022-02-06T08:11:32.000Z</time>
      </trkpt>
      <trkpt lat="47.2536" lon="-2.33084">
        <ele>-12.199999809265</ele>
        <time>2022-02-06T08:11:33.000Z</time>
      </trkpt>
      <trkpt lat="47.25352" lon="-2.33064">
        <ele>-12.199999809265</ele>
        <time>2022-02-06T08:11:41.000Z</time>
      </trkpt>
      <trkpt lat="47.25346" lon="-2.33046">
        <ele>-12.199999809265</ele>
        <time>2022-02-06T08:11:47.000Z</time>
      </trkpt>
      <trkpt lat="47.25337" lon="-2.33017">
        <ele>-12.199999809265</ele>
        <time>2022-02-06T08:11:54.000Z</time>
      </trkpt>
      <trkpt lat="47.25325" lon="-2.32987">
        <ele>-12.199999809265</ele>
        <time>2022-02-06T08:12:01.000Z</time>
      </trkpt>
      <trkpt lat="47.25311" lon="-2.32952">
        <ele>-12.199999809265</ele>
        <time>2022-02-06T08:12:09.000Z</time>
      </trkpt>
      <trkpt lat="47.25307" lon="-2.32924">
        <ele>-12.199999809265</ele>
        <time>2022-02-06T08:12:15.000Z</time>
      </trkpt>
      <trkpt lat="47.25318" lon="-2.32911">
        <ele>-12.199999809265</ele>
        <time>2022-02-06T08:12:19.000Z</time>
      </trkpt>
      <trkpt lat="47.25338" lon="-2.32888">
        <ele>-12.199999809265</ele>
        <time>2022-02-06T08:12:26.000Z</time>
      </trkpt>
      <trkpt lat="47.25338" lon="-2.32884">
        <ele>-12.199999809265</ele>
        <time>2022-02-06T08:12:27.000Z</time>
      </trkpt>
      <trkpt lat="47.25335" lon="-2.32874">
        <ele>-12.199999809265</ele>
        <time>2022-02-06T08:12:29.000Z</time>
      </trkpt>
      <trkpt lat="47.25326" lon="-2.32857">
        <ele>-12.199999809265</ele>
        <time>2022-02-06T08:12:32.000Z</time>
      </trkpt>
      <trkpt lat="47.25318" lon="-2.3284">
        <ele>-12.199999809265</ele>
        <time>2022-02-06T08:12:35.000Z</time>
      </trkpt>
      <trkpt lat="47.253" lon="-2.32801">
        <ele>-12.199999809265</ele>
        <time>2022-02-06T08:12:42.000Z</time>
      </trkpt>
      <trkpt lat="47.25279" lon="-2.32759">
        <ele>-12.199999809265</ele>
        <time>2022-02-06T08:12:50.000Z</time>
      </trkpt>
      <trkpt lat="47.25277" lon="-2.32754">
        <ele>-12.199999809265</ele>
        <time>2022-02-06T08:12:51.000Z</time>
      </trkpt>
      <trkpt lat="47.25267" lon="-2.32741">
        <ele>-11.800000190735</ele>
        <time>2022-02-06T08:12:54.000Z</time>
      </trkpt>
      <trkpt lat="47.25264" lon="-2.32737">
        <ele>-11.39999961853</ele>
        <time>2022-02-06T08:12:55.000Z</time>
      </trkpt>
      <trkpt lat="47.25261" lon="-2.32733">
        <ele>-11</ele>
        <time>2022-02-06T08:12:56.000Z</time>
      </trkpt>
      <trkpt lat="47.25258" lon="-2.32729">
        <ele>-10.39999961853</ele>
        <time>2022-02-06T08:12:57.000Z</time>
      </trkpt>
      <trkpt lat="47.25255" lon="-2.32726">
        <ele>-10</ele>
        <time>2022-02-06T08:12:58.000Z</time>
      </trkpt>
      <trkpt lat="47.25241" lon="-2.32709">
        <ele>-10</ele>
        <time>2022-02-06T08:13:03.000Z</time>
      </trkpt>
      <trkpt lat="47.25232" lon="-2.327">
        <ele>-10</ele>
        <time>2022-02-06T08:13:09.000Z</time>
      </trkpt>
      <trkpt lat="47.25224" lon="-2.32683">
        <ele>-9.6000003814697</ele>
        <time>2022-02-06T08:13:15.000Z</time>
      </trkpt>
      <trkpt lat="47.25224" lon="-2.32679">
        <ele>-9.1999998092651</ele>
        <time>2022-02-06T08:13:16.000Z</time>
      </trkpt>
      <trkpt lat="47.25225" lon="-2.32676">
        <ele>-8.3999996185303</ele>
        <time>2022-02-06T08:13:17.000Z</time>
      </trkpt>
      <trkpt lat="47.25227" lon="-2.32673">
        <ele>-8</ele>
        <time>2022-02-06T08:13:18.000Z</time>
      </trkpt>
      <trkpt lat="47.25228" lon="-2.32671">
        <ele>-8</ele>
        <time>2022-02-06T08:13:19.000Z</time>
      </trkpt>
      <trkpt lat="47.25232" lon="-2.32667">
        <ele>-8</ele>
        <time>2022-02-06T08:13:24.000Z</time>
      </trkpt>
      <trkpt lat="47.25232" lon="-2.32667">
        <ele>-8</ele>
        <time>2022-02-06T08:13:25.000Z</time>
      </trkpt>
      <trkpt lat="47.2523" lon="-2.32672">
        <ele>-8</ele>
        <time>2022-02-06T08:13:54.000Z</time>
      </trkpt>
      <trkpt lat="47.25229" lon="-2.32675">
        <ele>-8</ele>
        <time>2022-02-06T08:13:56.000Z</time>
      </trkpt>
      <trkpt lat="47.25225" lon="-2.32688">
        <ele>-8</ele>
        <time>2022-02-06T08:14:00.000Z</time>
      </trkpt>
      <trkpt lat="47.2522" lon="-2.327">
        <ele>-8</ele>
        <time>2022-02-06T08:14:04.000Z</time>
      </trkpt>
      <trkpt lat="47.25219" lon="-2.32699">
        <ele>-8</ele>
        <time>2022-02-06T08:14:05.000Z</time>
      </trkpt>
      <trkpt lat="47.25216" lon="-2.32705">
        <ele>-8</ele>
        <time>2022-02-06T08:14:09.000Z</time>
      </trkpt>
      <trkpt lat="47.25214" lon="-2.32713">
        <ele>-8</ele>
        <time>2022-02-06T08:14:11.000Z</time>
      </trkpt>
      <trkpt lat="47.25211" lon="-2.32727">
        <ele>-8</ele>
        <time>2022-02-06T08:14:14.000Z</time>
      </trkpt>
      <trkpt lat="47.2521" lon="-2.32732">
        <ele>-8.3999996185303</ele>
        <time>2022-02-06T08:14:15.000Z</time>
      </trkpt>
      <trkpt lat="47.25208" lon="-2.32734">
        <ele>-8.8000001907349</ele>
        <time>2022-02-06T08:14:16.000Z</time>
      </trkpt>
      <trkpt lat="47.25205" lon="-2.32734">
        <ele>-9.3999996185303</ele>
        <time>2022-02-06T08:14:17.000Z</time>
      </trkpt>
      <trkpt lat="47.25202" lon="-2.32734">
        <ele>-10</ele>
        <time>2022-02-06T08:14:18.000Z</time>
      </trkpt>
      <trkpt lat="47.25199" lon="-2.32733">
        <ele>-10.60000038147</ele>
        <time>2022-02-06T08:14:19.000Z</time>
      </trkpt>
      <trkpt lat="47.25195" lon="-2.32732">
        <ele>-11.199999809265</ele>
        <time>2022-02-06T08:14:20.000Z</time>
      </trkpt>
      <trkpt lat="47.25192" lon="-2.32731">
        <ele>-11.800000190735</ele>
        <time>2022-02-06T08:14:21.000Z</time>
      </trkpt>
      <trkpt lat="47.25188" lon="-2.32728">
        <ele>-12.39999961853</ele>
        <time>2022-02-06T08:14:22.000Z</time>
      </trkpt>
      <trkpt lat="47.25183" lon="-2.32715">
        <ele>-12.39999961853</ele>
        <time>2022-02-06T08:14:25.000Z</time>
      </trkpt>
      <trkpt lat="47.25176" lon="-2.32711">
        <ele>-12.39999961853</ele>
        <time>2022-02-06T08:14:28.000Z</time>
      </trkpt>
      <trkpt lat="47.25174" lon="-2.32711">
        <ele>-12.39999961853</ele>
        <time>2022-02-06T08:14:29.000Z</time>
      </trkpt>
      <trkpt lat="47.25165" lon="-2.32718">
        <ele>-12.39999961853</ele>
        <time>2022-02-06T08:14:32.000Z</time>
      </trkpt>
      <trkpt lat="47.25157" lon="-2.32725">
        <ele>-12.39999961853</ele>
        <time>2022-02-06T08:14:34.000Z</time>
      </trkpt>
      <trkpt lat="47.25145" lon="-2.32736">
        <ele>-12.39999961853</ele>
        <time>2022-02-06T08:14:37.000Z</time>
      </trkpt>
      <trkpt lat="47.25136" lon="-2.32741">
        <ele>-12.39999961853</ele>
        <time>2022-02-06T08:14:39.000Z</time>
      </trkpt>
      <trkpt lat="47.25123" lon="-2.32746">
        <ele>-12.39999961853</ele>
        <time>2022-02-06T08:14:42.000Z</time>
      </trkpt>
      <trkpt lat="47.25116" lon="-2.32744">
        <ele>-12.39999961853</ele>
        <time>2022-02-06T08:14:44.000Z</time>
      </trkpt>
      <trkpt lat="47.25105" lon="-2.32726">
        <ele>-12.800000190735</ele>
        <time>2022-02-06T08:14:48.000Z</time>
      </trkpt>
      <trkpt lat="47.25103" lon="-2.3272">
        <ele>-13.199999809265</ele>
        <time>2022-02-06T08:14:49.000Z</time>
      </trkpt>
      <trkpt lat="47.251" lon="-2.32715">
        <ele>-13.60000038147</ele>
        <time>2022-02-06T08:14:50.000Z</time>
      </trkpt>
      <trkpt lat="47.25099" lon="-2.3271">
        <ele>-14.199999809265</ele>
        <time>2022-02-06T08:14:51.000Z</time>
      </trkpt>
      <trkpt lat="47.25097" lon="-2.32705">
        <ele>-14.60000038147</ele>
        <time>2022-02-06T08:14:52.000Z</time>
      </trkpt>
      <trkpt lat="47.25096" lon="-2.32702">
        <ele>-14.60000038147</ele>
        <time>2022-02-06T08:14:53.000Z</time>
      </trkpt>
      <trkpt lat="47.25082" lon="-2.32681">
        <ele>-14.60000038147</ele>
        <time>2022-02-06T08:14:59.000Z</time>
      </trkpt>
      <trkpt lat="47.25069" lon="-2.32651">
        <ele>-14.60000038147</ele>
        <time>2022-02-06T08:15:05.000Z</time>
      </trkpt>
      <trkpt lat="47.25051" lon="-2.32613">
        <ele>-14</ele>
        <time>2022-02-06T08:15:13.000Z</time>
      </trkpt>
      <trkpt lat="47.25048" lon="-2.32607">
        <ele>-13.60000038147</ele>
        <time>2022-02-06T08:15:14.000Z</time>
      </trkpt>
      <trkpt lat="47.25046" lon="-2.32602">
        <ele>-13.199999809265</ele>
        <time>2022-02-06T08:15:15.000Z</time>
      </trkpt>
      <trkpt lat="47.25044" lon="-2.32597">
        <ele>-12.800000190735</ele>
        <time>2022-02-06T08:15:16.000Z</time>
      </trkpt>
      <trkpt lat="47.25042" lon="-2.32592">
        <ele>-12.39999961853</ele>
        <time>2022-02-06T08:15:17.000Z</time>
      </trkpt>
      <trkpt lat="47.25035" lon="-2.32577">
        <ele>-12.39999961853</ele>
        <time>2022-02-06T08:15:20.000Z</time>
      </trkpt>
      <trkpt lat="47.25027" lon="-2.3255">
        <ele>-12.39999961853</ele>
        <time>2022-02-06T08:15:25.000Z</time>
      </trkpt>
      <trkpt lat="47.25026" lon="-2.32544">
        <ele>-12.39999961853</ele>
        <time>2022-02-06T08:15:26.000Z</time>
      </trkpt>
      <trkpt lat="47.25027" lon="-2.32538">
        <ele>-12</ele>
        <time>2022-02-06T08:15:27.000Z</time>
      </trkpt>
      <trkpt lat="47.25028" lon="-2.32533">
        <ele>-11.39999961853</ele>
        <time>2022-02-06T08:15:28.000Z</time>
      </trkpt>
      <trkpt lat="47.25029" lon="-2.32528">
        <ele>-11</ele>
        <time>2022-02-06T08:15:29.000Z</time>
      </trkpt>
      <trkpt lat="47.25031" lon="-2.32524">
        <ele>-10.60000038147</ele>
        <time>2022-02-06T08:15:30.000Z</time>
      </trkpt>
      <trkpt lat="47.25034" lon="-2.3252">
        <ele>-10.199999809265</ele>
        <time>2022-02-06T08:15:31.000Z</time>
      </trkpt>
      <trkpt lat="47.2504" lon="-2.32513">
        <ele>-10.199999809265</ele>
        <time>2022-02-06T08:15:33.000Z</time>
      </trkpt>
      <trkpt lat="47.25047" lon="-2.32507">
        <ele>-9.8000001907349</ele>
        <time>2022-02-06T08:15:35.000Z</time>
      </trkpt>
      <trkpt lat="47.2505" lon="-2.32505">
        <ele>-9.3999996185303</ele>
        <time>2022-02-06T08:15:36.000Z</time>
      </trkpt>
      <trkpt lat="47.25053" lon="-2.32502">
        <ele>-9</ele>
        <time>2022-02-06T08:15:37.000Z</time>
      </trkpt>
      <trkpt lat="47.25057" lon="-2.325">
        <ele>-8.6000003814697</ele>
        <time>2022-02-06T08:15:38.000Z</time>
      </trkpt>
      <trkpt lat="47.25061" lon="-2.32498">
        <ele>-8</ele>
        <time>2022-02-06T08:15:39.000Z</time>
      </trkpt>
      <trkpt lat="47.25073" lon="-2.32493">
        <ele>-8</ele>
        <time>2022-02-06T08:15:42.000Z</time>
      </trkpt>
      <trkpt lat="47.25077" lon="-2.32491">
        <ele>-8</ele>
        <time>2022-02-06T08:15:43.000Z</time>
      </trkpt>
      <trkpt lat="47.25091" lon="-2.32484">
        <ele>-8</ele>
        <time>2022-02-06T08:15:46.000Z</time>
      </trkpt>
      <trkpt lat="47.25099" lon="-2.32477">
        <ele>-8</ele>
        <time>2022-02-06T08:15:48.000Z</time>
      </trkpt>
      <trkpt lat="47.25108" lon="-2.32454">
        <ele>-8</ele>
        <time>2022-02-06T08:15:52.000Z</time>
      </trkpt>
      <trkpt lat="47.25108" lon="-2.32427">
        <ele>-8</ele>
        <time>2022-02-06T08:15:56.000Z</time>
      </trkpt>
      <trkpt lat="47.25107" lon="-2.32414">
        <ele>-7.5999999046326</ele>
        <time>2022-02-06T08:15:58.000Z</time>
      </trkpt>
      <trkpt lat="47.25107" lon="-2.32407">
        <ele>-7.1999998092651</ele>
        <time>2022-02-06T08:15:59.000Z</time>
      </trkpt>
      <trkpt lat="47.25106" lon="-2.324">
        <ele>-6.8000001907349</ele>
        <time>2022-02-06T08:16:00.000Z</time>
      </trkpt>
      <trkpt lat="47.25106" lon="-2.32394">
        <ele>-6.4000000953674</ele>
        <time>2022-02-06T08:16:01.000Z</time>
      </trkpt>
      <trkpt lat="47.25106" lon="-2.32388">
        <ele>-6</ele>
        <time>2022-02-06T08:16:02.000Z</time>
      </trkpt>
      <trkpt lat="47.25106" lon="-2.32375">
        <ele>-6</ele>
        <time>2022-02-06T08:16:04.000Z</time>
      </trkpt>
      <trkpt lat="47.25107" lon="-2.32369">
        <ele>-6</ele>
        <time>2022-02-06T08:16:05.000Z</time>
      </trkpt>
      <trkpt lat="47.25113" lon="-2.32338">
        <ele>-6</ele>
        <time>2022-02-06T08:16:10.000Z</time>
      </trkpt>
      <trkpt lat="47.25118" lon="-2.32321">
        <ele>-5.5999999046326</ele>
        <time>2022-02-06T08:16:13.000Z</time>
      </trkpt>
      <trkpt lat="47.2512" lon="-2.32316">
        <ele>-5.1999998092651</ele>
        <time>2022-02-06T08:16:14.000Z</time>
      </trkpt>
      <trkpt lat="47.25122" lon="-2.32312">
        <ele>-4.8000001907349</ele>
        <time>2022-02-06T08:16:15.000Z</time>
      </trkpt>
      <trkpt lat="47.25125" lon="-2.32308">
        <ele>-4.4000000953674</ele>
        <time>2022-02-06T08:16:16.000Z</time>
      </trkpt>
      <trkpt lat="47.25127" lon="-2.32304">
        <ele>-4</ele>
        <time>2022-02-06T08:16:17.000Z</time>
      </trkpt>
      <trkpt lat="47.25132" lon="-2.32295">
        <ele>-4</ele>
        <time>2022-02-06T08:16:19.000Z</time>
      </trkpt>
      <trkpt lat="47.25132" lon="-2.32283">
        <ele>-4</ele>
        <time>2022-02-06T08:16:21.000Z</time>
      </trkpt>
      <trkpt lat="47.25131" lon="-2.32271">
        <ele>-4</ele>
        <time>2022-02-06T08:16:23.000Z</time>
      </trkpt>
      <trkpt lat="47.25131" lon="-2.32265">
        <ele>-3.5999999046326</ele>
        <time>2022-02-06T08:16:24.000Z</time>
      </trkpt>
      <trkpt lat="47.2513" lon="-2.32259">
        <ele>-3</ele>
        <time>2022-02-06T08:16:25.000Z</time>
      </trkpt>
      <trkpt lat="47.2513" lon="-2.32253">
        <ele>-2.5999999046326</ele>
        <time>2022-02-06T08:16:26.000Z</time>
      </trkpt>
      <trkpt lat="47.25129" lon="-2.32247">
        <ele>-2.2000000476837</ele>
        <time>2022-02-06T08:16:27.000Z</time>
      </trkpt>
      <trkpt lat="47.25129" lon="-2.32241">
        <ele>-1.7999999523163</ele>
        <time>2022-02-06T08:16:28.000Z</time>
      </trkpt>
      <trkpt lat="47.25128" lon="-2.3221">
        <ele>-1.7999999523163</ele>
        <time>2022-02-06T08:16:33.000Z</time>
      </trkpt>
      <trkpt lat="47.25123" lon="-2.32156">
        <ele>-1.7999999523163</ele>
        <time>2022-02-06T08:16:41.000Z</time>
      </trkpt>
      <trkpt lat="47.2512" lon="-2.32117">
        <ele>-1.7999999523163</ele>
        <time>2022-02-06T08:16:47.000Z</time>
      </trkpt>
      <trkpt lat="47.25116" lon="-2.32073">
        <ele>-1.7999999523163</ele>
        <time>2022-02-06T08:16:54.000Z</time>
      </trkpt>
      <trkpt lat="47.25112" lon="-2.32022">
        <ele>-1.7999999523163</ele>
        <time>2022-02-06T08:17:01.000Z</time>
      </trkpt>
      <trkpt lat="47.25109" lon="-2.31991">
        <ele>-1.7999999523163</ele>
        <time>2022-02-06T08:17:05.000Z</time>
      </trkpt>
      <trkpt lat="47.25107" lon="-2.31978">
        <ele>-1.7999999523163</ele>
        <time>2022-02-06T08:17:07.000Z</time>
      </trkpt>
      <trkpt lat="47.25104" lon="-2.31956">
        <ele>-1.7999999523163</ele>
        <time>2022-02-06T08:17:10.000Z</time>
      </trkpt>
      <trkpt lat="47.25103" lon="-2.31941">
        <ele>-1.7999999523163</ele>
        <time>2022-02-06T08:17:12.000Z</time>
      </trkpt>
      <trkpt lat="47.25096" lon="-2.31879">
        <ele>-1.7999999523163</ele>
        <time>2022-02-06T08:17:21.000Z</time>
      </trkpt>
      <trkpt lat="47.25085" lon="-2.31816">
        <ele>-1.7999999523163</ele>
        <time>2022-02-06T08:17:30.000Z</time>
      </trkpt>
      <trkpt lat="47.25075" lon="-2.31769">
        <ele>-1.7999999523163</ele>
        <time>2022-02-06T08:17:37.000Z</time>
      </trkpt>
      <trkpt lat="47.25071" lon="-2.31757">
        <ele>-1.3999999761581</ele>
        <time>2022-02-06T08:17:39.000Z</time>
      </trkpt>
      <trkpt lat="47.2507" lon="-2.3175">
        <ele>-1</ele>
        <time>2022-02-06T08:17:40.000Z</time>
      </trkpt>
      <trkpt lat="47.25068" lon="-2.31743">
        <ele>-0.60000002384186</ele>
        <time>2022-02-06T08:17:41.000Z</time>
      </trkpt>
      <trkpt lat="47.25067" lon="-2.31737">
        <ele>25</ele>
        <time>2022-02-06T08:17:42.000Z</time>
      </trkpt>
      <trkpt lat="47.25065" lon="-2.3173">
        <ele>0.40000000596046</ele>
        <time>2022-02-06T08:17:43.000Z</time>
      </trkpt>
      <trkpt lat="47.25062" lon="-2.31716">
        <ele>0.40000000596046</ele>
        <time>2022-02-06T08:17:45.000Z</time>
      </trkpt>
      <trkpt lat="47.25053" lon="-2.31684">
        <ele>0.40000000596046</ele>
        <time>2022-02-06T08:17:50.000Z</time>
      </trkpt>
      <trkpt lat="47.25047" lon="-2.31671">
        <ele>0.40000000596046</ele>
        <time>2022-02-06T08:17:52.000Z</time>
      </trkpt>
      <trkpt lat="47.25043" lon="-2.3166">
        <ele>0.40000000596046</ele>
        <time>2022-02-06T08:17:54.000Z</time>
      </trkpt>
      <trkpt lat="47.25038" lon="-2.31645">
        <ele>0.40000000596046</ele>
        <time>2022-02-06T08:17:57.000Z</time>
      </trkpt>
      <trkpt lat="47.2502" lon="-2.3162">
        <ele>0.40000000596046</ele>
        <time>2022-02-06T08:18:03.000Z</time>
      </trkpt>
      <trkpt lat="47.24993" lon="-2.31593">
        <ele>0.40000000596046</ele>
        <time>2022-02-06T08:18:11.000Z</time>
      </trkpt>
      <trkpt lat="47.2498" lon="-2.31578">
        <ele>0.80000001192093</ele>
        <time>2022-02-06T08:18:15.000Z</time>
      </trkpt>
      <trkpt lat="47.24977" lon="-2.31574">
        <ele>1.2000000476837</ele>
        <time>2022-02-06T08:18:16.000Z</time>
      </trkpt>
      <trkpt lat="47.24974" lon="-2.3157">
        <ele>1.6000000238419</ele>
        <time>2022-02-06T08:18:17.000Z</time>
      </trkpt>
      <trkpt lat="47.24972" lon="-2.31565">
        <ele>2</ele>
        <time>2022-02-06T08:18:18.000Z</time>
      </trkpt>
      <trkpt lat="47.2497" lon="-2.31559">
        <ele>2.4000000953674</ele>
        <time>2022-02-06T08:18:19.000Z</time>
      </trkpt>
      <trkpt lat="47.24965" lon="-2.31541">
        <ele>2.4000000953674</ele>
        <time>2022-02-06T08:18:22.000Z</time>
      </trkpt>
      <trkpt lat="47.24964" lon="-2.31535">
        <ele>2.4000000953674</ele>
        <time>2022-02-06T08:18:23.000Z</time>
      </trkpt>
      <trkpt lat="47.24959" lon="-2.31498">
        <ele>2.4000000953674</ele>
        <time>2022-02-06T08:18:29.000Z</time>
      </trkpt>
      <trkpt lat="47.24959" lon="-2.31492">
        <ele>2.4000000953674</ele>
        <time>2022-02-06T08:18:30.000Z</time>
      </trkpt>
      <trkpt lat="47.24956" lon="-2.3144">
        <ele>2.4000000953674</ele>
        <time>2022-02-06T08:18:38.000Z</time>
      </trkpt>
      <trkpt lat="47.24946" lon="-2.31389">
        <ele>2.4000000953674</ele>
        <time>2022-02-06T08:18:46.000Z</time>
      </trkpt>
      <trkpt lat="47.24929" lon="-2.31335">
        <ele>2.4000000953674</ele>
        <time>2022-02-06T08:18:55.000Z</time>
      </trkpt>
      <trkpt lat="47.24919" lon="-2.313">
        <ele>2.4000000953674</ele>
        <time>2022-02-06T08:19:02.000Z</time>
      </trkpt>
      <trkpt lat="47.24911" lon="-2.31266">
        <ele>2.4000000953674</ele>
        <time>2022-02-06T08:19:08.000Z</time>
      </trkpt>
      <trkpt lat="47.249" lon="-2.31223">
        <ele>2.4000000953674</ele>
        <time>2022-02-06T08:19:15.000Z</time>
      </trkpt>
      <trkpt lat="47.24883" lon="-2.31165">
        <ele>2.4000000953674</ele>
        <time>2022-02-06T08:19:24.000Z</time>
      </trkpt>
      <trkpt lat="47.2487" lon="-2.31121">
        <ele>2.4000000953674</ele>
        <time>2022-02-06T08:19:31.000Z</time>
      </trkpt>
      <trkpt lat="47.24852" lon="-2.31062">
        <ele>2.4000000953674</ele>
        <time>2022-02-06T08:19:40.000Z</time>
      </trkpt>
      <trkpt lat="47.24834" lon="-2.31017">
        <ele>2.4000000953674</ele>
        <time>2022-02-06T08:19:47.000Z</time>
      </trkpt>
      <trkpt lat="47.24829" lon="-2.31005">
        <ele>2.4000000953674</ele>
        <time>2022-02-06T08:19:49.000Z</time>
      </trkpt>
      <trkpt lat="47.2482" lon="-2.30983">
        <ele>2.4000000953674</ele>
        <time>2022-02-06T08:19:53.000Z</time>
      </trkpt>
      <trkpt lat="47.24808" lon="-2.30965">
        <ele>2.4000000953674</ele>
        <time>2022-02-06T08:19:58.000Z</time>
      </trkpt>
      <trkpt lat="47.24793" lon="-2.30964">
        <ele>2.4000000953674</ele>
        <time>2022-02-06T08:20:02.000Z</time>
      </trkpt>
      <trkpt lat="47.24772" lon="-2.30985">
        <ele>2.4000000953674</ele>
        <time>2022-02-06T08:20:05.000Z</time>
      </trkpt>
      <trkpt lat="47.24738" lon="-2.31003">
        <ele>2</ele>
        <time>2022-02-06T08:20:11.000Z</time>
      </trkpt>
      <trkpt lat="47.24732" lon="-2.31007">
        <ele>1.3999999761581</ele>
        <time>2022-02-06T08:20:12.000Z</time>
      </trkpt>
      <trkpt lat="47.24727" lon="-2.31013">
        <ele>1</ele>
        <time>2022-02-06T08:20:13.000Z</time>
      </trkpt>
      <trkpt lat="47.24723" lon="-2.31019">
        <ele>0.60000002384186</ele>
        <time>2022-02-06T08:20:14.000Z</time>
      </trkpt>
      <trkpt lat="47.24719" lon="-2.31027">
        <ele>0.20000000298023</ele>
        <time>2022-02-06T08:20:15.000Z</time>
      </trkpt>
      <trkpt lat="47.24716" lon="-2.31034">
        <ele>0.20000000298023</ele>
        <time>2022-02-06T08:20:16.000Z</time>
      </trkpt>
      <trkpt lat="47.2471" lon="-2.31048">
        <ele>-0.40000000596046</ele>
        <time>2022-02-06T08:20:18.000Z</time>
      </trkpt>
      <trkpt lat="47.24707" lon="-2.31054">
        <ele>-0.80000001192093</ele>
        <time>2022-02-06T08:20:19.000Z</time>
      </trkpt>
      <trkpt lat="47.24704" lon="-2.31061">
        <ele>-1.2000000476837</ele>
        <time>2022-02-06T08:20:20.000Z</time>
      </trkpt>
      <trkpt lat="47.24701" lon="-2.31066">
        <ele>-1.7999999523163</ele>
        <time>2022-02-06T08:20:21.000Z</time>
      </trkpt>
      <trkpt lat="47.24698" lon="-2.31071">
        <ele>-2.2000000476837</ele>
        <time>2022-02-06T08:20:22.000Z</time>
      </trkpt>
      <trkpt lat="47.24696" lon="-2.31076">
        <ele>-2.2000000476837</ele>
        <time>2022-02-06T08:20:23.000Z</time>
      </trkpt>
      <trkpt lat="47.24681" lon="-2.31103">
        <ele>-2.2000000476837</ele>
        <time>2022-02-06T08:20:28.000Z</time>
      </trkpt>
      <trkpt lat="47.24656" lon="-2.31146">
        <ele>-2.2000000476837</ele>
        <time>2022-02-06T08:20:35.000Z</time>
      </trkpt>
      <trkpt lat="47.24652" lon="-2.31152">
        <ele>-2.2000000476837</ele>
        <time>2022-02-06T08:20:36.000Z</time>
      </trkpt>
      <trkpt lat="47.24639" lon="-2.31167">
        <ele>-2.2000000476837</ele>
        <time>2022-02-06T08:20:39.000Z</time>
      </trkpt>
      <trkpt lat="47.2463" lon="-2.31179">
        <ele>-2.2000000476837</ele>
        <time>2022-02-06T08:20:41.000Z</time>
      </trkpt>
      <trkpt lat="47.24613" lon="-2.31198">
        <ele>-2.2000000476837</ele>
        <time>2022-02-06T08:20:45.000Z</time>
      </trkpt>
      <trkpt lat="47.24609" lon="-2.31203">
        <ele>-2.2000000476837</ele>
        <time>2022-02-06T08:20:46.000Z</time>
      </trkpt>
      <trkpt lat="47.24596" lon="-2.31215">
        <ele>-2.2000000476837</ele>
        <time>2022-02-06T08:20:49.000Z</time>
      </trkpt>
      <trkpt lat="47.24591" lon="-2.31219">
        <ele>-2.2000000476837</ele>
        <time>2022-02-06T08:20:50.000Z</time>
      </trkpt>
      <trkpt lat="47.24567" lon="-2.31244">
        <ele>-2.2000000476837</ele>
        <time>2022-02-06T08:20:56.000Z</time>
      </trkpt>
      <trkpt lat="47.24543" lon="-2.3127">
        <ele>-2.2000000476837</ele>
        <time>2022-02-06T08:21:02.000Z</time>
      </trkpt>
      <trkpt lat="47.24524" lon="-2.31288">
        <ele>-2.5999999046326</ele>
        <time>2022-02-06T08:21:06.000Z</time>
      </trkpt>
      <trkpt lat="47.24519" lon="-2.31292">
        <ele>-3</ele>
        <time>2022-02-06T08:21:07.000Z</time>
      </trkpt>
      <trkpt lat="47.24514" lon="-2.31296">
        <ele>-3.4000000953674</ele>
        <time>2022-02-06T08:21:08.000Z</time>
      </trkpt>
      <trkpt lat="47.24508" lon="-2.31301">
        <ele>-3.7999999523163</ele>
        <time>2022-02-06T08:21:09.000Z</time>
      </trkpt>
      <trkpt lat="47.24502" lon="-2.31306">
        <ele>-4.1999998092651</ele>
        <time>2022-02-06T08:21:10.000Z</time>
      </trkpt>
      <trkpt lat="47.24493" lon="-2.31314">
        <ele>-4.8000001907349</ele>
        <time>2022-02-06T08:21:12.000Z</time>
      </trkpt>
      <trkpt lat="47.24489" lon="-2.31317">
        <ele>-5.1999998092651</ele>
        <time>2022-02-06T08:21:13.000Z</time>
      </trkpt>
      <trkpt lat="47.24485" lon="-2.31318">
        <ele>-5.8000001907349</ele>
        <time>2022-02-06T08:21:14.000Z</time>
      </trkpt>
      <trkpt lat="47.24481" lon="-2.31317">
        <ele>-6.1999998092651</ele>
        <time>2022-02-06T08:21:15.000Z</time>
      </trkpt>
      <trkpt lat="47.24477" lon="-2.31315">
        <ele>-6.8000001907349</ele>
        <time>2022-02-06T08:21:16.000Z</time>
      </trkpt>
      <trkpt lat="47.24474" lon="-2.31309">
        <ele>-7.1999998092651</ele>
        <time>2022-02-06T08:21:17.000Z</time>
      </trkpt>
      <trkpt lat="47.24471" lon="-2.31301">
        <ele>-7.5999999046326</ele>
        <time>2022-02-06T08:21:18.000Z</time>
      </trkpt>
      <trkpt lat="47.24469" lon="-2.31292">
        <ele>-8</ele>
        <time>2022-02-06T08:21:19.000Z</time>
      </trkpt>
      <trkpt lat="47.24467" lon="-2.31284">
        <ele>-8.3999996185303</ele>
        <time>2022-02-06T08:21:20.000Z</time>
      </trkpt>
      <trkpt lat="47.24465" lon="-2.31275">
        <ele>-8.8000001907349</ele>
        <time>2022-02-06T08:21:21.000Z</time>
      </trkpt>
      <trkpt lat="47.24461" lon="-2.31268">
        <ele>-8.8000001907349</ele>
        <time>2022-02-06T08:21:22.000Z</time>
      </trkpt>
      <trkpt lat="47.24453" lon="-2.31249">
        <ele>-8.8000001907349</ele>
        <time>2022-02-06T08:21:25.000Z</time>
      </trkpt>
      <trkpt lat="47.2445" lon="-2.31243">
        <ele>-8.8000001907349</ele>
        <time>2022-02-06T08:21:26.000Z</time>
      </trkpt>
      <trkpt lat="47.24448" lon="-2.31238">
        <ele>-9.1999998092651</ele>
        <time>2022-02-06T08:21:27.000Z</time>
      </trkpt>
      <trkpt lat="47.24446" lon="-2.31233">
        <ele>-9.6000003814697</ele>
        <time>2022-02-06T08:21:28.000Z</time>
      </trkpt>
      <trkpt lat="47.24444" lon="-2.3123">
        <ele>-10</ele>
        <time>2022-02-06T08:21:29.000Z</time>
      </trkpt>
      <trkpt lat="47.24442" lon="-2.31228">
        <ele>-11</ele>
        <time>2022-02-06T08:21:30.000Z</time>
      </trkpt>
      <trkpt lat="47.24439" lon="-2.31227">
        <ele>-11</ele>
        <time>2022-02-06T08:21:31.000Z</time>
      </trkpt>
      <trkpt lat="47.24435" lon="-2.31228">
        <ele>-11.39999961853</ele>
        <time>2022-02-06T08:21:32.000Z</time>
      </trkpt>
      <trkpt lat="47.24432" lon="-2.3123">
        <ele>-11.800000190735</ele>
        <time>2022-02-06T08:21:33.000Z</time>
      </trkpt>
      <trkpt lat="47.24428" lon="-2.3123">
        <ele>-12.39999961853</ele>
        <time>2022-02-06T08:21:34.000Z</time>
      </trkpt>
      <trkpt lat="47.24425" lon="-2.3123">
        <ele>-12.800000190735</ele>
        <time>2022-02-06T08:21:35.000Z</time>
      </trkpt>
      <trkpt lat="47.24422" lon="-2.31227">
        <ele>-13.199999809265</ele>
        <time>2022-02-06T08:21:36.000Z</time>
      </trkpt>
      <trkpt lat="47.2442" lon="-2.31223">
        <ele>-13.199999809265</ele>
        <time>2022-02-06T08:21:37.000Z</time>
      </trkpt>
      <trkpt lat="47.24417" lon="-2.31212">
        <ele>-13.199999809265</ele>
        <time>2022-02-06T08:21:41.000Z</time>
      </trkpt>
      <trkpt lat="47.24416" lon="-2.31209">
        <ele>-13.199999809265</ele>
        <time>2022-02-06T08:21:42.000Z</time>
      </trkpt>
      <trkpt lat="47.24412" lon="-2.31196">
        <ele>-13.199999809265</ele>
        <time>2022-02-06T08:21:48.000Z</time>
      </trkpt>
      <trkpt lat="47.24411" lon="-2.31186">
        <ele>-13.199999809265</ele>
        <time>2022-02-06T08:21:52.000Z</time>
      </trkpt>
      <trkpt lat="47.2441" lon="-2.31184">
        <ele>-13.199999809265</ele>
        <time>2022-02-06T08:21:53.000Z</time>
      </trkpt>
      <trkpt lat="47.24406" lon="-2.31184">
        <ele>-12.800000190735</ele>
        <time>2022-02-06T08:21:56.000Z</time>
      </trkpt>
      <trkpt lat="47.24405" lon="-2.31185">
        <ele>-12.39999961853</ele>
        <time>2022-02-06T08:21:57.000Z</time>
      </trkpt>
      <trkpt lat="47.24404" lon="-2.31185">
        <ele>-12</ele>
        <time>2022-02-06T08:21:58.000Z</time>
      </trkpt>
      <trkpt lat="47.24402" lon="-2.31184">
        <ele>-11.60000038147</ele>
        <time>2022-02-06T08:21:59.000Z</time>
      </trkpt>
      <trkpt lat="47.24401" lon="-2.31182">
        <ele>-11.199999809265</ele>
        <time>2022-02-06T08:22:00.000Z</time>
      </trkpt>
      <trkpt lat="47.24399" lon="-2.3118">
        <ele>-11.199999809265</ele>
        <time>2022-02-06T08:22:01.000Z</time>
      </trkpt>
      <trkpt lat="47.24395" lon="-2.31176">
        <ele>-11.199999809265</ele>
        <time>2022-02-06T08:22:03.000Z</time>
      </trkpt>
      <trkpt lat="47.24386" lon="-2.31168">
        <ele>-11.199999809265</ele>
        <time>2022-02-06T08:22:06.000Z</time>
      </trkpt>
      <trkpt lat="47.24371" lon="-2.31146">
        <ele>-11.199999809265</ele>
        <time>2022-02-06T08:22:12.000Z</time>
      </trkpt>
      <trkpt lat="47.24358" lon="-2.31118">
        <ele>-11.199999809265</ele>
        <time>2022-02-06T08:22:18.000Z</time>
      </trkpt>
      <trkpt lat="47.24346" lon="-2.3108">
        <ele>-11.199999809265</ele>
        <time>2022-02-06T08:22:25.000Z</time>
      </trkpt>
      <trkpt lat="47.24325" lon="-2.3104">
        <ele>-11.199999809265</ele>
        <time>2022-02-06T08:22:33.000Z</time>
      </trkpt>
      <trkpt lat="47.2431" lon="-2.31032">
        <ele>-11.199999809265</ele>
        <time>2022-02-06T08:22:37.000Z</time>
      </trkpt>
      <trkpt lat="47.24288" lon="-2.31033">
        <ele>-11.60000038147</ele>
        <time>2022-02-06T08:22:41.000Z</time>
      </trkpt>
      <trkpt lat="47.24283" lon="-2.31031">
        <ele>-12</ele>
        <time>2022-02-06T08:22:42.000Z</time>
      </trkpt>
      <trkpt lat="47.24279" lon="-2.31028">
        <ele>-12.60000038147</ele>
        <time>2022-02-06T08:22:43.000Z</time>
      </trkpt>
      <trkpt lat="47.24277" lon="-2.31025">
        <ele>-13.39999961853</ele>
        <time>2022-02-06T08:22:44.000Z</time>
      </trkpt>
      <trkpt lat="47.24278" lon="-2.3101">
        <ele>-13.39999961853</ele>
        <time>2022-02-06T08:22:47.000Z</time>
      </trkpt>
      <trkpt lat="47.24281" lon="-2.30985">
        <ele>-13.39999961853</ele>
        <time>2022-02-06T08:22:51.000Z</time>
      </trkpt>
      <trkpt lat="47.24282" lon="-2.30979">
        <ele>-13.39999961853</ele>
        <time>2022-02-06T08:22:52.000Z</time>
      </trkpt>
      <trkpt lat="47.24286" lon="-2.30952">
        <ele>-13</ele>
        <time>2022-02-06T08:22:57.000Z</time>
      </trkpt>
      <trkpt lat="47.24287" lon="-2.30947">
        <ele>-12.60000038147</ele>
        <time>2022-02-06T08:22:58.000Z</time>
      </trkpt>
      <trkpt lat="47.24288" lon="-2.30942">
        <ele>-12.199999809265</ele>
        <time>2022-02-06T08:22:59.000Z</time>
      </trkpt>
      <trkpt lat="47.24288" lon="-2.30936">
        <ele>-11.800000190735</ele>
        <time>2022-02-06T08:23:00.000Z</time>
      </trkpt>
      <trkpt lat="47.24289" lon="-2.30931">
        <ele>-11.39999961853</ele>
        <time>2022-02-06T08:23:01.000Z</time>
      </trkpt>
      <trkpt lat="47.24288" lon="-2.30917">
        <ele>-11.39999961853</ele>
        <time>2022-02-06T08:23:04.000Z</time>
      </trkpt>
      <trkpt lat="47.24286" lon="-2.30911">
        <ele>-10.800000190735</ele>
        <time>2022-02-06T08:23:05.000Z</time>
      </trkpt>
      <trkpt lat="47.24285" lon="-2.30906">
        <ele>-10.39999961853</ele>
        <time>2022-02-06T08:23:06.000Z</time>
      </trkpt>
      <trkpt lat="47.24285" lon="-2.309">
        <ele>-10</ele>
        <time>2022-02-06T08:23:07.000Z</time>
      </trkpt>
      <trkpt lat="47.24284" lon="-2.30895">
        <ele>-9.6000003814697</ele>
        <time>2022-02-06T08:23:08.000Z</time>
      </trkpt>
      <trkpt lat="47.24283" lon="-2.30889">
        <ele>-9.1999998092651</ele>
        <time>2022-02-06T08:23:09.000Z</time>
      </trkpt>
      <trkpt lat="47.24282" lon="-2.30876">
        <ele>-9.1999998092651</ele>
        <time>2022-02-06T08:23:11.000Z</time>
      </trkpt>
      <trkpt lat="47.24284" lon="-2.30857">
        <ele>-9.1999998092651</ele>
        <time>2022-02-06T08:23:14.000Z</time>
      </trkpt>
      <trkpt lat="47.2429" lon="-2.3083">
        <ele>-8.6000003814697</ele>
        <time>2022-02-06T08:23:19.000Z</time>
      </trkpt>
      <trkpt lat="47.24292" lon="-2.30825">
        <ele>-8.1999998092651</ele>
        <time>2022-02-06T08:23:20.000Z</time>
      </trkpt>
      <trkpt lat="47.24295" lon="-2.30821">
        <ele>-7.8000001907349</ele>
        <time>2022-02-06T08:23:21.000Z</time>
      </trkpt>
      <trkpt lat="47.24298" lon="-2.30817">
        <ele>-7.4000000953674</ele>
        <time>2022-02-06T08:23:22.000Z</time>
      </trkpt>
      <trkpt lat="47.24301" lon="-2.30814">
        <ele>-7</ele>
        <time>2022-02-06T08:23:23.000Z</time>
      </trkpt>
      <trkpt lat="47.24308" lon="-2.30807">
        <ele>-7</ele>
        <time>2022-02-06T08:23:25.000Z</time>
      </trkpt>
      <trkpt lat="47.24332" lon="-2.30796">
        <ele>-7</ele>
        <time>2022-02-06T08:23:31.000Z</time>
      </trkpt>
      <trkpt lat="47.24345" lon="-2.30793">
        <ele>-6.1999998092651</ele>
        <time>2022-02-06T08:23:34.000Z</time>
      </trkpt>
      <trkpt lat="47.24349" lon="-2.30791">
        <ele>-5.8000001907349</ele>
        <time>2022-02-06T08:23:35.000Z</time>
      </trkpt>
      <trkpt lat="47.24352" lon="-2.3079">
        <ele>-5.4000000953674</ele>
        <time>2022-02-06T08:23:36.000Z</time>
      </trkpt>
      <trkpt lat="47.24356" lon="-2.30788">
        <ele>-5</ele>
        <time>2022-02-06T08:23:37.000Z</time>
      </trkpt>
      <trkpt lat="47.24373" lon="-2.30774">
        <ele>-5</ele>
        <time>2022-02-06T08:23:42.000Z</time>
      </trkpt>
      <trkpt lat="47.24381" lon="-2.30761">
        <ele>-4.5999999046326</ele>
        <time>2022-02-06T08:23:45.000Z</time>
      </trkpt>
      <trkpt lat="47.24383" lon="-2.30758">
        <ele>-4.1999998092651</ele>
        <time>2022-02-06T08:23:46.000Z</time>
      </trkpt>
      <trkpt lat="47.24385" lon="-2.30755">
        <ele>-3.7999999523163</ele>
        <time>2022-02-06T08:23:47.000Z</time>
      </trkpt>
      <trkpt lat="47.24387" lon="-2.30752">
        <ele>-3.4000000953674</ele>
        <time>2022-02-06T08:23:48.000Z</time>
      </trkpt>
      <trkpt lat="47.24389" lon="-2.3075">
        <ele>-3</ele>
        <time>2022-02-06T08:23:49.000Z</time>
      </trkpt>
      <trkpt lat="47.24397" lon="-2.30734">
        <ele>-3</ele>
        <time>2022-02-06T08:23:53.000Z</time>
      </trkpt>
      <trkpt lat="47.24398" lon="-2.30729">
        <ele>-3</ele>
        <time>2022-02-06T08:23:54.000Z</time>
      </trkpt>
      <trkpt lat="47.24398" lon="-2.30722">
        <ele>-2.5999999046326</ele>
        <time>2022-02-06T08:23:55.000Z</time>
      </trkpt>
      <trkpt lat="47.24398" lon="-2.30716">
        <ele>-2</ele>
        <time>2022-02-06T08:23:56.000Z</time>
      </trkpt>
      <trkpt lat="47.24399" lon="-2.30709">
        <ele>-1.2000000476837</ele>
        <time>2022-02-06T08:23:57.000Z</time>
      </trkpt>
      <trkpt lat="47.24401" lon="-2.30702">
        <ele>-0.80000001192093</ele>
        <time>2022-02-06T08:23:58.000Z</time>
      </trkpt>
      <trkpt lat="47.24402" lon="-2.30695">
        <ele>-0.80000001192093</ele>
        <time>2022-02-06T08:23:59.000Z</time>
      </trkpt>
      <trkpt lat="47.2441" lon="-2.3066">
        <ele>-0.80000001192093</ele>
        <time>2022-02-06T08:24:05.000Z</time>
      </trkpt>
      <trkpt lat="47.24417" lon="-2.30635">
        <ele>-0.80000001192093</ele>
        <time>2022-02-06T08:24:09.000Z</time>
      </trkpt>
      <trkpt lat="47.24422" lon="-2.30625">
        <ele>-0.80000001192093</ele>
        <time>2022-02-06T08:24:11.000Z</time>
      </trkpt>
      <trkpt lat="47.24435" lon="-2.3061">
        <ele>-0.80000001192093</ele>
        <time>2022-02-06T08:24:15.000Z</time>
      </trkpt>
      <trkpt lat="47.24437" lon="-2.30607">
        <ele>-0.80000001192093</ele>
        <time>2022-02-06T08:24:16.000Z</time>
      </trkpt>
      <trkpt lat="47.24455" lon="-2.30581">
        <ele>-1.7999999523163</ele>
        <time>2022-02-06T08:24:22.000Z</time>
      </trkpt>
      <trkpt lat="47.24458" lon="-2.30574">
        <ele>-2.2000000476837</ele>
        <time>2022-02-06T08:24:23.000Z</time>
      </trkpt>
      <trkpt lat="47.24463" lon="-2.30565">
        <ele>-2.5999999046326</ele>
        <time>2022-02-06T08:24:24.000Z</time>
      </trkpt>
      <trkpt lat="47.24466" lon="-2.30557">
        <ele>-3</ele>
        <time>2022-02-06T08:24:25.000Z</time>
      </trkpt>
      <trkpt lat="47.24466" lon="-2.30552">
        <ele>-3</ele>
        <time>2022-02-06T08:24:26.000Z</time>
      </trkpt>
      <trkpt lat="47.24466" lon="-2.30546">
        <ele>-3.4000000953674</ele>
        <time>2022-02-06T08:24:28.000Z</time>
      </trkpt>
      <trkpt lat="47.24463" lon="-2.30548">
        <ele>-3.7999999523163</ele>
        <time>2022-02-06T08:24:29.000Z</time>
      </trkpt>
      <trkpt lat="47.24459" lon="-2.3055">
        <ele>-4.1999998092651</ele>
        <time>2022-02-06T08:24:30.000Z</time>
      </trkpt>
      <trkpt lat="47.24456" lon="-2.30554">
        <ele>-4.5999999046326</ele>
        <time>2022-02-06T08:24:31.000Z</time>
      </trkpt>
      <trkpt lat="47.24453" lon="-2.30558">
        <ele>-5</ele>
        <time>2022-02-06T08:24:32.000Z</time>
      </trkpt>
      <trkpt lat="47.24449" lon="-2.30562">
        <ele>-5</ele>
        <time>2022-02-06T08:24:33.000Z</time>
      </trkpt>
      <trkpt lat="47.24427" lon="-2.30576">
        <ele>-5</ele>
        <time>2022-02-06T08:24:37.000Z</time>
      </trkpt>
      <trkpt lat="47.24422" lon="-2.30579">
        <ele>-5.4000000953674</ele>
        <time>2022-02-06T08:24:38.000Z</time>
      </trkpt>
      <trkpt lat="47.24417" lon="-2.30581">
        <ele>-6</ele>
        <time>2022-02-06T08:24:39.000Z</time>
      </trkpt>
      <trkpt lat="47.24411" lon="-2.30581">
        <ele>-6.4000000953674</ele>
        <time>2022-02-06T08:24:40.000Z</time>
      </trkpt>
      <trkpt lat="47.24405" lon="-2.3058">
        <ele>-6.8000001907349</ele>
        <time>2022-02-06T08:24:41.000Z</time>
      </trkpt>
      <trkpt lat="47.244" lon="-2.30579">
        <ele>-7.4000000953674</ele>
        <time>2022-02-06T08:24:42.000Z</time>
      </trkpt>
      <trkpt lat="47.2439" lon="-2.30573">
        <ele>-7.4000000953674</ele>
        <time>2022-02-06T08:24:44.000Z</time>
      </trkpt>
      <trkpt lat="47.24385" lon="-2.30569">
        <ele>-7.4000000953674</ele>
        <time>2022-02-06T08:24:45.000Z</time>
      </trkpt>
      <trkpt lat="47.24372" lon="-2.30545">
        <ele>-7.4000000953674</ele>
        <time>2022-02-06T08:24:49.000Z</time>
      </trkpt>
      <trkpt lat="47.2437" lon="-2.30537">
        <ele>-7.4000000953674</ele>
        <time>2022-02-06T08:24:50.000Z</time>
      </trkpt>
      <trkpt lat="47.24366" lon="-2.30513">
        <ele>-7.4000000953674</ele>
        <time>2022-02-06T08:24:54.000Z</time>
      </trkpt>
      <trkpt lat="47.24369" lon="-2.30492">
        <ele>-7.4000000953674</ele>
        <time>2022-02-06T08:24:59.000Z</time>
      </trkpt>
      <trkpt lat="47.24372" lon="-2.30485">
        <ele>-7</ele>
        <time>2022-02-06T08:25:01.000Z</time>
      </trkpt>
      <trkpt lat="47.24373" lon="-2.30481">
        <ele>-6.4000000953674</ele>
        <time>2022-02-06T08:25:02.000Z</time>
      </trkpt>
      <trkpt lat="47.24374" lon="-2.30477">
        <ele>-6</ele>
        <time>2022-02-06T08:25:03.000Z</time>
      </trkpt>
      <trkpt lat="47.24375" lon="-2.30471">
        <ele>-5.5999999046326</ele>
        <time>2022-02-06T08:25:04.000Z</time>
      </trkpt>
      <trkpt lat="47.24377" lon="-2.30466">
        <ele>-5.1999998092651</ele>
        <time>2022-02-06T08:25:05.000Z</time>
      </trkpt>
      <trkpt lat="47.24377" lon="-2.30449">
        <ele>-5.1999998092651</ele>
        <time>2022-02-06T08:25:09.000Z</time>
      </trkpt>
      <trkpt lat="47.24375" lon="-2.30446">
        <ele>-5.1999998092651</ele>
        <time>2022-02-06T08:25:11.000Z</time>
      </trkpt>
      <trkpt lat="47.2437" lon="-2.30449">
        <ele>-5.1999998092651</ele>
        <time>2022-02-06T08:25:13.000Z</time>
      </trkpt>
      <trkpt lat="47.24368" lon="-2.3045">
        <ele>-4.8000001907349</ele>
        <time>2022-02-06T08:25:14.000Z</time>
      </trkpt>
      <trkpt lat="47.24365" lon="-2.30451">
        <ele>-4.4000000953674</ele>
        <time>2022-02-06T08:25:15.000Z</time>
      </trkpt>
      <trkpt lat="47.24363" lon="-2.30451">
        <ele>-4</ele>
        <time>2022-02-06T08:25:16.000Z</time>
      </trkpt>
      <trkpt lat="47.24359" lon="-2.30452">
        <ele>-3.5999999046326</ele>
        <time>2022-02-06T08:25:17.000Z</time>
      </trkpt>
      <trkpt lat="47.24356" lon="-2.30452">
        <ele>-3</ele>
        <time>2022-02-06T08:25:18.000Z</time>
      </trkpt>
      <trkpt lat="47.24353" lon="-2.30451">
        <ele>-3</ele>
        <time>2022-02-06T08:25:19.000Z</time>
      </trkpt>
      <trkpt lat="47.2434" lon="-2.30443">
        <ele>-3</ele>
        <time>2022-02-06T08:25:24.000Z</time>
      </trkpt>
      <trkpt lat="47.24327" lon="-2.30438">
        <ele>-3</ele>
        <time>2022-02-06T08:25:27.000Z</time>
      </trkpt>
      <trkpt lat="47.24323" lon="-2.30435">
        <ele>-3</ele>
        <time>2022-02-06T08:25:28.000Z</time>
      </trkpt>
      <trkpt lat="47.24305" lon="-2.30425">
        <ele>-3</ele>
        <time>2022-02-06T08:25:33.000Z</time>
      </trkpt>
      <trkpt lat="47.24297" lon="-2.3042">
        <ele>-2.5999999046326</ele>
        <time>2022-02-06T08:25:35.000Z</time>
      </trkpt>
      <trkpt lat="47.24294" lon="-2.30417">
        <ele>-1.7999999523163</ele>
        <time>2022-02-06T08:25:36.000Z</time>
      </trkpt>
      <trkpt lat="47.2429" lon="-2.30413">
        <ele>-1.3999999761581</ele>
        <time>2022-02-06T08:25:37.000Z</time>
      </trkpt>
      <trkpt lat="47.24286" lon="-2.3041">
        <ele>-1</ele>
        <time>2022-02-06T08:25:38.000Z</time>
      </trkpt>
      <trkpt lat="47.24275" lon="-2.30396">
        <ele>-1</ele>
        <time>2022-02-06T08:25:41.000Z</time>
      </trkpt>
      <trkpt lat="47.24265" lon="-2.30378">
        <ele>-1</ele>
        <time>2022-02-06T08:25:44.000Z</time>
      </trkpt>
      <trkpt lat="47.24253" lon="-2.30357">
        <ele>-1</ele>
        <time>2022-02-06T08:25:48.000Z</time>
      </trkpt>
      <trkpt lat="47.24247" lon="-2.30346">
        <ele>-1</ele>
        <time>2022-02-06T08:25:50.000Z</time>
      </trkpt>
      <trkpt lat="47.24231" lon="-2.30323">
        <ele>-1</ele>
        <time>2022-02-06T08:25:55.000Z</time>
      </trkpt>
      <trkpt lat="47.24228" lon="-2.30323">
        <ele>-1</ele>
        <time>2022-02-06T08:25:56.000Z</time>
      </trkpt>
      <trkpt lat="47.24218" lon="-2.30327">
        <ele>-1</ele>
        <time>2022-02-06T08:25:58.000Z</time>
      </trkpt>
      <trkpt lat="47.24208" lon="-2.30329">
        <ele>-1</ele>
        <time>2022-02-06T08:26:00.000Z</time>
      </trkpt>
      <trkpt lat="47.24203" lon="-2.30328">
        <ele>-2.2000000476837</ele>
        <time>2022-02-06T08:26:01.000Z</time>
      </trkpt>
      <trkpt lat="47.24198" lon="-2.30323">
        <ele>-2.5999999046326</ele>
        <time>2022-02-06T08:26:02.000Z</time>
      </trkpt>
      <trkpt lat="47.24197" lon="-2.30315">
        <ele>-3.2000000476837</ele>
        <time>2022-02-06T08:26:03.000Z</time>
      </trkpt>
      <trkpt lat="47.24195" lon="-2.30307">
        <ele>-3.7999999523163</ele>
        <time>2022-02-06T08:26:04.000Z</time>
      </trkpt>
      <trkpt lat="47.24194" lon="-2.30299">
        <ele>-3.7999999523163</ele>
        <time>2022-02-06T08:26:05.000Z</time>
      </trkpt>
      <trkpt lat="47.24191" lon="-2.30277">
        <ele>-4.1999998092651</ele>
        <time>2022-02-06T08:26:08.000Z</time>
      </trkpt>
      <trkpt lat="47.2419" lon="-2.30269">
        <ele>-4.5999999046326</ele>
        <time>2022-02-06T08:26:09.000Z</time>
      </trkpt>
      <trkpt lat="47.24189" lon="-2.30261">
        <ele>-5</ele>
        <time>2022-02-06T08:26:10.000Z</time>
      </trkpt>
      <trkpt lat="47.2419" lon="-2.30255">
        <ele>-5.4000000953674</ele>
        <time>2022-02-06T08:26:11.000Z</time>
      </trkpt>
      <trkpt lat="47.2419" lon="-2.3025">
        <ele>-5.8000001907349</ele>
        <time>2022-02-06T08:26:12.000Z</time>
      </trkpt>
      <trkpt lat="47.2419" lon="-2.30247">
        <ele>-5.8000001907349</ele>
        <time>2022-02-06T08:26:13.000Z</time>
      </trkpt>
      <trkpt lat="47.24188" lon="-2.30236">
        <ele>-5.8000001907349</ele>
        <time>2022-02-06T08:26:17.000Z</time>
      </trkpt>
      <trkpt lat="47.24186" lon="-2.30237">
        <ele>-5.8000001907349</ele>
        <time>2022-02-06T08:26:18.000Z</time>
      </trkpt>
      <trkpt lat="47.24178" lon="-2.30244">
        <ele>-5.8000001907349</ele>
        <time>2022-02-06T08:26:21.000Z</time>
      </trkpt>
      <trkpt lat="47.24163" lon="-2.30241">
        <ele>-5.8000001907349</ele>
        <time>2022-02-06T08:26:25.000Z</time>
      </trkpt>
      <trkpt lat="47.24156" lon="-2.30228">
        <ele>-5.8000001907349</ele>
        <time>2022-02-06T08:26:28.000Z</time>
      </trkpt>
      <trkpt lat="47.24153" lon="-2.30221">
        <ele>-5.8000001907349</ele>
        <time>2022-02-06T08:26:30.000Z</time>
      </trkpt>
      <trkpt lat="47.24148" lon="-2.30205">
        <ele>-5.8000001907349</ele>
        <time>2022-02-06T08:26:35.000Z</time>
      </trkpt>
      <trkpt lat="47.24139" lon="-2.30176">
        <ele>-5.8000001907349</ele>
        <time>2022-02-06T08:26:43.000Z</time>
      </trkpt>
      <trkpt lat="47.24138" lon="-2.30172">
        <ele>-5.4000000953674</ele>
        <time>2022-02-06T08:26:44.000Z</time>
      </trkpt>
      <trkpt lat="47.24136" lon="-2.30169">
        <ele>-5</ele>
        <time>2022-02-06T08:26:45.000Z</time>
      </trkpt>
      <trkpt lat="47.24135" lon="-2.30166">
        <ele>-4.5999999046326</ele>
        <time>2022-02-06T08:26:46.000Z</time>
      </trkpt>
      <trkpt lat="47.24134" lon="-2.30164">
        <ele>-4.1999998092651</ele>
        <time>2022-02-06T08:26:47.000Z</time>
      </trkpt>
      <trkpt lat="47.24133" lon="-2.30163">
        <ele>-3.7999999523163</ele>
        <time>2022-02-06T08:26:48.000Z</time>
      </trkpt>
      <trkpt lat="47.24132" lon="-2.30163">
        <ele>-3.4000000953674</ele>
        <time>2022-02-06T08:26:49.000Z</time>
      </trkpt>
      <trkpt lat="47.24132" lon="-2.30162">
        <ele>-2.5999999046326</ele>
        <time>2022-02-06T08:26:50.000Z</time>
      </trkpt>
      <trkpt lat="47.24132" lon="-2.30163">
        <ele>-2</ele>
        <time>2022-02-06T08:26:51.000Z</time>
      </trkpt>
      <trkpt lat="47.24132" lon="-2.30163">
        <ele>-1.6000000238419</ele>
        <time>2022-02-06T08:26:52.000Z</time>
      </trkpt>
      <trkpt lat="47.24122" lon="-2.30143">
        <ele>-1.6000000238419</ele>
        <time>2022-02-06T08:27:20.000Z</time>
      </trkpt>
      <trkpt lat="47.24122" lon="-2.3014">
        <ele>-1.6000000238419</ele>
        <time>2022-02-06T08:27:21.000Z</time>
      </trkpt>
      <trkpt lat="47.24123" lon="-2.30132">
        <ele>-1.6000000238419</ele>
        <time>2022-02-06T08:27:26.000Z</time>
      </trkpt>
      <trkpt lat="47.24124" lon="-2.30127">
        <ele>-1.6000000238419</ele>
        <time>2022-02-06T08:27:29.000Z</time>
      </trkpt>
      <trkpt lat="47.24127" lon="-2.30115">
        <ele>-1.6000000238419</ele>
        <time>2022-02-06T08:27:33.000Z</time>
      </trkpt>
      <trkpt lat="47.24128" lon="-2.30112">
        <ele>-1.2000000476837</ele>
        <time>2022-02-06T08:27:34.000Z</time>
      </trkpt>
      <trkpt lat="47.24127" lon="-2.30108">
        <ele>-0.80000001192093</ele>
        <time>2022-02-06T08:27:35.000Z</time>
      </trkpt>
      <trkpt lat="47.24126" lon="-2.30104">
        <ele>-0.40000000596046</ele>
        <time>2022-02-06T08:27:36.000Z</time>
      </trkpt>
      <trkpt lat="47.24124" lon="-2.30101">
        <ele>30.4</ele>
        <time>2022-02-06T08:27:37.000Z</time>
      </trkpt>
      <trkpt lat="47.24123" lon="-2.30098">
        <ele>0.40000000596046</ele>
        <time>2022-02-06T08:27:38.000Z</time>
      </trkpt>
      <trkpt lat="47.24121" lon="-2.30083">
        <ele>0.40000000596046</ele>
        <time>2022-02-06T08:27:43.000Z</time>
      </trkpt>
      <trkpt lat="47.24119" lon="-2.30081">
        <ele>0.40000000596046</ele>
        <time>2022-02-06T08:27:44.000Z</time>
      </trkpt>
      <trkpt lat="47.24113" lon="-2.30073">
        <ele>0.40000000596046</ele>
        <time>2022-02-06T08:27:48.000Z</time>
      </trkpt>
      <trkpt lat="47.2411" lon="-2.30058">
        <ele>0.40000000596046</ele>
        <time>2022-02-06T08:27:53.000Z</time>
      </trkpt>
      <trkpt lat="47.2411" lon="-2.30054">
        <ele>0.40000000596046</ele>
        <time>2022-02-06T08:27:54.000Z</time>
      </trkpt>
      <trkpt lat="47.24113" lon="-2.3003">
        <ele>0.40000000596046</ele>
        <time>2022-02-06T08:28:00.000Z</time>
      </trkpt>
      <trkpt lat="47.24113" lon="-2.30006">
        <ele>0.40000000596046</ele>
        <time>2022-02-06T08:28:07.000Z</time>
      </trkpt>
      <trkpt lat="47.24119" lon="-2.29993">
        <ele>0.40000000596046</ele>
        <time>2022-02-06T08:28:14.000Z</time>
      </trkpt>
      <trkpt lat="47.24124" lon="-2.2999">
        <ele>0.80000001192093</ele>
        <time>2022-02-06T08:28:17.000Z</time>
      </trkpt>
      <trkpt lat="47.24127" lon="-2.29988">
        <ele>1.2000000476837</ele>
        <time>2022-02-06T08:28:18.000Z</time>
      </trkpt>
      <trkpt lat="47.24129" lon="-2.29987">
        <ele>1.7999999523163</ele>
        <time>2022-02-06T08:28:19.000Z</time>
      </trkpt>
      <trkpt lat="47.24131" lon="-2.29986">
        <ele>2.2000000476837</ele>
        <time>2022-02-06T08:28:20.000Z</time>
      </trkpt>
      <trkpt lat="47.24134" lon="-2.29987">
        <ele>2.5999999046326</ele>
        <time>2022-02-06T08:28:21.000Z</time>
      </trkpt>
      <trkpt lat="47.24141" lon="-2.29986">
        <ele>2.5999999046326</ele>
        <time>2022-02-06T08:28:24.000Z</time>
      </trkpt>
      <trkpt lat="47.24143" lon="-2.29986">
        <ele>2.5999999046326</ele>
        <time>2022-02-06T08:28:25.000Z</time>
      </trkpt>
      <trkpt lat="47.24147" lon="-2.29987">
        <ele>2.5999999046326</ele>
        <time>2022-02-06T08:28:28.000Z</time>
      </trkpt>
      <trkpt lat="47.24149" lon="-2.2999">
        <ele>2.5999999046326</ele>
        <time>2022-02-06T08:28:30.000Z</time>
      </trkpt>
      <trkpt lat="47.2415" lon="-2.29993">
        <ele>2.5999999046326</ele>
        <time>2022-02-06T08:28:31.000Z</time>
      </trkpt>
      <trkpt lat="47.24154" lon="-2.30004">
        <ele>2.5999999046326</ele>
        <time>2022-02-06T08:28:34.000Z</time>
      </trkpt>
      <trkpt lat="47.24161" lon="-2.30008">
        <ele>2.5999999046326</ele>
        <time>2022-02-06T08:28:38.000Z</time>
      </trkpt>
      <trkpt lat="47.24163" lon="-2.30007">
        <ele>2.5999999046326</ele>
        <time>2022-02-06T08:28:39.000Z</time>
      </trkpt>
      <trkpt lat="47.24165" lon="-2.30005">
        <ele>2.5999999046326</ele>
        <time>2022-02-06T08:28:41.000Z</time>
      </trkpt>
      <trkpt lat="47.24166" lon="-2.30001">
        <ele>2.5999999046326</ele>
        <time>2022-02-06T08:28:43.000Z</time>
      </trkpt>
      <trkpt lat="47.24165" lon="-2.29999">
        <ele>2.5999999046326</ele>
        <time>2022-02-06T08:28:44.000Z</time>
      </trkpt>
      <trkpt lat="47.2416" lon="-2.29989">
        <ele>2.5999999046326</ele>
        <time>2022-02-06T08:28:48.000Z</time>
      </trkpt>
      <trkpt lat="47.24155" lon="-2.29977">
        <ele>2.5999999046326</ele>
        <time>2022-02-06T08:28:54.000Z</time>
      </trkpt>
      <trkpt lat="47.24155" lon="-2.2997">
        <ele>2.5999999046326</ele>
        <time>2022-02-06T08:28:55.000Z</time>
      </trkpt>
      <trkpt lat="47.24157" lon="-2.29955">
        <ele>2.5999999046326</ele>
        <time>2022-02-06T08:28:58.000Z</time>
      </trkpt>
      <trkpt lat="47.24162" lon="-2.2993">
        <ele>2.5999999046326</ele>
        <time>2022-02-06T08:29:04.000Z</time>
      </trkpt>
      <trkpt lat="47.24171" lon="-2.29909">
        <ele>2.5999999046326</ele>
        <time>2022-02-06T08:29:10.000Z</time>
      </trkpt>
      <trkpt lat="47.24175" lon="-2.29893">
        <ele>2.5999999046326</ele>
        <time>2022-02-06T08:29:16.000Z</time>
      </trkpt>
      <trkpt lat="47.24175" lon="-2.29886">
        <ele>2.5999999046326</ele>
        <time>2022-02-06T08:29:18.000Z</time>
      </trkpt>
      <trkpt lat="47.24173" lon="-2.29868">
        <ele>2.5999999046326</ele>
        <time>2022-02-06T08:29:22.000Z</time>
      </trkpt>
      <trkpt lat="47.24172" lon="-2.29843">
        <ele>2.5999999046326</ele>
        <time>2022-02-06T08:29:27.000Z</time>
      </trkpt>
      <trkpt lat="47.24164" lon="-2.29839">
        <ele>2.5999999046326</ele>
        <time>2022-02-06T08:29:30.000Z</time>
      </trkpt>
      <trkpt lat="47.24158" lon="-2.2984">
        <ele>2.5999999046326</ele>
        <time>2022-02-06T08:29:32.000Z</time>
      </trkpt>
      <trkpt lat="47.2415" lon="-2.29841">
        <ele>2.5999999046326</ele>
        <time>2022-02-06T08:29:35.000Z</time>
      </trkpt>
      <trkpt lat="47.24134" lon="-2.29845">
        <ele>2.5999999046326</ele>
        <time>2022-02-06T08:29:41.000Z</time>
      </trkpt>
      <trkpt lat="47.2411" lon="-2.29848">
        <ele>2.5999999046326</ele>
        <time>2022-02-06T08:29:49.000Z</time>
      </trkpt>
      <trkpt lat="47.24095" lon="-2.29848">
        <ele>2.5999999046326</ele>
        <time>2022-02-06T08:29:54.000Z</time>
      </trkpt>
      <trkpt lat="47.2408" lon="-2.2985">
        <ele>2.5999999046326</ele>
        <time>2022-02-06T08:30:00.000Z</time>
      </trkpt>
      <trkpt lat="47.24079" lon="-2.2986">
        <ele>2.5999999046326</ele>
        <time>2022-02-06T08:30:04.000Z</time>
      </trkpt>
      <trkpt lat="47.24079" lon="-2.29864">
        <ele>2.5999999046326</ele>
        <time>2022-02-06T08:30:05.000Z</time>
      </trkpt>
      <trkpt lat="47.24078" lon="-2.29892">
        <ele>2.5999999046326</ele>
        <time>2022-02-06T08:30:10.000Z</time>
      </trkpt>
      <trkpt lat="47.24074" lon="-2.29925">
        <ele>2.5999999046326</ele>
        <time>2022-02-06T08:30:15.000Z</time>
      </trkpt>
      <trkpt lat="47.24075" lon="-2.29945">
        <ele>2.5999999046326</ele>
        <time>2022-02-06T08:30:19.000Z</time>
      </trkpt>
      <trkpt lat="47.24075" lon="-2.29961">
        <ele>2.5999999046326</ele>
        <time>2022-02-06T08:30:24.000Z</time>
      </trkpt>
      <trkpt lat="47.24076" lon="-2.29967">
        <ele>2.5999999046326</ele>
        <time>2022-02-06T08:30:26.000Z</time>
      </trkpt>
      <trkpt lat="47.24082" lon="-2.29976">
        <ele>2.5999999046326</ele>
        <time>2022-02-06T08:30:30.000Z</time>
      </trkpt>
      <trkpt lat="47.24095" lon="-2.29982">
        <ele>2.5999999046326</ele>
        <time>2022-02-06T08:30:36.000Z</time>
      </trkpt>
      <trkpt lat="47.24116" lon="-2.29984">
        <ele>2.5999999046326</ele>
        <time>2022-02-06T08:30:41.000Z</time>
      </trkpt>
      <trkpt lat="47.24137" lon="-2.29982">
        <ele>2.5999999046326</ele>
        <time>2022-02-06T08:30:46.000Z</time>
      </trkpt>
      <trkpt lat="47.24158" lon="-2.29975">
        <ele>2.5999999046326</ele>
        <time>2022-02-06T08:30:52.000Z</time>
      </trkpt>
      <trkpt lat="47.24179" lon="-2.29971">
        <ele>2.5999999046326</ele>
        <time>2022-02-06T08:30:56.000Z</time>
      </trkpt>
      <trkpt lat="47.24189" lon="-2.29964">
        <ele>2.2000000476837</ele>
        <time>2022-02-06T08:30:58.000Z</time>
      </trkpt>
      <trkpt lat="47.24194" lon="-2.29961">
        <ele>1.6000000238419</ele>
        <time>2022-02-06T08:30:59.000Z</time>
      </trkpt>
      <trkpt lat="47.242" lon="-2.29958">
        <ele>1.2000000476837</ele>
        <time>2022-02-06T08:31:00.000Z</time>
      </trkpt>
      <trkpt lat="47.24204" lon="-2.29956">
        <ele>0.80000001192093</ele>
        <time>2022-02-06T08:31:01.000Z</time>
      </trkpt>
      <trkpt lat="47.24209" lon="-2.29954">
        <ele>0.40000000596046</ele>
        <time>2022-02-06T08:31:02.000Z</time>
      </trkpt>
      <trkpt lat="47.2423" lon="-2.29943">
        <ele>0.40000000596046</ele>
        <time>2022-02-06T08:31:06.000Z</time>
      </trkpt>
      <trkpt lat="47.24236" lon="-2.29939">
        <ele>0.40000000596046</ele>
        <time>2022-02-06T08:31:07.000Z</time>
      </trkpt>
      <trkpt lat="47.24244" lon="-2.29932">
        <ele>0.40000000596046</ele>
        <time>2022-02-06T08:31:08.000Z</time>
      </trkpt>
      <trkpt lat="47.24269" lon="-2.29913">
        <ele>0.40000000596046</ele>
        <time>2022-02-06T08:31:12.000Z</time>
      </trkpt>
      <trkpt lat="47.24296" lon="-2.29892">
        <ele>0.40000000596046</ele>
        <time>2022-02-06T08:31:17.000Z</time>
      </trkpt>
      <trkpt lat="47.24307" lon="-2.29882">
        <ele>0.40000000596046</ele>
        <time>2022-02-06T08:31:19.000Z</time>
      </trkpt>
      <trkpt lat="47.24313" lon="-2.29869">
        <ele>0.40000000596046</ele>
        <time>2022-02-06T08:31:21.000Z</time>
      </trkpt>
      <trkpt lat="47.24314" lon="-2.29838">
        <ele>0.40000000596046</ele>
        <time>2022-02-06T08:31:25.000Z</time>
      </trkpt>
      <trkpt lat="47.24317" lon="-2.29823">
        <ele>0.40000000596046</ele>
        <time>2022-02-06T08:31:27.000Z</time>
      </trkpt>
      <trkpt lat="47.24323" lon="-2.29813">
        <ele>0.40000000596046</ele>
        <time>2022-02-06T08:31:29.000Z</time>
      </trkpt>
      <trkpt lat="47.24343" lon="-2.29805">
        <ele>0.40000000596046</ele>
        <time>2022-02-06T08:31:33.000Z</time>
      </trkpt>
      <trkpt lat="47.24359" lon="-2.29792">
        <ele>0.40000000596046</ele>
        <time>2022-02-06T08:31:37.000Z</time>
      </trkpt>
      <trkpt lat="47.24365" lon="-2.29783">
        <ele>0.40000000596046</ele>
        <time>2022-02-06T08:31:39.000Z</time>
      </trkpt>
      <trkpt lat="47.24371" lon="-2.29771">
        <ele>0.40000000596046</ele>
        <time>2022-02-06T08:31:41.000Z</time>
      </trkpt>
      <trkpt lat="47.24374" lon="-2.29765">
        <ele>0.40000000596046</ele>
        <time>2022-02-06T08:31:42.000Z</time>
      </trkpt>
      <trkpt lat="47.2439" lon="-2.29724">
        <ele>0.40000000596046</ele>
        <time>2022-02-06T08:31:48.000Z</time>
      </trkpt>
      <trkpt lat="47.24395" lon="-2.29711">
        <ele>0.40000000596046</ele>
        <time>2022-02-06T08:31:50.000Z</time>
      </trkpt>
      <trkpt lat="47.24408" lon="-2.29698">
        <ele>0.40000000596046</ele>
        <time>2022-02-06T08:31:53.000Z</time>
      </trkpt>
      <trkpt lat="47.24413" lon="-2.29696">
        <ele>0.40000000596046</ele>
        <time>2022-02-06T08:31:54.000Z</time>
      </trkpt>
      <trkpt lat="47.24417" lon="-2.29694">
        <ele>0.40000000596046</ele>
        <time>2022-02-06T08:31:55.000Z</time>
      </trkpt>
      <trkpt lat="47.24431" lon="-2.29692">
        <ele>0.40000000596046</ele>
        <time>2022-02-06T08:31:58.000Z</time>
      </trkpt>
      <trkpt lat="47.2444" lon="-2.2971">
        <ele>0.40000000596046</ele>
        <time>2022-02-06T08:32:01.000Z</time>
      </trkpt>
      <trkpt lat="47.24443" lon="-2.29725">
        <ele>0.40000000596046</ele>
        <time>2022-02-06T08:32:03.000Z</time>
      </trkpt>
      <trkpt lat="47.24448" lon="-2.29737">
        <ele>0.40000000596046</ele>
        <time>2022-02-06T08:32:05.000Z</time>
      </trkpt>
      <trkpt lat="47.24457" lon="-2.29763">
        <ele>0.40000000596046</ele>
        <time>2022-02-06T08:32:09.000Z</time>
      </trkpt>
      <trkpt lat="47.24458" lon="-2.29769">
        <ele>0.40000000596046</ele>
        <time>2022-02-06T08:32:10.000Z</time>
      </trkpt>
      <trkpt lat="47.24464" lon="-2.29796">
        <ele>0.40000000596046</ele>
        <time>2022-02-06T08:32:14.000Z</time>
      </trkpt>
      <trkpt lat="47.24467" lon="-2.29803">
        <ele>0.40000000596046</ele>
        <time>2022-02-06T08:32:15.000Z</time>
      </trkpt>
      <trkpt lat="47.2447" lon="-2.29809">
        <ele>0.40000000596046</ele>
        <time>2022-02-06T08:32:16.000Z</time>
      </trkpt>
      <trkpt lat="47.24478" lon="-2.29825">
        <ele>0.40000000596046</ele>
        <time>2022-02-06T08:32:19.000Z</time>
      </trkpt>
      <trkpt lat="47.24486" lon="-2.29835">
        <ele>0.40000000596046</ele>
        <time>2022-02-06T08:32:21.000Z</time>
      </trkpt>
      <trkpt lat="47.24494" lon="-2.29844">
        <ele>0.40000000596046</ele>
        <time>2022-02-06T08:32:23.000Z</time>
      </trkpt>
      <trkpt lat="47.24504" lon="-2.29849">
        <ele>0.40000000596046</ele>
        <time>2022-02-06T08:32:25.000Z</time>
      </trkpt>
      <trkpt lat="47.24523" lon="-2.29861">
        <ele>0.40000000596046</ele>
        <time>2022-02-06T08:32:29.000Z</time>
      </trkpt>
      <trkpt lat="47.24528" lon="-2.29863">
        <ele>0.40000000596046</ele>
        <time>2022-02-06T08:32:30.000Z</time>
      </trkpt>
      <trkpt lat="47.24532" lon="-2.29865">
        <ele>0.80000001192093</ele>
        <time>2022-02-06T08:32:31.000Z</time>
      </trkpt>
      <trkpt lat="47.24537" lon="-2.29866">
        <ele>1.2000000476837</ele>
        <time>2022-02-06T08:32:32.000Z</time>
      </trkpt>
      <trkpt lat="47.24541" lon="-2.29867">
        <ele>1.6000000238419</ele>
        <time>2022-02-06T08:32:33.000Z</time>
      </trkpt>
      <trkpt lat="47.24546" lon="-2.29868">
        <ele>2</ele>
        <time>2022-02-06T08:32:34.000Z</time>
      </trkpt>
      <trkpt lat="47.2455" lon="-2.2987">
        <ele>2.4000000953674</ele>
        <time>2022-02-06T08:32:35.000Z</time>
      </trkpt>
      <trkpt lat="47.24555" lon="-2.29872">
        <ele>2.4000000953674</ele>
        <time>2022-02-06T08:32:36.000Z</time>
      </trkpt>
      <trkpt lat="47.24569" lon="-2.29891">
        <ele>2.4000000953674</ele>
        <time>2022-02-06T08:32:40.000Z</time>
      </trkpt>
      <trkpt lat="47.24575" lon="-2.29902">
        <ele>2.4000000953674</ele>
        <time>2022-02-06T08:32:42.000Z</time>
      </trkpt>
      <trkpt lat="47.24587" lon="-2.29926">
        <ele>2.4000000953674</ele>
        <time>2022-02-06T08:32:46.000Z</time>
      </trkpt>
      <trkpt lat="47.24602" lon="-2.29944">
        <ele>2.4000000953674</ele>
        <time>2022-02-06T08:32:50.000Z</time>
      </trkpt>
      <trkpt lat="47.24607" lon="-2.29945">
        <ele>2.4000000953674</ele>
        <time>2022-02-06T08:32:51.000Z</time>
      </trkpt>
      <trkpt lat="47.24623" lon="-2.29938">
        <ele>2.4000000953674</ele>
        <time>2022-02-06T08:32:54.000Z</time>
      </trkpt>
      <trkpt lat="47.24665" lon="-2.29921">
        <ele>2.4000000953674</ele>
        <time>2022-02-06T08:33:02.000Z</time>
      </trkpt>
      <trkpt lat="47.2468" lon="-2.29916">
        <ele>2.7999999523163</ele>
        <time>2022-02-06T08:33:05.000Z</time>
      </trkpt>
      <trkpt lat="47.24685" lon="-2.29914">
        <ele>3.2000000476837</ele>
        <time>2022-02-06T08:33:06.000Z</time>
      </trkpt>
      <trkpt lat="47.2469" lon="-2.29913">
        <ele>3.5999999046326</ele>
        <time>2022-02-06T08:33:07.000Z</time>
      </trkpt>
      <trkpt lat="47.24695" lon="-2.29913">
        <ele>4</ele>
        <time>2022-02-06T08:33:08.000Z</time>
      </trkpt>
      <trkpt lat="47.24699" lon="-2.29911">
        <ele>4.4000000953674</ele>
        <time>2022-02-06T08:33:09.000Z</time>
      </trkpt>
      <trkpt lat="47.24703" lon="-2.29911">
        <ele>4.4000000953674</ele>
        <time>2022-02-06T08:33:10.000Z</time>
      </trkpt>
      <trkpt lat="47.24707" lon="-2.2991">
        <ele>4.4000000953674</ele>
        <time>2022-02-06T08:33:11.000Z</time>
      </trkpt>
      <trkpt lat="47.24728" lon="-2.299">
        <ele>4.4000000953674</ele>
        <time>2022-02-06T08:33:16.000Z</time>
      </trkpt>
      <trkpt lat="47.24753" lon="-2.2989">
        <ele>4.4000000953674</ele>
        <time>2022-02-06T08:33:22.000Z</time>
      </trkpt>
      <trkpt lat="47.24756" lon="-2.29887">
        <ele>4.4000000953674</ele>
        <time>2022-02-06T08:33:23.000Z</time>
      </trkpt>
      <trkpt lat="47.24776" lon="-2.2987">
        <ele>4.4000000953674</ele>
        <time>2022-02-06T08:33:28.000Z</time>
      </trkpt>
      <trkpt lat="47.24785" lon="-2.29864">
        <ele>4.4000000953674</ele>
        <time>2022-02-06T08:33:30.000Z</time>
      </trkpt>
      <trkpt lat="47.24789" lon="-2.2986">
        <ele>4.8000001907349</ele>
        <time>2022-02-06T08:33:31.000Z</time>
      </trkpt>
      <trkpt lat="47.24794" lon="-2.29857">
        <ele>5.1999998092651</ele>
        <time>2022-02-06T08:33:32.000Z</time>
      </trkpt>
      <trkpt lat="47.24799" lon="-2.29855">
        <ele>5.5999999046326</ele>
        <time>2022-02-06T08:33:33.000Z</time>
      </trkpt>
      <trkpt lat="47.24804" lon="-2.29851">
        <ele>6</ele>
        <time>2022-02-06T08:33:34.000Z</time>
      </trkpt>
      <trkpt lat="47.24808" lon="-2.29849">
        <ele>6.4000000953674</ele>
        <time>2022-02-06T08:33:35.000Z</time>
      </trkpt>
      <trkpt lat="47.24813" lon="-2.29847">
        <ele>6.4000000953674</ele>
        <time>2022-02-06T08:33:36.000Z</time>
      </trkpt>
      <trkpt lat="47.24842" lon="-2.29841">
        <ele>6.4000000953674</ele>
        <time>2022-02-06T08:33:42.000Z</time>
      </trkpt>
      <trkpt lat="47.24846" lon="-2.29839">
        <ele>6.4000000953674</ele>
        <time>2022-02-06T08:33:43.000Z</time>
      </trkpt>
      <trkpt lat="47.24861" lon="-2.29829">
        <ele>6.4000000953674</ele>
        <time>2022-02-06T08:33:47.000Z</time>
      </trkpt>
      <trkpt lat="47.24864" lon="-2.29831">
        <ele>6.4000000953674</ele>
        <time>2022-02-06T08:33:48.000Z</time>
      </trkpt>
      <trkpt lat="47.24869" lon="-2.29839">
        <ele>6.4000000953674</ele>
        <time>2022-02-06T08:33:50.000Z</time>
      </trkpt>
      <trkpt lat="47.24872" lon="-2.29859">
        <ele>6.4000000953674</ele>
        <time>2022-02-06T08:33:53.000Z</time>
      </trkpt>
      <trkpt lat="47.24873" lon="-2.29866">
        <ele>6.4000000953674</ele>
        <time>2022-02-06T08:33:54.000Z</time>
      </trkpt>
      <trkpt lat="47.24879" lon="-2.29897">
        <ele>6.4000000953674</ele>
        <time>2022-02-06T08:33:58.000Z</time>
      </trkpt>
      <trkpt lat="47.2488" lon="-2.29906">
        <ele>6.4000000953674</ele>
        <time>2022-02-06T08:33:59.000Z</time>
      </trkpt>
      <trkpt lat="47.24886" lon="-2.29952">
        <ele>6.4000000953674</ele>
        <time>2022-02-06T08:34:04.000Z</time>
      </trkpt>
      <trkpt lat="47.24889" lon="-2.2996">
        <ele>6.4000000953674</ele>
        <time>2022-02-06T08:34:05.000Z</time>
      </trkpt>
      <trkpt lat="47.24902" lon="-2.30021">
        <ele>6.4000000953674</ele>
        <time>2022-02-06T08:34:12.000Z</time>
      </trkpt>
      <trkpt lat="47.24904" lon="-2.30043">
        <ele>6.4000000953674</ele>
        <time>2022-02-06T08:34:15.000Z</time>
      </trkpt>
      <trkpt lat="47.24904" lon="-2.30053">
        <ele>6.4000000953674</ele>
        <time>2022-02-06T08:34:17.000Z</time>
      </trkpt>
      <trkpt lat="47.24913" lon="-2.30058">
        <ele>6.4000000953674</ele>
        <time>2022-02-06T08:34:20.000Z</time>
      </trkpt>
      <trkpt lat="47.24921" lon="-2.30057">
        <ele>6.4000000953674</ele>
        <time>2022-02-06T08:34:22.000Z</time>
      </trkpt>
      <trkpt lat="47.24935" lon="-2.30057">
        <ele>6.4000000953674</ele>
        <time>2022-02-06T08:34:25.000Z</time>
      </trkpt>
      <trkpt lat="47.24976" lon="-2.30056">
        <ele>6.4000000953674</ele>
        <time>2022-02-06T08:34:33.000Z</time>
      </trkpt>
      <trkpt lat="47.25005" lon="-2.30051">
        <ele>6.4000000953674</ele>
        <time>2022-02-06T08:34:39.000Z</time>
      </trkpt>
      <trkpt lat="47.25036" lon="-2.30052">
        <ele>6.4000000953674</ele>
        <time>2022-02-06T08:34:45.000Z</time>
      </trkpt>
      <trkpt lat="47.25045" lon="-2.30054">
        <ele>6</ele>
        <time>2022-02-06T08:34:47.000Z</time>
      </trkpt>
      <trkpt lat="47.25051" lon="-2.30054">
        <ele>5.5999999046326</ele>
        <time>2022-02-06T08:34:48.000Z</time>
      </trkpt>
      <trkpt lat="47.25056" lon="-2.30055">
        <ele>5.1999998092651</ele>
        <time>2022-02-06T08:34:49.000Z</time>
      </trkpt>
      <trkpt lat="47.25061" lon="-2.30055">
        <ele>4.5999999046326</ele>
        <time>2022-02-06T08:34:50.000Z</time>
      </trkpt>
      <trkpt lat="47.25066" lon="-2.30055">
        <ele>4.1999998092651</ele>
        <time>2022-02-06T08:34:51.000Z</time>
      </trkpt>
      <trkpt lat="47.25073" lon="-2.30061">
        <ele>4.1999998092651</ele>
        <time>2022-02-06T08:34:53.000Z</time>
      </trkpt>
      <trkpt lat="47.25071" lon="-2.30073">
        <ele>4.1999998092651</ele>
        <time>2022-02-06T08:34:55.000Z</time>
      </trkpt>
      <trkpt lat="47.2507" lon="-2.30086">
        <ele>4.1999998092651</ele>
        <time>2022-02-06T08:34:57.000Z</time>
      </trkpt>
      <trkpt lat="47.25068" lon="-2.3011">
        <ele>4.1999998092651</ele>
        <time>2022-02-06T08:35:00.000Z</time>
      </trkpt>
      <trkpt lat="47.25068" lon="-2.30132">
        <ele>4.1999998092651</ele>
        <time>2022-02-06T08:35:03.000Z</time>
      </trkpt>
      <trkpt lat="47.25076" lon="-2.30137">
        <ele>4.1999998092651</ele>
        <time>2022-02-06T08:35:05.000Z</time>
      </trkpt>
      <trkpt lat="47.2509" lon="-2.30136">
        <ele>4.1999998092651</ele>
        <time>2022-02-06T08:35:08.000Z</time>
      </trkpt>
      <trkpt lat="47.25095" lon="-2.30135">
        <ele>4.1999998092651</ele>
        <time>2022-02-06T08:35:09.000Z</time>
      </trkpt>
      <trkpt lat="47.251" lon="-2.30133">
        <ele>4.1999998092651</ele>
        <time>2022-02-06T08:35:10.000Z</time>
      </trkpt>
      <trkpt lat="47.25123" lon="-2.30128">
        <ele>4.1999998092651</ele>
        <time>2022-02-06T08:35:14.000Z</time>
      </trkpt>
      <trkpt lat="47.25147" lon="-2.30124">
        <ele>3.7999999523163</ele>
        <time>2022-02-06T08:35:18.000Z</time>
      </trkpt>
      <trkpt lat="47.25153" lon="-2.30122">
        <ele>3.4000000953674</ele>
        <time>2022-02-06T08:35:19.000Z</time>
      </trkpt>
      <trkpt lat="47.2516" lon="-2.3012">
        <ele>3</ele>
        <time>2022-02-06T08:35:20.000Z</time>
      </trkpt>
      <trkpt lat="47.25166" lon="-2.30118">
        <ele>2.5999999046326</ele>
        <time>2022-02-06T08:35:21.000Z</time>
      </trkpt>
      <trkpt lat="47.25174" lon="-2.30116">
        <ele>2.2000000476837</ele>
        <time>2022-02-06T08:35:22.000Z</time>
      </trkpt>
      <trkpt lat="47.25185" lon="-2.30119">
        <ele>2.2000000476837</ele>
        <time>2022-02-06T08:35:24.000Z</time>
      </trkpt>
      <trkpt lat="47.25193" lon="-2.30133">
        <ele>2.2000000476837</ele>
        <time>2022-02-06T08:35:26.000Z</time>
      </trkpt>
      <trkpt lat="47.25198" lon="-2.30139">
        <ele>2.2000000476837</ele>
        <time>2022-02-06T08:35:27.000Z</time>
      </trkpt>
      <trkpt lat="47.25203" lon="-2.30145">
        <ele>1.6000000238419</ele>
        <time>2022-02-06T08:35:28.000Z</time>
      </trkpt>
      <trkpt lat="47.25208" lon="-2.30152">
        <ele>1.2000000476837</ele>
        <time>2022-02-06T08:35:29.000Z</time>
      </trkpt>
      <trkpt lat="47.25214" lon="-2.30158">
        <ele>0.80000001192093</ele>
        <time>2022-02-06T08:35:30.000Z</time>
      </trkpt>
      <trkpt lat="47.25218" lon="-2.30163">
        <ele>0.40000000596046</ele>
        <time>2022-02-06T08:35:31.000Z</time>
      </trkpt>
      <trkpt lat="47.25224" lon="-2.30168">
        <ele>32</ele>
        <time>2022-02-06T08:35:32.000Z</time>
      </trkpt>
      <trkpt lat="47.25234" lon="-2.30175">
        <ele>-0.40000000596046</ele>
        <time>2022-02-06T08:35:34.000Z</time>
      </trkpt>
      <trkpt lat="47.2524" lon="-2.30176">
        <ele>-1</ele>
        <time>2022-02-06T08:35:35.000Z</time>
      </trkpt>
      <trkpt lat="47.25244" lon="-2.30179">
        <ele>-1.6000000238419</ele>
        <time>2022-02-06T08:35:36.000Z</time>
      </trkpt>
      <trkpt lat="47.2525" lon="-2.30182">
        <ele>-2</ele>
        <time>2022-02-06T08:35:37.000Z</time>
      </trkpt>
      <trkpt lat="47.25255" lon="-2.30185">
        <ele>-2.5999999046326</ele>
        <time>2022-02-06T08:35:38.000Z</time>
      </trkpt>
      <trkpt lat="47.25281" lon="-2.30198">
        <ele>-2.5999999046326</ele>
        <time>2022-02-06T08:35:43.000Z</time>
      </trkpt>
      <trkpt lat="47.253" lon="-2.30207">
        <ele>-2.5999999046326</ele>
        <time>2022-02-06T08:35:47.000Z</time>
      </trkpt>
      <trkpt lat="47.25302" lon="-2.30207">
        <ele>-2.5999999046326</ele>
        <time>2022-02-06T08:35:48.000Z</time>
      </trkpt>
      <trkpt lat="47.25304" lon="-2.30206">
        <ele>-3</ele>
        <time>2022-02-06T08:35:49.000Z</time>
      </trkpt>
      <trkpt lat="47.25305" lon="-2.30203">
        <ele>-3.4000000953674</ele>
        <time>2022-02-06T08:35:50.000Z</time>
      </trkpt>
      <trkpt lat="47.25307" lon="-2.30202">
        <ele>-3.7999999523163</ele>
        <time>2022-02-06T08:35:51.000Z</time>
      </trkpt>
      <trkpt lat="47.2531" lon="-2.30202">
        <ele>-4.5999999046326</ele>
        <time>2022-02-06T08:35:52.000Z</time>
      </trkpt>
      <trkpt lat="47.25319" lon="-2.30205">
        <ele>-4.5999999046326</ele>
        <time>2022-02-06T08:35:54.000Z</time>
      </trkpt>
      <trkpt lat="47.25324" lon="-2.30205">
        <ele>-4.5999999046326</ele>
        <time>2022-02-06T08:35:55.000Z</time>
      </trkpt>
      <trkpt lat="47.25345" lon="-2.30207">
        <ele>-4.5999999046326</ele>
        <time>2022-02-06T08:35:59.000Z</time>
      </trkpt>
      <trkpt lat="47.25371" lon="-2.3021">
        <ele>-4.5999999046326</ele>
        <time>2022-02-06T08:36:04.000Z</time>
      </trkpt>
      <trkpt lat="47.25386" lon="-2.30216">
        <ele>-4.5999999046326</ele>
        <time>2022-02-06T08:36:08.000Z</time>
      </trkpt>
      <trkpt lat="47.25397" lon="-2.30223">
        <ele>-5</ele>
        <time>2022-02-06T08:36:11.000Z</time>
      </trkpt>
      <trkpt lat="47.25401" lon="-2.30225">
        <ele>-5.4000000953674</ele>
        <time>2022-02-06T08:36:12.000Z</time>
      </trkpt>
      <trkpt lat="47.25406" lon="-2.30227">
        <ele>-5.8000001907349</ele>
        <time>2022-02-06T08:36:13.000Z</time>
      </trkpt>
      <trkpt lat="47.25412" lon="-2.30228">
        <ele>-6.1999998092651</ele>
        <time>2022-02-06T08:36:14.000Z</time>
      </trkpt>
      <trkpt lat="47.25418" lon="-2.3023">
        <ele>-6.5999999046326</ele>
        <time>2022-02-06T08:36:15.000Z</time>
      </trkpt>
      <trkpt lat="47.25443" lon="-2.30237">
        <ele>-6.5999999046326</ele>
        <time>2022-02-06T08:36:20.000Z</time>
      </trkpt>
      <trkpt lat="47.25458" lon="-2.30242">
        <ele>-6.5999999046326</ele>
        <time>2022-02-06T08:36:23.000Z</time>
      </trkpt>
      <trkpt lat="47.25466" lon="-2.30246">
        <ele>-6.5999999046326</ele>
        <time>2022-02-06T08:36:25.000Z</time>
      </trkpt>
      <trkpt lat="47.25469" lon="-2.30246">
        <ele>-7</ele>
        <time>2022-02-06T08:36:26.000Z</time>
      </trkpt>
      <trkpt lat="47.25472" lon="-2.30245">
        <ele>-7.4000000953674</ele>
        <time>2022-02-06T08:36:27.000Z</time>
      </trkpt>
      <trkpt lat="47.25474" lon="-2.30241">
        <ele>-7.8000001907349</ele>
        <time>2022-02-06T08:36:28.000Z</time>
      </trkpt>
      <trkpt lat="47.25475" lon="-2.30237">
        <ele>-8.1999998092651</ele>
        <time>2022-02-06T08:36:29.000Z</time>
      </trkpt>
      <trkpt lat="47.25476" lon="-2.30231">
        <ele>-8.6000003814697</ele>
        <time>2022-02-06T08:36:30.000Z</time>
      </trkpt>
      <trkpt lat="47.25481" lon="-2.3022">
        <ele>-8.6000003814697</ele>
        <time>2022-02-06T08:36:32.000Z</time>
      </trkpt>
      <trkpt lat="47.25497" lon="-2.302">
        <ele>-8.6000003814697</ele>
        <time>2022-02-06T08:36:37.000Z</time>
      </trkpt>
      <trkpt lat="47.25518" lon="-2.30199">
        <ele>-8.6000003814697</ele>
        <time>2022-02-06T08:36:42.000Z</time>
      </trkpt>
      <trkpt lat="47.25523" lon="-2.30198">
        <ele>-8.6000003814697</ele>
        <time>2022-02-06T08:36:43.000Z</time>
      </trkpt>
      <trkpt lat="47.25532" lon="-2.30194">
        <ele>-8.6000003814697</ele>
        <time>2022-02-06T08:36:45.000Z</time>
      </trkpt>
      <trkpt lat="47.25547" lon="-2.30186">
        <ele>-8.6000003814697</ele>
        <time>2022-02-06T08:36:48.000Z</time>
      </trkpt>
      <trkpt lat="47.25565" lon="-2.30188">
        <ele>-8.6000003814697</ele>
        <time>2022-02-06T08:36:51.000Z</time>
      </trkpt>
      <trkpt lat="47.25577" lon="-2.30196">
        <ele>-8.6000003814697</ele>
        <time>2022-02-06T08:36:53.000Z</time>
      </trkpt>
      <trkpt lat="47.25591" lon="-2.30208">
        <ele>-8.6000003814697</ele>
        <time>2022-02-06T08:36:55.000Z</time>
      </trkpt>
      <trkpt lat="47.25597" lon="-2.30215">
        <ele>-8.6000003814697</ele>
        <time>2022-02-06T08:36:56.000Z</time>
      </trkpt>
      <trkpt lat="47.25609" lon="-2.30236">
        <ele>-8.6000003814697</ele>
        <time>2022-02-06T08:36:59.000Z</time>
      </trkpt>
      <trkpt lat="47.25612" lon="-2.30243">
        <ele>-8.6000003814697</ele>
        <time>2022-02-06T08:37:00.000Z</time>
      </trkpt>
      <trkpt lat="47.25614" lon="-2.30251">
        <ele>-9.1999998092651</ele>
        <time>2022-02-06T08:37:01.000Z</time>
      </trkpt>
      <trkpt lat="47.25616" lon="-2.30258">
        <ele>-9.6000003814697</ele>
        <time>2022-02-06T08:37:02.000Z</time>
      </trkpt>
      <trkpt lat="47.25618" lon="-2.30265">
        <ele>-10</ele>
        <time>2022-02-06T08:37:03.000Z</time>
      </trkpt>
      <trkpt lat="47.25619" lon="-2.30272">
        <ele>-10.39999961853</ele>
        <time>2022-02-06T08:37:04.000Z</time>
      </trkpt>
      <trkpt lat="47.25621" lon="-2.30278">
        <ele>-11</ele>
        <time>2022-02-06T08:37:05.000Z</time>
      </trkpt>
      <trkpt lat="47.25626" lon="-2.30317">
        <ele>-11</ele>
        <time>2022-02-06T08:37:11.000Z</time>
      </trkpt>
      <trkpt lat="47.25628" lon="-2.3033">
        <ele>-11</ele>
        <time>2022-02-06T08:37:13.000Z</time>
      </trkpt>
      <trkpt lat="47.25632" lon="-2.30339">
        <ele>-11</ele>
        <time>2022-02-06T08:37:15.000Z</time>
      </trkpt>
      <trkpt lat="47.25639" lon="-2.30333">
        <ele>-11</ele>
        <time>2022-02-06T08:37:18.000Z</time>
      </trkpt>
      <trkpt lat="47.25642" lon="-2.30329">
        <ele>-11</ele>
        <time>2022-02-06T08:37:19.000Z</time>
      </trkpt>
      <trkpt lat="47.2565" lon="-2.30313">
        <ele>-11</ele>
        <time>2022-02-06T08:37:22.000Z</time>
      </trkpt>
      <trkpt lat="47.25654" lon="-2.30291">
        <ele>-11</ele>
        <time>2022-02-06T08:37:26.000Z</time>
      </trkpt>
      <trkpt lat="47.25656" lon="-2.30278">
        <ele>-11</ele>
        <time>2022-02-06T08:37:29.000Z</time>
      </trkpt>
      <trkpt lat="47.25658" lon="-2.30275">
        <ele>-11</ele>
        <time>2022-02-06T08:37:30.000Z</time>
      </trkpt>
      <trkpt lat="47.25671" lon="-2.30253">
        <ele>-11</ele>
        <time>2022-02-06T08:37:34.000Z</time>
      </trkpt>
      <trkpt lat="47.25674" lon="-2.30246">
        <ele>-11</ele>
        <time>2022-02-06T08:37:35.000Z</time>
      </trkpt>
      <trkpt lat="47.25677" lon="-2.30238">
        <ele>-11</ele>
        <time>2022-02-06T08:37:36.000Z</time>
      </trkpt>
      <trkpt lat="47.25686" lon="-2.30224">
        <ele>-11.39999961853</ele>
        <time>2022-02-06T08:37:38.000Z</time>
      </trkpt>
      <trkpt lat="47.25691" lon="-2.30218">
        <ele>-11.800000190735</ele>
        <time>2022-02-06T08:37:39.000Z</time>
      </trkpt>
      <trkpt lat="47.25697" lon="-2.30213">
        <ele>-12.199999809265</ele>
        <time>2022-02-06T08:37:40.000Z</time>
      </trkpt>
      <trkpt lat="47.25704" lon="-2.3021">
        <ele>-12.60000038147</ele>
        <time>2022-02-06T08:37:41.000Z</time>
      </trkpt>
      <trkpt lat="47.25711" lon="-2.30208">
        <ele>-13</ele>
        <time>2022-02-06T08:37:42.000Z</time>
      </trkpt>
      <trkpt lat="47.25732" lon="-2.30213">
        <ele>-13</ele>
        <time>2022-02-06T08:37:45.000Z</time>
      </trkpt>
      <trkpt lat="47.25739" lon="-2.30216">
        <ele>-13</ele>
        <time>2022-02-06T08:37:46.000Z</time>
      </trkpt>
      <trkpt lat="47.25779" lon="-2.30234">
        <ele>-13</ele>
        <time>2022-02-06T08:37:52.000Z</time>
      </trkpt>
      <trkpt lat="47.25797" lon="-2.30244">
        <ele>-13.39999961853</ele>
        <time>2022-02-06T08:37:55.000Z</time>
      </trkpt>
      <trkpt lat="47.25803" lon="-2.30247">
        <ele>-14</ele>
        <time>2022-02-06T08:37:56.000Z</time>
      </trkpt>
      <trkpt lat="47.25809" lon="-2.3025">
        <ele>-14.39999961853</ele>
        <time>2022-02-06T08:37:57.000Z</time>
      </trkpt>
      <trkpt lat="47.25815" lon="-2.30253">
        <ele>-15</ele>
        <time>2022-02-06T08:37:58.000Z</time>
      </trkpt>
      <trkpt lat="47.25821" lon="-2.30256">
        <ele>-15.39999961853</ele>
        <time>2022-02-06T08:37:59.000Z</time>
      </trkpt>
      <trkpt lat="47.25847" lon="-2.30265">
        <ele>-15.39999961853</ele>
        <time>2022-02-06T08:38:04.000Z</time>
      </trkpt>
      <trkpt lat="47.25861" lon="-2.30271">
        <ele>-15.39999961853</ele>
        <time>2022-02-06T08:38:07.000Z</time>
      </trkpt>
      <trkpt lat="47.2587" lon="-2.30268">
        <ele>-15.39999961853</ele>
        <time>2022-02-06T08:38:09.000Z</time>
      </trkpt>
      <trkpt lat="47.25878" lon="-2.3026">
        <ele>-15.39999961853</ele>
        <time>2022-02-06T08:38:11.000Z</time>
      </trkpt>
      <trkpt lat="47.25882" lon="-2.30255">
        <ele>-15.39999961853</ele>
        <time>2022-02-06T08:38:12.000Z</time>
      </trkpt>
      <trkpt lat="47.25886" lon="-2.30249">
        <ele>-15.39999961853</ele>
        <time>2022-02-06T08:38:13.000Z</time>
      </trkpt>
      <trkpt lat="47.25891" lon="-2.30227">
        <ele>-15.39999961853</ele>
        <time>2022-02-06T08:38:16.000Z</time>
      </trkpt>
      <trkpt lat="47.2589" lon="-2.30204">
        <ele>-15.39999961853</ele>
        <time>2022-02-06T08:38:19.000Z</time>
      </trkpt>
      <trkpt lat="47.25889" lon="-2.30196">
        <ele>-15.39999961853</ele>
        <time>2022-02-06T08:38:20.000Z</time>
      </trkpt>
      <trkpt lat="47.2589" lon="-2.30189">
        <ele>-15.39999961853</ele>
        <time>2022-02-06T08:38:21.000Z</time>
      </trkpt>
      <trkpt lat="47.25902" lon="-2.30175">
        <ele>-15.39999961853</ele>
        <time>2022-02-06T08:38:24.000Z</time>
      </trkpt>
      <trkpt lat="47.25919" lon="-2.3017">
        <ele>-15.39999961853</ele>
        <time>2022-02-06T08:38:27.000Z</time>
      </trkpt>
      <trkpt lat="47.25932" lon="-2.30166">
        <ele>-15.39999961853</ele>
        <time>2022-02-06T08:38:29.000Z</time>
      </trkpt>
      <trkpt lat="47.25945" lon="-2.30161">
        <ele>-15.39999961853</ele>
        <time>2022-02-06T08:38:31.000Z</time>
      </trkpt>
      <trkpt lat="47.25956" lon="-2.30152">
        <ele>-15.39999961853</ele>
        <time>2022-02-06T08:38:33.000Z</time>
      </trkpt>
      <trkpt lat="47.25965" lon="-2.30139">
        <ele>-15.39999961853</ele>
        <time>2022-02-06T08:38:35.000Z</time>
      </trkpt>
      <trkpt lat="47.25969" lon="-2.30133">
        <ele>-15.39999961853</ele>
        <time>2022-02-06T08:38:36.000Z</time>
      </trkpt>
      <trkpt lat="47.25974" lon="-2.30131">
        <ele>-15.39999961853</ele>
        <time>2022-02-06T08:38:37.000Z</time>
      </trkpt>
      <trkpt lat="47.25984" lon="-2.30129">
        <ele>-15.39999961853</ele>
        <time>2022-02-06T08:38:40.000Z</time>
      </trkpt>
      <trkpt lat="47.25994" lon="-2.30127">
        <ele>-15.39999961853</ele>
        <time>2022-02-06T08:38:43.000Z</time>
      </trkpt>
      <trkpt lat="47.25997" lon="-2.30127">
        <ele>-15.39999961853</ele>
        <time>2022-02-06T08:38:44.000Z</time>
      </trkpt>
      <trkpt lat="47.26012" lon="-2.30125">
        <ele>-15.39999961853</ele>
        <time>2022-02-06T08:38:49.000Z</time>
      </trkpt>
      <trkpt lat="47.2603" lon="-2.30129">
        <ele>-15.39999961853</ele>
        <time>2022-02-06T08:38:55.000Z</time>
      </trkpt>
      <trkpt lat="47.26038" lon="-2.30128">
        <ele>-15</ele>
        <time>2022-02-06T08:38:57.000Z</time>
      </trkpt>
      <trkpt lat="47.26042" lon="-2.30128">
        <ele>-14.60000038147</ele>
        <time>2022-02-06T08:38:58.000Z</time>
      </trkpt>
      <trkpt lat="47.26046" lon="-2.30131">
        <ele>-14.199999809265</ele>
        <time>2022-02-06T08:38:59.000Z</time>
      </trkpt>
      <trkpt lat="47.26049" lon="-2.30134">
        <ele>-13.800000190735</ele>
        <time>2022-02-06T08:39:00.000Z</time>
      </trkpt>
      <trkpt lat="47.26052" lon="-2.30137">
        <ele>-13.199999809265</ele>
        <time>2022-02-06T08:39:01.000Z</time>
      </trkpt>
      <trkpt lat="47.26056" lon="-2.30141">
        <ele>-13.199999809265</ele>
        <time>2022-02-06T08:39:02.000Z</time>
      </trkpt>
      <trkpt lat="47.26063" lon="-2.30145">
        <ele>-13.199999809265</ele>
        <time>2022-02-06T08:39:04.000Z</time>
      </trkpt>
      <trkpt lat="47.26077" lon="-2.30145">
        <ele>-13.199999809265</ele>
        <time>2022-02-06T08:39:08.000Z</time>
      </trkpt>
      <trkpt lat="47.26081" lon="-2.30145">
        <ele>-12.800000190735</ele>
        <time>2022-02-06T08:39:09.000Z</time>
      </trkpt>
      <trkpt lat="47.26083" lon="-2.30146">
        <ele>-11.800000190735</ele>
        <time>2022-02-06T08:39:10.000Z</time>
      </trkpt>
      <trkpt lat="47.26086" lon="-2.30148">
        <ele>-11.39999961853</ele>
        <time>2022-02-06T08:39:11.000Z</time>
      </trkpt>
      <trkpt lat="47.26088" lon="-2.3015">
        <ele>-11</ele>
        <time>2022-02-06T08:39:12.000Z</time>
      </trkpt>
      <trkpt lat="47.26091" lon="-2.30154">
        <ele>-11</ele>
        <time>2022-02-06T08:39:13.000Z</time>
      </trkpt>
      <trkpt lat="47.26102" lon="-2.30156">
        <ele>-11</ele>
        <time>2022-02-06T08:39:16.000Z</time>
      </trkpt>
      <trkpt lat="47.26129" lon="-2.30152">
        <ele>-10.60000038147</ele>
        <time>2022-02-06T08:39:22.000Z</time>
      </trkpt>
      <trkpt lat="47.26133" lon="-2.30151">
        <ele>-10.199999809265</ele>
        <time>2022-02-06T08:39:23.000Z</time>
      </trkpt>
      <trkpt lat="47.26137" lon="-2.3015">
        <ele>-9.8000001907349</ele>
        <time>2022-02-06T08:39:24.000Z</time>
      </trkpt>
      <trkpt lat="47.2614" lon="-2.30149">
        <ele>-9.1999998092651</ele>
        <time>2022-02-06T08:39:25.000Z</time>
      </trkpt>
      <trkpt lat="47.26144" lon="-2.30149">
        <ele>-8.8000001907349</ele>
        <time>2022-02-06T08:39:26.000Z</time>
      </trkpt>
      <trkpt lat="47.26151" lon="-2.30147">
        <ele>-8.8000001907349</ele>
        <time>2022-02-06T08:39:28.000Z</time>
      </trkpt>
      <trkpt lat="47.26159" lon="-2.30146">
        <ele>-8.3999996185303</ele>
        <time>2022-02-06T08:39:30.000Z</time>
      </trkpt>
      <trkpt lat="47.26162" lon="-2.30145">
        <ele>-8</ele>
        <time>2022-02-06T08:39:31.000Z</time>
      </trkpt>
      <trkpt lat="47.26164" lon="-2.30145">
        <ele>-7.5999999046326</ele>
        <time>2022-02-06T08:39:32.000Z</time>
      </trkpt>
      <trkpt lat="47.26167" lon="-2.30145">
        <ele>-7.1999998092651</ele>
        <time>2022-02-06T08:39:33.000Z</time>
      </trkpt>
      <trkpt lat="47.26169" lon="-2.30147">
        <ele>-6.8000001907349</ele>
        <time>2022-02-06T08:39:34.000Z</time>
      </trkpt>
      <trkpt lat="47.26173" lon="-2.30152">
        <ele>-6.8000001907349</ele>
        <time>2022-02-06T08:39:36.000Z</time>
      </trkpt>
      <trkpt lat="47.2618" lon="-2.3015">
        <ele>-6.8000001907349</ele>
        <time>2022-02-06T08:39:38.000Z</time>
      </trkpt>
      <trkpt lat="47.26187" lon="-2.30147">
        <ele>-6.8000001907349</ele>
        <time>2022-02-06T08:39:40.000Z</time>
      </trkpt>
      <trkpt lat="47.26201" lon="-2.30143">
        <ele>-6.4000000953674</ele>
        <time>2022-02-06T08:39:44.000Z</time>
      </trkpt>
      <trkpt lat="47.26205" lon="-2.30141">
        <ele>-6</ele>
        <time>2022-02-06T08:39:45.000Z</time>
      </trkpt>
      <trkpt lat="47.26209" lon="-2.3014">
        <ele>-5.5999999046326</ele>
        <time>2022-02-06T08:39:46.000Z</time>
      </trkpt>
      <trkpt lat="47.26213" lon="-2.30139">
        <ele>-5.1999998092651</ele>
        <time>2022-02-06T08:39:47.000Z</time>
      </trkpt>
      <trkpt lat="47.26217" lon="-2.30138">
        <ele>-4.8000001907349</ele>
        <time>2022-02-06T08:39:48.000Z</time>
      </trkpt>
      <trkpt lat="47.26243" lon="-2.30132">
        <ele>-4.8000001907349</ele>
        <time>2022-02-06T08:39:55.000Z</time>
      </trkpt>
      <trkpt lat="47.26246" lon="-2.30134">
        <ele>-4.8000001907349</ele>
        <time>2022-02-06T08:39:56.000Z</time>
      </trkpt>
      <trkpt lat="47.2625" lon="-2.30142">
        <ele>-4.8000001907349</ele>
        <time>2022-02-06T08:39:58.000Z</time>
      </trkpt>
      <trkpt lat="47.2626" lon="-2.30165">
        <ele>-4.8000001907349</ele>
        <time>2022-02-06T08:40:02.000Z</time>
      </trkpt>
      <trkpt lat="47.26262" lon="-2.30171">
        <ele>-4.8000001907349</ele>
        <time>2022-02-06T08:40:03.000Z</time>
      </trkpt>
      <trkpt lat="47.26266" lon="-2.30186">
        <ele>-4.8000001907349</ele>
        <time>2022-02-06T08:40:05.000Z</time>
      </trkpt>
      <trkpt lat="47.26269" lon="-2.30211">
        <ele>-4.8000001907349</ele>
        <time>2022-02-06T08:40:08.000Z</time>
      </trkpt>
      <trkpt lat="47.2628" lon="-2.30271">
        <ele>-4.8000001907349</ele>
        <time>2022-02-06T08:40:15.000Z</time>
      </trkpt>
      <trkpt lat="47.26283" lon="-2.30287">
        <ele>-4.8000001907349</ele>
        <time>2022-02-06T08:40:17.000Z</time>
      </trkpt>
      <trkpt lat="47.26291" lon="-2.30311">
        <ele>-4.8000001907349</ele>
        <time>2022-02-06T08:40:20.000Z</time>
      </trkpt>
      <trkpt lat="47.26294" lon="-2.30318">
        <ele>-4.8000001907349</ele>
        <time>2022-02-06T08:40:21.000Z</time>
      </trkpt>
      <trkpt lat="47.263" lon="-2.3034">
        <ele>-4.8000001907349</ele>
        <time>2022-02-06T08:40:24.000Z</time>
      </trkpt>
      <trkpt lat="47.26303" lon="-2.30355">
        <ele>-4.8000001907349</ele>
        <time>2022-02-06T08:40:26.000Z</time>
      </trkpt>
      <trkpt lat="47.26305" lon="-2.3037">
        <ele>-4.8000001907349</ele>
        <time>2022-02-06T08:40:28.000Z</time>
      </trkpt>
      <trkpt lat="47.26311" lon="-2.30401">
        <ele>-4.8000001907349</ele>
        <time>2022-02-06T08:40:32.000Z</time>
      </trkpt>
      <trkpt lat="47.26318" lon="-2.30438">
        <ele>-4.8000001907349</ele>
        <time>2022-02-06T08:40:37.000Z</time>
      </trkpt>
      <trkpt lat="47.2632" lon="-2.30453">
        <ele>-4.8000001907349</ele>
        <time>2022-02-06T08:40:39.000Z</time>
      </trkpt>
      <trkpt lat="47.26328" lon="-2.30498">
        <ele>-4.8000001907349</ele>
        <time>2022-02-06T08:40:45.000Z</time>
      </trkpt>
      <trkpt lat="47.26332" lon="-2.30518">
        <ele>-4.8000001907349</ele>
        <time>2022-02-06T08:40:48.000Z</time>
      </trkpt>
      <trkpt lat="47.26337" lon="-2.30538">
        <ele>-4.8000001907349</ele>
        <time>2022-02-06T08:40:51.000Z</time>
      </trkpt>
      <trkpt lat="47.26338" lon="-2.30545">
        <ele>-4.8000001907349</ele>
        <time>2022-02-06T08:40:52.000Z</time>
      </trkpt>
      <trkpt lat="47.26341" lon="-2.30572">
        <ele>-5.1999998092651</ele>
        <time>2022-02-06T08:40:57.000Z</time>
      </trkpt>
      <trkpt lat="47.26342" lon="-2.30576">
        <ele>-5.5999999046326</ele>
        <time>2022-02-06T08:40:58.000Z</time>
      </trkpt>
      <trkpt lat="47.26343" lon="-2.30581">
        <ele>-6.1999998092651</ele>
        <time>2022-02-06T08:40:59.000Z</time>
      </trkpt>
      <trkpt lat="47.26344" lon="-2.30587">
        <ele>-6.5999999046326</ele>
        <time>2022-02-06T08:41:00.000Z</time>
      </trkpt>
      <trkpt lat="47.26346" lon="-2.30593">
        <ele>-7</ele>
        <time>2022-02-06T08:41:01.000Z</time>
      </trkpt>
      <trkpt lat="47.26348" lon="-2.30598">
        <ele>-7</ele>
        <time>2022-02-06T08:41:02.000Z</time>
      </trkpt>
      <trkpt lat="47.26364" lon="-2.30627">
        <ele>-7</ele>
        <time>2022-02-06T08:41:07.000Z</time>
      </trkpt>
      <trkpt lat="47.26375" lon="-2.30644">
        <ele>-7</ele>
        <time>2022-02-06T08:41:10.000Z</time>
      </trkpt>
      <trkpt lat="47.26384" lon="-2.30655">
        <ele>-7</ele>
        <time>2022-02-06T08:41:12.000Z</time>
      </trkpt>
      <trkpt lat="47.26403" lon="-2.3067">
        <ele>-7</ele>
        <time>2022-02-06T08:41:16.000Z</time>
      </trkpt>
      <trkpt lat="47.26419" lon="-2.30685">
        <ele>-7</ele>
        <time>2022-02-06T08:41:21.000Z</time>
      </trkpt>
      <trkpt lat="47.26428" lon="-2.30705">
        <ele>-7</ele>
        <time>2022-02-06T08:41:25.000Z</time>
      </trkpt>
      <trkpt lat="47.26433" lon="-2.30715">
        <ele>-7</ele>
        <time>2022-02-06T08:41:27.000Z</time>
      </trkpt>
      <trkpt lat="47.26441" lon="-2.30735">
        <ele>-7</ele>
        <time>2022-02-06T08:41:30.000Z</time>
      </trkpt>
      <trkpt lat="47.26445" lon="-2.30748">
        <ele>-7.4000000953674</ele>
        <time>2022-02-06T08:41:32.000Z</time>
      </trkpt>
      <trkpt lat="47.26447" lon="-2.30754">
        <ele>-7.8000001907349</ele>
        <time>2022-02-06T08:41:33.000Z</time>
      </trkpt>
      <trkpt lat="47.26449" lon="-2.30761">
        <ele>-8.1999998092651</ele>
        <time>2022-02-06T08:41:34.000Z</time>
      </trkpt>
      <trkpt lat="47.26452" lon="-2.30767">
        <ele>-8.6000003814697</ele>
        <time>2022-02-06T08:41:35.000Z</time>
      </trkpt>
      <trkpt lat="47.26454" lon="-2.30773">
        <ele>-9</ele>
        <time>2022-02-06T08:41:36.000Z</time>
      </trkpt>
      <trkpt lat="47.26459" lon="-2.30784">
        <ele>-9</ele>
        <time>2022-02-06T08:41:38.000Z</time>
      </trkpt>
      <trkpt lat="47.26468" lon="-2.3081">
        <ele>-9.3999996185303</ele>
        <time>2022-02-06T08:41:42.000Z</time>
      </trkpt>
      <trkpt lat="47.2647" lon="-2.30816">
        <ele>-9.8000001907349</ele>
        <time>2022-02-06T08:41:43.000Z</time>
      </trkpt>
      <trkpt lat="47.26472" lon="-2.30823">
        <ele>-10.199999809265</ele>
        <time>2022-02-06T08:41:44.000Z</time>
      </trkpt>
      <trkpt lat="47.26475" lon="-2.3083">
        <ele>-10.60000038147</ele>
        <time>2022-02-06T08:41:45.000Z</time>
      </trkpt>
      <trkpt lat="47.26477" lon="-2.30835">
        <ele>-11</ele>
        <time>2022-02-06T08:41:46.000Z</time>
      </trkpt>
      <trkpt lat="47.26479" lon="-2.3084">
        <ele>-11</ele>
        <time>2022-02-06T08:41:47.000Z</time>
      </trkpt>
      <trkpt lat="47.26487" lon="-2.30853">
        <ele>-11.60000038147</ele>
        <time>2022-02-06T08:41:50.000Z</time>
      </trkpt>
      <trkpt lat="47.26489" lon="-2.30857">
        <ele>-12</ele>
        <time>2022-02-06T08:41:51.000Z</time>
      </trkpt>
      <trkpt lat="47.26492" lon="-2.30862">
        <ele>-12.60000038147</ele>
        <time>2022-02-06T08:41:52.000Z</time>
      </trkpt>
      <trkpt lat="47.26494" lon="-2.30867">
        <ele>-13</ele>
        <time>2022-02-06T08:41:53.000Z</time>
      </trkpt>
      <trkpt lat="47.26496" lon="-2.30872">
        <ele>-13.60000038147</ele>
        <time>2022-02-06T08:41:54.000Z</time>
      </trkpt>
      <trkpt lat="47.26499" lon="-2.30876">
        <ele>-14.199999809265</ele>
        <time>2022-02-06T08:41:55.000Z</time>
      </trkpt>
      <trkpt lat="47.26502" lon="-2.30879">
        <ele>-14.800000190735</ele>
        <time>2022-02-06T08:41:56.000Z</time>
      </trkpt>
      <trkpt lat="47.26505" lon="-2.3088">
        <ele>-15.39999961853</ele>
        <time>2022-02-06T08:41:57.000Z</time>
      </trkpt>
      <trkpt lat="47.26508" lon="-2.30879">
        <ele>-16</ele>
        <time>2022-02-06T08:41:58.000Z</time>
      </trkpt>
      <trkpt lat="47.26517" lon="-2.30873">
        <ele>-16</ele>
        <time>2022-02-06T08:42:01.000Z</time>
      </trkpt>
      <trkpt lat="47.26522" lon="-2.30868">
        <ele>-16</ele>
        <time>2022-02-06T08:42:03.000Z</time>
      </trkpt>
      <trkpt lat="47.26534" lon="-2.30852">
        <ele>-16</ele>
        <time>2022-02-06T08:42:08.000Z</time>
      </trkpt>
      <trkpt lat="47.26546" lon="-2.30842">
        <ele>-16</ele>
        <time>2022-02-06T08:42:13.000Z</time>
      </trkpt>
      <trkpt lat="47.2655" lon="-2.30837">
        <ele>-16</ele>
        <time>2022-02-06T08:42:15.000Z</time>
      </trkpt>
      <trkpt lat="47.26558" lon="-2.30824">
        <ele>-16</ele>
        <time>2022-02-06T08:42:18.000Z</time>
      </trkpt>
      <trkpt lat="47.26567" lon="-2.30811">
        <ele>-16</ele>
        <time>2022-02-06T08:42:22.000Z</time>
      </trkpt>
      <trkpt lat="47.26571" lon="-2.30808">
        <ele>-16</ele>
        <time>2022-02-06T08:42:23.000Z</time>
      </trkpt>
      <trkpt lat="47.26585" lon="-2.30794">
        <ele>-15.60000038147</ele>
        <time>2022-02-06T08:42:28.000Z</time>
      </trkpt>
      <trkpt lat="47.26588" lon="-2.30791">
        <ele>-15</ele>
        <time>2022-02-06T08:42:29.000Z</time>
      </trkpt>
      <trkpt lat="47.26591" lon="-2.30788">
        <ele>-14.60000038147</ele>
        <time>2022-02-06T08:42:30.000Z</time>
      </trkpt>
      <trkpt lat="47.26596" lon="-2.30785">
        <ele>-14.199999809265</ele>
        <time>2022-02-06T08:42:31.000Z</time>
      </trkpt>
      <trkpt lat="47.26601" lon="-2.30781">
        <ele>-13.800000190735</ele>
        <time>2022-02-06T08:42:32.000Z</time>
      </trkpt>
      <trkpt lat="47.26613" lon="-2.30766">
        <ele>-13.800000190735</ele>
        <time>2022-02-06T08:42:36.000Z</time>
      </trkpt>
      <trkpt lat="47.26623" lon="-2.30743">
        <ele>-13.800000190735</ele>
        <time>2022-02-06T08:42:41.000Z</time>
      </trkpt>
      <trkpt lat="47.26634" lon="-2.30731">
        <ele>-13.800000190735</ele>
        <time>2022-02-06T08:42:45.000Z</time>
      </trkpt>
      <trkpt lat="47.26641" lon="-2.30713">
        <ele>-13.39999961853</ele>
        <time>2022-02-06T08:42:49.000Z</time>
      </trkpt>
      <trkpt lat="47.26643" lon="-2.30708">
        <ele>-13</ele>
        <time>2022-02-06T08:42:50.000Z</time>
      </trkpt>
      <trkpt lat="47.26645" lon="-2.30703">
        <ele>-12.60000038147</ele>
        <time>2022-02-06T08:42:51.000Z</time>
      </trkpt>
      <trkpt lat="47.26647" lon="-2.307">
        <ele>-11.800000190735</ele>
        <time>2022-02-06T08:42:52.000Z</time>
      </trkpt>
      <trkpt lat="47.2665" lon="-2.30698">
        <ele>-11.800000190735</ele>
        <time>2022-02-06T08:42:53.000Z</time>
      </trkpt>
      <trkpt lat="47.26655" lon="-2.30702">
        <ele>-11.800000190735</ele>
        <time>2022-02-06T08:42:55.000Z</time>
      </trkpt>
      <trkpt lat="47.26663" lon="-2.30715">
        <ele>-11.800000190735</ele>
        <time>2022-02-06T08:42:58.000Z</time>
      </trkpt>
      <trkpt lat="47.26665" lon="-2.30719">
        <ele>-11.800000190735</ele>
        <time>2022-02-06T08:42:59.000Z</time>
      </trkpt>
      <trkpt lat="47.26683" lon="-2.30754">
        <ele>-11.800000190735</ele>
        <time>2022-02-06T08:43:07.000Z</time>
      </trkpt>
      <trkpt lat="47.26691" lon="-2.30772">
        <ele>-11.199999809265</ele>
        <time>2022-02-06T08:43:11.000Z</time>
      </trkpt>
      <trkpt lat="47.26693" lon="-2.30777">
        <ele>-10.800000190735</ele>
        <time>2022-02-06T08:43:12.000Z</time>
      </trkpt>
      <trkpt lat="47.26695" lon="-2.30782">
        <ele>-10.39999961853</ele>
        <time>2022-02-06T08:43:13.000Z</time>
      </trkpt>
      <trkpt lat="47.26698" lon="-2.30787">
        <ele>-9.8000001907349</ele>
        <time>2022-02-06T08:43:14.000Z</time>
      </trkpt>
      <trkpt lat="47.26699" lon="-2.30792">
        <ele>-9.3999996185303</ele>
        <time>2022-02-06T08:43:15.000Z</time>
      </trkpt>
      <trkpt lat="47.26713" lon="-2.30822">
        <ele>-9</ele>
        <time>2022-02-06T08:43:21.000Z</time>
      </trkpt>
      <trkpt lat="47.26715" lon="-2.30827">
        <ele>-8.6000003814697</ele>
        <time>2022-02-06T08:43:22.000Z</time>
      </trkpt>
      <trkpt lat="47.26717" lon="-2.30832">
        <ele>-8.1999998092651</ele>
        <time>2022-02-06T08:43:23.000Z</time>
      </trkpt>
      <trkpt lat="47.26719" lon="-2.30836">
        <ele>-7.5999999046326</ele>
        <time>2022-02-06T08:43:24.000Z</time>
      </trkpt>
      <trkpt lat="47.26722" lon="-2.30841">
        <ele>-7.1999998092651</ele>
        <time>2022-02-06T08:43:25.000Z</time>
      </trkpt>
      <trkpt lat="47.26725" lon="-2.30846">
        <ele>-7.1999998092651</ele>
        <time>2022-02-06T08:43:26.000Z</time>
      </trkpt>
      <trkpt lat="47.26736" lon="-2.30865">
        <ele>-7.1999998092651</ele>
        <time>2022-02-06T08:43:30.000Z</time>
      </trkpt>
      <trkpt lat="47.2674" lon="-2.30868">
        <ele>-7.1999998092651</ele>
        <time>2022-02-06T08:43:31.000Z</time>
      </trkpt>
      <trkpt lat="47.26755" lon="-2.30862">
        <ele>-7.1999998092651</ele>
        <time>2022-02-06T08:43:35.000Z</time>
      </trkpt>
      <trkpt lat="47.26759" lon="-2.30858">
        <ele>-7.1999998092651</ele>
        <time>2022-02-06T08:43:36.000Z</time>
      </trkpt>
      <trkpt lat="47.26778" lon="-2.30838">
        <ele>-7.1999998092651</ele>
        <time>2022-02-06T08:43:41.000Z</time>
      </trkpt>
      <trkpt lat="47.268" lon="-2.30811">
        <ele>-7.1999998092651</ele>
        <time>2022-02-06T08:43:47.000Z</time>
      </trkpt>
      <trkpt lat="47.26811" lon="-2.30799">
        <ele>-7.1999998092651</ele>
        <time>2022-02-06T08:43:50.000Z</time>
      </trkpt>
      <trkpt lat="47.26823" lon="-2.3079">
        <ele>-7.1999998092651</ele>
        <time>2022-02-06T08:43:53.000Z</time>
      </trkpt>
      <trkpt lat="47.26826" lon="-2.30786">
        <ele>-7.1999998092651</ele>
        <time>2022-02-06T08:43:54.000Z</time>
      </trkpt>
      <trkpt lat="47.26836" lon="-2.30765">
        <ele>-7.1999998092651</ele>
        <time>2022-02-06T08:43:58.000Z</time>
      </trkpt>
      <trkpt lat="47.26841" lon="-2.30753">
        <ele>-7.1999998092651</ele>
        <time>2022-02-06T08:44:00.000Z</time>
      </trkpt>
      <trkpt lat="47.26853" lon="-2.30721">
        <ele>-7.1999998092651</ele>
        <time>2022-02-06T08:44:05.000Z</time>
      </trkpt>
      <trkpt lat="47.26875" lon="-2.3068">
        <ele>-7.1999998092651</ele>
        <time>2022-02-06T08:44:11.000Z</time>
      </trkpt>
      <trkpt lat="47.26885" lon="-2.30668">
        <ele>-7.1999998092651</ele>
        <time>2022-02-06T08:44:13.000Z</time>
      </trkpt>
      <trkpt lat="47.26901" lon="-2.30653">
        <ele>-7.1999998092651</ele>
        <time>2022-02-06T08:44:16.000Z</time>
      </trkpt>
      <trkpt lat="47.26906" lon="-2.30647">
        <ele>-7.1999998092651</ele>
        <time>2022-02-06T08:44:17.000Z</time>
      </trkpt>
      <trkpt lat="47.26922" lon="-2.30634">
        <ele>-7.1999998092651</ele>
        <time>2022-02-06T08:44:20.000Z</time>
      </trkpt>
      <trkpt lat="47.26942" lon="-2.30628">
        <ele>-7.1999998092651</ele>
        <time>2022-02-06T08:44:23.000Z</time>
      </trkpt>
      <trkpt lat="47.26949" lon="-2.30626">
        <ele>-7.1999998092651</ele>
        <time>2022-02-06T08:44:24.000Z</time>
      </trkpt>
      <trkpt lat="47.2697" lon="-2.30618">
        <ele>-7.5999999046326</ele>
        <time>2022-02-06T08:44:27.000Z</time>
      </trkpt>
      <trkpt lat="47.26977" lon="-2.30615">
        <ele>-8</ele>
        <time>2022-02-06T08:44:28.000Z</time>
      </trkpt>
      <trkpt lat="47.26984" lon="-2.30612">
        <ele>-8.3999996185303</ele>
        <time>2022-02-06T08:44:29.000Z</time>
      </trkpt>
      <trkpt lat="47.2699" lon="-2.30609">
        <ele>-8.8000001907349</ele>
        <time>2022-02-06T08:44:30.000Z</time>
      </trkpt>
      <trkpt lat="47.26996" lon="-2.30604">
        <ele>-9.3999996185303</ele>
        <time>2022-02-06T08:44:31.000Z</time>
      </trkpt>
      <trkpt lat="47.27007" lon="-2.30593">
        <ele>-9.3999996185303</ele>
        <time>2022-02-06T08:44:33.000Z</time>
      </trkpt>
      <trkpt lat="47.27011" lon="-2.30586">
        <ele>-9.3999996185303</ele>
        <time>2022-02-06T08:44:34.000Z</time>
      </trkpt>
      <trkpt lat="47.27022" lon="-2.30552">
        <ele>-9.3999996185303</ele>
        <time>2022-02-06T08:44:38.000Z</time>
      </trkpt>
      <trkpt lat="47.27038" lon="-2.30491">
        <ele>-9.3999996185303</ele>
        <time>2022-02-06T08:44:45.000Z</time>
      </trkpt>
      <trkpt lat="47.27045" lon="-2.30465">
        <ele>-9.3999996185303</ele>
        <time>2022-02-06T08:44:48.000Z</time>
      </trkpt>
      <trkpt lat="47.27046" lon="-2.30447">
        <ele>-9.3999996185303</ele>
        <time>2022-02-06T08:44:50.000Z</time>
      </trkpt>
      <trkpt lat="47.27049" lon="-2.3043">
        <ele>-9.3999996185303</ele>
        <time>2022-02-06T08:44:52.000Z</time>
      </trkpt>
      <trkpt lat="47.27052" lon="-2.30404">
        <ele>-9.3999996185303</ele>
        <time>2022-02-06T08:44:55.000Z</time>
      </trkpt>
      <trkpt lat="47.27059" lon="-2.30348">
        <ele>-9.3999996185303</ele>
        <time>2022-02-06T08:45:02.000Z</time>
      </trkpt>
      <trkpt lat="47.27064" lon="-2.30302">
        <ele>-9.3999996185303</ele>
        <time>2022-02-06T08:45:08.000Z</time>
      </trkpt>
      <trkpt lat="47.27067" lon="-2.30288">
        <ele>-9.3999996185303</ele>
        <time>2022-02-06T08:45:10.000Z</time>
      </trkpt>
      <trkpt lat="47.27073" lon="-2.30277">
        <ele>-9.3999996185303</ele>
        <time>2022-02-06T08:45:12.000Z</time>
      </trkpt>
      <trkpt lat="47.27086" lon="-2.30264">
        <ele>-9.8000001907349</ele>
        <time>2022-02-06T08:45:15.000Z</time>
      </trkpt>
      <trkpt lat="47.27091" lon="-2.30263">
        <ele>-10.199999809265</ele>
        <time>2022-02-06T08:45:16.000Z</time>
      </trkpt>
      <trkpt lat="47.27096" lon="-2.30262">
        <ele>-10.60000038147</ele>
        <time>2022-02-06T08:45:17.000Z</time>
      </trkpt>
      <trkpt lat="47.271" lon="-2.30261">
        <ele>-11</ele>
        <time>2022-02-06T08:45:18.000Z</time>
      </trkpt>
      <trkpt lat="47.27104" lon="-2.30259">
        <ele>-11.39999961853</ele>
        <time>2022-02-06T08:45:19.000Z</time>
      </trkpt>
      <trkpt lat="47.27112" lon="-2.30255">
        <ele>-11.39999961853</ele>
        <time>2022-02-06T08:45:21.000Z</time>
      </trkpt>
      <trkpt lat="47.27136" lon="-2.30245">
        <ele>-11.39999961853</ele>
        <time>2022-02-06T08:45:26.000Z</time>
      </trkpt>
      <trkpt lat="47.27141" lon="-2.30242">
        <ele>-11.39999961853</ele>
        <time>2022-02-06T08:45:27.000Z</time>
      </trkpt>
      <trkpt lat="47.27151" lon="-2.30228">
        <ele>-11.39999961853</ele>
        <time>2022-02-06T08:45:30.000Z</time>
      </trkpt>
      <trkpt lat="47.27155" lon="-2.30209">
        <ele>-11.39999961853</ele>
        <time>2022-02-06T08:45:33.000Z</time>
      </trkpt>
      <trkpt lat="47.27155" lon="-2.30204">
        <ele>-11.39999961853</ele>
        <time>2022-02-06T08:45:34.000Z</time>
      </trkpt>
      <trkpt lat="47.27158" lon="-2.30171">
        <ele>-11.39999961853</ele>
        <time>2022-02-06T08:45:40.000Z</time>
      </trkpt>
      <trkpt lat="47.27156" lon="-2.30137">
        <ele>-11.39999961853</ele>
        <time>2022-02-06T08:45:46.000Z</time>
      </trkpt>
      <trkpt lat="47.27155" lon="-2.30133">
        <ele>-11.39999961853</ele>
        <time>2022-02-06T08:45:47.000Z</time>
      </trkpt>
      <trkpt lat="47.2715" lon="-2.30124">
        <ele>-11.39999961853</ele>
        <time>2022-02-06T08:45:50.000Z</time>
      </trkpt>
      <trkpt lat="47.27149" lon="-2.30123">
        <ele>-11.39999961853</ele>
        <time>2022-02-06T08:45:51.000Z</time>
      </trkpt>
      <trkpt lat="47.27147" lon="-2.3012">
        <ele>-11.39999961853</ele>
        <time>2022-02-06T08:45:54.000Z</time>
      </trkpt>
      <trkpt lat="47.27143" lon="-2.30119">
        <ele>-11.39999961853</ele>
        <time>2022-02-06T08:46:00.000Z</time>
      </trkpt>
      <trkpt lat="47.27141" lon="-2.30117">
        <ele>-11</ele>
        <time>2022-02-06T08:46:02.000Z</time>
      </trkpt>
      <trkpt lat="47.27139" lon="-2.30116">
        <ele>-10.60000038147</ele>
        <time>2022-02-06T08:46:03.000Z</time>
      </trkpt>
      <trkpt lat="47.27138" lon="-2.30116">
        <ele>-10.199999809265</ele>
        <time>2022-02-06T08:46:04.000Z</time>
      </trkpt>
      <trkpt lat="47.27136" lon="-2.30115">
        <ele>-9.6000003814697</ele>
        <time>2022-02-06T08:46:05.000Z</time>
      </trkpt>
      <trkpt lat="47.27134" lon="-2.30114">
        <ele>-9.1999998092651</ele>
        <time>2022-02-06T08:46:06.000Z</time>
      </trkpt>
      <trkpt lat="47.27125" lon="-2.3011">
        <ele>-9.1999998092651</ele>
        <time>2022-02-06T08:46:10.000Z</time>
      </trkpt>
      <trkpt lat="47.27105" lon="-2.30098">
        <ele>-9.1999998092651</ele>
        <time>2022-02-06T08:46:17.000Z</time>
      </trkpt>
      <trkpt lat="47.27091" lon="-2.30086">
        <ele>-9.1999998092651</ele>
        <time>2022-02-06T08:46:22.000Z</time>
      </trkpt>
      <trkpt lat="47.27072" lon="-2.30072">
        <ele>-9.1999998092651</ele>
        <time>2022-02-06T08:46:28.000Z</time>
      </trkpt>
      <trkpt lat="47.27062" lon="-2.30068">
        <ele>-8.8000001907349</ele>
        <time>2022-02-06T08:46:32.000Z</time>
      </trkpt>
      <trkpt lat="47.27059" lon="-2.30067">
        <ele>-8.3999996185303</ele>
        <time>2022-02-06T08:46:33.000Z</time>
      </trkpt>
      <trkpt lat="47.27056" lon="-2.30066">
        <ele>-8</ele>
        <time>2022-02-06T08:46:34.000Z</time>
      </trkpt>
      <trkpt lat="47.27054" lon="-2.30066">
        <ele>-7.1999998092651</ele>
        <time>2022-02-06T08:46:35.000Z</time>
      </trkpt>
      <trkpt lat="47.27041" lon="-2.30063">
        <ele>-7.1999998092651</ele>
        <time>2022-02-06T08:46:40.000Z</time>
      </trkpt>
      <trkpt lat="47.27026" lon="-2.30064">
        <ele>-7.1999998092651</ele>
        <time>2022-02-06T08:46:45.000Z</time>
      </trkpt>
      <trkpt lat="47.27014" lon="-2.3006">
        <ele>-7.1999998092651</ele>
        <time>2022-02-06T08:46:50.000Z</time>
      </trkpt>
      <trkpt lat="47.27013" lon="-2.30057">
        <ele>-7.1999998092651</ele>
        <time>2022-02-06T08:46:51.000Z</time>
      </trkpt>
      <trkpt lat="47.27014" lon="-2.30043">
        <ele>-7.1999998092651</ele>
        <time>2022-02-06T08:46:54.000Z</time>
      </trkpt>
      <trkpt lat="47.27018" lon="-2.30026">
        <ele>-7.1999998092651</ele>
        <time>2022-02-06T08:46:57.000Z</time>
      </trkpt>
      <trkpt lat="47.27022" lon="-2.30015">
        <ele>-7.1999998092651</ele>
        <time>2022-02-06T08:46:59.000Z</time>
      </trkpt>
      <trkpt lat="47.27024" lon="-2.30009">
        <ele>-7.1999998092651</ele>
        <time>2022-02-06T08:47:00.000Z</time>
      </trkpt>
      <trkpt lat="47.27031" lon="-2.29991">
        <ele>-7.1999998092651</ele>
        <time>2022-02-06T08:47:03.000Z</time>
      </trkpt>
      <trkpt lat="47.27033" lon="-2.29985">
        <ele>-7.1999998092651</ele>
        <time>2022-02-06T08:47:04.000Z</time>
      </trkpt>
      <trkpt lat="47.27045" lon="-2.29958">
        <ele>-7.1999998092651</ele>
        <time>2022-02-06T08:47:09.000Z</time>
      </trkpt>
      <trkpt lat="47.27055" lon="-2.29939">
        <ele>-7.1999998092651</ele>
        <time>2022-02-06T08:47:12.000Z</time>
      </trkpt>
      <trkpt lat="47.27062" lon="-2.29928">
        <ele>-7.1999998092651</ele>
        <time>2022-02-06T08:47:14.000Z</time>
      </trkpt>
      <trkpt lat="47.27082" lon="-2.29907">
        <ele>-7.1999998092651</ele>
        <time>2022-02-06T08:47:18.000Z</time>
      </trkpt>
      <trkpt lat="47.27086" lon="-2.29901">
        <ele>-7.1999998092651</ele>
        <time>2022-02-06T08:47:19.000Z</time>
      </trkpt>
      <trkpt lat="47.27097" lon="-2.29873">
        <ele>-7.1999998092651</ele>
        <time>2022-02-06T08:47:23.000Z</time>
      </trkpt>
      <trkpt lat="47.27107" lon="-2.29831">
        <ele>-7.1999998092651</ele>
        <time>2022-02-06T08:47:29.000Z</time>
      </trkpt>
      <trkpt lat="47.27109" lon="-2.29817">
        <ele>-7.1999998092651</ele>
        <time>2022-02-06T08:47:31.000Z</time>
      </trkpt>
      <trkpt lat="47.27109" lon="-2.29794">
        <ele>-7.1999998092651</ele>
        <time>2022-02-06T08:47:34.000Z</time>
      </trkpt>
      <trkpt lat="47.27114" lon="-2.29738">
        <ele>-6.8000001907349</ele>
        <time>2022-02-06T08:47:41.000Z</time>
      </trkpt>
      <trkpt lat="47.27114" lon="-2.2973">
        <ele>-6.4000000953674</ele>
        <time>2022-02-06T08:47:42.000Z</time>
      </trkpt>
      <trkpt lat="47.27115" lon="-2.29721">
        <ele>-6</ele>
        <time>2022-02-06T08:47:43.000Z</time>
      </trkpt>
      <trkpt lat="47.27115" lon="-2.29712">
        <ele>-5.5999999046326</ele>
        <time>2022-02-06T08:47:44.000Z</time>
      </trkpt>
      <trkpt lat="47.27115" lon="-2.29704">
        <ele>-5.1999998092651</ele>
        <time>2022-02-06T08:47:45.000Z</time>
      </trkpt>
      <trkpt lat="47.27116" lon="-2.29689">
        <ele>-5.1999998092651</ele>
        <time>2022-02-06T08:47:47.000Z</time>
      </trkpt>
      <trkpt lat="47.27115" lon="-2.29675">
        <ele>-5.1999998092651</ele>
        <time>2022-02-06T08:47:50.000Z</time>
      </trkpt>
      <trkpt lat="47.27121" lon="-2.29654">
        <ele>-5.1999998092651</ele>
        <time>2022-02-06T08:47:56.000Z</time>
      </trkpt>
      <trkpt lat="47.27126" lon="-2.29646">
        <ele>-5.1999998092651</ele>
        <time>2022-02-06T08:47:58.000Z</time>
      </trkpt>
      <trkpt lat="47.27135" lon="-2.29644">
        <ele>-5.1999998092651</ele>
        <time>2022-02-06T08:48:00.000Z</time>
      </trkpt>
      <trkpt lat="47.27161" lon="-2.29638">
        <ele>-5.1999998092651</ele>
        <time>2022-02-06T08:48:05.000Z</time>
      </trkpt>
      <trkpt lat="47.27192" lon="-2.29614">
        <ele>-5.1999998092651</ele>
        <time>2022-02-06T08:48:11.000Z</time>
      </trkpt>
      <trkpt lat="47.27223" lon="-2.29588">
        <ele>-5.1999998092651</ele>
        <time>2022-02-06T08:48:17.000Z</time>
      </trkpt>
      <trkpt lat="47.27241" lon="-2.29573">
        <ele>-5.1999998092651</ele>
        <time>2022-02-06T08:48:21.000Z</time>
      </trkpt>
      <trkpt lat="47.27244" lon="-2.29566">
        <ele>-5.5999999046326</ele>
        <time>2022-02-06T08:48:22.000Z</time>
      </trkpt>
      <trkpt lat="47.27245" lon="-2.29559">
        <ele>-6</ele>
        <time>2022-02-06T08:48:23.000Z</time>
      </trkpt>
      <trkpt lat="47.27246" lon="-2.29551">
        <ele>-6.4000000953674</ele>
        <time>2022-02-06T08:48:24.000Z</time>
      </trkpt>
      <trkpt lat="47.27246" lon="-2.29544">
        <ele>-6.8000001907349</ele>
        <time>2022-02-06T08:48:25.000Z</time>
      </trkpt>
      <trkpt lat="47.27245" lon="-2.29537">
        <ele>-7.1999998092651</ele>
        <time>2022-02-06T08:48:26.000Z</time>
      </trkpt>
      <trkpt lat="47.27243" lon="-2.29531">
        <ele>-7.1999998092651</ele>
        <time>2022-02-06T08:48:27.000Z</time>
      </trkpt>
      <trkpt lat="47.27241" lon="-2.29524">
        <ele>-7.1999998092651</ele>
        <time>2022-02-06T08:48:28.000Z</time>
      </trkpt>
      <trkpt lat="47.27225" lon="-2.29485">
        <ele>-7.1999998092651</ele>
        <time>2022-02-06T08:48:33.000Z</time>
      </trkpt>
      <trkpt lat="47.27222" lon="-2.29476">
        <ele>-7.1999998092651</ele>
        <time>2022-02-06T08:48:34.000Z</time>
      </trkpt>
      <trkpt lat="47.27212" lon="-2.29441">
        <ele>-7.1999998092651</ele>
        <time>2022-02-06T08:48:38.000Z</time>
      </trkpt>
      <trkpt lat="47.27196" lon="-2.2939">
        <ele>-7.1999998092651</ele>
        <time>2022-02-06T08:48:44.000Z</time>
      </trkpt>
      <trkpt lat="47.27176" lon="-2.2935">
        <ele>-7.1999998092651</ele>
        <time>2022-02-06T08:48:50.000Z</time>
      </trkpt>
      <trkpt lat="47.27172" lon="-2.29345">
        <ele>-7.1999998092651</ele>
        <time>2022-02-06T08:48:51.000Z</time>
      </trkpt>
      <trkpt lat="47.27162" lon="-2.29333">
        <ele>-7.1999998092651</ele>
        <time>2022-02-06T08:48:54.000Z</time>
      </trkpt>
      <trkpt lat="47.27152" lon="-2.29313">
        <ele>-7.1999998092651</ele>
        <time>2022-02-06T08:48:59.000Z</time>
      </trkpt>
      <trkpt lat="47.27153" lon="-2.29298">
        <ele>-7.1999998092651</ele>
        <time>2022-02-06T08:49:02.000Z</time>
      </trkpt>
      <trkpt lat="47.27155" lon="-2.29292">
        <ele>-7.1999998092651</ele>
        <time>2022-02-06T08:49:03.000Z</time>
      </trkpt>
      <trkpt lat="47.27164" lon="-2.2927">
        <ele>-7.1999998092651</ele>
        <time>2022-02-06T08:49:07.000Z</time>
      </trkpt>
      <trkpt lat="47.27166" lon="-2.29264">
        <ele>-7.1999998092651</ele>
        <time>2022-02-06T08:49:08.000Z</time>
      </trkpt>
      <trkpt lat="47.2717" lon="-2.29237">
        <ele>-7.1999998092651</ele>
        <time>2022-02-06T08:49:13.000Z</time>
      </trkpt>
      <trkpt lat="47.27165" lon="-2.29225">
        <ele>-7.5999999046326</ele>
        <time>2022-02-06T08:49:16.000Z</time>
      </trkpt>
      <trkpt lat="47.27163" lon="-2.29219">
        <ele>-8</ele>
        <time>2022-02-06T08:49:17.000Z</time>
      </trkpt>
      <trkpt lat="47.27161" lon="-2.29214">
        <ele>-8.3999996185303</ele>
        <time>2022-02-06T08:49:18.000Z</time>
      </trkpt>
      <trkpt lat="47.27158" lon="-2.2921">
        <ele>-8.8000001907349</ele>
        <time>2022-02-06T08:49:19.000Z</time>
      </trkpt>
      <trkpt lat="47.27156" lon="-2.29204">
        <ele>-9.3999996185303</ele>
        <time>2022-02-06T08:49:20.000Z</time>
      </trkpt>
      <trkpt lat="47.27153" lon="-2.29194">
        <ele>-9.3999996185303</ele>
        <time>2022-02-06T08:49:22.000Z</time>
      </trkpt>
      <trkpt lat="47.27151" lon="-2.29183">
        <ele>-9.3999996185303</ele>
        <time>2022-02-06T08:49:24.000Z</time>
      </trkpt>
      <trkpt lat="47.2715" lon="-2.29169">
        <ele>-9.3999996185303</ele>
        <time>2022-02-06T08:49:27.000Z</time>
      </trkpt>
      <trkpt lat="47.27159" lon="-2.29148">
        <ele>-9.3999996185303</ele>
        <time>2022-02-06T08:49:32.000Z</time>
      </trkpt>
      <trkpt lat="47.27162" lon="-2.29143">
        <ele>-9.3999996185303</ele>
        <time>2022-02-06T08:49:33.000Z</time>
      </trkpt>
      <trkpt lat="47.27177" lon="-2.29126">
        <ele>-9.3999996185303</ele>
        <time>2022-02-06T08:49:37.000Z</time>
      </trkpt>
      <trkpt lat="47.27184" lon="-2.29115">
        <ele>-9.3999996185303</ele>
        <time>2022-02-06T08:49:39.000Z</time>
      </trkpt>
      <trkpt lat="47.27188" lon="-2.29109">
        <ele>-9.3999996185303</ele>
        <time>2022-02-06T08:49:40.000Z</time>
      </trkpt>
      <trkpt lat="47.27197" lon="-2.29102">
        <ele>-9.3999996185303</ele>
        <time>2022-02-06T08:49:42.000Z</time>
      </trkpt>
      <trkpt lat="47.27206" lon="-2.29094">
        <ele>-9.3999996185303</ele>
        <time>2022-02-06T08:49:44.000Z</time>
      </trkpt>
      <trkpt lat="47.2722" lon="-2.29079">
        <ele>-9.3999996185303</ele>
        <time>2022-02-06T08:49:47.000Z</time>
      </trkpt>
      <trkpt lat="47.27247" lon="-2.29057">
        <ele>-9.3999996185303</ele>
        <time>2022-02-06T08:49:53.000Z</time>
      </trkpt>
      <trkpt lat="47.27251" lon="-2.29052">
        <ele>-9.3999996185303</ele>
        <time>2022-02-06T08:49:54.000Z</time>
      </trkpt>
      <trkpt lat="47.27267" lon="-2.29029">
        <ele>-9.3999996185303</ele>
        <time>2022-02-06T08:49:58.000Z</time>
      </trkpt>
      <trkpt lat="47.27273" lon="-2.29016">
        <ele>-9.8000001907349</ele>
        <time>2022-02-06T08:50:00.000Z</time>
      </trkpt>
      <trkpt lat="47.27276" lon="-2.29009">
        <ele>-10.199999809265</ele>
        <time>2022-02-06T08:50:01.000Z</time>
      </trkpt>
      <trkpt lat="47.27279" lon="-2.29003">
        <ele>-10.60000038147</ele>
        <time>2022-02-06T08:50:02.000Z</time>
      </trkpt>
      <trkpt lat="47.27282" lon="-2.28998">
        <ele>-11</ele>
        <time>2022-02-06T08:50:03.000Z</time>
      </trkpt>
      <trkpt lat="47.27286" lon="-2.28993">
        <ele>-11.39999961853</ele>
        <time>2022-02-06T08:50:04.000Z</time>
      </trkpt>
      <trkpt lat="47.27299" lon="-2.28978">
        <ele>-11.39999961853</ele>
        <time>2022-02-06T08:50:08.000Z</time>
      </trkpt>
      <trkpt lat="47.27306" lon="-2.28961">
        <ele>-11.39999961853</ele>
        <time>2022-02-06T08:50:12.000Z</time>
      </trkpt>
      <trkpt lat="47.27313" lon="-2.28949">
        <ele>-11.39999961853</ele>
        <time>2022-02-06T08:50:15.000Z</time>
      </trkpt>
      <trkpt lat="47.27317" lon="-2.28949">
        <ele>-11.39999961853</ele>
        <time>2022-02-06T08:50:16.000Z</time>
      </trkpt>
      <trkpt lat="47.27329" lon="-2.28956">
        <ele>-11.39999961853</ele>
        <time>2022-02-06T08:50:19.000Z</time>
      </trkpt>
      <trkpt lat="47.27339" lon="-2.2895">
        <ele>-11.39999961853</ele>
        <time>2022-02-06T08:50:22.000Z</time>
      </trkpt>
      <trkpt lat="47.27343" lon="-2.28921">
        <ele>-11.39999961853</ele>
        <time>2022-02-06T08:50:26.000Z</time>
      </trkpt>
      <trkpt lat="47.27345" lon="-2.28912">
        <ele>-11.39999961853</ele>
        <time>2022-02-06T08:50:27.000Z</time>
      </trkpt>
      <trkpt lat="47.27352" lon="-2.28873">
        <ele>-11.39999961853</ele>
        <time>2022-02-06T08:50:32.000Z</time>
      </trkpt>
      <trkpt lat="47.27357" lon="-2.2885">
        <ele>-11.39999961853</ele>
        <time>2022-02-06T08:50:35.000Z</time>
      </trkpt>
      <trkpt lat="47.27362" lon="-2.28824">
        <ele>-11.39999961853</ele>
        <time>2022-02-06T08:50:38.000Z</time>
      </trkpt>
      <trkpt lat="47.27365" lon="-2.28816">
        <ele>-11.39999961853</ele>
        <time>2022-02-06T08:50:39.000Z</time>
      </trkpt>
      <trkpt lat="47.27376" lon="-2.28793">
        <ele>-11.39999961853</ele>
        <time>2022-02-06T08:50:42.000Z</time>
      </trkpt>
      <trkpt lat="47.27397" lon="-2.28747">
        <ele>-11.39999961853</ele>
        <time>2022-02-06T08:50:48.000Z</time>
      </trkpt>
      <trkpt lat="47.274" lon="-2.2874">
        <ele>-11.39999961853</ele>
        <time>2022-02-06T08:50:49.000Z</time>
      </trkpt>
      <trkpt lat="47.27413" lon="-2.28713">
        <ele>-11.39999961853</ele>
        <time>2022-02-06T08:50:53.000Z</time>
      </trkpt>
      <trkpt lat="47.27436" lon="-2.28674">
        <ele>-11.39999961853</ele>
        <time>2022-02-06T08:50:59.000Z</time>
      </trkpt>
      <trkpt lat="47.27454" lon="-2.28639">
        <ele>-11.39999961853</ele>
        <time>2022-02-06T08:51:04.000Z</time>
      </trkpt>
      <trkpt lat="47.2746" lon="-2.28624">
        <ele>-11.39999961853</ele>
        <time>2022-02-06T08:51:06.000Z</time>
      </trkpt>
      <trkpt lat="47.27471" lon="-2.2861">
        <ele>-11.39999961853</ele>
        <time>2022-02-06T08:51:09.000Z</time>
      </trkpt>
      <trkpt lat="47.27478" lon="-2.28616">
        <ele>-11.39999961853</ele>
        <time>2022-02-06T08:51:11.000Z</time>
      </trkpt>
      <trkpt lat="47.2749" lon="-2.28642">
        <ele>-11.39999961853</ele>
        <time>2022-02-06T08:51:15.000Z</time>
      </trkpt>
      <trkpt lat="47.27493" lon="-2.28649">
        <ele>-11.39999961853</ele>
        <time>2022-02-06T08:51:16.000Z</time>
      </trkpt>
      <trkpt lat="47.275" lon="-2.28663">
        <ele>-11.39999961853</ele>
        <time>2022-02-06T08:51:18.000Z</time>
      </trkpt>
      <trkpt lat="47.27507" lon="-2.28675">
        <ele>-11.39999961853</ele>
        <time>2022-02-06T08:51:20.000Z</time>
      </trkpt>
      <trkpt lat="47.27515" lon="-2.28686">
        <ele>-11.39999961853</ele>
        <time>2022-02-06T08:51:22.000Z</time>
      </trkpt>
      <trkpt lat="47.27529" lon="-2.28701">
        <ele>-11.39999961853</ele>
        <time>2022-02-06T08:51:25.000Z</time>
      </trkpt>
      <trkpt lat="47.27533" lon="-2.28704">
        <ele>-11.39999961853</ele>
        <time>2022-02-06T08:51:26.000Z</time>
      </trkpt>
      <trkpt lat="47.27547" lon="-2.28716">
        <ele>-11.39999961853</ele>
        <time>2022-02-06T08:51:29.000Z</time>
      </trkpt>
      <trkpt lat="47.27553" lon="-2.28719">
        <ele>-11.39999961853</ele>
        <time>2022-02-06T08:51:30.000Z</time>
      </trkpt>
      <trkpt lat="47.27576" lon="-2.28733">
        <ele>-11.39999961853</ele>
        <time>2022-02-06T08:51:34.000Z</time>
      </trkpt>
      <trkpt lat="47.27582" lon="-2.28736">
        <ele>-11.39999961853</ele>
        <time>2022-02-06T08:51:35.000Z</time>
      </trkpt>
      <trkpt lat="47.27617" lon="-2.2875">
        <ele>-11.39999961853</ele>
        <time>2022-02-06T08:51:41.000Z</time>
      </trkpt>
      <trkpt lat="47.27651" lon="-2.28761">
        <ele>-11.39999961853</ele>
        <time>2022-02-06T08:51:47.000Z</time>
      </trkpt>
      <trkpt lat="47.27668" lon="-2.28769">
        <ele>-11.39999961853</ele>
        <time>2022-02-06T08:51:50.000Z</time>
      </trkpt>
      <trkpt lat="47.27673" lon="-2.28775">
        <ele>-11.39999961853</ele>
        <time>2022-02-06T08:51:51.000Z</time>
      </trkpt>
      <trkpt lat="47.27685" lon="-2.28793">
        <ele>-11.39999961853</ele>
        <time>2022-02-06T08:51:54.000Z</time>
      </trkpt>
      <trkpt lat="47.27689" lon="-2.288">
        <ele>-11.39999961853</ele>
        <time>2022-02-06T08:51:55.000Z</time>
      </trkpt>
      <trkpt lat="47.27698" lon="-2.28813">
        <ele>-11.39999961853</ele>
        <time>2022-02-06T08:51:57.000Z</time>
      </trkpt>
      <trkpt lat="47.2771" lon="-2.28814">
        <ele>-11.39999961853</ele>
        <time>2022-02-06T08:51:59.000Z</time>
      </trkpt>
      <trkpt lat="47.27721" lon="-2.2881">
        <ele>-11.39999961853</ele>
        <time>2022-02-06T08:52:01.000Z</time>
      </trkpt>
      <trkpt lat="47.27732" lon="-2.28805">
        <ele>-11.39999961853</ele>
        <time>2022-02-06T08:52:03.000Z</time>
      </trkpt>
      <trkpt lat="47.27772" lon="-2.28792">
        <ele>-11.39999961853</ele>
        <time>2022-02-06T08:52:10.000Z</time>
      </trkpt>
      <trkpt lat="47.27801" lon="-2.28792">
        <ele>-11.39999961853</ele>
        <time>2022-02-06T08:52:15.000Z</time>
      </trkpt>
      <trkpt lat="47.2782" lon="-2.28793">
        <ele>-11.39999961853</ele>
        <time>2022-02-06T08:52:18.000Z</time>
      </trkpt>
      <trkpt lat="47.27832" lon="-2.28796">
        <ele>-11.39999961853</ele>
        <time>2022-02-06T08:52:20.000Z</time>
      </trkpt>
      <trkpt lat="47.27838" lon="-2.28799">
        <ele>-11.39999961853</ele>
        <time>2022-02-06T08:52:21.000Z</time>
      </trkpt>
      <trkpt lat="47.27852" lon="-2.2881">
        <ele>-11.39999961853</ele>
        <time>2022-02-06T08:52:24.000Z</time>
      </trkpt>
      <trkpt lat="47.27861" lon="-2.28815">
        <ele>-11.39999961853</ele>
        <time>2022-02-06T08:52:26.000Z</time>
      </trkpt>
      <trkpt lat="47.27867" lon="-2.28811">
        <ele>-11.800000190735</ele>
        <time>2022-02-06T08:52:28.000Z</time>
      </trkpt>
      <trkpt lat="47.27869" lon="-2.28807">
        <ele>-12.199999809265</ele>
        <time>2022-02-06T08:52:29.000Z</time>
      </trkpt>
      <trkpt lat="47.2787" lon="-2.28801">
        <ele>-12.60000038147</ele>
        <time>2022-02-06T08:52:30.000Z</time>
      </trkpt>
      <trkpt lat="47.27872" lon="-2.28796">
        <ele>-13</ele>
        <time>2022-02-06T08:52:31.000Z</time>
      </trkpt>
      <trkpt lat="47.27874" lon="-2.2879">
        <ele>-13.39999961853</ele>
        <time>2022-02-06T08:52:32.000Z</time>
      </trkpt>
      <trkpt lat="47.27878" lon="-2.28778">
        <ele>-13.39999961853</ele>
        <time>2022-02-06T08:52:34.000Z</time>
      </trkpt>
      <trkpt lat="47.27887" lon="-2.2877">
        <ele>-13.39999961853</ele>
        <time>2022-02-06T08:52:36.000Z</time>
      </trkpt>
      <trkpt lat="47.27903" lon="-2.28763">
        <ele>-13.39999961853</ele>
        <time>2022-02-06T08:52:39.000Z</time>
      </trkpt>
      <trkpt lat="47.27915" lon="-2.28759">
        <ele>-13.39999961853</ele>
        <time>2022-02-06T08:52:41.000Z</time>
      </trkpt>
      <trkpt lat="47.27948" lon="-2.28747">
        <ele>-13.39999961853</ele>
        <time>2022-02-06T08:52:47.000Z</time>
      </trkpt>
      <trkpt lat="47.27985" lon="-2.28747">
        <ele>-13.39999961853</ele>
        <time>2022-02-06T08:52:53.000Z</time>
      </trkpt>
      <trkpt lat="47.28038" lon="-2.28758">
        <ele>-13.39999961853</ele>
        <time>2022-02-06T08:53:02.000Z</time>
      </trkpt>
      <trkpt lat="47.28072" lon="-2.28769">
        <ele>-13.39999961853</ele>
        <time>2022-02-06T08:53:08.000Z</time>
      </trkpt>
      <trkpt lat="47.28109" lon="-2.28786">
        <ele>-13.39999961853</ele>
        <time>2022-02-06T08:53:15.000Z</time>
      </trkpt>
      <trkpt lat="47.28119" lon="-2.28791">
        <ele>-13</ele>
        <time>2022-02-06T08:53:17.000Z</time>
      </trkpt>
      <trkpt lat="47.28124" lon="-2.28794">
        <ele>-12.60000038147</ele>
        <time>2022-02-06T08:53:18.000Z</time>
      </trkpt>
      <trkpt lat="47.28129" lon="-2.28797">
        <ele>-12</ele>
        <time>2022-02-06T08:53:19.000Z</time>
      </trkpt>
      <trkpt lat="47.28134" lon="-2.288">
        <ele>-11.60000038147</ele>
        <time>2022-02-06T08:53:20.000Z</time>
      </trkpt>
      <trkpt lat="47.28139" lon="-2.28804">
        <ele>-11.199999809265</ele>
        <time>2022-02-06T08:53:21.000Z</time>
      </trkpt>
      <trkpt lat="47.28166" lon="-2.28828">
        <ele>-10.800000190735</ele>
        <time>2022-02-06T08:53:27.000Z</time>
      </trkpt>
      <trkpt lat="47.28171" lon="-2.28832">
        <ele>-10.39999961853</ele>
        <time>2022-02-06T08:53:28.000Z</time>
      </trkpt>
      <trkpt lat="47.28175" lon="-2.28836">
        <ele>-9.8000001907349</ele>
        <time>2022-02-06T08:53:29.000Z</time>
      </trkpt>
      <trkpt lat="47.28179" lon="-2.2884">
        <ele>-9.3999996185303</ele>
        <time>2022-02-06T08:53:30.000Z</time>
      </trkpt>
      <trkpt lat="47.28183" lon="-2.28844">
        <ele>-9</ele>
        <time>2022-02-06T08:53:31.000Z</time>
      </trkpt>
      <trkpt lat="47.28191" lon="-2.28853">
        <ele>-9</ele>
        <time>2022-02-06T08:53:33.000Z</time>
      </trkpt>
      <trkpt lat="47.28197" lon="-2.28865">
        <ele>-9</ele>
        <time>2022-02-06T08:53:35.000Z</time>
      </trkpt>
      <trkpt lat="47.28199" lon="-2.28871">
        <ele>-8.6000003814697</ele>
        <time>2022-02-06T08:53:36.000Z</time>
      </trkpt>
      <trkpt lat="47.28199" lon="-2.28879">
        <ele>-8.1999998092651</ele>
        <time>2022-02-06T08:53:37.000Z</time>
      </trkpt>
      <trkpt lat="47.28198" lon="-2.28886">
        <ele>-7.8000001907349</ele>
        <time>2022-02-06T08:53:38.000Z</time>
      </trkpt>
      <trkpt lat="47.28197" lon="-2.28893">
        <ele>-7.4000000953674</ele>
        <time>2022-02-06T08:53:39.000Z</time>
      </trkpt>
      <trkpt lat="47.28195" lon="-2.289">
        <ele>-7</ele>
        <time>2022-02-06T08:53:40.000Z</time>
      </trkpt>
      <trkpt lat="47.28191" lon="-2.28922">
        <ele>-7</ele>
        <time>2022-02-06T08:53:43.000Z</time>
      </trkpt>
      <trkpt lat="47.28188" lon="-2.28935">
        <ele>-7</ele>
        <time>2022-02-06T08:53:45.000Z</time>
      </trkpt>
      <trkpt lat="47.2818" lon="-2.28971">
        <ele>-7</ele>
        <time>2022-02-06T08:53:50.000Z</time>
      </trkpt>
      <trkpt lat="47.28168" lon="-2.2902">
        <ele>-7</ele>
        <time>2022-02-06T08:53:57.000Z</time>
      </trkpt>
      <trkpt lat="47.28158" lon="-2.29062">
        <ele>-7</ele>
        <time>2022-02-06T08:54:03.000Z</time>
      </trkpt>
      <trkpt lat="47.28151" lon="-2.29091">
        <ele>-6.5999999046326</ele>
        <time>2022-02-06T08:54:07.000Z</time>
      </trkpt>
      <trkpt lat="47.28149" lon="-2.29098">
        <ele>-6.1999998092651</ele>
        <time>2022-02-06T08:54:08.000Z</time>
      </trkpt>
      <trkpt lat="47.28147" lon="-2.29105">
        <ele>-5.8000001907349</ele>
        <time>2022-02-06T08:54:09.000Z</time>
      </trkpt>
      <trkpt lat="47.28145" lon="-2.29112">
        <ele>-5.4000000953674</ele>
        <time>2022-02-06T08:54:10.000Z</time>
      </trkpt>
      <trkpt lat="47.28144" lon="-2.29119">
        <ele>-4.8000001907349</ele>
        <time>2022-02-06T08:54:11.000Z</time>
      </trkpt>
      <trkpt lat="47.28132" lon="-2.29167">
        <ele>-4.8000001907349</ele>
        <time>2022-02-06T08:54:18.000Z</time>
      </trkpt>
      <trkpt lat="47.28122" lon="-2.29209">
        <ele>-4.8000001907349</ele>
        <time>2022-02-06T08:54:24.000Z</time>
      </trkpt>
      <trkpt lat="47.28119" lon="-2.29223">
        <ele>-4.8000001907349</ele>
        <time>2022-02-06T08:54:26.000Z</time>
      </trkpt>
      <trkpt lat="47.28117" lon="-2.2923">
        <ele>-4.8000001907349</ele>
        <time>2022-02-06T08:54:27.000Z</time>
      </trkpt>
      <trkpt lat="47.28108" lon="-2.29282">
        <ele>-4.8000001907349</ele>
        <time>2022-02-06T08:54:34.000Z</time>
      </trkpt>
      <trkpt lat="47.28102" lon="-2.29333">
        <ele>-4.8000001907349</ele>
        <time>2022-02-06T08:54:41.000Z</time>
      </trkpt>
      <trkpt lat="47.28098" lon="-2.29389">
        <ele>-4.8000001907349</ele>
        <time>2022-02-06T08:54:48.000Z</time>
      </trkpt>
      <trkpt lat="47.28099" lon="-2.2943">
        <ele>-4.8000001907349</ele>
        <time>2022-02-06T08:54:53.000Z</time>
      </trkpt>
      <trkpt lat="47.281" lon="-2.29438">
        <ele>-4.8000001907349</ele>
        <time>2022-02-06T08:54:54.000Z</time>
      </trkpt>
      <trkpt lat="47.28111" lon="-2.29475">
        <ele>-4.8000001907349</ele>
        <time>2022-02-06T08:54:59.000Z</time>
      </trkpt>
      <trkpt lat="47.28118" lon="-2.29498">
        <ele>-4.8000001907349</ele>
        <time>2022-02-06T08:55:02.000Z</time>
      </trkpt>
      <trkpt lat="47.28125" lon="-2.29517">
        <ele>-4.8000001907349</ele>
        <time>2022-02-06T08:55:05.000Z</time>
      </trkpt>
      <trkpt lat="47.28129" lon="-2.29522">
        <ele>-4.8000001907349</ele>
        <time>2022-02-06T08:55:06.000Z</time>
      </trkpt>
      <trkpt lat="47.28139" lon="-2.29525">
        <ele>-4.8000001907349</ele>
        <time>2022-02-06T08:55:08.000Z</time>
      </trkpt>
      <trkpt lat="47.28155" lon="-2.29518">
        <ele>-4.8000001907349</ele>
        <time>2022-02-06T08:55:11.000Z</time>
      </trkpt>
      <trkpt lat="47.28173" lon="-2.2951">
        <ele>-4.8000001907349</ele>
        <time>2022-02-06T08:55:14.000Z</time>
      </trkpt>
      <trkpt lat="47.28189" lon="-2.29504">
        <ele>-4.8000001907349</ele>
        <time>2022-02-06T08:55:17.000Z</time>
      </trkpt>
      <trkpt lat="47.28214" lon="-2.29492">
        <ele>-5.4000000953674</ele>
        <time>2022-02-06T08:55:21.000Z</time>
      </trkpt>
      <trkpt lat="47.2822" lon="-2.29489">
        <ele>-5.8000001907349</ele>
        <time>2022-02-06T08:55:22.000Z</time>
      </trkpt>
      <trkpt lat="47.28227" lon="-2.29485">
        <ele>-6.1999998092651</ele>
        <time>2022-02-06T08:55:23.000Z</time>
      </trkpt>
      <trkpt lat="47.28234" lon="-2.29481">
        <ele>-6.5999999046326</ele>
        <time>2022-02-06T08:55:24.000Z</time>
      </trkpt>
      <trkpt lat="47.2824" lon="-2.29477">
        <ele>-7</ele>
        <time>2022-02-06T08:55:25.000Z</time>
      </trkpt>
      <trkpt lat="47.28265" lon="-2.29461">
        <ele>-7</ele>
        <time>2022-02-06T08:55:29.000Z</time>
      </trkpt>
      <trkpt lat="47.28283" lon="-2.29448">
        <ele>-7.4000000953674</ele>
        <time>2022-02-06T08:55:32.000Z</time>
      </trkpt>
      <trkpt lat="47.28289" lon="-2.29443">
        <ele>-7.8000001907349</ele>
        <time>2022-02-06T08:55:33.000Z</time>
      </trkpt>
      <trkpt lat="47.28295" lon="-2.29439">
        <ele>-8.1999998092651</ele>
        <time>2022-02-06T08:55:34.000Z</time>
      </trkpt>
      <trkpt lat="47.28301" lon="-2.29434">
        <ele>-8.6000003814697</ele>
        <time>2022-02-06T08:55:35.000Z</time>
      </trkpt>
      <trkpt lat="47.28307" lon="-2.29428">
        <ele>-9</ele>
        <time>2022-02-06T08:55:36.000Z</time>
      </trkpt>
      <trkpt lat="47.28344" lon="-2.29388">
        <ele>-9</ele>
        <time>2022-02-06T08:55:43.000Z</time>
      </trkpt>
      <trkpt lat="47.28369" lon="-2.29368">
        <ele>-9</ele>
        <time>2022-02-06T08:55:48.000Z</time>
      </trkpt>
      <trkpt lat="47.28399" lon="-2.29348">
        <ele>-9</ele>
        <time>2022-02-06T08:55:54.000Z</time>
      </trkpt>
      <trkpt lat="47.28414" lon="-2.29338">
        <ele>-9</ele>
        <time>2022-02-06T08:55:57.000Z</time>
      </trkpt>
      <trkpt lat="47.28431" lon="-2.2933">
        <ele>-9</ele>
        <time>2022-02-06T08:56:00.000Z</time>
      </trkpt>
      <trkpt lat="47.28448" lon="-2.29325">
        <ele>-9</ele>
        <time>2022-02-06T08:56:03.000Z</time>
      </trkpt>
      <trkpt lat="47.28466" lon="-2.29317">
        <ele>-9</ele>
        <time>2022-02-06T08:56:06.000Z</time>
      </trkpt>
      <trkpt lat="47.28486" lon="-2.29307">
        <ele>-9.6000003814697</ele>
        <time>2022-02-06T08:56:09.000Z</time>
      </trkpt>
      <trkpt lat="47.28492" lon="-2.29304">
        <ele>-10</ele>
        <time>2022-02-06T08:56:10.000Z</time>
      </trkpt>
      <trkpt lat="47.28499" lon="-2.293">
        <ele>-10.60000038147</ele>
        <time>2022-02-06T08:56:11.000Z</time>
      </trkpt>
      <trkpt lat="47.28505" lon="-2.29297">
        <ele>-11</ele>
        <time>2022-02-06T08:56:12.000Z</time>
      </trkpt>
      <trkpt lat="47.28511" lon="-2.29294">
        <ele>-11.39999961853</ele>
        <time>2022-02-06T08:56:13.000Z</time>
      </trkpt>
      <trkpt lat="47.28522" lon="-2.29287">
        <ele>-12</ele>
        <time>2022-02-06T08:56:15.000Z</time>
      </trkpt>
      <trkpt lat="47.28524" lon="-2.29282">
        <ele>-12.39999961853</ele>
        <time>2022-02-06T08:56:16.000Z</time>
      </trkpt>
      <trkpt lat="47.28525" lon="-2.29276">
        <ele>-12.800000190735</ele>
        <time>2022-02-06T08:56:17.000Z</time>
      </trkpt>
      <trkpt lat="47.28524" lon="-2.29269">
        <ele>-13.199999809265</ele>
        <time>2022-02-06T08:56:18.000Z</time>
      </trkpt>
      <trkpt lat="47.28523" lon="-2.29262">
        <ele>-13.60000038147</ele>
        <time>2022-02-06T08:56:19.000Z</time>
      </trkpt>
      <trkpt lat="47.28522" lon="-2.29247">
        <ele>-13.60000038147</ele>
        <time>2022-02-06T08:56:21.000Z</time>
      </trkpt>
      <trkpt lat="47.28523" lon="-2.29203">
        <ele>-13.60000038147</ele>
        <time>2022-02-06T08:56:27.000Z</time>
      </trkpt>
      <trkpt lat="47.28532" lon="-2.2919">
        <ele>-13.60000038147</ele>
        <time>2022-02-06T08:56:30.000Z</time>
      </trkpt>
      <trkpt lat="47.28561" lon="-2.29167">
        <ele>-13.60000038147</ele>
        <time>2022-02-06T08:56:36.000Z</time>
      </trkpt>
      <trkpt lat="47.28571" lon="-2.29158">
        <ele>-13.60000038147</ele>
        <time>2022-02-06T08:56:38.000Z</time>
      </trkpt>
      <trkpt lat="47.2858" lon="-2.29146">
        <ele>-13.60000038147</ele>
        <time>2022-02-06T08:56:40.000Z</time>
      </trkpt>
      <trkpt lat="47.28584" lon="-2.29139">
        <ele>-13.60000038147</ele>
        <time>2022-02-06T08:56:41.000Z</time>
      </trkpt>
      <trkpt lat="47.28599" lon="-2.291">
        <ele>-13.60000038147</ele>
        <time>2022-02-06T08:56:46.000Z</time>
      </trkpt>
      <trkpt lat="47.28605" lon="-2.29078">
        <ele>-14</ele>
        <time>2022-02-06T08:56:49.000Z</time>
      </trkpt>
      <trkpt lat="47.28607" lon="-2.29072">
        <ele>-14.39999961853</ele>
        <time>2022-02-06T08:56:50.000Z</time>
      </trkpt>
      <trkpt lat="47.28607" lon="-2.29065">
        <ele>-14.800000190735</ele>
        <time>2022-02-06T08:56:51.000Z</time>
      </trkpt>
      <trkpt lat="47.28606" lon="-2.2906">
        <ele>-15.199999809265</ele>
        <time>2022-02-06T08:56:52.000Z</time>
      </trkpt>
      <trkpt lat="47.28604" lon="-2.29055">
        <ele>-15.60000038147</ele>
        <time>2022-02-06T08:56:53.000Z</time>
      </trkpt>
      <trkpt lat="47.28596" lon="-2.29042">
        <ele>-15.60000038147</ele>
        <time>2022-02-06T08:56:57.000Z</time>
      </trkpt>
      <trkpt lat="47.28583" lon="-2.29041">
        <ele>-15.60000038147</ele>
        <time>2022-02-06T08:57:01.000Z</time>
      </trkpt>
      <trkpt lat="47.28575" lon="-2.29041">
        <ele>-15.60000038147</ele>
        <time>2022-02-06T08:57:03.000Z</time>
      </trkpt>
      <trkpt lat="47.28564" lon="-2.29039">
        <ele>-15.60000038147</ele>
        <time>2022-02-06T08:57:06.000Z</time>
      </trkpt>
      <trkpt lat="47.28559" lon="-2.29038">
        <ele>-15.60000038147</ele>
        <time>2022-02-06T08:57:07.000Z</time>
      </trkpt>
      <trkpt lat="47.28544" lon="-2.29038">
        <ele>-15.60000038147</ele>
        <time>2022-02-06T08:57:11.000Z</time>
      </trkpt>
      <trkpt lat="47.28526" lon="-2.29031">
        <ele>-15.60000038147</ele>
        <time>2022-02-06T08:57:16.000Z</time>
      </trkpt>
      <trkpt lat="47.28512" lon="-2.29022">
        <ele>-15.199999809265</ele>
        <time>2022-02-06T08:57:20.000Z</time>
      </trkpt>
      <trkpt lat="47.28509" lon="-2.2902">
        <ele>-14.800000190735</ele>
        <time>2022-02-06T08:57:21.000Z</time>
      </trkpt>
      <trkpt lat="47.28505" lon="-2.29019">
        <ele>-14.39999961853</ele>
        <time>2022-02-06T08:57:22.000Z</time>
      </trkpt>
      <trkpt lat="47.28502" lon="-2.29017">
        <ele>-14</ele>
        <time>2022-02-06T08:57:23.000Z</time>
      </trkpt>
      <trkpt lat="47.28499" lon="-2.29015">
        <ele>-13.60000038147</ele>
        <time>2022-02-06T08:57:24.000Z</time>
      </trkpt>
      <trkpt lat="47.28484" lon="-2.29009">
        <ele>-13.60000038147</ele>
        <time>2022-02-06T08:57:28.000Z</time>
      </trkpt>
      <trkpt lat="47.28465" lon="-2.29002">
        <ele>-13.60000038147</ele>
        <time>2022-02-06T08:57:33.000Z</time>
      </trkpt>
      <trkpt lat="47.28456" lon="-2.29">
        <ele>-13.199999809265</ele>
        <time>2022-02-06T08:57:36.000Z</time>
      </trkpt>
      <trkpt lat="47.28452" lon="-2.28999">
        <ele>-12.800000190735</ele>
        <time>2022-02-06T08:57:37.000Z</time>
      </trkpt>
      <trkpt lat="47.28449" lon="-2.28999">
        <ele>-12.39999961853</ele>
        <time>2022-02-06T08:57:38.000Z</time>
      </trkpt>
      <trkpt lat="47.28445" lon="-2.28999">
        <ele>-12</ele>
        <time>2022-02-06T08:57:39.000Z</time>
      </trkpt>
      <trkpt lat="47.28441" lon="-2.28997">
        <ele>-11.60000038147</ele>
        <time>2022-02-06T08:57:40.000Z</time>
      </trkpt>
      <trkpt lat="47.28433" lon="-2.28996">
        <ele>-11.60000038147</ele>
        <time>2022-02-06T08:57:42.000Z</time>
      </trkpt>
      <trkpt lat="47.28424" lon="-2.28995">
        <ele>-11.60000038147</ele>
        <time>2022-02-06T08:57:44.000Z</time>
      </trkpt>
      <trkpt lat="47.28408" lon="-2.28989">
        <ele>-11</ele>
        <time>2022-02-06T08:57:48.000Z</time>
      </trkpt>
      <trkpt lat="47.28405" lon="-2.28989">
        <ele>-10.60000038147</ele>
        <time>2022-02-06T08:57:49.000Z</time>
      </trkpt>
      <trkpt lat="47.28403" lon="-2.28986">
        <ele>-10.199999809265</ele>
        <time>2022-02-06T08:57:50.000Z</time>
      </trkpt>
      <trkpt lat="47.28401" lon="-2.28983">
        <ele>-9.8000001907349</ele>
        <time>2022-02-06T08:57:51.000Z</time>
      </trkpt>
      <trkpt lat="47.28401" lon="-2.28979">
        <ele>-9.3999996185303</ele>
        <time>2022-02-06T08:57:52.000Z</time>
      </trkpt>
      <trkpt lat="47.28401" lon="-2.28971">
        <ele>-9.3999996185303</ele>
        <time>2022-02-06T08:57:54.000Z</time>
      </trkpt>
      <trkpt lat="47.28399" lon="-2.28956">
        <ele>-9.3999996185303</ele>
        <time>2022-02-06T08:57:57.000Z</time>
      </trkpt>
      <trkpt lat="47.28397" lon="-2.28924">
        <ele>-9.3999996185303</ele>
        <time>2022-02-06T08:58:02.000Z</time>
      </trkpt>
      <trkpt lat="47.28393" lon="-2.28876">
        <ele>-9.3999996185303</ele>
        <time>2022-02-06T08:58:08.000Z</time>
      </trkpt>
      <trkpt lat="47.28392" lon="-2.28831">
        <ele>-9.3999996185303</ele>
        <time>2022-02-06T08:58:14.000Z</time>
      </trkpt>
      <trkpt lat="47.28388" lon="-2.28779">
        <ele>-9.3999996185303</ele>
        <time>2022-02-06T08:58:21.000Z</time>
      </trkpt>
      <trkpt lat="47.28387" lon="-2.28757">
        <ele>-9.3999996185303</ele>
        <time>2022-02-06T08:58:24.000Z</time>
      </trkpt>
      <trkpt lat="47.28387" lon="-2.28736">
        <ele>-9.3999996185303</ele>
        <time>2022-02-06T08:58:27.000Z</time>
      </trkpt>
      <trkpt lat="47.28386" lon="-2.28721">
        <ele>-9.3999996185303</ele>
        <time>2022-02-06T08:58:29.000Z</time>
      </trkpt>
      <trkpt lat="47.28385" lon="-2.28699">
        <ele>-9.3999996185303</ele>
        <time>2022-02-06T08:58:32.000Z</time>
      </trkpt>
      <trkpt lat="47.28383" lon="-2.28659">
        <ele>-9.3999996185303</ele>
        <time>2022-02-06T08:58:37.000Z</time>
      </trkpt>
      <trkpt lat="47.28383" lon="-2.28651">
        <ele>-9</ele>
        <time>2022-02-06T08:58:38.000Z</time>
      </trkpt>
      <trkpt lat="47.28383" lon="-2.28644">
        <ele>-8.6000003814697</ele>
        <time>2022-02-06T08:58:39.000Z</time>
      </trkpt>
      <trkpt lat="47.28382" lon="-2.28636">
        <ele>-8.1999998092651</ele>
        <time>2022-02-06T08:58:40.000Z</time>
      </trkpt>
      <trkpt lat="47.28382" lon="-2.28629">
        <ele>-7.8000001907349</ele>
        <time>2022-02-06T08:58:41.000Z</time>
      </trkpt>
      <trkpt lat="47.28382" lon="-2.2862">
        <ele>-7.4000000953674</ele>
        <time>2022-02-06T08:58:42.000Z</time>
      </trkpt>
      <trkpt lat="47.28382" lon="-2.28603">
        <ele>-7.4000000953674</ele>
        <time>2022-02-06T08:58:44.000Z</time>
      </trkpt>
      <trkpt lat="47.2838" lon="-2.28546">
        <ele>-7.4000000953674</ele>
        <time>2022-02-06T08:58:51.000Z</time>
      </trkpt>
      <trkpt lat="47.28381" lon="-2.28529">
        <ele>-7.4000000953674</ele>
        <time>2022-02-06T08:58:53.000Z</time>
      </trkpt>
      <trkpt lat="47.2838" lon="-2.28513">
        <ele>-7.4000000953674</ele>
        <time>2022-02-06T08:58:55.000Z</time>
      </trkpt>
      <trkpt lat="47.28377" lon="-2.28456">
        <ele>-7.4000000953674</ele>
        <time>2022-02-06T08:59:02.000Z</time>
      </trkpt>
      <trkpt lat="47.28372" lon="-2.28384">
        <ele>-7.4000000953674</ele>
        <time>2022-02-06T08:59:11.000Z</time>
      </trkpt>
      <trkpt lat="47.28371" lon="-2.28348">
        <ele>-7.4000000953674</ele>
        <time>2022-02-06T08:59:16.000Z</time>
      </trkpt>
      <trkpt lat="47.2837" lon="-2.28291">
        <ele>-7.4000000953674</ele>
        <time>2022-02-06T08:59:23.000Z</time>
      </trkpt>
      <trkpt lat="47.2837" lon="-2.28247">
        <ele>-7.4000000953674</ele>
        <time>2022-02-06T08:59:28.000Z</time>
      </trkpt>
      <trkpt lat="47.28369" lon="-2.28228">
        <ele>-7.8000001907349</ele>
        <time>2022-02-06T08:59:30.000Z</time>
      </trkpt>
      <trkpt lat="47.2837" lon="-2.28219">
        <ele>-8.1999998092651</ele>
        <time>2022-02-06T08:59:31.000Z</time>
      </trkpt>
      <trkpt lat="47.2837" lon="-2.2821">
        <ele>-8.6000003814697</ele>
        <time>2022-02-06T08:59:32.000Z</time>
      </trkpt>
      <trkpt lat="47.28369" lon="-2.282">
        <ele>-9</ele>
        <time>2022-02-06T08:59:33.000Z</time>
      </trkpt>
      <trkpt lat="47.28369" lon="-2.28189">
        <ele>-9.6000003814697</ele>
        <time>2022-02-06T08:59:34.000Z</time>
      </trkpt>
      <trkpt lat="47.28368" lon="-2.28168">
        <ele>-10</ele>
        <time>2022-02-06T08:59:36.000Z</time>
      </trkpt>
      <trkpt lat="47.28368" lon="-2.28156">
        <ele>-10.39999961853</ele>
        <time>2022-02-06T08:59:37.000Z</time>
      </trkpt>
      <trkpt lat="47.28368" lon="-2.28145">
        <ele>-10.800000190735</ele>
        <time>2022-02-06T08:59:38.000Z</time>
      </trkpt>
      <trkpt lat="47.28367" lon="-2.28134">
        <ele>-11.39999961853</ele>
        <time>2022-02-06T08:59:39.000Z</time>
      </trkpt>
      <trkpt lat="47.28367" lon="-2.28124">
        <ele>-11.800000190735</ele>
        <time>2022-02-06T08:59:40.000Z</time>
      </trkpt>
      <trkpt lat="47.28366" lon="-2.28113">
        <ele>-12.39999961853</ele>
        <time>2022-02-06T08:59:41.000Z</time>
      </trkpt>
      <trkpt lat="47.28365" lon="-2.28104">
        <ele>-13</ele>
        <time>2022-02-06T08:59:42.000Z</time>
      </trkpt>
      <trkpt lat="47.28364" lon="-2.28096">
        <ele>-13.60000038147</ele>
        <time>2022-02-06T08:59:43.000Z</time>
      </trkpt>
      <trkpt lat="47.28363" lon="-2.2809">
        <ele>-14</ele>
        <time>2022-02-06T08:59:44.000Z</time>
      </trkpt>
      <trkpt lat="47.28363" lon="-2.28085">
        <ele>-14.60000038147</ele>
        <time>2022-02-06T08:59:45.000Z</time>
      </trkpt>
      <trkpt lat="47.28365" lon="-2.28081">
        <ele>-15.800000190735</ele>
        <time>2022-02-06T08:59:46.000Z</time>
      </trkpt>
      <trkpt lat="47.28365" lon="-2.28077">
        <ele>-16.39999961853</ele>
        <time>2022-02-06T08:59:47.000Z</time>
      </trkpt>
      <trkpt lat="47.28371" lon="-2.28072">
        <ele>-16.39999961853</ele>
        <time>2022-02-06T08:59:51.000Z</time>
      </trkpt>
      <trkpt lat="47.28378" lon="-2.28072">
        <ele>-16.39999961853</ele>
        <time>2022-02-06T08:59:56.000Z</time>
      </trkpt>
      <trkpt lat="47.28393" lon="-2.28076">
        <ele>-16.39999961853</ele>
        <time>2022-02-06T09:00:03.000Z</time>
      </trkpt>
      <trkpt lat="47.28407" lon="-2.28085">
        <ele>-16.39999961853</ele>
        <time>2022-02-06T09:00:08.000Z</time>
      </trkpt>
      <trkpt lat="47.2841" lon="-2.28084">
        <ele>-16.39999961853</ele>
        <time>2022-02-06T09:00:09.000Z</time>
      </trkpt>
      <trkpt lat="47.28415" lon="-2.28082">
        <ele>-16.39999961853</ele>
        <time>2022-02-06T09:00:11.000Z</time>
      </trkpt>
      <trkpt lat="47.28426" lon="-2.28082">
        <ele>-16.39999961853</ele>
        <time>2022-02-06T09:00:15.000Z</time>
      </trkpt>
      <trkpt lat="47.28438" lon="-2.28084">
        <ele>-16.39999961853</ele>
        <time>2022-02-06T09:00:19.000Z</time>
      </trkpt>
      <trkpt lat="47.28443" lon="-2.28085">
        <ele>-16.39999961853</ele>
        <time>2022-02-06T09:00:21.000Z</time>
      </trkpt>
      <trkpt lat="47.28452" lon="-2.28091">
        <ele>-16.39999961853</ele>
        <time>2022-02-06T09:00:24.000Z</time>
      </trkpt>
      <trkpt lat="47.28464" lon="-2.28091">
        <ele>-16.39999961853</ele>
        <time>2022-02-06T09:00:28.000Z</time>
      </trkpt>
      <trkpt lat="47.28476" lon="-2.28086">
        <ele>-16.39999961853</ele>
        <time>2022-02-06T09:00:32.000Z</time>
      </trkpt>
      <trkpt lat="47.28479" lon="-2.28079">
        <ele>-16.39999961853</ele>
        <time>2022-02-06T09:00:34.000Z</time>
      </trkpt>
      <trkpt lat="47.2848" lon="-2.28076">
        <ele>-16</ele>
        <time>2022-02-06T09:00:35.000Z</time>
      </trkpt>
      <trkpt lat="47.28479" lon="-2.28073">
        <ele>-15.60000038147</ele>
        <time>2022-02-06T09:00:36.000Z</time>
      </trkpt>
      <trkpt lat="47.28479" lon="-2.28071">
        <ele>-15.199999809265</ele>
        <time>2022-02-06T09:00:37.000Z</time>
      </trkpt>
      <trkpt lat="47.28478" lon="-2.28069">
        <ele>-14.60000038147</ele>
        <time>2022-02-06T09:00:38.000Z</time>
      </trkpt>
      <trkpt lat="47.28477" lon="-2.28066">
        <ele>-14.199999809265</ele>
        <time>2022-02-06T09:00:39.000Z</time>
      </trkpt>
      <trkpt lat="47.28475" lon="-2.28057">
        <ele>-14.199999809265</ele>
        <time>2022-02-06T09:00:42.000Z</time>
      </trkpt>
      <trkpt lat="47.28477" lon="-2.28046">
        <ele>-14.199999809265</ele>
        <time>2022-02-06T09:00:45.000Z</time>
      </trkpt>
      <trkpt lat="47.28481" lon="-2.28045">
        <ele>-14.199999809265</ele>
        <time>2022-02-06T09:00:46.000Z</time>
      </trkpt>
      <trkpt lat="47.28496" lon="-2.28042">
        <ele>-14.199999809265</ele>
        <time>2022-02-06T09:00:51.000Z</time>
      </trkpt>
      <trkpt lat="47.28508" lon="-2.28053">
        <ele>-14.199999809265</ele>
        <time>2022-02-06T09:00:55.000Z</time>
      </trkpt>
      <trkpt lat="47.28526" lon="-2.28056">
        <ele>-14.199999809265</ele>
        <time>2022-02-06T09:00:59.000Z</time>
      </trkpt>
      <trkpt lat="47.2853" lon="-2.28056">
        <ele>-15</ele>
        <time>2022-02-06T09:01:00.000Z</time>
      </trkpt>
      <trkpt lat="47.28534" lon="-2.28056">
        <ele>-15.39999961853</ele>
        <time>2022-02-06T09:01:01.000Z</time>
      </trkpt>
      <trkpt lat="47.28538" lon="-2.28057">
        <ele>-16</ele>
        <time>2022-02-06T09:01:02.000Z</time>
      </trkpt>
      <trkpt lat="47.28541" lon="-2.28058">
        <ele>-16.60000038147</ele>
        <time>2022-02-06T09:01:03.000Z</time>
      </trkpt>
      <trkpt lat="47.28546" lon="-2.28059">
        <ele>-17.39999961853</ele>
        <time>2022-02-06T09:01:04.000Z</time>
      </trkpt>
      <trkpt lat="47.2855" lon="-2.28059">
        <ele>-18</ele>
        <time>2022-02-06T09:01:05.000Z</time>
      </trkpt>
      <trkpt lat="47.28554" lon="-2.28056">
        <ele>-18.60000038147</ele>
        <time>2022-02-06T09:01:06.000Z</time>
      </trkpt>
      <trkpt lat="47.28563" lon="-2.28054">
        <ele>-18.60000038147</ele>
        <time>2022-02-06T09:01:08.000Z</time>
      </trkpt>
      <trkpt lat="47.28567" lon="-2.28051">
        <ele>-18.60000038147</ele>
        <time>2022-02-06T09:01:09.000Z</time>
      </trkpt>
      <trkpt lat="47.28571" lon="-2.28042">
        <ele>-18.60000038147</ele>
        <time>2022-02-06T09:01:11.000Z</time>
      </trkpt>
      <trkpt lat="47.28582" lon="-2.2803">
        <ele>-18.60000038147</ele>
        <time>2022-02-06T09:01:14.000Z</time>
      </trkpt>
      <trkpt lat="47.28591" lon="-2.2802">
        <ele>-18.60000038147</ele>
        <time>2022-02-06T09:01:16.000Z</time>
      </trkpt>
      <trkpt lat="47.28594" lon="-2.28014">
        <ele>-18.60000038147</ele>
        <time>2022-02-06T09:01:17.000Z</time>
      </trkpt>
      <trkpt lat="47.28602" lon="-2.27992">
        <ele>-18.60000038147</ele>
        <time>2022-02-06T09:01:20.000Z</time>
      </trkpt>
      <trkpt lat="47.28612" lon="-2.27957">
        <ele>-18.60000038147</ele>
        <time>2022-02-06T09:01:24.000Z</time>
      </trkpt>
      <trkpt lat="47.28616" lon="-2.2795">
        <ele>-19.39999961853</ele>
        <time>2022-02-06T09:01:25.000Z</time>
      </trkpt>
      <trkpt lat="47.2862" lon="-2.27942">
        <ele>-19.799999237061</ele>
        <time>2022-02-06T09:01:26.000Z</time>
      </trkpt>
      <trkpt lat="47.28623" lon="-2.27935">
        <ele>-20.200000762939</ele>
        <time>2022-02-06T09:01:27.000Z</time>
      </trkpt>
      <trkpt lat="47.28624" lon="-2.27926">
        <ele>-20.60000038147</ele>
        <time>2022-02-06T09:01:28.000Z</time>
      </trkpt>
      <trkpt lat="47.28626" lon="-2.27918">
        <ele>-20.60000038147</ele>
        <time>2022-02-06T09:01:29.000Z</time>
      </trkpt>
      <trkpt lat="47.28627" lon="-2.27909">
        <ele>-20.60000038147</ele>
        <time>2022-02-06T09:01:30.000Z</time>
      </trkpt>
      <trkpt lat="47.28635" lon="-2.27865">
        <ele>-20.60000038147</ele>
        <time>2022-02-06T09:01:35.000Z</time>
      </trkpt>
      <trkpt lat="47.2864" lon="-2.27824">
        <ele>-20.60000038147</ele>
        <time>2022-02-06T09:01:40.000Z</time>
      </trkpt>
      <trkpt lat="47.28642" lon="-2.27816">
        <ele>-20.60000038147</ele>
        <time>2022-02-06T09:01:41.000Z</time>
      </trkpt>
      <trkpt lat="47.28656" lon="-2.27766">
        <ele>-20.60000038147</ele>
        <time>2022-02-06T09:01:48.000Z</time>
      </trkpt>
      <trkpt lat="47.28659" lon="-2.27759">
        <ele>-20.60000038147</ele>
        <time>2022-02-06T09:01:49.000Z</time>
      </trkpt>
      <trkpt lat="47.28674" lon="-2.2773">
        <ele>-20.60000038147</ele>
        <time>2022-02-06T09:01:53.000Z</time>
      </trkpt>
      <trkpt lat="47.28678" lon="-2.27723">
        <ele>-21</ele>
        <time>2022-02-06T09:01:54.000Z</time>
      </trkpt>
      <trkpt lat="47.28682" lon="-2.27715">
        <ele>-21.39999961853</ele>
        <time>2022-02-06T09:01:55.000Z</time>
      </trkpt>
      <trkpt lat="47.28686" lon="-2.27709">
        <ele>-21.799999237061</ele>
        <time>2022-02-06T09:01:56.000Z</time>
      </trkpt>
      <trkpt lat="47.2869" lon="-2.27702">
        <ele>-22.200000762939</ele>
        <time>2022-02-06T09:01:57.000Z</time>
      </trkpt>
      <trkpt lat="47.28694" lon="-2.27695">
        <ele>-22.60000038147</ele>
        <time>2022-02-06T09:01:58.000Z</time>
      </trkpt>
      <trkpt lat="47.28723" lon="-2.27649">
        <ele>-22.60000038147</ele>
        <time>2022-02-06T09:02:05.000Z</time>
      </trkpt>
      <trkpt lat="47.28756" lon="-2.27605">
        <ele>-22.60000038147</ele>
        <time>2022-02-06T09:02:12.000Z</time>
      </trkpt>
      <trkpt lat="47.28765" lon="-2.27594">
        <ele>-22.60000038147</ele>
        <time>2022-02-06T09:02:14.000Z</time>
      </trkpt>
      <trkpt lat="47.28779" lon="-2.27578">
        <ele>-22.60000038147</ele>
        <time>2022-02-06T09:02:17.000Z</time>
      </trkpt>
      <trkpt lat="47.28792" lon="-2.27562">
        <ele>-22.60000038147</ele>
        <time>2022-02-06T09:02:20.000Z</time>
      </trkpt>
      <trkpt lat="47.28805" lon="-2.27544">
        <ele>-22.60000038147</ele>
        <time>2022-02-06T09:02:23.000Z</time>
      </trkpt>
      <trkpt lat="47.28827" lon="-2.27536">
        <ele>-22.60000038147</ele>
        <time>2022-02-06T09:02:27.000Z</time>
      </trkpt>
      <trkpt lat="47.28863" lon="-2.27531">
        <ele>-22.60000038147</ele>
        <time>2022-02-06T09:02:33.000Z</time>
      </trkpt>
      <trkpt lat="47.28898" lon="-2.27524">
        <ele>-22.60000038147</ele>
        <time>2022-02-06T09:02:39.000Z</time>
      </trkpt>
      <trkpt lat="47.2893" lon="-2.2752">
        <ele>-23</ele>
        <time>2022-02-06T09:02:44.000Z</time>
      </trkpt>
      <trkpt lat="47.28936" lon="-2.27521">
        <ele>-23.39999961853</ele>
        <time>2022-02-06T09:02:45.000Z</time>
      </trkpt>
      <trkpt lat="47.28942" lon="-2.27521">
        <ele>-23.799999237061</ele>
        <time>2022-02-06T09:02:46.000Z</time>
      </trkpt>
      <trkpt lat="47.28948" lon="-2.27521">
        <ele>-24.200000762939</ele>
        <time>2022-02-06T09:02:47.000Z</time>
      </trkpt>
      <trkpt lat="47.28954" lon="-2.27521">
        <ele>-24.60000038147</ele>
        <time>2022-02-06T09:02:48.000Z</time>
      </trkpt>
      <trkpt lat="47.28987" lon="-2.27521">
        <ele>-24.60000038147</ele>
        <time>2022-02-06T09:02:54.000Z</time>
      </trkpt>
      <trkpt lat="47.2904" lon="-2.27521">
        <ele>-24.60000038147</ele>
        <time>2022-02-06T09:03:03.000Z</time>
      </trkpt>
      <trkpt lat="47.29075" lon="-2.27525">
        <ele>-24.60000038147</ele>
        <time>2022-02-06T09:03:09.000Z</time>
      </trkpt>
      <trkpt lat="47.291" lon="-2.27528">
        <ele>-24.60000038147</ele>
        <time>2022-02-06T09:03:14.000Z</time>
      </trkpt>
      <trkpt lat="47.29103" lon="-2.27527">
        <ele>-24.60000038147</ele>
        <time>2022-02-06T09:03:15.000Z</time>
      </trkpt>
      <trkpt lat="47.29106" lon="-2.27512">
        <ele>-24.60000038147</ele>
        <time>2022-02-06T09:03:18.000Z</time>
      </trkpt>
      <trkpt lat="47.29106" lon="-2.275">
        <ele>-24.60000038147</ele>
        <time>2022-02-06T09:03:20.000Z</time>
      </trkpt>
      <trkpt lat="47.29106" lon="-2.27474">
        <ele>-24.60000038147</ele>
        <time>2022-02-06T09:03:24.000Z</time>
      </trkpt>
      <trkpt lat="47.29108" lon="-2.27454">
        <ele>-24.60000038147</ele>
        <time>2022-02-06T09:03:27.000Z</time>
      </trkpt>
      <trkpt lat="47.29109" lon="-2.27429">
        <ele>-24.60000038147</ele>
        <time>2022-02-06T09:03:30.000Z</time>
      </trkpt>
      <trkpt lat="47.29106" lon="-2.27395">
        <ele>-24.60000038147</ele>
        <time>2022-02-06T09:03:34.000Z</time>
      </trkpt>
      <trkpt lat="47.29098" lon="-2.27354">
        <ele>-24.60000038147</ele>
        <time>2022-02-06T09:03:39.000Z</time>
      </trkpt>
      <trkpt lat="47.291" lon="-2.2734">
        <ele>-25</ele>
        <time>2022-02-06T09:03:41.000Z</time>
      </trkpt>
      <trkpt lat="47.29101" lon="-2.27333">
        <ele>-25.39999961853</ele>
        <time>2022-02-06T09:03:42.000Z</time>
      </trkpt>
      <trkpt lat="47.29102" lon="-2.27327">
        <ele>-25.799999237061</ele>
        <time>2022-02-06T09:03:43.000Z</time>
      </trkpt>
      <trkpt lat="47.29103" lon="-2.2732">
        <ele>-26.200000762939</ele>
        <time>2022-02-06T09:03:44.000Z</time>
      </trkpt>
      <trkpt lat="47.29104" lon="-2.27314">
        <ele>-26.60000038147</ele>
        <time>2022-02-06T09:03:45.000Z</time>
      </trkpt>
      <trkpt lat="47.29108" lon="-2.273">
        <ele>-26.60000038147</ele>
        <time>2022-02-06T09:03:48.000Z</time>
      </trkpt>
      <trkpt lat="47.2911" lon="-2.27293">
        <ele>-26.60000038147</ele>
        <time>2022-02-06T09:03:52.000Z</time>
      </trkpt>
      <trkpt lat="47.29111" lon="-2.27288">
        <ele>-26.60000038147</ele>
        <time>2022-02-06T09:04:03.000Z</time>
      </trkpt>
      <trkpt lat="47.29112" lon="-2.27284">
        <ele>-26.60000038147</ele>
        <time>2022-02-06T09:04:05.000Z</time>
      </trkpt>
      <trkpt lat="47.29115" lon="-2.27269">
        <ele>-26.60000038147</ele>
        <time>2022-02-06T09:04:11.000Z</time>
      </trkpt>
      <trkpt lat="47.29119" lon="-2.27254">
        <ele>-26.60000038147</ele>
        <time>2022-02-06T09:04:16.000Z</time>
      </trkpt>
      <trkpt lat="47.29124" lon="-2.27234">
        <ele>-26.60000038147</ele>
        <time>2022-02-06T09:04:22.000Z</time>
      </trkpt>
      <trkpt lat="47.2913" lon="-2.2721">
        <ele>-26.60000038147</ele>
        <time>2022-02-06T09:04:29.000Z</time>
      </trkpt>
      <trkpt lat="47.29133" lon="-2.27205">
        <ele>-26.60000038147</ele>
        <time>2022-02-06T09:04:31.000Z</time>
      </trkpt>
      <trkpt lat="47.2914" lon="-2.27199">
        <ele>-26.60000038147</ele>
        <time>2022-02-06T09:04:34.000Z</time>
      </trkpt>
      <trkpt lat="47.29147" lon="-2.27198">
        <ele>-26.60000038147</ele>
        <time>2022-02-06T09:04:37.000Z</time>
      </trkpt>
      <trkpt lat="47.29148" lon="-2.27197">
        <ele>-26.60000038147</ele>
        <time>2022-02-06T09:04:38.000Z</time>
      </trkpt>
      <trkpt lat="47.29151" lon="-2.27198">
        <ele>-26.60000038147</ele>
        <time>2022-02-06T09:04:40.000Z</time>
      </trkpt>
      <trkpt lat="47.29154" lon="-2.27196">
        <ele>-26.60000038147</ele>
        <time>2022-02-06T09:04:43.000Z</time>
      </trkpt>
      <trkpt lat="47.29157" lon="-2.27197">
        <ele>-26.60000038147</ele>
        <time>2022-02-06T09:04:45.000Z</time>
      </trkpt>
      <trkpt lat="47.29162" lon="-2.27195">
        <ele>-26.60000038147</ele>
        <time>2022-02-06T09:04:47.000Z</time>
      </trkpt>
      <trkpt lat="47.29182" lon="-2.2719">
        <ele>-26.60000038147</ele>
        <time>2022-02-06T09:04:54.000Z</time>
      </trkpt>
      <trkpt lat="47.29198" lon="-2.27184">
        <ele>-26.60000038147</ele>
        <time>2022-02-06T09:04:59.000Z</time>
      </trkpt>
      <trkpt lat="47.29209" lon="-2.27169">
        <ele>-26.60000038147</ele>
        <time>2022-02-06T09:05:03.000Z</time>
      </trkpt>
      <trkpt lat="47.29211" lon="-2.27162">
        <ele>-26.60000038147</ele>
        <time>2022-02-06T09:05:04.000Z</time>
      </trkpt>
      <trkpt lat="47.29217" lon="-2.27142">
        <ele>-26.60000038147</ele>
        <time>2022-02-06T09:05:07.000Z</time>
      </trkpt>
      <trkpt lat="47.29226" lon="-2.27116">
        <ele>-26.60000038147</ele>
        <time>2022-02-06T09:05:11.000Z</time>
      </trkpt>
      <trkpt lat="47.29225" lon="-2.27102">
        <ele>-26.60000038147</ele>
        <time>2022-02-06T09:05:13.000Z</time>
      </trkpt>
      <trkpt lat="47.29222" lon="-2.2706">
        <ele>-26.60000038147</ele>
        <time>2022-02-06T09:05:19.000Z</time>
      </trkpt>
      <trkpt lat="47.2922" lon="-2.27019">
        <ele>-26.60000038147</ele>
        <time>2022-02-06T09:05:25.000Z</time>
      </trkpt>
      <trkpt lat="47.29222" lon="-2.2698">
        <ele>-26.60000038147</ele>
        <time>2022-02-06T09:05:31.000Z</time>
      </trkpt>
      <trkpt lat="47.29227" lon="-2.26943">
        <ele>-26.60000038147</ele>
        <time>2022-02-06T09:05:37.000Z</time>
      </trkpt>
      <trkpt lat="47.29232" lon="-2.26933">
        <ele>-26.60000038147</ele>
        <time>2022-02-06T09:05:41.000Z</time>
      </trkpt>
      <trkpt lat="47.29233" lon="-2.2693">
        <ele>-26.60000038147</ele>
        <time>2022-02-06T09:06:58.000Z</time>
      </trkpt>
      <trkpt lat="47.29234" lon="-2.2692">
        <ele>-26.60000038147</ele>
        <time>2022-02-06T09:07:01.000Z</time>
      </trkpt>
      <trkpt lat="47.29231" lon="-2.26897">
        <ele>-26.60000038147</ele>
        <time>2022-02-06T09:07:06.000Z</time>
      </trkpt>
      <trkpt lat="47.29224" lon="-2.26863">
        <ele>-26.60000038147</ele>
        <time>2022-02-06T09:07:13.000Z</time>
      </trkpt>
      <trkpt lat="47.29223" lon="-2.26858">
        <ele>-26.60000038147</ele>
        <time>2022-02-06T09:07:14.000Z</time>
      </trkpt>
      <trkpt lat="47.29218" lon="-2.26827">
        <ele>-26.60000038147</ele>
        <time>2022-02-06T09:07:19.000Z</time>
      </trkpt>
      <trkpt lat="47.29211" lon="-2.26778">
        <ele>-26.60000038147</ele>
        <time>2022-02-06T09:07:27.000Z</time>
      </trkpt>
      <trkpt lat="47.2921" lon="-2.26759">
        <ele>-26.60000038147</ele>
        <time>2022-02-06T09:07:30.000Z</time>
      </trkpt>
      <trkpt lat="47.29209" lon="-2.26746">
        <ele>-26.60000038147</ele>
        <time>2022-02-06T09:07:32.000Z</time>
      </trkpt>
      <trkpt lat="47.29208" lon="-2.2674">
        <ele>-26.60000038147</ele>
        <time>2022-02-06T09:07:33.000Z</time>
      </trkpt>
      <trkpt lat="47.29209" lon="-2.26723">
        <ele>-26.60000038147</ele>
        <time>2022-02-06T09:07:37.000Z</time>
      </trkpt>
      <trkpt lat="47.29211" lon="-2.26721">
        <ele>-26.60000038147</ele>
        <time>2022-02-06T09:07:38.000Z</time>
      </trkpt>
      <trkpt lat="47.29221" lon="-2.26714">
        <ele>-26.60000038147</ele>
        <time>2022-02-06T09:07:41.000Z</time>
      </trkpt>
      <trkpt lat="47.29224" lon="-2.26712">
        <ele>-26.60000038147</ele>
        <time>2022-02-06T09:07:42.000Z</time>
      </trkpt>
      <trkpt lat="47.2924" lon="-2.26691">
        <ele>-26.60000038147</ele>
        <time>2022-02-06T09:07:47.000Z</time>
      </trkpt>
      <trkpt lat="47.29247" lon="-2.26688">
        <ele>-26.60000038147</ele>
        <time>2022-02-06T09:07:49.000Z</time>
      </trkpt>
      <trkpt lat="47.29257" lon="-2.26686">
        <ele>-26.60000038147</ele>
        <time>2022-02-06T09:07:51.000Z</time>
      </trkpt>
      <trkpt lat="47.29262" lon="-2.26686">
        <ele>-26.60000038147</ele>
        <time>2022-02-06T09:07:52.000Z</time>
      </trkpt>
      <trkpt lat="47.29286" lon="-2.26682">
        <ele>-26.60000038147</ele>
        <time>2022-02-06T09:07:57.000Z</time>
      </trkpt>
      <trkpt lat="47.29301" lon="-2.26676">
        <ele>-26.60000038147</ele>
        <time>2022-02-06T09:08:00.000Z</time>
      </trkpt>
      <trkpt lat="47.29315" lon="-2.26668">
        <ele>-26.60000038147</ele>
        <time>2022-02-06T09:08:03.000Z</time>
      </trkpt>
      <trkpt lat="47.29324" lon="-2.26662">
        <ele>-26.60000038147</ele>
        <time>2022-02-06T09:08:05.000Z</time>
      </trkpt>
      <trkpt lat="47.2934" lon="-2.26655">
        <ele>-26.60000038147</ele>
        <time>2022-02-06T09:08:08.000Z</time>
      </trkpt>
      <trkpt lat="47.29374" lon="-2.26646">
        <ele>-26.60000038147</ele>
        <time>2022-02-06T09:08:14.000Z</time>
      </trkpt>
      <trkpt lat="47.29379" lon="-2.26643">
        <ele>-26.60000038147</ele>
        <time>2022-02-06T09:08:15.000Z</time>
      </trkpt>
      <trkpt lat="47.29404" lon="-2.26629">
        <ele>-26.60000038147</ele>
        <time>2022-02-06T09:08:20.000Z</time>
      </trkpt>
      <trkpt lat="47.29439" lon="-2.26616">
        <ele>-26.60000038147</ele>
        <time>2022-02-06T09:08:27.000Z</time>
      </trkpt>
      <trkpt lat="47.29468" lon="-2.26603">
        <ele>-26.60000038147</ele>
        <time>2022-02-06T09:08:33.000Z</time>
      </trkpt>
      <trkpt lat="47.29482" lon="-2.26596">
        <ele>-26.60000038147</ele>
        <time>2022-02-06T09:08:36.000Z</time>
      </trkpt>
      <trkpt lat="47.29494" lon="-2.26589">
        <ele>-26.60000038147</ele>
        <time>2022-02-06T09:08:39.000Z</time>
      </trkpt>
      <trkpt lat="47.29503" lon="-2.26582">
        <ele>-26.200000762939</ele>
        <time>2022-02-06T09:08:42.000Z</time>
      </trkpt>
      <trkpt lat="47.29507" lon="-2.26579">
        <ele>-25.799999237061</ele>
        <time>2022-02-06T09:08:43.000Z</time>
      </trkpt>
      <trkpt lat="47.29509" lon="-2.26576">
        <ele>-25.39999961853</ele>
        <time>2022-02-06T09:08:44.000Z</time>
      </trkpt>
      <trkpt lat="47.29513" lon="-2.26572">
        <ele>-25</ele>
        <time>2022-02-06T09:08:45.000Z</time>
      </trkpt>
      <trkpt lat="47.29516" lon="-2.26568">
        <ele>-24.60000038147</ele>
        <time>2022-02-06T09:08:46.000Z</time>
      </trkpt>
      <trkpt lat="47.29536" lon="-2.26546">
        <ele>-24.60000038147</ele>
        <time>2022-02-06T09:08:51.000Z</time>
      </trkpt>
      <trkpt lat="47.29546" lon="-2.26538">
        <ele>-25</ele>
        <time>2022-02-06T09:08:53.000Z</time>
      </trkpt>
      <trkpt lat="47.2955" lon="-2.26534">
        <ele>-25.39999961853</ele>
        <time>2022-02-06T09:08:54.000Z</time>
      </trkpt>
      <trkpt lat="47.29555" lon="-2.26531">
        <ele>-25.799999237061</ele>
        <time>2022-02-06T09:08:55.000Z</time>
      </trkpt>
      <trkpt lat="47.29559" lon="-2.26527">
        <ele>-26.200000762939</ele>
        <time>2022-02-06T09:08:56.000Z</time>
      </trkpt>
      <trkpt lat="47.29564" lon="-2.26524">
        <ele>-26.60000038147</ele>
        <time>2022-02-06T09:08:57.000Z</time>
      </trkpt>
      <trkpt lat="47.29573" lon="-2.26517">
        <ele>-26.60000038147</ele>
        <time>2022-02-06T09:08:59.000Z</time>
      </trkpt>
      <trkpt lat="47.29591" lon="-2.26501">
        <ele>-27</ele>
        <time>2022-02-06T09:09:03.000Z</time>
      </trkpt>
      <trkpt lat="47.29594" lon="-2.26497">
        <ele>-27.39999961853</ele>
        <time>2022-02-06T09:09:04.000Z</time>
      </trkpt>
      <trkpt lat="47.29597" lon="-2.26493">
        <ele>-27.799999237061</ele>
        <time>2022-02-06T09:09:05.000Z</time>
      </trkpt>
      <trkpt lat="47.29599" lon="-2.26487">
        <ele>-28.200000762939</ele>
        <time>2022-02-06T09:09:06.000Z</time>
      </trkpt>
      <trkpt lat="47.29599" lon="-2.2648">
        <ele>-28.60000038147</ele>
        <time>2022-02-06T09:09:07.000Z</time>
      </trkpt>
      <trkpt lat="47.29603" lon="-2.26435">
        <ele>-29</ele>
        <time>2022-02-06T09:09:13.000Z</time>
      </trkpt>
      <trkpt lat="47.29604" lon="-2.26428">
        <ele>-30</ele>
        <time>2022-02-06T09:09:14.000Z</time>
      </trkpt>
      <trkpt lat="47.29606" lon="-2.26421">
        <ele>-30.60000038147</ele>
        <time>2022-02-06T09:09:15.000Z</time>
      </trkpt>
      <trkpt lat="47.29609" lon="-2.26416">
        <ele>-31.200000762939</ele>
        <time>2022-02-06T09:09:16.000Z</time>
      </trkpt>
      <trkpt lat="47.29611" lon="-2.26409">
        <ele>-31.799999237061</ele>
        <time>2022-02-06T09:09:17.000Z</time>
      </trkpt>
      <trkpt lat="47.29613" lon="-2.26401">
        <ele>-32.400001525879</ele>
        <time>2022-02-06T09:09:18.000Z</time>
      </trkpt>
      <trkpt lat="47.29613" lon="-2.26393">
        <ele>-33</ele>
        <time>2022-02-06T09:09:19.000Z</time>
      </trkpt>
      <trkpt lat="47.29613" lon="-2.26386">
        <ele>-33.400001525879</ele>
        <time>2022-02-06T09:09:20.000Z</time>
      </trkpt>
      <trkpt lat="47.29613" lon="-2.2638">
        <ele>-33.799999237061</ele>
        <time>2022-02-06T09:09:21.000Z</time>
      </trkpt>
      <trkpt lat="47.29611" lon="-2.26375">
        <ele>-34.200000762939</ele>
        <time>2022-02-06T09:09:22.000Z</time>
      </trkpt>
      <trkpt lat="47.29609" lon="-2.26371">
        <ele>-34.799999237061</ele>
        <time>2022-02-06T09:09:23.000Z</time>
      </trkpt>
      <trkpt lat="47.29607" lon="-2.2637">
        <ele>-35.200000762939</ele>
        <time>2022-02-06T09:09:24.000Z</time>
      </trkpt>
      <trkpt lat="47.29606" lon="-2.26367">
        <ele>-35.200000762939</ele>
        <time>2022-02-06T09:09:25.000Z</time>
      </trkpt>
      <trkpt lat="47.29605" lon="-2.26365">
        <ele>-35.200000762939</ele>
        <time>2022-02-06T09:09:26.000Z</time>
      </trkpt>
      <trkpt lat="47.29606" lon="-2.26354">
        <ele>-35.200000762939</ele>
        <time>2022-02-06T09:09:29.000Z</time>
      </trkpt>
      <trkpt lat="47.29607" lon="-2.26351">
        <ele>-35.200000762939</ele>
        <time>2022-02-06T09:09:30.000Z</time>
      </trkpt>
      <trkpt lat="47.2961" lon="-2.26338">
        <ele>-35.200000762939</ele>
        <time>2022-02-06T09:09:36.000Z</time>
      </trkpt>
      <trkpt lat="47.29605" lon="-2.26326">
        <ele>-35.200000762939</ele>
        <time>2022-02-06T09:09:42.000Z</time>
      </trkpt>
      <trkpt lat="47.296" lon="-2.26318">
        <ele>-35.200000762939</ele>
        <time>2022-02-06T09:09:46.000Z</time>
      </trkpt>
      <trkpt lat="47.29599" lon="-2.26312">
        <ele>-35.200000762939</ele>
        <time>2022-02-06T09:09:49.000Z</time>
      </trkpt>
      <trkpt lat="47.29599" lon="-2.26295">
        <ele>-35.200000762939</ele>
        <time>2022-02-06T09:09:55.000Z</time>
      </trkpt>
      <trkpt lat="47.2961" lon="-2.26279">
        <ele>-35.200000762939</ele>
        <time>2022-02-06T09:10:02.000Z</time>
      </trkpt>
      <trkpt lat="47.29615" lon="-2.26263">
        <ele>-35.200000762939</ele>
        <time>2022-02-06T09:10:07.000Z</time>
      </trkpt>
      <trkpt lat="47.29614" lon="-2.26261">
        <ele>-35.200000762939</ele>
        <time>2022-02-06T09:10:08.000Z</time>
      </trkpt>
      <trkpt lat="47.2961" lon="-2.26259">
        <ele>-35.200000762939</ele>
        <time>2022-02-06T09:10:11.000Z</time>
      </trkpt>
      <trkpt lat="47.29606" lon="-2.26259">
        <ele>-35.200000762939</ele>
        <time>2022-02-06T09:10:13.000Z</time>
      </trkpt>
      <trkpt lat="47.29596" lon="-2.26258">
        <ele>-35.200000762939</ele>
        <time>2022-02-06T09:10:16.000Z</time>
      </trkpt>
      <trkpt lat="47.29583" lon="-2.26255">
        <ele>-34.799999237061</ele>
        <time>2022-02-06T09:10:20.000Z</time>
      </trkpt>
      <trkpt lat="47.29579" lon="-2.26254">
        <ele>-34.200000762939</ele>
        <time>2022-02-06T09:10:21.000Z</time>
      </trkpt>
      <trkpt lat="47.29576" lon="-2.26253">
        <ele>-33.799999237061</ele>
        <time>2022-02-06T09:10:22.000Z</time>
      </trkpt>
      <trkpt lat="47.29573" lon="-2.26252">
        <ele>-33.400001525879</ele>
        <time>2022-02-06T09:10:23.000Z</time>
      </trkpt>
      <trkpt lat="47.2957" lon="-2.26252">
        <ele>-32.799999237061</ele>
        <time>2022-02-06T09:10:24.000Z</time>
      </trkpt>
      <trkpt lat="47.29554" lon="-2.26251">
        <ele>-32.799999237061</ele>
        <time>2022-02-06T09:10:30.000Z</time>
      </trkpt>
      <trkpt lat="47.29553" lon="-2.2625">
        <ele>-32.400001525879</ele>
        <time>2022-02-06T09:10:31.000Z</time>
      </trkpt>
      <trkpt lat="47.29551" lon="-2.2625">
        <ele>-32</ele>
        <time>2022-02-06T09:10:32.000Z</time>
      </trkpt>
      <trkpt lat="47.29549" lon="-2.2625">
        <ele>-31.60000038147</ele>
        <time>2022-02-06T09:10:33.000Z</time>
      </trkpt>
      <trkpt lat="47.29547" lon="-2.2625">
        <ele>-31.200000762939</ele>
        <time>2022-02-06T09:10:34.000Z</time>
      </trkpt>
      <trkpt lat="47.29545" lon="-2.2625">
        <ele>-30.799999237061</ele>
        <time>2022-02-06T09:10:35.000Z</time>
      </trkpt>
      <trkpt lat="47.29544" lon="-2.26249">
        <ele>-30.799999237061</ele>
        <time>2022-02-06T09:10:36.000Z</time>
      </trkpt>
      <trkpt lat="47.29539" lon="-2.26244">
        <ele>-30.799999237061</ele>
        <time>2022-02-06T09:10:39.000Z</time>
      </trkpt>
      <trkpt lat="47.29538" lon="-2.2624">
        <ele>-30.799999237061</ele>
        <time>2022-02-06T09:10:40.000Z</time>
      </trkpt>
      <trkpt lat="47.29544" lon="-2.2623">
        <ele>-30.799999237061</ele>
        <time>2022-02-06T09:10:44.000Z</time>
      </trkpt>
      <trkpt lat="47.29548" lon="-2.26225">
        <ele>-30.799999237061</ele>
        <time>2022-02-06T09:10:46.000Z</time>
      </trkpt>
      <trkpt lat="47.29556" lon="-2.26214">
        <ele>-30.799999237061</ele>
        <time>2022-02-06T09:10:50.000Z</time>
      </trkpt>
      <trkpt lat="47.29556" lon="-2.2621">
        <ele>-30.799999237061</ele>
        <time>2022-02-06T09:10:51.000Z</time>
      </trkpt>
      <trkpt lat="47.29555" lon="-2.26203">
        <ele>-30.799999237061</ele>
        <time>2022-02-06T09:10:53.000Z</time>
      </trkpt>
      <trkpt lat="47.29552" lon="-2.262">
        <ele>-30.799999237061</ele>
        <time>2022-02-06T09:10:55.000Z</time>
      </trkpt>
      <trkpt lat="47.29548" lon="-2.262">
        <ele>-30.799999237061</ele>
        <time>2022-02-06T09:10:57.000Z</time>
      </trkpt>
      <trkpt lat="47.29537" lon="-2.26199">
        <ele>-30.799999237061</ele>
        <time>2022-02-06T09:11:01.000Z</time>
      </trkpt>
      <trkpt lat="47.29535" lon="-2.26199">
        <ele>-30.799999237061</ele>
        <time>2022-02-06T09:11:02.000Z</time>
      </trkpt>
      <trkpt lat="47.29532" lon="-2.26199">
        <ele>-30.799999237061</ele>
        <time>2022-02-06T09:11:04.000Z</time>
      </trkpt>
      <trkpt lat="47.2953" lon="-2.262">
        <ele>-30.39999961853</ele>
        <time>2022-02-06T09:11:05.000Z</time>
      </trkpt>
      <trkpt lat="47.29529" lon="-2.26201">
        <ele>-30</ele>
        <time>2022-02-06T09:11:06.000Z</time>
      </trkpt>
      <trkpt lat="47.29528" lon="-2.26202">
        <ele>-29.60000038147</ele>
        <time>2022-02-06T09:11:07.000Z</time>
      </trkpt>
      <trkpt lat="47.29526" lon="-2.26203">
        <ele>-29.200000762939</ele>
        <time>2022-02-06T09:11:08.000Z</time>
      </trkpt>
      <trkpt lat="47.29526" lon="-2.26203">
        <ele>-28.60000038147</ele>
        <time>2022-02-06T09:11:09.000Z</time>
      </trkpt>
      <trkpt lat="47.29521" lon="-2.262">
        <ele>-28.60000038147</ele>
        <time>2022-02-06T09:13:02.000Z</time>
      </trkpt>
      <trkpt lat="47.29519" lon="-2.262">
        <ele>-28.60000038147</ele>
        <time>2022-02-06T09:13:03.000Z</time>
      </trkpt>
      <trkpt lat="47.29507" lon="-2.26195">
        <ele>-28.60000038147</ele>
        <time>2022-02-06T09:13:09.000Z</time>
      </trkpt>
      <trkpt lat="47.29499" lon="-2.26192">
        <ele>-28.200000762939</ele>
        <time>2022-02-06T09:13:12.000Z</time>
      </trkpt>
      <trkpt lat="47.29497" lon="-2.26191">
        <ele>-27.799999237061</ele>
        <time>2022-02-06T09:13:13.000Z</time>
      </trkpt>
      <trkpt lat="47.29494" lon="-2.2619">
        <ele>-27.39999961853</ele>
        <time>2022-02-06T09:13:14.000Z</time>
      </trkpt>
      <trkpt lat="47.29491" lon="-2.26188">
        <ele>-27</ele>
        <time>2022-02-06T09:13:15.000Z</time>
      </trkpt>
      <trkpt lat="47.29488" lon="-2.26187">
        <ele>-26.60000038147</ele>
        <time>2022-02-06T09:13:16.000Z</time>
      </trkpt>
      <trkpt lat="47.29473" lon="-2.26184">
        <ele>-26.60000038147</ele>
        <time>2022-02-06T09:13:21.000Z</time>
      </trkpt>
      <trkpt lat="47.29454" lon="-2.26184">
        <ele>-26.60000038147</ele>
        <time>2022-02-06T09:13:27.000Z</time>
      </trkpt>
      <trkpt lat="47.29444" lon="-2.26184">
        <ele>-26.200000762939</ele>
        <time>2022-02-06T09:13:31.000Z</time>
      </trkpt>
      <trkpt lat="47.29441" lon="-2.26184">
        <ele>-25.60000038147</ele>
        <time>2022-02-06T09:13:32.000Z</time>
      </trkpt>
      <trkpt lat="47.29439" lon="-2.26183">
        <ele>-25.200000762939</ele>
        <time>2022-02-06T09:13:33.000Z</time>
      </trkpt>
      <trkpt lat="47.29437" lon="-2.26183">
        <ele>-24.799999237061</ele>
        <time>2022-02-06T09:13:34.000Z</time>
      </trkpt>
      <trkpt lat="47.29434" lon="-2.26182">
        <ele>-24.39999961853</ele>
        <time>2022-02-06T09:13:35.000Z</time>
      </trkpt>
      <trkpt lat="47.29418" lon="-2.26176">
        <ele>-24.39999961853</ele>
        <time>2022-02-06T09:13:39.000Z</time>
      </trkpt>
      <trkpt lat="47.29404" lon="-2.26169">
        <ele>-24.39999961853</ele>
        <time>2022-02-06T09:13:44.000Z</time>
      </trkpt>
      <trkpt lat="47.29393" lon="-2.26167">
        <ele>-24</ele>
        <time>2022-02-06T09:13:48.000Z</time>
      </trkpt>
      <trkpt lat="47.29391" lon="-2.26166">
        <ele>-23.60000038147</ele>
        <time>2022-02-06T09:13:49.000Z</time>
      </trkpt>
      <trkpt lat="47.29388" lon="-2.26166">
        <ele>-23.200000762939</ele>
        <time>2022-02-06T09:13:50.000Z</time>
      </trkpt>
      <trkpt lat="47.29386" lon="-2.26165">
        <ele>-22.799999237061</ele>
        <time>2022-02-06T09:13:51.000Z</time>
      </trkpt>
      <trkpt lat="47.29382" lon="-2.26165">
        <ele>-22.39999961853</ele>
        <time>2022-02-06T09:13:52.000Z</time>
      </trkpt>
      <trkpt lat="47.29371" lon="-2.26167">
        <ele>-22.39999961853</ele>
        <time>2022-02-06T09:13:55.000Z</time>
      </trkpt>
      <trkpt lat="47.29358" lon="-2.26168">
        <ele>-22.39999961853</ele>
        <time>2022-02-06T09:13:59.000Z</time>
      </trkpt>
      <trkpt lat="47.29343" lon="-2.26169">
        <ele>-22.39999961853</ele>
        <time>2022-02-06T09:14:04.000Z</time>
      </trkpt>
      <trkpt lat="47.2934" lon="-2.2617">
        <ele>-22</ele>
        <time>2022-02-06T09:14:05.000Z</time>
      </trkpt>
      <trkpt lat="47.29338" lon="-2.26171">
        <ele>-21.60000038147</ele>
        <time>2022-02-06T09:14:06.000Z</time>
      </trkpt>
      <trkpt lat="47.29335" lon="-2.26171">
        <ele>-21.200000762939</ele>
        <time>2022-02-06T09:14:07.000Z</time>
      </trkpt>
      <trkpt lat="47.29333" lon="-2.26171">
        <ele>-20.799999237061</ele>
        <time>2022-02-06T09:14:08.000Z</time>
      </trkpt>
      <trkpt lat="47.2933" lon="-2.26171">
        <ele>-20.39999961853</ele>
        <time>2022-02-06T09:14:09.000Z</time>
      </trkpt>
      <trkpt lat="47.29319" lon="-2.26175">
        <ele>-20.39999961853</ele>
        <time>2022-02-06T09:14:14.000Z</time>
      </trkpt>
      <trkpt lat="47.29318" lon="-2.26177">
        <ele>-20.39999961853</ele>
        <time>2022-02-06T09:14:15.000Z</time>
      </trkpt>
      <trkpt lat="47.29315" lon="-2.26183">
        <ele>-20.39999961853</ele>
        <time>2022-02-06T09:14:18.000Z</time>
      </trkpt>
      <trkpt lat="47.29313" lon="-2.26184">
        <ele>-20</ele>
        <time>2022-02-06T09:14:19.000Z</time>
      </trkpt>
      <trkpt lat="47.2931" lon="-2.26183">
        <ele>-19.39999961853</ele>
        <time>2022-02-06T09:14:20.000Z</time>
      </trkpt>
      <trkpt lat="47.29308" lon="-2.26182">
        <ele>-19</ele>
        <time>2022-02-06T09:14:21.000Z</time>
      </trkpt>
      <trkpt lat="47.29304" lon="-2.26182">
        <ele>-18.60000038147</ele>
        <time>2022-02-06T09:14:22.000Z</time>
      </trkpt>
      <trkpt lat="47.29301" lon="-2.26181">
        <ele>-18.200000762939</ele>
        <time>2022-02-06T09:14:23.000Z</time>
      </trkpt>
      <trkpt lat="47.29294" lon="-2.26182">
        <ele>-18.200000762939</ele>
        <time>2022-02-06T09:14:25.000Z</time>
      </trkpt>
      <trkpt lat="47.29291" lon="-2.26182">
        <ele>-18.200000762939</ele>
        <time>2022-02-06T09:14:26.000Z</time>
      </trkpt>
      <trkpt lat="47.29288" lon="-2.26181">
        <ele>-18.200000762939</ele>
        <time>2022-02-06T09:14:27.000Z</time>
      </trkpt>
      <trkpt lat="47.2928" lon="-2.2618">
        <ele>-18.200000762939</ele>
        <time>2022-02-06T09:14:30.000Z</time>
      </trkpt>
      <trkpt lat="47.29277" lon="-2.26181">
        <ele>-18.200000762939</ele>
        <time>2022-02-06T09:14:31.000Z</time>
      </trkpt>
      <trkpt lat="47.29263" lon="-2.26178">
        <ele>-18.200000762939</ele>
        <time>2022-02-06T09:14:36.000Z</time>
      </trkpt>
      <trkpt lat="47.29258" lon="-2.26154">
        <ele>-18.200000762939</ele>
        <time>2022-02-06T09:14:40.000Z</time>
      </trkpt>
      <trkpt lat="47.29246" lon="-2.26125">
        <ele>-18.200000762939</ele>
        <time>2022-02-06T09:14:46.000Z</time>
      </trkpt>
      <trkpt lat="47.29238" lon="-2.26102">
        <ele>-18.200000762939</ele>
        <time>2022-02-06T09:14:51.000Z</time>
      </trkpt>
      <trkpt lat="47.29238" lon="-2.26087">
        <ele>-18.200000762939</ele>
        <time>2022-02-06T09:14:56.000Z</time>
      </trkpt>
      <trkpt lat="47.29243" lon="-2.26083">
        <ele>-18.200000762939</ele>
        <time>2022-02-06T09:15:01.000Z</time>
      </trkpt>
      <trkpt lat="47.29247" lon="-2.26081">
        <ele>-18.200000762939</ele>
        <time>2022-02-06T09:15:03.000Z</time>
      </trkpt>
      <trkpt lat="47.29253" lon="-2.26076">
        <ele>-18.200000762939</ele>
        <time>2022-02-06T09:15:05.000Z</time>
      </trkpt>
      <trkpt lat="47.29255" lon="-2.26073">
        <ele>-18.200000762939</ele>
        <time>2022-02-06T09:15:06.000Z</time>
      </trkpt>
      <trkpt lat="47.29258" lon="-2.26067">
        <ele>-18.200000762939</ele>
        <time>2022-02-06T09:15:07.000Z</time>
      </trkpt>
      <trkpt lat="47.29261" lon="-2.26062">
        <ele>-18.200000762939</ele>
        <time>2022-02-06T09:15:08.000Z</time>
      </trkpt>
      <trkpt lat="47.29265" lon="-2.26043">
        <ele>-18.200000762939</ele>
        <time>2022-02-06T09:15:11.000Z</time>
      </trkpt>
      <trkpt lat="47.2927" lon="-2.26035">
        <ele>-18.200000762939</ele>
        <time>2022-02-06T09:15:12.000Z</time>
      </trkpt>
      <trkpt lat="47.2927" lon="-2.26017">
        <ele>-18.200000762939</ele>
        <time>2022-02-06T09:15:15.000Z</time>
      </trkpt>
      <trkpt lat="47.29269" lon="-2.25992">
        <ele>-18.200000762939</ele>
        <time>2022-02-06T09:15:20.000Z</time>
      </trkpt>
      <trkpt lat="47.29271" lon="-2.2599">
        <ele>-18.60000038147</ele>
        <time>2022-02-06T09:15:21.000Z</time>
      </trkpt>
      <trkpt lat="47.29274" lon="-2.25987">
        <ele>-19</ele>
        <time>2022-02-06T09:15:22.000Z</time>
      </trkpt>
      <trkpt lat="47.29278" lon="-2.25984">
        <ele>-19.39999961853</ele>
        <time>2022-02-06T09:15:23.000Z</time>
      </trkpt>
      <trkpt lat="47.29282" lon="-2.25981">
        <ele>-20</ele>
        <time>2022-02-06T09:15:24.000Z</time>
      </trkpt>
      <trkpt lat="47.29287" lon="-2.25979">
        <ele>-20.39999961853</ele>
        <time>2022-02-06T09:15:25.000Z</time>
      </trkpt>
      <trkpt lat="47.29292" lon="-2.25977">
        <ele>-20.39999961853</ele>
        <time>2022-02-06T09:15:26.000Z</time>
      </trkpt>
      <trkpt lat="47.29304" lon="-2.25975">
        <ele>-20.39999961853</ele>
        <time>2022-02-06T09:15:29.000Z</time>
      </trkpt>
      <trkpt lat="47.29322" lon="-2.25961">
        <ele>-20.39999961853</ele>
        <time>2022-02-06T09:15:33.000Z</time>
      </trkpt>
      <trkpt lat="47.29325" lon="-2.25955">
        <ele>-20.39999961853</ele>
        <time>2022-02-06T09:15:34.000Z</time>
      </trkpt>
      <trkpt lat="47.29326" lon="-2.25927">
        <ele>-20.39999961853</ele>
        <time>2022-02-06T09:15:38.000Z</time>
      </trkpt>
      <trkpt lat="47.29316" lon="-2.25901">
        <ele>-20.39999961853</ele>
        <time>2022-02-06T09:15:42.000Z</time>
      </trkpt>
      <trkpt lat="47.29306" lon="-2.25879">
        <ele>-20.39999961853</ele>
        <time>2022-02-06T09:15:47.000Z</time>
      </trkpt>
      <trkpt lat="47.29298" lon="-2.25866">
        <ele>-20.39999961853</ele>
        <time>2022-02-06T09:15:50.000Z</time>
      </trkpt>
      <trkpt lat="47.29298" lon="-2.25857">
        <ele>-20.39999961853</ele>
        <time>2022-02-06T09:15:52.000Z</time>
      </trkpt>
      <trkpt lat="47.293" lon="-2.25857">
        <ele>-20.39999961853</ele>
        <time>2022-02-06T09:15:55.000Z</time>
      </trkpt>
      <trkpt lat="47.29303" lon="-2.25861">
        <ele>-20.39999961853</ele>
        <time>2022-02-06T09:15:57.000Z</time>
      </trkpt>
      <trkpt lat="47.29308" lon="-2.25865">
        <ele>-20.39999961853</ele>
        <time>2022-02-06T09:15:59.000Z</time>
      </trkpt>
      <trkpt lat="47.29312" lon="-2.25869">
        <ele>-20.39999961853</ele>
        <time>2022-02-06T09:16:02.000Z</time>
      </trkpt>
      <trkpt lat="47.29313" lon="-2.25868">
        <ele>-20.39999961853</ele>
        <time>2022-02-06T09:16:03.000Z</time>
      </trkpt>
      <trkpt lat="47.29313" lon="-2.25868">
        <ele>-20.39999961853</ele>
        <time>2022-02-06T09:16:04.000Z</time>
      </trkpt>
      <trkpt lat="47.2931" lon="-2.2586">
        <ele>-20.39999961853</ele>
        <time>2022-02-06T09:16:08.000Z</time>
      </trkpt>
      <trkpt lat="47.29305" lon="-2.25843">
        <ele>-20.39999961853</ele>
        <time>2022-02-06T09:16:12.000Z</time>
      </trkpt>
      <trkpt lat="47.29311" lon="-2.25843">
        <ele>-20.39999961853</ele>
        <time>2022-02-06T09:16:15.000Z</time>
      </trkpt>
      <trkpt lat="47.29314" lon="-2.25844">
        <ele>-20.39999961853</ele>
        <time>2022-02-06T09:16:16.000Z</time>
      </trkpt>
      <trkpt lat="47.2932" lon="-2.25848">
        <ele>-20.39999961853</ele>
        <time>2022-02-06T09:16:18.000Z</time>
      </trkpt>
      <trkpt lat="47.29321" lon="-2.25852">
        <ele>-20.39999961853</ele>
        <time>2022-02-06T09:16:19.000Z</time>
      </trkpt>
      <trkpt lat="47.29331" lon="-2.25876">
        <ele>-20.39999961853</ele>
        <time>2022-02-06T09:16:24.000Z</time>
      </trkpt>
      <trkpt lat="47.29334" lon="-2.25882">
        <ele>-20.39999961853</ele>
        <time>2022-02-06T09:16:26.000Z</time>
      </trkpt>
      <trkpt lat="47.29335" lon="-2.25882">
        <ele>-20.799999237061</ele>
        <time>2022-02-06T09:16:27.000Z</time>
      </trkpt>
      <trkpt lat="47.29337" lon="-2.25881">
        <ele>-21.200000762939</ele>
        <time>2022-02-06T09:16:28.000Z</time>
      </trkpt>
      <trkpt lat="47.29339" lon="-2.2588">
        <ele>-21.60000038147</ele>
        <time>2022-02-06T09:16:29.000Z</time>
      </trkpt>
      <trkpt lat="47.29341" lon="-2.25879">
        <ele>-22</ele>
        <time>2022-02-06T09:16:30.000Z</time>
      </trkpt>
      <trkpt lat="47.29343" lon="-2.25878">
        <ele>-22.39999961853</ele>
        <time>2022-02-06T09:16:31.000Z</time>
      </trkpt>
      <trkpt lat="47.29346" lon="-2.25874">
        <ele>-22.39999961853</ele>
        <time>2022-02-06T09:16:33.000Z</time>
      </trkpt>
      <trkpt lat="47.29352" lon="-2.25868">
        <ele>-22.39999961853</ele>
        <time>2022-02-06T09:16:35.000Z</time>
      </trkpt>
      <trkpt lat="47.29361" lon="-2.25864">
        <ele>-22.39999961853</ele>
        <time>2022-02-06T09:16:38.000Z</time>
      </trkpt>
      <trkpt lat="47.29363" lon="-2.25865">
        <ele>-22.39999961853</ele>
        <time>2022-02-06T09:16:39.000Z</time>
      </trkpt>
      <trkpt lat="47.29371" lon="-2.25874">
        <ele>-22.39999961853</ele>
        <time>2022-02-06T09:16:42.000Z</time>
      </trkpt>
      <trkpt lat="47.29373" lon="-2.25882">
        <ele>-22.39999961853</ele>
        <time>2022-02-06T09:16:44.000Z</time>
      </trkpt>
      <trkpt lat="47.29375" lon="-2.25888">
        <ele>-22.39999961853</ele>
        <time>2022-02-06T09:16:46.000Z</time>
      </trkpt>
      <trkpt lat="47.29375" lon="-2.25892">
        <ele>-22.39999961853</ele>
        <time>2022-02-06T09:16:47.000Z</time>
      </trkpt>
      <trkpt lat="47.29378" lon="-2.25907">
        <ele>-22.39999961853</ele>
        <time>2022-02-06T09:16:52.000Z</time>
      </trkpt>
      <trkpt lat="47.29375" lon="-2.25926">
        <ele>-22.39999961853</ele>
        <time>2022-02-06T09:16:56.000Z</time>
      </trkpt>
      <trkpt lat="47.29361" lon="-2.25952">
        <ele>-22.39999961853</ele>
        <time>2022-02-06T09:17:01.000Z</time>
      </trkpt>
      <trkpt lat="47.29344" lon="-2.25965">
        <ele>-22.39999961853</ele>
        <time>2022-02-06T09:17:07.000Z</time>
      </trkpt>
      <trkpt lat="47.29324" lon="-2.25963">
        <ele>-22.39999961853</ele>
        <time>2022-02-06T09:17:13.000Z</time>
      </trkpt>
      <trkpt lat="47.2931" lon="-2.25972">
        <ele>-22.39999961853</ele>
        <time>2022-02-06T09:17:18.000Z</time>
      </trkpt>
      <trkpt lat="47.29305" lon="-2.2598">
        <ele>-22.39999961853</ele>
        <time>2022-02-06T09:17:25.000Z</time>
      </trkpt>
      <trkpt lat="47.29309" lon="-2.25994">
        <ele>-22.39999961853</ele>
        <time>2022-02-06T09:17:33.000Z</time>
      </trkpt>
      <trkpt lat="47.29311" lon="-2.26009">
        <ele>-22.39999961853</ele>
        <time>2022-02-06T09:17:39.000Z</time>
      </trkpt>
      <trkpt lat="47.29312" lon="-2.26012">
        <ele>-22.39999961853</ele>
        <time>2022-02-06T09:17:40.000Z</time>
      </trkpt>
      <trkpt lat="47.29313" lon="-2.26018">
        <ele>-22.39999961853</ele>
        <time>2022-02-06T09:17:43.000Z</time>
      </trkpt>
      <trkpt lat="47.29315" lon="-2.26037">
        <ele>-22.39999961853</ele>
        <time>2022-02-06T09:17:51.000Z</time>
      </trkpt>
      <trkpt lat="47.29315" lon="-2.26042">
        <ele>-22.39999961853</ele>
        <time>2022-02-06T09:17:53.000Z</time>
      </trkpt>
      <trkpt lat="47.29315" lon="-2.26045">
        <ele>-22.39999961853</ele>
        <time>2022-02-06T09:17:54.000Z</time>
      </trkpt>
      <trkpt lat="47.29319" lon="-2.26058">
        <ele>-22.39999961853</ele>
        <time>2022-02-06T09:17:59.000Z</time>
      </trkpt>
      <trkpt lat="47.29327" lon="-2.26072">
        <ele>-22.39999961853</ele>
        <time>2022-02-06T09:18:04.000Z</time>
      </trkpt>
      <trkpt lat="47.29338" lon="-2.26101">
        <ele>-22.39999961853</ele>
        <time>2022-02-06T09:18:10.000Z</time>
      </trkpt>
      <trkpt lat="47.2935" lon="-2.26127">
        <ele>-22.39999961853</ele>
        <time>2022-02-06T09:18:15.000Z</time>
      </trkpt>
      <trkpt lat="47.29367" lon="-2.26144">
        <ele>-22.39999961853</ele>
        <time>2022-02-06T09:18:20.000Z</time>
      </trkpt>
      <trkpt lat="47.29386" lon="-2.26158">
        <ele>-22.39999961853</ele>
        <time>2022-02-06T09:18:26.000Z</time>
      </trkpt>
      <trkpt lat="47.29408" lon="-2.2616">
        <ele>-22.39999961853</ele>
        <time>2022-02-06T09:18:31.000Z</time>
      </trkpt>
      <trkpt lat="47.29412" lon="-2.26158">
        <ele>-22.39999961853</ele>
        <time>2022-02-06T09:18:32.000Z</time>
      </trkpt>
      <trkpt lat="47.29414" lon="-2.26154">
        <ele>-22.799999237061</ele>
        <time>2022-02-06T09:18:33.000Z</time>
      </trkpt>
      <trkpt lat="47.29417" lon="-2.26149">
        <ele>-23.200000762939</ele>
        <time>2022-02-06T09:18:34.000Z</time>
      </trkpt>
      <trkpt lat="47.29419" lon="-2.26142">
        <ele>-23.60000038147</ele>
        <time>2022-02-06T09:18:35.000Z</time>
      </trkpt>
      <trkpt lat="47.29419" lon="-2.26135">
        <ele>-24</ele>
        <time>2022-02-06T09:18:36.000Z</time>
      </trkpt>
      <trkpt lat="47.29421" lon="-2.26127">
        <ele>-24.39999961853</ele>
        <time>2022-02-06T09:18:37.000Z</time>
      </trkpt>
      <trkpt lat="47.29421" lon="-2.26121">
        <ele>-24.39999961853</ele>
        <time>2022-02-06T09:18:38.000Z</time>
      </trkpt>
      <trkpt lat="47.29422" lon="-2.26114">
        <ele>-24.39999961853</ele>
        <time>2022-02-06T09:18:39.000Z</time>
      </trkpt>
      <trkpt lat="47.29424" lon="-2.26107">
        <ele>-24.799999237061</ele>
        <time>2022-02-06T09:18:40.000Z</time>
      </trkpt>
      <trkpt lat="47.29425" lon="-2.26101">
        <ele>-25.39999961853</ele>
        <time>2022-02-06T09:18:41.000Z</time>
      </trkpt>
      <trkpt lat="47.29425" lon="-2.26094">
        <ele>-26.39999961853</ele>
        <time>2022-02-06T09:18:42.000Z</time>
      </trkpt>
      <trkpt lat="47.29424" lon="-2.26088">
        <ele>-26.799999237061</ele>
        <time>2022-02-06T09:18:43.000Z</time>
      </trkpt>
      <trkpt lat="47.29421" lon="-2.26081">
        <ele>-26.799999237061</ele>
        <time>2022-02-06T09:18:44.000Z</time>
      </trkpt>
      <trkpt lat="47.29412" lon="-2.26064">
        <ele>-26.799999237061</ele>
        <time>2022-02-06T09:18:47.000Z</time>
      </trkpt>
      <trkpt lat="47.29404" lon="-2.26051">
        <ele>-26.799999237061</ele>
        <time>2022-02-06T09:18:50.000Z</time>
      </trkpt>
      <trkpt lat="47.29395" lon="-2.26039">
        <ele>-26.799999237061</ele>
        <time>2022-02-06T09:18:53.000Z</time>
      </trkpt>
      <trkpt lat="47.29388" lon="-2.26012">
        <ele>-26.799999237061</ele>
        <time>2022-02-06T09:18:58.000Z</time>
      </trkpt>
      <trkpt lat="47.2939" lon="-2.25978">
        <ele>-26.799999237061</ele>
        <time>2022-02-06T09:19:04.000Z</time>
      </trkpt>
      <trkpt lat="47.29388" lon="-2.25962">
        <ele>-25.799999237061</ele>
        <time>2022-02-06T09:19:07.000Z</time>
      </trkpt>
      <trkpt lat="47.29388" lon="-2.2596">
        <ele>-25.39999961853</ele>
        <time>2022-02-06T09:19:08.000Z</time>
      </trkpt>
      <trkpt lat="47.29389" lon="-2.2596">
        <ele>-25</ele>
        <time>2022-02-06T09:19:09.000Z</time>
      </trkpt>
      <trkpt lat="47.2939" lon="-2.25962">
        <ele>-24.60000038147</ele>
        <time>2022-02-06T09:19:10.000Z</time>
      </trkpt>
      <trkpt lat="47.29396" lon="-2.25965">
        <ele>-24.60000038147</ele>
        <time>2022-02-06T09:19:13.000Z</time>
      </trkpt>
      <trkpt lat="47.29413" lon="-2.25953">
        <ele>-24.60000038147</ele>
        <time>2022-02-06T09:19:18.000Z</time>
      </trkpt>
      <trkpt lat="47.29418" lon="-2.25949">
        <ele>-24.60000038147</ele>
        <time>2022-02-06T09:19:19.000Z</time>
      </trkpt>
      <trkpt lat="47.29427" lon="-2.25942">
        <ele>-25</ele>
        <time>2022-02-06T09:19:21.000Z</time>
      </trkpt>
      <trkpt lat="47.2943" lon="-2.25937">
        <ele>-25.39999961853</ele>
        <time>2022-02-06T09:19:22.000Z</time>
      </trkpt>
      <trkpt lat="47.29433" lon="-2.25932">
        <ele>-25.799999237061</ele>
        <time>2022-02-06T09:19:23.000Z</time>
      </trkpt>
      <trkpt lat="47.29435" lon="-2.25927">
        <ele>-26.200000762939</ele>
        <time>2022-02-06T09:19:24.000Z</time>
      </trkpt>
      <trkpt lat="47.29437" lon="-2.25923">
        <ele>-26.60000038147</ele>
        <time>2022-02-06T09:19:25.000Z</time>
      </trkpt>
      <trkpt lat="47.2944" lon="-2.25915">
        <ele>-26.60000038147</ele>
        <time>2022-02-06T09:19:27.000Z</time>
      </trkpt>
      <trkpt lat="47.29438" lon="-2.259">
        <ele>-26.60000038147</ele>
        <time>2022-02-06T09:19:32.000Z</time>
      </trkpt>
      <trkpt lat="47.29439" lon="-2.25894">
        <ele>-26.60000038147</ele>
        <time>2022-02-06T09:19:36.000Z</time>
      </trkpt>
      <trkpt lat="47.29436" lon="-2.25883">
        <ele>-26.60000038147</ele>
        <time>2022-02-06T09:19:50.000Z</time>
      </trkpt>
      <trkpt lat="47.2943" lon="-2.2587">
        <ele>-26.60000038147</ele>
        <time>2022-02-06T09:19:54.000Z</time>
      </trkpt>
      <trkpt lat="47.29428" lon="-2.25856">
        <ele>-26.60000038147</ele>
        <time>2022-02-06T09:19:58.000Z</time>
      </trkpt>
      <trkpt lat="47.29429" lon="-2.25824">
        <ele>-26.60000038147</ele>
        <time>2022-02-06T09:20:04.000Z</time>
      </trkpt>
      <trkpt lat="47.29425" lon="-2.25798">
        <ele>-26.60000038147</ele>
        <time>2022-02-06T09:20:08.000Z</time>
      </trkpt>
      <trkpt lat="47.29424" lon="-2.25787">
        <ele>-26.60000038147</ele>
        <time>2022-02-06T09:20:10.000Z</time>
      </trkpt>
      <trkpt lat="47.29423" lon="-2.25781">
        <ele>-26.60000038147</ele>
        <time>2022-02-06T09:20:12.000Z</time>
      </trkpt>
      <trkpt lat="47.29421" lon="-2.25779">
        <ele>-26.60000038147</ele>
        <time>2022-02-06T09:20:13.000Z</time>
      </trkpt>
      <trkpt lat="47.29414" lon="-2.25767">
        <ele>-26.60000038147</ele>
        <time>2022-02-06T09:20:18.000Z</time>
      </trkpt>
      <trkpt lat="47.29413" lon="-2.25765">
        <ele>-26.60000038147</ele>
        <time>2022-02-06T09:20:19.000Z</time>
      </trkpt>
      <trkpt lat="47.29412" lon="-2.25763">
        <ele>-26.60000038147</ele>
        <time>2022-02-06T09:20:20.000Z</time>
      </trkpt>
      <trkpt lat="47.2941" lon="-2.25763">
        <ele>-26</ele>
        <time>2022-02-06T09:20:21.000Z</time>
      </trkpt>
      <trkpt lat="47.29409" lon="-2.25762">
        <ele>-25.60000038147</ele>
        <time>2022-02-06T09:20:22.000Z</time>
      </trkpt>
      <trkpt lat="47.29406" lon="-2.25761">
        <ele>-25.200000762939</ele>
        <time>2022-02-06T09:20:23.000Z</time>
      </trkpt>
      <trkpt lat="47.29404" lon="-2.2576">
        <ele>-24.799999237061</ele>
        <time>2022-02-06T09:20:24.000Z</time>
      </trkpt>
      <trkpt lat="47.29402" lon="-2.25758">
        <ele>-24.200000762939</ele>
        <time>2022-02-06T09:20:25.000Z</time>
      </trkpt>
      <trkpt lat="47.29393" lon="-2.25756">
        <ele>-24.200000762939</ele>
        <time>2022-02-06T09:20:28.000Z</time>
      </trkpt>
      <trkpt lat="47.2939" lon="-2.25756">
        <ele>-24.200000762939</ele>
        <time>2022-02-06T09:20:29.000Z</time>
      </trkpt>
      <trkpt lat="47.29381" lon="-2.25759">
        <ele>-24.200000762939</ele>
        <time>2022-02-06T09:20:33.000Z</time>
      </trkpt>
      <trkpt lat="47.29378" lon="-2.25758">
        <ele>-24.200000762939</ele>
        <time>2022-02-06T09:20:34.000Z</time>
      </trkpt>
      <trkpt lat="47.29368" lon="-2.25764">
        <ele>-24.200000762939</ele>
        <time>2022-02-06T09:20:39.000Z</time>
      </trkpt>
      <trkpt lat="47.29364" lon="-2.25786">
        <ele>-24.200000762939</ele>
        <time>2022-02-06T09:20:46.000Z</time>
      </trkpt>
      <trkpt lat="47.29359" lon="-2.25791">
        <ele>-23.799999237061</ele>
        <time>2022-02-06T09:20:50.000Z</time>
      </trkpt>
      <trkpt lat="47.29356" lon="-2.25792">
        <ele>-23.39999961853</ele>
        <time>2022-02-06T09:20:51.000Z</time>
      </trkpt>
      <trkpt lat="47.29353" lon="-2.25793">
        <ele>-23</ele>
        <time>2022-02-06T09:20:52.000Z</time>
      </trkpt>
      <trkpt lat="47.2935" lon="-2.25793">
        <ele>-22.60000038147</ele>
        <time>2022-02-06T09:20:53.000Z</time>
      </trkpt>
      <trkpt lat="47.29348" lon="-2.25792">
        <ele>-22</ele>
        <time>2022-02-06T09:20:54.000Z</time>
      </trkpt>
      <trkpt lat="47.29343" lon="-2.25791">
        <ele>-22</ele>
        <time>2022-02-06T09:20:56.000Z</time>
      </trkpt>
      <trkpt lat="47.2933" lon="-2.25778">
        <ele>-22</ele>
        <time>2022-02-06T09:21:03.000Z</time>
      </trkpt>
      <trkpt lat="47.29336" lon="-2.25765">
        <ele>-22</ele>
        <time>2022-02-06T09:21:08.000Z</time>
      </trkpt>
      <trkpt lat="47.2935" lon="-2.25747">
        <ele>-22</ele>
        <time>2022-02-06T09:21:15.000Z</time>
      </trkpt>
      <trkpt lat="47.2936" lon="-2.25726">
        <ele>-22</ele>
        <time>2022-02-06T09:21:20.000Z</time>
      </trkpt>
      <trkpt lat="47.29365" lon="-2.25698">
        <ele>-22</ele>
        <time>2022-02-06T09:21:25.000Z</time>
      </trkpt>
      <trkpt lat="47.29368" lon="-2.25685">
        <ele>-21.60000038147</ele>
        <time>2022-02-06T09:21:27.000Z</time>
      </trkpt>
      <trkpt lat="47.29371" lon="-2.25677">
        <ele>-21.200000762939</ele>
        <time>2022-02-06T09:21:28.000Z</time>
      </trkpt>
      <trkpt lat="47.29372" lon="-2.25671">
        <ele>-20.799999237061</ele>
        <time>2022-02-06T09:21:29.000Z</time>
      </trkpt>
      <trkpt lat="47.29373" lon="-2.25664">
        <ele>-20.39999961853</ele>
        <time>2022-02-06T09:21:30.000Z</time>
      </trkpt>
      <trkpt lat="47.29375" lon="-2.25657">
        <ele>-20</ele>
        <time>2022-02-06T09:21:31.000Z</time>
      </trkpt>
      <trkpt lat="47.29377" lon="-2.25651">
        <ele>-20</ele>
        <time>2022-02-06T09:21:32.000Z</time>
      </trkpt>
      <trkpt lat="47.29387" lon="-2.25629">
        <ele>-19.60000038147</ele>
        <time>2022-02-06T09:21:36.000Z</time>
      </trkpt>
      <trkpt lat="47.29393" lon="-2.25625">
        <ele>-19.200000762939</ele>
        <time>2022-02-06T09:21:37.000Z</time>
      </trkpt>
      <trkpt lat="47.29398" lon="-2.25622">
        <ele>-18.799999237061</ele>
        <time>2022-02-06T09:21:38.000Z</time>
      </trkpt>
      <trkpt lat="47.29404" lon="-2.2562">
        <ele>-18.39999961853</ele>
        <time>2022-02-06T09:21:39.000Z</time>
      </trkpt>
      <trkpt lat="47.29411" lon="-2.25619">
        <ele>-18</ele>
        <time>2022-02-06T09:21:40.000Z</time>
      </trkpt>
      <trkpt lat="47.29417" lon="-2.25617">
        <ele>-18</ele>
        <time>2022-02-06T09:21:41.000Z</time>
      </trkpt>
      <trkpt lat="47.29423" lon="-2.25615">
        <ele>-18</ele>
        <time>2022-02-06T09:21:42.000Z</time>
      </trkpt>
      <trkpt lat="47.29462" lon="-2.25599">
        <ele>-18</ele>
        <time>2022-02-06T09:21:49.000Z</time>
      </trkpt>
      <trkpt lat="47.29496" lon="-2.25582">
        <ele>-18.39999961853</ele>
        <time>2022-02-06T09:21:55.000Z</time>
      </trkpt>
      <trkpt lat="47.29501" lon="-2.25579">
        <ele>-18.799999237061</ele>
        <time>2022-02-06T09:21:56.000Z</time>
      </trkpt>
      <trkpt lat="47.29506" lon="-2.25576">
        <ele>-19.200000762939</ele>
        <time>2022-02-06T09:21:57.000Z</time>
      </trkpt>
      <trkpt lat="47.29512" lon="-2.25572">
        <ele>-19.60000038147</ele>
        <time>2022-02-06T09:21:58.000Z</time>
      </trkpt>
      <trkpt lat="47.29517" lon="-2.25569">
        <ele>-20</ele>
        <time>2022-02-06T09:21:59.000Z</time>
      </trkpt>
      <trkpt lat="47.29556" lon="-2.25542">
        <ele>-20</ele>
        <time>2022-02-06T09:22:06.000Z</time>
      </trkpt>
      <trkpt lat="47.29567" lon="-2.25531">
        <ele>-20.39999961853</ele>
        <time>2022-02-06T09:22:08.000Z</time>
      </trkpt>
      <trkpt lat="47.29572" lon="-2.25525">
        <ele>-21</ele>
        <time>2022-02-06T09:22:09.000Z</time>
      </trkpt>
      <trkpt lat="47.29577" lon="-2.25517">
        <ele>-21.39999961853</ele>
        <time>2022-02-06T09:22:10.000Z</time>
      </trkpt>
      <trkpt lat="47.2958" lon="-2.25508">
        <ele>-21.799999237061</ele>
        <time>2022-02-06T09:22:11.000Z</time>
      </trkpt>
      <trkpt lat="47.29582" lon="-2.25498">
        <ele>-22.200000762939</ele>
        <time>2022-02-06T09:22:12.000Z</time>
      </trkpt>
      <trkpt lat="47.29583" lon="-2.25489">
        <ele>-22.200000762939</ele>
        <time>2022-02-06T09:22:13.000Z</time>
      </trkpt>
      <trkpt lat="47.29583" lon="-2.25459">
        <ele>-22.200000762939</ele>
        <time>2022-02-06T09:22:16.000Z</time>
      </trkpt>
      <trkpt lat="47.29583" lon="-2.2545">
        <ele>-22.200000762939</ele>
        <time>2022-02-06T09:22:17.000Z</time>
      </trkpt>
      <trkpt lat="47.29575" lon="-2.25382">
        <ele>-22.200000762939</ele>
        <time>2022-02-06T09:22:24.000Z</time>
      </trkpt>
      <trkpt lat="47.2957" lon="-2.25364">
        <ele>-22.200000762939</ele>
        <time>2022-02-06T09:22:26.000Z</time>
      </trkpt>
      <trkpt lat="47.29559" lon="-2.25339">
        <ele>-22.60000038147</ele>
        <time>2022-02-06T09:22:29.000Z</time>
      </trkpt>
      <trkpt lat="47.29555" lon="-2.2533">
        <ele>-23</ele>
        <time>2022-02-06T09:22:30.000Z</time>
      </trkpt>
      <trkpt lat="47.29551" lon="-2.25322">
        <ele>-23.39999961853</ele>
        <time>2022-02-06T09:22:31.000Z</time>
      </trkpt>
      <trkpt lat="47.29548" lon="-2.25313">
        <ele>-24</ele>
        <time>2022-02-06T09:22:32.000Z</time>
      </trkpt>
      <trkpt lat="47.29545" lon="-2.25304">
        <ele>-24.39999961853</ele>
        <time>2022-02-06T09:22:33.000Z</time>
      </trkpt>
      <trkpt lat="47.2954" lon="-2.25285">
        <ele>-24.799999237061</ele>
        <time>2022-02-06T09:22:35.000Z</time>
      </trkpt>
      <trkpt lat="47.29538" lon="-2.25276">
        <ele>-25.200000762939</ele>
        <time>2022-02-06T09:22:36.000Z</time>
      </trkpt>
      <trkpt lat="47.29538" lon="-2.25266">
        <ele>-25.60000038147</ele>
        <time>2022-02-06T09:22:37.000Z</time>
      </trkpt>
      <trkpt lat="47.29539" lon="-2.25256">
        <ele>-26</ele>
        <time>2022-02-06T09:22:38.000Z</time>
      </trkpt>
      <trkpt lat="47.29539" lon="-2.25246">
        <ele>-26.39999961853</ele>
        <time>2022-02-06T09:22:39.000Z</time>
      </trkpt>
      <trkpt lat="47.2954" lon="-2.25236">
        <ele>-26.39999961853</ele>
        <time>2022-02-06T09:22:40.000Z</time>
      </trkpt>
      <trkpt lat="47.29544" lon="-2.25209">
        <ele>-26.39999961853</ele>
        <time>2022-02-06T09:22:43.000Z</time>
      </trkpt>
      <trkpt lat="47.29549" lon="-2.25193">
        <ele>-26.39999961853</ele>
        <time>2022-02-06T09:22:45.000Z</time>
      </trkpt>
      <trkpt lat="47.29551" lon="-2.25186">
        <ele>-26.39999961853</ele>
        <time>2022-02-06T09:22:46.000Z</time>
      </trkpt>
      <trkpt lat="47.2955" lon="-2.2517">
        <ele>-26.39999961853</ele>
        <time>2022-02-06T09:22:48.000Z</time>
      </trkpt>
      <trkpt lat="47.29542" lon="-2.25104">
        <ele>-26.39999961853</ele>
        <time>2022-02-06T09:22:56.000Z</time>
      </trkpt>
      <trkpt lat="47.29541" lon="-2.25095">
        <ele>-26.799999237061</ele>
        <time>2022-02-06T09:22:57.000Z</time>
      </trkpt>
      <trkpt lat="47.29539" lon="-2.25086">
        <ele>-27.200000762939</ele>
        <time>2022-02-06T09:22:58.000Z</time>
      </trkpt>
      <trkpt lat="47.29537" lon="-2.25078">
        <ele>-27.60000038147</ele>
        <time>2022-02-06T09:22:59.000Z</time>
      </trkpt>
      <trkpt lat="47.29534" lon="-2.25069">
        <ele>-28</ele>
        <time>2022-02-06T09:23:00.000Z</time>
      </trkpt>
      <trkpt lat="47.29532" lon="-2.25061">
        <ele>-28.39999961853</ele>
        <time>2022-02-06T09:23:01.000Z</time>
      </trkpt>
      <trkpt lat="47.29528" lon="-2.25052">
        <ele>-28.39999961853</ele>
        <time>2022-02-06T09:23:02.000Z</time>
      </trkpt>
      <trkpt lat="47.29518" lon="-2.25024">
        <ele>-29</ele>
        <time>2022-02-06T09:23:05.000Z</time>
      </trkpt>
      <trkpt lat="47.29515" lon="-2.25015">
        <ele>-29.39999961853</ele>
        <time>2022-02-06T09:23:06.000Z</time>
      </trkpt>
      <trkpt lat="47.29511" lon="-2.25004">
        <ele>-29.799999237061</ele>
        <time>2022-02-06T09:23:07.000Z</time>
      </trkpt>
      <trkpt lat="47.29507" lon="-2.24994">
        <ele>-30.39999961853</ele>
        <time>2022-02-06T09:23:08.000Z</time>
      </trkpt>
      <trkpt lat="47.29503" lon="-2.24984">
        <ele>-30.799999237061</ele>
        <time>2022-02-06T09:23:09.000Z</time>
      </trkpt>
      <trkpt lat="47.29496" lon="-2.24964">
        <ele>-31.200000762939</ele>
        <time>2022-02-06T09:23:11.000Z</time>
      </trkpt>
      <trkpt lat="47.29492" lon="-2.24955">
        <ele>-31.799999237061</ele>
        <time>2022-02-06T09:23:12.000Z</time>
      </trkpt>
      <trkpt lat="47.29488" lon="-2.24946">
        <ele>-32.200000762939</ele>
        <time>2022-02-06T09:23:13.000Z</time>
      </trkpt>
      <trkpt lat="47.29482" lon="-2.24939">
        <ele>-33.200000762939</ele>
        <time>2022-02-06T09:23:14.000Z</time>
      </trkpt>
      <trkpt lat="47.29456" lon="-2.24917">
        <ele>-33.200000762939</ele>
        <time>2022-02-06T09:23:18.000Z</time>
      </trkpt>
      <trkpt lat="47.29449" lon="-2.24913">
        <ele>-33.200000762939</ele>
        <time>2022-02-06T09:23:19.000Z</time>
      </trkpt>
      <trkpt lat="47.29442" lon="-2.24911">
        <ele>-33.200000762939</ele>
        <time>2022-02-06T09:23:20.000Z</time>
      </trkpt>
      <trkpt lat="47.29429" lon="-2.24909">
        <ele>-33.200000762939</ele>
        <time>2022-02-06T09:23:22.000Z</time>
      </trkpt>
      <trkpt lat="47.29403" lon="-2.24911">
        <ele>-33.200000762939</ele>
        <time>2022-02-06T09:23:27.000Z</time>
      </trkpt>
      <trkpt lat="47.29399" lon="-2.24912">
        <ele>-33.200000762939</ele>
        <time>2022-02-06T09:23:28.000Z</time>
      </trkpt>
      <trkpt lat="47.29394" lon="-2.24913">
        <ele>-33.200000762939</ele>
        <time>2022-02-06T09:23:29.000Z</time>
      </trkpt>
      <trkpt lat="47.2937" lon="-2.24914">
        <ele>-33.200000762939</ele>
        <time>2022-02-06T09:23:34.000Z</time>
      </trkpt>
      <trkpt lat="47.29365" lon="-2.24915">
        <ele>-32.799999237061</ele>
        <time>2022-02-06T09:23:35.000Z</time>
      </trkpt>
      <trkpt lat="47.2936" lon="-2.24915">
        <ele>-32.400001525879</ele>
        <time>2022-02-06T09:23:36.000Z</time>
      </trkpt>
      <trkpt lat="47.29356" lon="-2.24915">
        <ele>-32</ele>
        <time>2022-02-06T09:23:37.000Z</time>
      </trkpt>
      <trkpt lat="47.29351" lon="-2.24914">
        <ele>-31.200000762939</ele>
        <time>2022-02-06T09:23:38.000Z</time>
      </trkpt>
      <trkpt lat="47.29339" lon="-2.24911">
        <ele>-31.200000762939</ele>
        <time>2022-02-06T09:23:41.000Z</time>
      </trkpt>
      <trkpt lat="47.29336" lon="-2.24907">
        <ele>-31.200000762939</ele>
        <time>2022-02-06T09:23:42.000Z</time>
      </trkpt>
      <trkpt lat="47.29335" lon="-2.24896">
        <ele>-31.200000762939</ele>
        <time>2022-02-06T09:23:44.000Z</time>
      </trkpt>
      <trkpt lat="47.29335" lon="-2.24885">
        <ele>-30.60000038147</ele>
        <time>2022-02-06T09:23:46.000Z</time>
      </trkpt>
      <trkpt lat="47.29335" lon="-2.24879">
        <ele>-30.200000762939</ele>
        <time>2022-02-06T09:23:47.000Z</time>
      </trkpt>
      <trkpt lat="47.29335" lon="-2.24872">
        <ele>-29.799999237061</ele>
        <time>2022-02-06T09:23:48.000Z</time>
      </trkpt>
      <trkpt lat="47.29335" lon="-2.24865">
        <ele>-29.39999961853</ele>
        <time>2022-02-06T09:23:49.000Z</time>
      </trkpt>
      <trkpt lat="47.29335" lon="-2.24858">
        <ele>-29</ele>
        <time>2022-02-06T09:23:50.000Z</time>
      </trkpt>
      <trkpt lat="47.29333" lon="-2.24833">
        <ele>-29</ele>
        <time>2022-02-06T09:23:54.000Z</time>
      </trkpt>
      <trkpt lat="47.29333" lon="-2.24827">
        <ele>-29</ele>
        <time>2022-02-06T09:23:55.000Z</time>
      </trkpt>
      <trkpt lat="47.29329" lon="-2.24808">
        <ele>-29</ele>
        <time>2022-02-06T09:23:58.000Z</time>
      </trkpt>
      <trkpt lat="47.29326" lon="-2.24794">
        <ele>-29</ele>
        <time>2022-02-06T09:24:00.000Z</time>
      </trkpt>
      <trkpt lat="47.29318" lon="-2.24764">
        <ele>-29</ele>
        <time>2022-02-06T09:24:05.000Z</time>
      </trkpt>
      <trkpt lat="47.2931" lon="-2.24727">
        <ele>-29</ele>
        <time>2022-02-06T09:24:10.000Z</time>
      </trkpt>
      <trkpt lat="47.29299" lon="-2.24684">
        <ele>-29</ele>
        <time>2022-02-06T09:24:16.000Z</time>
      </trkpt>
      <trkpt lat="47.29298" lon="-2.24677">
        <ele>-29</ele>
        <time>2022-02-06T09:24:17.000Z</time>
      </trkpt>
      <trkpt lat="47.29297" lon="-2.2466">
        <ele>-29.39999961853</ele>
        <time>2022-02-06T09:24:19.000Z</time>
      </trkpt>
      <trkpt lat="47.29297" lon="-2.24651">
        <ele>-30</ele>
        <time>2022-02-06T09:24:20.000Z</time>
      </trkpt>
      <trkpt lat="47.29297" lon="-2.24643">
        <ele>-30.39999961853</ele>
        <time>2022-02-06T09:24:21.000Z</time>
      </trkpt>
      <trkpt lat="47.29298" lon="-2.24634">
        <ele>-30.799999237061</ele>
        <time>2022-02-06T09:24:22.000Z</time>
      </trkpt>
      <trkpt lat="47.29299" lon="-2.24625">
        <ele>-31.39999961853</ele>
        <time>2022-02-06T09:24:23.000Z</time>
      </trkpt>
      <trkpt lat="47.293" lon="-2.24607">
        <ele>-31.39999961853</ele>
        <time>2022-02-06T09:24:25.000Z</time>
      </trkpt>
      <trkpt lat="47.29298" lon="-2.24554">
        <ele>-31.39999961853</ele>
        <time>2022-02-06T09:24:31.000Z</time>
      </trkpt>
      <trkpt lat="47.29295" lon="-2.24517">
        <ele>-31.39999961853</ele>
        <time>2022-02-06T09:24:36.000Z</time>
      </trkpt>
      <trkpt lat="47.29295" lon="-2.24471">
        <ele>-31.39999961853</ele>
        <time>2022-02-06T09:24:43.000Z</time>
      </trkpt>
      <trkpt lat="47.29296" lon="-2.24464">
        <ele>-31.39999961853</ele>
        <time>2022-02-06T09:24:44.000Z</time>
      </trkpt>
      <trkpt lat="47.29301" lon="-2.24452">
        <ele>-31.39999961853</ele>
        <time>2022-02-06T09:24:46.000Z</time>
      </trkpt>
      <trkpt lat="47.29313" lon="-2.2444">
        <ele>-31.39999961853</ele>
        <time>2022-02-06T09:24:49.000Z</time>
      </trkpt>
      <trkpt lat="47.29317" lon="-2.24436">
        <ele>-31.39999961853</ele>
        <time>2022-02-06T09:24:50.000Z</time>
      </trkpt>
      <trkpt lat="47.29324" lon="-2.24429">
        <ele>-31.39999961853</ele>
        <time>2022-02-06T09:24:52.000Z</time>
      </trkpt>
      <trkpt lat="47.29338" lon="-2.24414">
        <ele>-31.39999961853</ele>
        <time>2022-02-06T09:24:56.000Z</time>
      </trkpt>
      <trkpt lat="47.29363" lon="-2.24386">
        <ele>-31.39999961853</ele>
        <time>2022-02-06T09:25:03.000Z</time>
      </trkpt>
      <trkpt lat="47.29389" lon="-2.24359">
        <ele>-31.39999961853</ele>
        <time>2022-02-06T09:25:10.000Z</time>
      </trkpt>
      <trkpt lat="47.29416" lon="-2.24334">
        <ele>-31.39999961853</ele>
        <time>2022-02-06T09:25:17.000Z</time>
      </trkpt>
      <trkpt lat="47.29438" lon="-2.24318">
        <ele>-31.39999961853</ele>
        <time>2022-02-06T09:25:22.000Z</time>
      </trkpt>
      <trkpt lat="47.29443" lon="-2.24316">
        <ele>-31.39999961853</ele>
        <time>2022-02-06T09:25:23.000Z</time>
      </trkpt>
      <trkpt lat="47.29454" lon="-2.24312">
        <ele>-31.799999237061</ele>
        <time>2022-02-06T09:25:25.000Z</time>
      </trkpt>
      <trkpt lat="47.29459" lon="-2.2431">
        <ele>-32.200000762939</ele>
        <time>2022-02-06T09:25:26.000Z</time>
      </trkpt>
      <trkpt lat="47.29465" lon="-2.24308">
        <ele>-32.599998474121</ele>
        <time>2022-02-06T09:25:27.000Z</time>
      </trkpt>
      <trkpt lat="47.2947" lon="-2.24307">
        <ele>-33</ele>
        <time>2022-02-06T09:25:28.000Z</time>
      </trkpt>
      <trkpt lat="47.29476" lon="-2.24304">
        <ele>-33.400001525879</ele>
        <time>2022-02-06T09:25:29.000Z</time>
      </trkpt>
      <trkpt lat="47.29482" lon="-2.24302">
        <ele>-33.400001525879</ele>
        <time>2022-02-06T09:25:30.000Z</time>
      </trkpt>
      <trkpt lat="47.29508" lon="-2.24292">
        <ele>-33.799999237061</ele>
        <time>2022-02-06T09:25:34.000Z</time>
      </trkpt>
      <trkpt lat="47.29515" lon="-2.24289">
        <ele>-34.400001525879</ele>
        <time>2022-02-06T09:25:35.000Z</time>
      </trkpt>
      <trkpt lat="47.29522" lon="-2.24287">
        <ele>-34.799999237061</ele>
        <time>2022-02-06T09:25:36.000Z</time>
      </trkpt>
      <trkpt lat="47.29528" lon="-2.24285">
        <ele>-35.200000762939</ele>
        <time>2022-02-06T09:25:37.000Z</time>
      </trkpt>
      <trkpt lat="47.29534" lon="-2.24283">
        <ele>-35.799999237061</ele>
        <time>2022-02-06T09:25:38.000Z</time>
      </trkpt>
      <trkpt lat="47.2954" lon="-2.24283">
        <ele>-35.799999237061</ele>
        <time>2022-02-06T09:25:39.000Z</time>
      </trkpt>
      <trkpt lat="47.29546" lon="-2.24283">
        <ele>-35.799999237061</ele>
        <time>2022-02-06T09:25:40.000Z</time>
      </trkpt>
      <trkpt lat="47.29552" lon="-2.24285">
        <ele>-36.200000762939</ele>
        <time>2022-02-06T09:25:41.000Z</time>
      </trkpt>
      <trkpt lat="47.29557" lon="-2.24288">
        <ele>-36.599998474121</ele>
        <time>2022-02-06T09:25:42.000Z</time>
      </trkpt>
      <trkpt lat="47.2956" lon="-2.24293">
        <ele>-37.400001525879</ele>
        <time>2022-02-06T09:25:43.000Z</time>
      </trkpt>
      <trkpt lat="47.29562" lon="-2.24298">
        <ele>-37.799999237061</ele>
        <time>2022-02-06T09:25:44.000Z</time>
      </trkpt>
      <trkpt lat="47.29569" lon="-2.24307">
        <ele>-37.799999237061</ele>
        <time>2022-02-06T09:25:46.000Z</time>
      </trkpt>
      <trkpt lat="47.29572" lon="-2.2431">
        <ele>-37.799999237061</ele>
        <time>2022-02-06T09:25:47.000Z</time>
      </trkpt>
      <trkpt lat="47.29585" lon="-2.24314">
        <ele>-37.799999237061</ele>
        <time>2022-02-06T09:25:51.000Z</time>
      </trkpt>
      <trkpt lat="47.29589" lon="-2.24313">
        <ele>-37.799999237061</ele>
        <time>2022-02-06T09:25:52.000Z</time>
      </trkpt>
      <trkpt lat="47.29602" lon="-2.24312">
        <ele>-37.799999237061</ele>
        <time>2022-02-06T09:25:55.000Z</time>
      </trkpt>
      <trkpt lat="47.29607" lon="-2.24311">
        <ele>-37.799999237061</ele>
        <time>2022-02-06T09:25:56.000Z</time>
      </trkpt>
      <trkpt lat="47.29615" lon="-2.2431">
        <ele>-37.799999237061</ele>
        <time>2022-02-06T09:25:58.000Z</time>
      </trkpt>
      <trkpt lat="47.29633" lon="-2.24303">
        <ele>-37.799999237061</ele>
        <time>2022-02-06T09:26:02.000Z</time>
      </trkpt>
      <trkpt lat="47.29655" lon="-2.24292">
        <ele>-37.400001525879</ele>
        <time>2022-02-06T09:26:07.000Z</time>
      </trkpt>
      <trkpt lat="47.29659" lon="-2.2429">
        <ele>-37</ele>
        <time>2022-02-06T09:26:08.000Z</time>
      </trkpt>
      <trkpt lat="47.29663" lon="-2.24288">
        <ele>-36.599998474121</ele>
        <time>2022-02-06T09:26:09.000Z</time>
      </trkpt>
      <trkpt lat="47.29667" lon="-2.24285">
        <ele>-36.200000762939</ele>
        <time>2022-02-06T09:26:10.000Z</time>
      </trkpt>
      <trkpt lat="47.29671" lon="-2.24283">
        <ele>-35.599998474121</ele>
        <time>2022-02-06T09:26:11.000Z</time>
      </trkpt>
      <trkpt lat="47.2969" lon="-2.24272">
        <ele>-35.599998474121</ele>
        <time>2022-02-06T09:26:16.000Z</time>
      </trkpt>
      <trkpt lat="47.29694" lon="-2.2427">
        <ele>-35.200000762939</ele>
        <time>2022-02-06T09:26:17.000Z</time>
      </trkpt>
      <trkpt lat="47.29698" lon="-2.24268">
        <ele>-34.799999237061</ele>
        <time>2022-02-06T09:26:18.000Z</time>
      </trkpt>
      <trkpt lat="47.29702" lon="-2.24266">
        <ele>-34.400001525879</ele>
        <time>2022-02-06T09:26:19.000Z</time>
      </trkpt>
      <trkpt lat="47.29706" lon="-2.24264">
        <ele>-34</ele>
        <time>2022-02-06T09:26:20.000Z</time>
      </trkpt>
      <trkpt lat="47.2971" lon="-2.24262">
        <ele>-33.599998474121</ele>
        <time>2022-02-06T09:26:21.000Z</time>
      </trkpt>
      <trkpt lat="47.29714" lon="-2.2426">
        <ele>-33.599998474121</ele>
        <time>2022-02-06T09:26:22.000Z</time>
      </trkpt>
      <trkpt lat="47.2974" lon="-2.24245">
        <ele>-33.200000762939</ele>
        <time>2022-02-06T09:26:29.000Z</time>
      </trkpt>
      <trkpt lat="47.29744" lon="-2.24243">
        <ele>-32.799999237061</ele>
        <time>2022-02-06T09:26:30.000Z</time>
      </trkpt>
      <trkpt lat="47.29748" lon="-2.24242">
        <ele>-32.400001525879</ele>
        <time>2022-02-06T09:26:31.000Z</time>
      </trkpt>
      <trkpt lat="47.29752" lon="-2.2424">
        <ele>-31.60000038147</ele>
        <time>2022-02-06T09:26:32.000Z</time>
      </trkpt>
      <trkpt lat="47.29771" lon="-2.24231">
        <ele>-31.200000762939</ele>
        <time>2022-02-06T09:26:37.000Z</time>
      </trkpt>
      <trkpt lat="47.29775" lon="-2.24229">
        <ele>-30.60000038147</ele>
        <time>2022-02-06T09:26:38.000Z</time>
      </trkpt>
      <trkpt lat="47.29778" lon="-2.24227">
        <ele>-30.200000762939</ele>
        <time>2022-02-06T09:26:39.000Z</time>
      </trkpt>
      <trkpt lat="47.29782" lon="-2.24225">
        <ele>-29.799999237061</ele>
        <time>2022-02-06T09:26:40.000Z</time>
      </trkpt>
      <trkpt lat="47.29785" lon="-2.24223">
        <ele>-29.39999961853</ele>
        <time>2022-02-06T09:26:41.000Z</time>
      </trkpt>
      <trkpt lat="47.29796" lon="-2.24218">
        <ele>-29.39999961853</ele>
        <time>2022-02-06T09:26:44.000Z</time>
      </trkpt>
      <trkpt lat="47.29815" lon="-2.24223">
        <ele>-29.39999961853</ele>
        <time>2022-02-06T09:26:49.000Z</time>
      </trkpt>
      <trkpt lat="47.29818" lon="-2.24225">
        <ele>-29</ele>
        <time>2022-02-06T09:26:50.000Z</time>
      </trkpt>
      <trkpt lat="47.29822" lon="-2.24227">
        <ele>-28.60000038147</ele>
        <time>2022-02-06T09:26:51.000Z</time>
      </trkpt>
      <trkpt lat="47.29825" lon="-2.24229">
        <ele>-28.200000762939</ele>
        <time>2022-02-06T09:26:52.000Z</time>
      </trkpt>
      <trkpt lat="47.29828" lon="-2.24231">
        <ele>-27.799999237061</ele>
        <time>2022-02-06T09:26:53.000Z</time>
      </trkpt>
      <trkpt lat="47.29832" lon="-2.24233">
        <ele>-27.39999961853</ele>
        <time>2022-02-06T09:26:54.000Z</time>
      </trkpt>
      <trkpt lat="47.2984" lon="-2.24237">
        <ele>-27.39999961853</ele>
        <time>2022-02-06T09:26:56.000Z</time>
      </trkpt>
      <trkpt lat="47.29868" lon="-2.2425">
        <ele>-27</ele>
        <time>2022-02-06T09:27:03.000Z</time>
      </trkpt>
      <trkpt lat="47.29873" lon="-2.24253">
        <ele>-26.39999961853</ele>
        <time>2022-02-06T09:27:04.000Z</time>
      </trkpt>
      <trkpt lat="47.29877" lon="-2.24256">
        <ele>-26</ele>
        <time>2022-02-06T09:27:05.000Z</time>
      </trkpt>
      <trkpt lat="47.29881" lon="-2.24258">
        <ele>-25.60000038147</ele>
        <time>2022-02-06T09:27:06.000Z</time>
      </trkpt>
      <trkpt lat="47.29886" lon="-2.24262">
        <ele>-25.200000762939</ele>
        <time>2022-02-06T09:27:07.000Z</time>
      </trkpt>
      <trkpt lat="47.29903" lon="-2.24275">
        <ele>-25.200000762939</ele>
        <time>2022-02-06T09:27:11.000Z</time>
      </trkpt>
      <trkpt lat="47.29932" lon="-2.24294">
        <ele>-25.200000762939</ele>
        <time>2022-02-06T09:27:17.000Z</time>
      </trkpt>
      <trkpt lat="47.29936" lon="-2.24298">
        <ele>-25.200000762939</ele>
        <time>2022-02-06T09:27:18.000Z</time>
      </trkpt>
      <trkpt lat="47.29943" lon="-2.2431">
        <ele>-25.200000762939</ele>
        <time>2022-02-06T09:27:20.000Z</time>
      </trkpt>
      <trkpt lat="47.29958" lon="-2.24328">
        <ele>-25.200000762939</ele>
        <time>2022-02-06T09:27:24.000Z</time>
      </trkpt>
      <trkpt lat="47.29962" lon="-2.24331">
        <ele>-25.200000762939</ele>
        <time>2022-02-06T09:27:25.000Z</time>
      </trkpt>
      <trkpt lat="47.29974" lon="-2.24343">
        <ele>-25.200000762939</ele>
        <time>2022-02-06T09:27:28.000Z</time>
      </trkpt>
      <trkpt lat="47.29983" lon="-2.24355">
        <ele>-25.200000762939</ele>
        <time>2022-02-06T09:27:31.000Z</time>
      </trkpt>
      <trkpt lat="47.29987" lon="-2.24358">
        <ele>-25.200000762939</ele>
        <time>2022-02-06T09:27:32.000Z</time>
      </trkpt>
      <trkpt lat="47.29993" lon="-2.24361">
        <ele>-25.200000762939</ele>
        <time>2022-02-06T09:27:34.000Z</time>
      </trkpt>
      <trkpt lat="47.29996" lon="-2.24358">
        <ele>-25.200000762939</ele>
        <time>2022-02-06T09:27:35.000Z</time>
      </trkpt>
      <trkpt lat="47.30001" lon="-2.24345">
        <ele>-25.200000762939</ele>
        <time>2022-02-06T09:27:38.000Z</time>
      </trkpt>
      <trkpt lat="47.30012" lon="-2.24313">
        <ele>-25.200000762939</ele>
        <time>2022-02-06T09:27:45.000Z</time>
      </trkpt>
      <trkpt lat="47.30017" lon="-2.24292">
        <ele>-25.200000762939</ele>
        <time>2022-02-06T09:27:49.000Z</time>
      </trkpt>
      <trkpt lat="47.3002" lon="-2.24285">
        <ele>-25.200000762939</ele>
        <time>2022-02-06T09:27:51.000Z</time>
      </trkpt>
      <trkpt lat="47.30022" lon="-2.24283">
        <ele>-25.200000762939</ele>
        <time>2022-02-06T09:27:52.000Z</time>
      </trkpt>
      <trkpt lat="47.30026" lon="-2.24269">
        <ele>-25.200000762939</ele>
        <time>2022-02-06T09:27:55.000Z</time>
      </trkpt>
      <trkpt lat="47.30026" lon="-2.24265">
        <ele>-25.60000038147</ele>
        <time>2022-02-06T09:27:56.000Z</time>
      </trkpt>
      <trkpt lat="47.30025" lon="-2.24257">
        <ele>-26</ele>
        <time>2022-02-06T09:27:57.000Z</time>
      </trkpt>
      <trkpt lat="47.30023" lon="-2.2425">
        <ele>-26.39999961853</ele>
        <time>2022-02-06T09:27:58.000Z</time>
      </trkpt>
      <trkpt lat="47.30023" lon="-2.24242">
        <ele>-26.799999237061</ele>
        <time>2022-02-06T09:27:59.000Z</time>
      </trkpt>
      <trkpt lat="47.30023" lon="-2.24234">
        <ele>-27.200000762939</ele>
        <time>2022-02-06T09:28:00.000Z</time>
      </trkpt>
      <trkpt lat="47.30023" lon="-2.24225">
        <ele>-27.200000762939</ele>
        <time>2022-02-06T09:28:01.000Z</time>
      </trkpt>
      <trkpt lat="47.30023" lon="-2.24217">
        <ele>-27.60000038147</ele>
        <time>2022-02-06T09:28:02.000Z</time>
      </trkpt>
      <trkpt lat="47.30023" lon="-2.24209">
        <ele>-28</ele>
        <time>2022-02-06T09:28:03.000Z</time>
      </trkpt>
      <trkpt lat="47.30024" lon="-2.24201">
        <ele>-28.39999961853</ele>
        <time>2022-02-06T09:28:04.000Z</time>
      </trkpt>
      <trkpt lat="47.30024" lon="-2.24193">
        <ele>-28.799999237061</ele>
        <time>2022-02-06T09:28:05.000Z</time>
      </trkpt>
      <trkpt lat="47.30024" lon="-2.24185">
        <ele>-29.39999961853</ele>
        <time>2022-02-06T09:28:06.000Z</time>
      </trkpt>
      <trkpt lat="47.30024" lon="-2.24177">
        <ele>-29.799999237061</ele>
        <time>2022-02-06T09:28:07.000Z</time>
      </trkpt>
      <trkpt lat="47.30025" lon="-2.24171">
        <ele>-30.200000762939</ele>
        <time>2022-02-06T09:28:08.000Z</time>
      </trkpt>
      <trkpt lat="47.30024" lon="-2.24166">
        <ele>-30.60000038147</ele>
        <time>2022-02-06T09:28:09.000Z</time>
      </trkpt>
      <trkpt lat="47.30024" lon="-2.24162">
        <ele>-31.200000762939</ele>
        <time>2022-02-06T09:28:10.000Z</time>
      </trkpt>
      <trkpt lat="47.30023" lon="-2.2416">
        <ele>-32</ele>
        <time>2022-02-06T09:28:11.000Z</time>
      </trkpt>
      <trkpt lat="47.30023" lon="-2.24157">
        <ele>-32.400001525879</ele>
        <time>2022-02-06T09:28:12.000Z</time>
      </trkpt>
      <trkpt lat="47.30024" lon="-2.24155">
        <ele>-33</ele>
        <time>2022-02-06T09:28:13.000Z</time>
      </trkpt>
      <trkpt lat="47.30024" lon="-2.24154">
        <ele>-33.400001525879</ele>
        <time>2022-02-06T09:28:14.000Z</time>
      </trkpt>
      <trkpt lat="47.30026" lon="-2.24152">
        <ele>-33.799999237061</ele>
        <time>2022-02-06T09:28:15.000Z</time>
      </trkpt>
      <trkpt lat="47.3003" lon="-2.24149">
        <ele>-33.799999237061</ele>
        <time>2022-02-06T09:28:17.000Z</time>
      </trkpt>
      <trkpt lat="47.30034" lon="-2.24146">
        <ele>-33.799999237061</ele>
        <time>2022-02-06T09:28:19.000Z</time>
      </trkpt>
      <trkpt lat="47.30038" lon="-2.24142">
        <ele>-33.400001525879</ele>
        <time>2022-02-06T09:28:21.000Z</time>
      </trkpt>
      <trkpt lat="47.3004" lon="-2.2414">
        <ele>-33</ele>
        <time>2022-02-06T09:28:22.000Z</time>
      </trkpt>
      <trkpt lat="47.30043" lon="-2.24138">
        <ele>-32.599998474121</ele>
        <time>2022-02-06T09:28:23.000Z</time>
      </trkpt>
      <trkpt lat="47.30045" lon="-2.24137">
        <ele>-32.200000762939</ele>
        <time>2022-02-06T09:28:24.000Z</time>
      </trkpt>
      <trkpt lat="47.30048" lon="-2.24135">
        <ele>-31.799999237061</ele>
        <time>2022-02-06T09:28:25.000Z</time>
      </trkpt>
      <trkpt lat="47.30052" lon="-2.24131">
        <ele>-31.799999237061</ele>
        <time>2022-02-06T09:28:27.000Z</time>
      </trkpt>
      <trkpt lat="47.30057" lon="-2.24127">
        <ele>-31.799999237061</ele>
        <time>2022-02-06T09:28:29.000Z</time>
      </trkpt>
      <trkpt lat="47.30066" lon="-2.24119">
        <ele>-31.799999237061</ele>
        <time>2022-02-06T09:28:33.000Z</time>
      </trkpt>
      <trkpt lat="47.30069" lon="-2.24117">
        <ele>-31.799999237061</ele>
        <time>2022-02-06T09:28:34.000Z</time>
      </trkpt>
      <trkpt lat="47.30093" lon="-2.24104">
        <ele>-31.799999237061</ele>
        <time>2022-02-06T09:28:40.000Z</time>
      </trkpt>
      <trkpt lat="47.30118" lon="-2.24088">
        <ele>-31.799999237061</ele>
        <time>2022-02-06T09:28:46.000Z</time>
      </trkpt>
      <trkpt lat="47.30152" lon="-2.24071">
        <ele>-31.799999237061</ele>
        <time>2022-02-06T09:28:53.000Z</time>
      </trkpt>
      <trkpt lat="47.30168" lon="-2.24064">
        <ele>-31.799999237061</ele>
        <time>2022-02-06T09:28:56.000Z</time>
      </trkpt>
      <trkpt lat="47.30184" lon="-2.2406">
        <ele>-31.799999237061</ele>
        <time>2022-02-06T09:28:59.000Z</time>
      </trkpt>
      <trkpt lat="47.3019" lon="-2.24059">
        <ele>-31.799999237061</ele>
        <time>2022-02-06T09:29:00.000Z</time>
      </trkpt>
      <trkpt lat="47.30212" lon="-2.24059">
        <ele>-31.799999237061</ele>
        <time>2022-02-06T09:29:04.000Z</time>
      </trkpt>
      <trkpt lat="47.30249" lon="-2.24064">
        <ele>-31.799999237061</ele>
        <time>2022-02-06T09:29:11.000Z</time>
      </trkpt>
      <trkpt lat="47.30273" lon="-2.24063">
        <ele>-31.799999237061</ele>
        <time>2022-02-06T09:29:16.000Z</time>
      </trkpt>
      <trkpt lat="47.30277" lon="-2.24059">
        <ele>-31.799999237061</ele>
        <time>2022-02-06T09:29:17.000Z</time>
      </trkpt>
      <trkpt lat="47.30279" lon="-2.24043">
        <ele>-31.799999237061</ele>
        <time>2022-02-06T09:29:19.000Z</time>
      </trkpt>
      <trkpt lat="47.30279" lon="-2.24035">
        <ele>-32.200000762939</ele>
        <time>2022-02-06T09:29:20.000Z</time>
      </trkpt>
      <trkpt lat="47.30278" lon="-2.24026">
        <ele>-32.599998474121</ele>
        <time>2022-02-06T09:29:21.000Z</time>
      </trkpt>
      <trkpt lat="47.30277" lon="-2.24017">
        <ele>-33</ele>
        <time>2022-02-06T09:29:22.000Z</time>
      </trkpt>
      <trkpt lat="47.30275" lon="-2.24007">
        <ele>-33.400001525879</ele>
        <time>2022-02-06T09:29:23.000Z</time>
      </trkpt>
      <trkpt lat="47.30274" lon="-2.23996">
        <ele>-33.799999237061</ele>
        <time>2022-02-06T09:29:24.000Z</time>
      </trkpt>
      <trkpt lat="47.30265" lon="-2.23954">
        <ele>-33.799999237061</ele>
        <time>2022-02-06T09:29:28.000Z</time>
      </trkpt>
      <trkpt lat="47.30263" lon="-2.23944">
        <ele>-34.400001525879</ele>
        <time>2022-02-06T09:29:29.000Z</time>
      </trkpt>
      <trkpt lat="47.30261" lon="-2.23933">
        <ele>-34.799999237061</ele>
        <time>2022-02-06T09:29:30.000Z</time>
      </trkpt>
      <trkpt lat="47.30261" lon="-2.23922">
        <ele>-35.200000762939</ele>
        <time>2022-02-06T09:29:31.000Z</time>
      </trkpt>
      <trkpt lat="47.30262" lon="-2.23913">
        <ele>-35.799999237061</ele>
        <time>2022-02-06T09:29:32.000Z</time>
      </trkpt>
      <trkpt lat="47.30264" lon="-2.23904">
        <ele>-36.200000762939</ele>
        <time>2022-02-06T09:29:33.000Z</time>
      </trkpt>
      <trkpt lat="47.30275" lon="-2.23885">
        <ele>-36.200000762939</ele>
        <time>2022-02-06T09:29:36.000Z</time>
      </trkpt>
      <trkpt lat="47.30285" lon="-2.23882">
        <ele>-36.599998474121</ele>
        <time>2022-02-06T09:29:38.000Z</time>
      </trkpt>
      <trkpt lat="47.30291" lon="-2.23882">
        <ele>-37</ele>
        <time>2022-02-06T09:29:39.000Z</time>
      </trkpt>
      <trkpt lat="47.30296" lon="-2.23882">
        <ele>-37.400001525879</ele>
        <time>2022-02-06T09:29:40.000Z</time>
      </trkpt>
      <trkpt lat="47.30301" lon="-2.2388">
        <ele>-37.799999237061</ele>
        <time>2022-02-06T09:29:41.000Z</time>
      </trkpt>
      <trkpt lat="47.30307" lon="-2.23878">
        <ele>-38.200000762939</ele>
        <time>2022-02-06T09:29:42.000Z</time>
      </trkpt>
      <trkpt lat="47.30313" lon="-2.23875">
        <ele>-38.200000762939</ele>
        <time>2022-02-06T09:29:43.000Z</time>
      </trkpt>
      <trkpt lat="47.30318" lon="-2.23872">
        <ele>-38.200000762939</ele>
        <time>2022-02-06T09:29:44.000Z</time>
      </trkpt>
      <trkpt lat="47.30355" lon="-2.23858">
        <ele>-38.200000762939</ele>
        <time>2022-02-06T09:29:51.000Z</time>
      </trkpt>
      <trkpt lat="47.30388" lon="-2.23853">
        <ele>-38.200000762939</ele>
        <time>2022-02-06T09:29:58.000Z</time>
      </trkpt>
      <trkpt lat="47.30416" lon="-2.23849">
        <ele>-38.200000762939</ele>
        <time>2022-02-06T09:30:05.000Z</time>
      </trkpt>
      <trkpt lat="47.30445" lon="-2.23842">
        <ele>-38.200000762939</ele>
        <time>2022-02-06T09:30:13.000Z</time>
      </trkpt>
      <trkpt lat="47.30474" lon="-2.23836">
        <ele>-38.200000762939</ele>
        <time>2022-02-06T09:30:21.000Z</time>
      </trkpt>
      <trkpt lat="47.30493" lon="-2.23842">
        <ele>-38.200000762939</ele>
        <time>2022-02-06T09:30:26.000Z</time>
      </trkpt>
      <trkpt lat="47.305" lon="-2.2385">
        <ele>-38.200000762939</ele>
        <time>2022-02-06T09:30:28.000Z</time>
      </trkpt>
      <trkpt lat="47.30509" lon="-2.23865">
        <ele>-38.200000762939</ele>
        <time>2022-02-06T09:30:31.000Z</time>
      </trkpt>
      <trkpt lat="47.30523" lon="-2.23885">
        <ele>-38.200000762939</ele>
        <time>2022-02-06T09:30:35.000Z</time>
      </trkpt>
      <trkpt lat="47.30537" lon="-2.23904">
        <ele>-38.200000762939</ele>
        <time>2022-02-06T09:30:39.000Z</time>
      </trkpt>
      <trkpt lat="47.30551" lon="-2.23926">
        <ele>-38.200000762939</ele>
        <time>2022-02-06T09:30:43.000Z</time>
      </trkpt>
      <trkpt lat="47.30552" lon="-2.23933">
        <ele>-38.200000762939</ele>
        <time>2022-02-06T09:30:44.000Z</time>
      </trkpt>
      <trkpt lat="47.30546" lon="-2.23951">
        <ele>-38.200000762939</ele>
        <time>2022-02-06T09:30:47.000Z</time>
      </trkpt>
      <trkpt lat="47.30536" lon="-2.23963">
        <ele>-38.200000762939</ele>
        <time>2022-02-06T09:30:50.000Z</time>
      </trkpt>
      <trkpt lat="47.30529" lon="-2.23971">
        <ele>-37.799999237061</ele>
        <time>2022-02-06T09:30:52.000Z</time>
      </trkpt>
      <trkpt lat="47.30526" lon="-2.23976">
        <ele>-37.400001525879</ele>
        <time>2022-02-06T09:30:53.000Z</time>
      </trkpt>
      <trkpt lat="47.30522" lon="-2.2398">
        <ele>-37</ele>
        <time>2022-02-06T09:30:54.000Z</time>
      </trkpt>
      <trkpt lat="47.30519" lon="-2.23984">
        <ele>-36.599998474121</ele>
        <time>2022-02-06T09:30:55.000Z</time>
      </trkpt>
      <trkpt lat="47.30515" lon="-2.23988">
        <ele>-36.200000762939</ele>
        <time>2022-02-06T09:30:56.000Z</time>
      </trkpt>
      <trkpt lat="47.30512" lon="-2.23992">
        <ele>-36.200000762939</ele>
        <time>2022-02-06T09:30:57.000Z</time>
      </trkpt>
      <trkpt lat="47.30505" lon="-2.24001">
        <ele>-35.799999237061</ele>
        <time>2022-02-06T09:30:59.000Z</time>
      </trkpt>
      <trkpt lat="47.30503" lon="-2.24006">
        <ele>-35.200000762939</ele>
        <time>2022-02-06T09:31:00.000Z</time>
      </trkpt>
      <trkpt lat="47.305" lon="-2.24011">
        <ele>-34.799999237061</ele>
        <time>2022-02-06T09:31:01.000Z</time>
      </trkpt>
      <trkpt lat="47.30497" lon="-2.24015">
        <ele>-34.200000762939</ele>
        <time>2022-02-06T09:31:02.000Z</time>
      </trkpt>
      <trkpt lat="47.30494" lon="-2.24019">
        <ele>-33.799999237061</ele>
        <time>2022-02-06T09:31:03.000Z</time>
      </trkpt>
      <trkpt lat="47.30491" lon="-2.24023">
        <ele>-33.200000762939</ele>
        <time>2022-02-06T09:31:04.000Z</time>
      </trkpt>
      <trkpt lat="47.30488" lon="-2.24026">
        <ele>-32.799999237061</ele>
        <time>2022-02-06T09:31:05.000Z</time>
      </trkpt>
      <trkpt lat="47.30484" lon="-2.24029">
        <ele>-32.400001525879</ele>
        <time>2022-02-06T09:31:06.000Z</time>
      </trkpt>
      <trkpt lat="47.30482" lon="-2.24031">
        <ele>-32</ele>
        <time>2022-02-06T09:31:07.000Z</time>
      </trkpt>
      <trkpt lat="47.30479" lon="-2.24033">
        <ele>-31.60000038147</ele>
        <time>2022-02-06T09:31:08.000Z</time>
      </trkpt>
      <trkpt lat="47.30471" lon="-2.24039">
        <ele>-31.200000762939</ele>
        <time>2022-02-06T09:31:11.000Z</time>
      </trkpt>
      <trkpt lat="47.30468" lon="-2.2404">
        <ele>-30.799999237061</ele>
        <time>2022-02-06T09:31:12.000Z</time>
      </trkpt>
      <trkpt lat="47.30464" lon="-2.24042">
        <ele>-30.200000762939</ele>
        <time>2022-02-06T09:31:13.000Z</time>
      </trkpt>
      <trkpt lat="47.30461" lon="-2.24045">
        <ele>-29.799999237061</ele>
        <time>2022-02-06T09:31:14.000Z</time>
      </trkpt>
      <trkpt lat="47.30458" lon="-2.24047">
        <ele>-29.39999961853</ele>
        <time>2022-02-06T09:31:15.000Z</time>
      </trkpt>
      <trkpt lat="47.30444" lon="-2.24062">
        <ele>-29.39999961853</ele>
        <time>2022-02-06T09:31:20.000Z</time>
      </trkpt>
      <trkpt lat="47.30438" lon="-2.24069">
        <ele>-29</ele>
        <time>2022-02-06T09:31:22.000Z</time>
      </trkpt>
      <trkpt lat="47.30435" lon="-2.24072">
        <ele>-28.60000038147</ele>
        <time>2022-02-06T09:31:23.000Z</time>
      </trkpt>
      <trkpt lat="47.30432" lon="-2.24075">
        <ele>-28.200000762939</ele>
        <time>2022-02-06T09:31:24.000Z</time>
      </trkpt>
      <trkpt lat="47.3043" lon="-2.24078">
        <ele>-27.799999237061</ele>
        <time>2022-02-06T09:31:25.000Z</time>
      </trkpt>
      <trkpt lat="47.30426" lon="-2.24081">
        <ele>-27.39999961853</ele>
        <time>2022-02-06T09:31:26.000Z</time>
      </trkpt>
      <trkpt lat="47.30424" lon="-2.24084">
        <ele>-27.39999961853</ele>
        <time>2022-02-06T09:31:27.000Z</time>
      </trkpt>
      <trkpt lat="47.30413" lon="-2.24095">
        <ele>-27</ele>
        <time>2022-02-06T09:31:31.000Z</time>
      </trkpt>
      <trkpt lat="47.3041" lon="-2.24098">
        <ele>-26.39999961853</ele>
        <time>2022-02-06T09:31:32.000Z</time>
      </trkpt>
      <trkpt lat="47.30408" lon="-2.24101">
        <ele>-26</ele>
        <time>2022-02-06T09:31:33.000Z</time>
      </trkpt>
      <trkpt lat="47.30405" lon="-2.24104">
        <ele>-25.60000038147</ele>
        <time>2022-02-06T09:31:34.000Z</time>
      </trkpt>
      <trkpt lat="47.30401" lon="-2.24108">
        <ele>-25</ele>
        <time>2022-02-06T09:31:35.000Z</time>
      </trkpt>
      <trkpt lat="47.30381" lon="-2.24128">
        <ele>-25</ele>
        <time>2022-02-06T09:31:41.000Z</time>
      </trkpt>
      <trkpt lat="47.30376" lon="-2.24133">
        <ele>-25</ele>
        <time>2022-02-06T09:31:42.000Z</time>
      </trkpt>
      <trkpt lat="47.30359" lon="-2.24156">
        <ele>-25</ele>
        <time>2022-02-06T09:31:46.000Z</time>
      </trkpt>
      <trkpt lat="47.30355" lon="-2.24162">
        <ele>-25</ele>
        <time>2022-02-06T09:31:47.000Z</time>
      </trkpt>
      <trkpt lat="47.30348" lon="-2.24184">
        <ele>-25</ele>
        <time>2022-02-06T09:31:50.000Z</time>
      </trkpt>
      <trkpt lat="47.30352" lon="-2.24207">
        <ele>-25</ele>
        <time>2022-02-06T09:31:53.000Z</time>
      </trkpt>
      <trkpt lat="47.30359" lon="-2.24216">
        <ele>-25</ele>
        <time>2022-02-06T09:31:55.000Z</time>
      </trkpt>
      <trkpt lat="47.30363" lon="-2.24221">
        <ele>-25</ele>
        <time>2022-02-06T09:31:56.000Z</time>
      </trkpt>
      <trkpt lat="47.30367" lon="-2.24225">
        <ele>-25</ele>
        <time>2022-02-06T09:31:57.000Z</time>
      </trkpt>
      <trkpt lat="47.30389" lon="-2.24246">
        <ele>-25</ele>
        <time>2022-02-06T09:32:03.000Z</time>
      </trkpt>
      <trkpt lat="47.3042" lon="-2.24273">
        <ele>-25</ele>
        <time>2022-02-06T09:32:10.000Z</time>
      </trkpt>
      <trkpt lat="47.30445" lon="-2.2428">
        <ele>-25</ele>
        <time>2022-02-06T09:32:15.000Z</time>
      </trkpt>
      <trkpt lat="47.3047" lon="-2.24288">
        <ele>-25</ele>
        <time>2022-02-06T09:32:20.000Z</time>
      </trkpt>
      <trkpt lat="47.3048" lon="-2.24293">
        <ele>-25</ele>
        <time>2022-02-06T09:32:22.000Z</time>
      </trkpt>
      <trkpt lat="47.305" lon="-2.24304">
        <ele>-25</ele>
        <time>2022-02-06T09:32:26.000Z</time>
      </trkpt>
      <trkpt lat="47.30508" lon="-2.24313">
        <ele>-25</ele>
        <time>2022-02-06T09:32:28.000Z</time>
      </trkpt>
      <trkpt lat="47.30516" lon="-2.24321">
        <ele>-25</ele>
        <time>2022-02-06T09:32:30.000Z</time>
      </trkpt>
      <trkpt lat="47.30532" lon="-2.24338">
        <ele>-25</ele>
        <time>2022-02-06T09:32:34.000Z</time>
      </trkpt>
      <trkpt lat="47.30562" lon="-2.24369">
        <ele>-25</ele>
        <time>2022-02-06T09:32:41.000Z</time>
      </trkpt>
      <trkpt lat="47.30571" lon="-2.24377">
        <ele>-25.39999961853</ele>
        <time>2022-02-06T09:32:43.000Z</time>
      </trkpt>
      <trkpt lat="47.30576" lon="-2.24383">
        <ele>-26</ele>
        <time>2022-02-06T09:32:44.000Z</time>
      </trkpt>
      <trkpt lat="47.3058" lon="-2.24388">
        <ele>-26.39999961853</ele>
        <time>2022-02-06T09:32:45.000Z</time>
      </trkpt>
      <trkpt lat="47.30585" lon="-2.24393">
        <ele>-26.799999237061</ele>
        <time>2022-02-06T09:32:46.000Z</time>
      </trkpt>
      <trkpt lat="47.3059" lon="-2.24397">
        <ele>-27.200000762939</ele>
        <time>2022-02-06T09:32:47.000Z</time>
      </trkpt>
      <trkpt lat="47.30617" lon="-2.24417">
        <ele>-27.200000762939</ele>
        <time>2022-02-06T09:32:53.000Z</time>
      </trkpt>
      <trkpt lat="47.30632" lon="-2.2443">
        <ele>-27.200000762939</ele>
        <time>2022-02-06T09:32:57.000Z</time>
      </trkpt>
      <trkpt lat="47.30634" lon="-2.24437">
        <ele>-27.200000762939</ele>
        <time>2022-02-06T09:32:58.000Z</time>
      </trkpt>
      <trkpt lat="47.30635" lon="-2.2446">
        <ele>-27.60000038147</ele>
        <time>2022-02-06T09:33:01.000Z</time>
      </trkpt>
      <trkpt lat="47.30634" lon="-2.24469">
        <ele>-28</ele>
        <time>2022-02-06T09:33:02.000Z</time>
      </trkpt>
      <trkpt lat="47.30634" lon="-2.24477">
        <ele>-28.39999961853</ele>
        <time>2022-02-06T09:33:03.000Z</time>
      </trkpt>
      <trkpt lat="47.30634" lon="-2.24487">
        <ele>-28.799999237061</ele>
        <time>2022-02-06T09:33:04.000Z</time>
      </trkpt>
      <trkpt lat="47.30633" lon="-2.24497">
        <ele>-29.39999961853</ele>
        <time>2022-02-06T09:33:05.000Z</time>
      </trkpt>
      <trkpt lat="47.30631" lon="-2.24508">
        <ele>-29.799999237061</ele>
        <time>2022-02-06T09:33:06.000Z</time>
      </trkpt>
      <trkpt lat="47.30629" lon="-2.24519">
        <ele>-30.60000038147</ele>
        <time>2022-02-06T09:33:07.000Z</time>
      </trkpt>
      <trkpt lat="47.30627" lon="-2.2453">
        <ele>-31</ele>
        <time>2022-02-06T09:33:08.000Z</time>
      </trkpt>
      <trkpt lat="47.30625" lon="-2.24542">
        <ele>-31.60000038147</ele>
        <time>2022-02-06T09:33:09.000Z</time>
      </trkpt>
      <trkpt lat="47.30624" lon="-2.24554">
        <ele>-32</ele>
        <time>2022-02-06T09:33:10.000Z</time>
      </trkpt>
      <trkpt lat="47.30622" lon="-2.24566">
        <ele>-32.599998474121</ele>
        <time>2022-02-06T09:33:11.000Z</time>
      </trkpt>
      <trkpt lat="47.3062" lon="-2.24579">
        <ele>-33.200000762939</ele>
        <time>2022-02-06T09:33:12.000Z</time>
      </trkpt>
      <trkpt lat="47.30619" lon="-2.24591">
        <ele>-33.599998474121</ele>
        <time>2022-02-06T09:33:13.000Z</time>
      </trkpt>
      <trkpt lat="47.30618" lon="-2.24605">
        <ele>-34.200000762939</ele>
        <time>2022-02-06T09:33:14.000Z</time>
      </trkpt>
      <trkpt lat="47.30618" lon="-2.24618">
        <ele>-34.799999237061</ele>
        <time>2022-02-06T09:33:15.000Z</time>
      </trkpt>
      <trkpt lat="47.30619" lon="-2.2463">
        <ele>-35.200000762939</ele>
        <time>2022-02-06T09:33:16.000Z</time>
      </trkpt>
      <trkpt lat="47.30622" lon="-2.24641">
        <ele>-35.799999237061</ele>
        <time>2022-02-06T09:33:17.000Z</time>
      </trkpt>
      <trkpt lat="47.30628" lon="-2.24662">
        <ele>-35.799999237061</ele>
        <time>2022-02-06T09:33:19.000Z</time>
      </trkpt>
      <trkpt lat="47.30638" lon="-2.24691">
        <ele>-36.200000762939</ele>
        <time>2022-02-06T09:33:22.000Z</time>
      </trkpt>
      <trkpt lat="47.30641" lon="-2.24701">
        <ele>-36.599998474121</ele>
        <time>2022-02-06T09:33:23.000Z</time>
      </trkpt>
      <trkpt lat="47.30643" lon="-2.2471">
        <ele>-37</ele>
        <time>2022-02-06T09:33:24.000Z</time>
      </trkpt>
      <trkpt lat="47.30646" lon="-2.24718">
        <ele>-37.400001525879</ele>
        <time>2022-02-06T09:33:25.000Z</time>
      </trkpt>
      <trkpt lat="47.30649" lon="-2.24727">
        <ele>-37.799999237061</ele>
        <time>2022-02-06T09:33:26.000Z</time>
      </trkpt>
      <trkpt lat="47.30654" lon="-2.24744">
        <ele>-37.799999237061</ele>
        <time>2022-02-06T09:33:28.000Z</time>
      </trkpt>
      <trkpt lat="47.30665" lon="-2.24768">
        <ele>-37.799999237061</ele>
        <time>2022-02-06T09:33:31.000Z</time>
      </trkpt>
      <trkpt lat="47.30673" lon="-2.24781">
        <ele>-37.799999237061</ele>
        <time>2022-02-06T09:33:33.000Z</time>
      </trkpt>
      <trkpt lat="47.30701" lon="-2.24817">
        <ele>-37.799999237061</ele>
        <time>2022-02-06T09:33:39.000Z</time>
      </trkpt>
      <trkpt lat="47.30719" lon="-2.24848">
        <ele>-37.799999237061</ele>
        <time>2022-02-06T09:33:44.000Z</time>
      </trkpt>
      <trkpt lat="47.30727" lon="-2.24862">
        <ele>-37.799999237061</ele>
        <time>2022-02-06T09:33:46.000Z</time>
      </trkpt>
      <trkpt lat="47.30741" lon="-2.2488">
        <ele>-37.799999237061</ele>
        <time>2022-02-06T09:33:49.000Z</time>
      </trkpt>
      <trkpt lat="47.30766" lon="-2.24895">
        <ele>-37.799999237061</ele>
        <time>2022-02-06T09:33:53.000Z</time>
      </trkpt>
      <trkpt lat="47.30811" lon="-2.24916">
        <ele>-37.799999237061</ele>
        <time>2022-02-06T09:34:00.000Z</time>
      </trkpt>
      <trkpt lat="47.30853" lon="-2.24937">
        <ele>-37.799999237061</ele>
        <time>2022-02-06T09:34:07.000Z</time>
      </trkpt>
      <trkpt lat="47.30859" lon="-2.24943">
        <ele>-37.799999237061</ele>
        <time>2022-02-06T09:34:08.000Z</time>
      </trkpt>
      <trkpt lat="47.30871" lon="-2.24962">
        <ele>-37.799999237061</ele>
        <time>2022-02-06T09:34:11.000Z</time>
      </trkpt>
      <trkpt lat="47.30876" lon="-2.24976">
        <ele>-37.799999237061</ele>
        <time>2022-02-06T09:34:13.000Z</time>
      </trkpt>
      <trkpt lat="47.30881" lon="-2.24991">
        <ele>-37.799999237061</ele>
        <time>2022-02-06T09:34:15.000Z</time>
      </trkpt>
      <trkpt lat="47.30883" lon="-2.25">
        <ele>-37.799999237061</ele>
        <time>2022-02-06T09:34:16.000Z</time>
      </trkpt>
      <trkpt lat="47.30889" lon="-2.25035">
        <ele>-37.799999237061</ele>
        <time>2022-02-06T09:34:20.000Z</time>
      </trkpt>
      <trkpt lat="47.30896" lon="-2.25112">
        <ele>-37.799999237061</ele>
        <time>2022-02-06T09:34:29.000Z</time>
      </trkpt>
      <trkpt lat="47.30901" lon="-2.25158">
        <ele>-37.799999237061</ele>
        <time>2022-02-06T09:34:35.000Z</time>
      </trkpt>
      <trkpt lat="47.30904" lon="-2.25166">
        <ele>-37.799999237061</ele>
        <time>2022-02-06T09:34:36.000Z</time>
      </trkpt>
      <trkpt lat="47.3091" lon="-2.25182">
        <ele>-37.400001525879</ele>
        <time>2022-02-06T09:34:38.000Z</time>
      </trkpt>
      <trkpt lat="47.30913" lon="-2.25189">
        <ele>-37</ele>
        <time>2022-02-06T09:34:39.000Z</time>
      </trkpt>
      <trkpt lat="47.30915" lon="-2.25196">
        <ele>-36.599998474121</ele>
        <time>2022-02-06T09:34:40.000Z</time>
      </trkpt>
      <trkpt lat="47.30916" lon="-2.25204">
        <ele>-36.200000762939</ele>
        <time>2022-02-06T09:34:41.000Z</time>
      </trkpt>
      <trkpt lat="47.30914" lon="-2.25213">
        <ele>-35.799999237061</ele>
        <time>2022-02-06T09:34:42.000Z</time>
      </trkpt>
      <trkpt lat="47.30912" lon="-2.25218">
        <ele>-35.799999237061</ele>
        <time>2022-02-06T09:34:43.000Z</time>
      </trkpt>
      <trkpt lat="47.30899" lon="-2.25229">
        <ele>-35.799999237061</ele>
        <time>2022-02-06T09:34:46.000Z</time>
      </trkpt>
      <trkpt lat="47.30883" lon="-2.25243">
        <ele>-35.400001525879</ele>
        <time>2022-02-06T09:34:50.000Z</time>
      </trkpt>
      <trkpt lat="47.30878" lon="-2.25247">
        <ele>-35</ele>
        <time>2022-02-06T09:34:51.000Z</time>
      </trkpt>
      <trkpt lat="47.30874" lon="-2.2525">
        <ele>-34.599998474121</ele>
        <time>2022-02-06T09:34:52.000Z</time>
      </trkpt>
      <trkpt lat="47.3087" lon="-2.25253">
        <ele>-34.200000762939</ele>
        <time>2022-02-06T09:34:53.000Z</time>
      </trkpt>
      <trkpt lat="47.30865" lon="-2.25256">
        <ele>-33.799999237061</ele>
        <time>2022-02-06T09:34:54.000Z</time>
      </trkpt>
      <trkpt lat="47.30853" lon="-2.25266">
        <ele>-33.799999237061</ele>
        <time>2022-02-06T09:34:57.000Z</time>
      </trkpt>
      <trkpt lat="47.30848" lon="-2.25278">
        <ele>-33.799999237061</ele>
        <time>2022-02-06T09:34:59.000Z</time>
      </trkpt>
      <trkpt lat="47.30846" lon="-2.25305">
        <ele>-33.799999237061</ele>
        <time>2022-02-06T09:35:03.000Z</time>
      </trkpt>
      <trkpt lat="47.30846" lon="-2.25312">
        <ele>-33.799999237061</ele>
        <time>2022-02-06T09:35:04.000Z</time>
      </trkpt>
      <trkpt lat="47.30847" lon="-2.25334">
        <ele>-33.799999237061</ele>
        <time>2022-02-06T09:35:07.000Z</time>
      </trkpt>
      <trkpt lat="47.3085" lon="-2.25352">
        <ele>-33.799999237061</ele>
        <time>2022-02-06T09:35:10.000Z</time>
      </trkpt>
      <trkpt lat="47.30852" lon="-2.25358">
        <ele>-33.799999237061</ele>
        <time>2022-02-06T09:35:11.000Z</time>
      </trkpt>
      <trkpt lat="47.30854" lon="-2.2537">
        <ele>-33.799999237061</ele>
        <time>2022-02-06T09:35:13.000Z</time>
      </trkpt>
      <trkpt lat="47.30856" lon="-2.2539">
        <ele>-33.799999237061</ele>
        <time>2022-02-06T09:35:16.000Z</time>
      </trkpt>
      <trkpt lat="47.30858" lon="-2.25403">
        <ele>-33.799999237061</ele>
        <time>2022-02-06T09:35:18.000Z</time>
      </trkpt>
      <trkpt lat="47.30866" lon="-2.25406">
        <ele>-33.799999237061</ele>
        <time>2022-02-06T09:35:20.000Z</time>
      </trkpt>
      <trkpt lat="47.30881" lon="-2.25402">
        <ele>-33.799999237061</ele>
        <time>2022-02-06T09:35:24.000Z</time>
      </trkpt>
      <trkpt lat="47.30914" lon="-2.25401">
        <ele>-33.799999237061</ele>
        <time>2022-02-06T09:35:32.000Z</time>
      </trkpt>
      <trkpt lat="47.30919" lon="-2.25401">
        <ele>-33.799999237061</ele>
        <time>2022-02-06T09:35:33.000Z</time>
      </trkpt>
      <trkpt lat="47.30935" lon="-2.25402">
        <ele>-33.799999237061</ele>
        <time>2022-02-06T09:35:37.000Z</time>
      </trkpt>
      <trkpt lat="47.30938" lon="-2.25399">
        <ele>-33.799999237061</ele>
        <time>2022-02-06T09:35:38.000Z</time>
      </trkpt>
      <trkpt lat="47.30944" lon="-2.25382">
        <ele>-33.799999237061</ele>
        <time>2022-02-06T09:35:41.000Z</time>
      </trkpt>
      <trkpt lat="47.30948" lon="-2.25369">
        <ele>-33.799999237061</ele>
        <time>2022-02-06T09:35:43.000Z</time>
      </trkpt>
      <trkpt lat="47.30955" lon="-2.25341">
        <ele>-33.799999237061</ele>
        <time>2022-02-06T09:35:47.000Z</time>
      </trkpt>
      <trkpt lat="47.30962" lon="-2.25294">
        <ele>-33.799999237061</ele>
        <time>2022-02-06T09:35:53.000Z</time>
      </trkpt>
      <trkpt lat="47.30965" lon="-2.25288">
        <ele>-33.799999237061</ele>
        <time>2022-02-06T09:35:54.000Z</time>
      </trkpt>
      <trkpt lat="47.30978" lon="-2.25264">
        <ele>-33.799999237061</ele>
        <time>2022-02-06T09:35:57.000Z</time>
      </trkpt>
      <trkpt lat="47.30981" lon="-2.25255">
        <ele>-33.799999237061</ele>
        <time>2022-02-06T09:35:58.000Z</time>
      </trkpt>
      <trkpt lat="47.30987" lon="-2.25229">
        <ele>-33.799999237061</ele>
        <time>2022-02-06T09:36:01.000Z</time>
      </trkpt>
      <trkpt lat="47.30989" lon="-2.2522">
        <ele>-34.200000762939</ele>
        <time>2022-02-06T09:36:02.000Z</time>
      </trkpt>
      <trkpt lat="47.30992" lon="-2.2521">
        <ele>-34.599998474121</ele>
        <time>2022-02-06T09:36:03.000Z</time>
      </trkpt>
      <trkpt lat="47.30994" lon="-2.25201">
        <ele>-35</ele>
        <time>2022-02-06T09:36:04.000Z</time>
      </trkpt>
      <trkpt lat="47.30997" lon="-2.25191">
        <ele>-35.400001525879</ele>
        <time>2022-02-06T09:36:05.000Z</time>
      </trkpt>
      <trkpt lat="47.31" lon="-2.25181">
        <ele>-35.799999237061</ele>
        <time>2022-02-06T09:36:06.000Z</time>
      </trkpt>
      <trkpt lat="47.31003" lon="-2.25172">
        <ele>-35.799999237061</ele>
        <time>2022-02-06T09:36:07.000Z</time>
      </trkpt>
      <trkpt lat="47.31016" lon="-2.25147">
        <ele>-35.799999237061</ele>
        <time>2022-02-06T09:36:10.000Z</time>
      </trkpt>
      <trkpt lat="47.31027" lon="-2.25132">
        <ele>-35.799999237061</ele>
        <time>2022-02-06T09:36:12.000Z</time>
      </trkpt>
      <trkpt lat="47.3104" lon="-2.25109">
        <ele>-35.799999237061</ele>
        <time>2022-02-06T09:36:15.000Z</time>
      </trkpt>
      <trkpt lat="47.31057" lon="-2.25081">
        <ele>-35.799999237061</ele>
        <time>2022-02-06T09:36:19.000Z</time>
      </trkpt>
      <trkpt lat="47.31069" lon="-2.25071">
        <ele>-35.799999237061</ele>
        <time>2022-02-06T09:36:21.000Z</time>
      </trkpt>
      <trkpt lat="47.31082" lon="-2.25063">
        <ele>-35.799999237061</ele>
        <time>2022-02-06T09:36:23.000Z</time>
      </trkpt>
      <trkpt lat="47.31103" lon="-2.2505">
        <ele>-35.799999237061</ele>
        <time>2022-02-06T09:36:26.000Z</time>
      </trkpt>
      <trkpt lat="47.3114" lon="-2.25024">
        <ele>-36.200000762939</ele>
        <time>2022-02-06T09:36:31.000Z</time>
      </trkpt>
      <trkpt lat="47.31147" lon="-2.25018">
        <ele>-36.599998474121</ele>
        <time>2022-02-06T09:36:32.000Z</time>
      </trkpt>
      <trkpt lat="47.31154" lon="-2.25011">
        <ele>-37.200000762939</ele>
        <time>2022-02-06T09:36:33.000Z</time>
      </trkpt>
      <trkpt lat="47.3116" lon="-2.25003">
        <ele>-37.599998474121</ele>
        <time>2022-02-06T09:36:34.000Z</time>
      </trkpt>
      <trkpt lat="47.31165" lon="-2.24997">
        <ele>-38</ele>
        <time>2022-02-06T09:36:35.000Z</time>
      </trkpt>
      <trkpt lat="47.31173" lon="-2.24992">
        <ele>-38</ele>
        <time>2022-02-06T09:36:36.000Z</time>
      </trkpt>
      <trkpt lat="47.31192" lon="-2.25">
        <ele>-38</ele>
        <time>2022-02-06T09:36:39.000Z</time>
      </trkpt>
      <trkpt lat="47.31203" lon="-2.25025">
        <ele>-38</ele>
        <time>2022-02-06T09:36:42.000Z</time>
      </trkpt>
      <trkpt lat="47.31206" lon="-2.25034">
        <ele>-38</ele>
        <time>2022-02-06T09:36:43.000Z</time>
      </trkpt>
      <trkpt lat="47.31224" lon="-2.25083">
        <ele>-38</ele>
        <time>2022-02-06T09:36:48.000Z</time>
      </trkpt>
      <trkpt lat="47.31244" lon="-2.25128">
        <ele>-38</ele>
        <time>2022-02-06T09:36:53.000Z</time>
      </trkpt>
      <trkpt lat="47.31253" lon="-2.25145">
        <ele>-38</ele>
        <time>2022-02-06T09:36:55.000Z</time>
      </trkpt>
      <trkpt lat="47.3128" lon="-2.25192">
        <ele>-38</ele>
        <time>2022-02-06T09:37:01.000Z</time>
      </trkpt>
      <trkpt lat="47.31315" lon="-2.25239">
        <ele>-38</ele>
        <time>2022-02-06T09:37:08.000Z</time>
      </trkpt>
      <trkpt lat="47.31345" lon="-2.25286">
        <ele>-38</ele>
        <time>2022-02-06T09:37:15.000Z</time>
      </trkpt>
      <trkpt lat="47.3135" lon="-2.25303">
        <ele>-38</ele>
        <time>2022-02-06T09:37:17.000Z</time>
      </trkpt>
      <trkpt lat="47.31352" lon="-2.25321">
        <ele>-38</ele>
        <time>2022-02-06T09:37:19.000Z</time>
      </trkpt>
      <trkpt lat="47.31365" lon="-2.25383">
        <ele>-38.400001525879</ele>
        <time>2022-02-06T09:37:26.000Z</time>
      </trkpt>
      <trkpt lat="47.31369" lon="-2.25389">
        <ele>-38.799999237061</ele>
        <time>2022-02-06T09:37:27.000Z</time>
      </trkpt>
      <trkpt lat="47.31373" lon="-2.25395">
        <ele>-39.200000762939</ele>
        <time>2022-02-06T09:37:28.000Z</time>
      </trkpt>
      <trkpt lat="47.31377" lon="-2.25401">
        <ele>-39.599998474121</ele>
        <time>2022-02-06T09:37:29.000Z</time>
      </trkpt>
      <trkpt lat="47.31381" lon="-2.25406">
        <ele>-40</ele>
        <time>2022-02-06T09:37:30.000Z</time>
      </trkpt>
      <trkpt lat="47.31391" lon="-2.25415">
        <ele>-40</ele>
        <time>2022-02-06T09:37:32.000Z</time>
      </trkpt>
      <trkpt lat="47.31404" lon="-2.2543">
        <ele>-40</ele>
        <time>2022-02-06T09:37:35.000Z</time>
      </trkpt>
      <trkpt lat="47.31408" lon="-2.25436">
        <ele>-40</ele>
        <time>2022-02-06T09:37:36.000Z</time>
      </trkpt>
      <trkpt lat="47.3142" lon="-2.25467">
        <ele>-40</ele>
        <time>2022-02-06T09:37:40.000Z</time>
      </trkpt>
      <trkpt lat="47.31423" lon="-2.25475">
        <ele>-40</ele>
        <time>2022-02-06T09:37:41.000Z</time>
      </trkpt>
      <trkpt lat="47.31446" lon="-2.25529">
        <ele>-40</ele>
        <time>2022-02-06T09:37:48.000Z</time>
      </trkpt>
      <trkpt lat="47.3147" lon="-2.25554">
        <ele>-40</ele>
        <time>2022-02-06T09:37:53.000Z</time>
      </trkpt>
      <trkpt lat="47.31501" lon="-2.25586">
        <ele>-40</ele>
        <time>2022-02-06T09:37:59.000Z</time>
      </trkpt>
      <trkpt lat="47.31505" lon="-2.25594">
        <ele>-40</ele>
        <time>2022-02-06T09:38:00.000Z</time>
      </trkpt>
      <trkpt lat="47.31515" lon="-2.25625">
        <ele>-40</ele>
        <time>2022-02-06T09:38:04.000Z</time>
      </trkpt>
      <trkpt lat="47.31516" lon="-2.25631">
        <ele>-39.599998474121</ele>
        <time>2022-02-06T09:38:05.000Z</time>
      </trkpt>
      <trkpt lat="47.31517" lon="-2.25637">
        <ele>-39.200000762939</ele>
        <time>2022-02-06T09:38:06.000Z</time>
      </trkpt>
      <trkpt lat="47.31517" lon="-2.25642">
        <ele>-38.799999237061</ele>
        <time>2022-02-06T09:38:07.000Z</time>
      </trkpt>
      <trkpt lat="47.31514" lon="-2.25645">
        <ele>-38.400001525879</ele>
        <time>2022-02-06T09:38:08.000Z</time>
      </trkpt>
      <trkpt lat="47.3151" lon="-2.25648">
        <ele>-38</ele>
        <time>2022-02-06T09:38:09.000Z</time>
      </trkpt>
      <trkpt lat="47.31502" lon="-2.25652">
        <ele>-38</ele>
        <time>2022-02-06T09:38:11.000Z</time>
      </trkpt>
      <trkpt lat="47.31498" lon="-2.25654">
        <ele>-38</ele>
        <time>2022-02-06T09:38:12.000Z</time>
      </trkpt>
      <trkpt lat="47.31478" lon="-2.25665">
        <ele>-38</ele>
        <time>2022-02-06T09:38:16.000Z</time>
      </trkpt>
      <trkpt lat="47.31447" lon="-2.25681">
        <ele>-38</ele>
        <time>2022-02-06T09:38:22.000Z</time>
      </trkpt>
      <trkpt lat="47.31418" lon="-2.25697">
        <ele>-37.200000762939</ele>
        <time>2022-02-06T09:38:28.000Z</time>
      </trkpt>
      <trkpt lat="47.31413" lon="-2.257">
        <ele>-36.799999237061</ele>
        <time>2022-02-06T09:38:29.000Z</time>
      </trkpt>
      <trkpt lat="47.31407" lon="-2.25702">
        <ele>-36.200000762939</ele>
        <time>2022-02-06T09:38:30.000Z</time>
      </trkpt>
      <trkpt lat="47.31402" lon="-2.25704">
        <ele>-35.799999237061</ele>
        <time>2022-02-06T09:38:31.000Z</time>
      </trkpt>
      <trkpt lat="47.31378" lon="-2.25716">
        <ele>-35.799999237061</ele>
        <time>2022-02-06T09:38:36.000Z</time>
      </trkpt>
      <trkpt lat="47.31342" lon="-2.25733">
        <ele>-35.400001525879</ele>
        <time>2022-02-06T09:38:43.000Z</time>
      </trkpt>
      <trkpt lat="47.31337" lon="-2.25735">
        <ele>-35</ele>
        <time>2022-02-06T09:38:44.000Z</time>
      </trkpt>
      <trkpt lat="47.31332" lon="-2.25738">
        <ele>-34.599998474121</ele>
        <time>2022-02-06T09:38:45.000Z</time>
      </trkpt>
      <trkpt lat="47.31327" lon="-2.25741">
        <ele>-34.200000762939</ele>
        <time>2022-02-06T09:38:46.000Z</time>
      </trkpt>
      <trkpt lat="47.31322" lon="-2.25744">
        <ele>-33.799999237061</ele>
        <time>2022-02-06T09:38:47.000Z</time>
      </trkpt>
      <trkpt lat="47.31296" lon="-2.2576">
        <ele>-33.799999237061</ele>
        <time>2022-02-06T09:38:52.000Z</time>
      </trkpt>
      <trkpt lat="47.31262" lon="-2.25789">
        <ele>-33.799999237061</ele>
        <time>2022-02-06T09:38:59.000Z</time>
      </trkpt>
      <trkpt lat="47.31258" lon="-2.25792">
        <ele>-33.799999237061</ele>
        <time>2022-02-06T09:39:00.000Z</time>
      </trkpt>
      <trkpt lat="47.31245" lon="-2.25803">
        <ele>-33.799999237061</ele>
        <time>2022-02-06T09:39:03.000Z</time>
      </trkpt>
      <trkpt lat="47.31244" lon="-2.25818">
        <ele>-33.799999237061</ele>
        <time>2022-02-06T09:39:06.000Z</time>
      </trkpt>
      <trkpt lat="47.31245" lon="-2.25823">
        <ele>-33.799999237061</ele>
        <time>2022-02-06T09:39:07.000Z</time>
      </trkpt>
      <trkpt lat="47.3125" lon="-2.25839">
        <ele>-33.799999237061</ele>
        <time>2022-02-06T09:39:10.000Z</time>
      </trkpt>
      <trkpt lat="47.31263" lon="-2.25879">
        <ele>-33.799999237061</ele>
        <time>2022-02-06T09:39:16.000Z</time>
      </trkpt>
      <trkpt lat="47.31268" lon="-2.25899">
        <ele>-33.799999237061</ele>
        <time>2022-02-06T09:39:19.000Z</time>
      </trkpt>
      <trkpt lat="47.31271" lon="-2.25913">
        <ele>-33.799999237061</ele>
        <time>2022-02-06T09:39:21.000Z</time>
      </trkpt>
      <trkpt lat="47.31272" lon="-2.2592">
        <ele>-33.799999237061</ele>
        <time>2022-02-06T09:39:22.000Z</time>
      </trkpt>
      <trkpt lat="47.31278" lon="-2.25952">
        <ele>-33.799999237061</ele>
        <time>2022-02-06T09:39:27.000Z</time>
      </trkpt>
      <trkpt lat="47.31279" lon="-2.25959">
        <ele>-33.799999237061</ele>
        <time>2022-02-06T09:39:28.000Z</time>
      </trkpt>
      <trkpt lat="47.3128" lon="-2.25986">
        <ele>-33.799999237061</ele>
        <time>2022-02-06T09:39:33.000Z</time>
      </trkpt>
      <trkpt lat="47.31273" lon="-2.25997">
        <ele>-34.200000762939</ele>
        <time>2022-02-06T09:39:36.000Z</time>
      </trkpt>
      <trkpt lat="47.31269" lon="-2.26001">
        <ele>-34.599998474121</ele>
        <time>2022-02-06T09:39:37.000Z</time>
      </trkpt>
      <trkpt lat="47.31266" lon="-2.26004">
        <ele>-35</ele>
        <time>2022-02-06T09:39:38.000Z</time>
      </trkpt>
      <trkpt lat="47.31262" lon="-2.26007">
        <ele>-35.400001525879</ele>
        <time>2022-02-06T09:39:39.000Z</time>
      </trkpt>
      <trkpt lat="47.31259" lon="-2.2601">
        <ele>-36</ele>
        <time>2022-02-06T09:39:40.000Z</time>
      </trkpt>
      <trkpt lat="47.3125" lon="-2.26018">
        <ele>-36</ele>
        <time>2022-02-06T09:39:43.000Z</time>
      </trkpt>
      <trkpt lat="47.31233" lon="-2.26027">
        <ele>-36</ele>
        <time>2022-02-06T09:39:49.000Z</time>
      </trkpt>
      <trkpt lat="47.3122" lon="-2.26036">
        <ele>-36.400001525879</ele>
        <time>2022-02-06T09:39:52.000Z</time>
      </trkpt>
      <trkpt lat="47.31216" lon="-2.26038">
        <ele>-36.799999237061</ele>
        <time>2022-02-06T09:39:53.000Z</time>
      </trkpt>
      <trkpt lat="47.31212" lon="-2.26041">
        <ele>-37.400001525879</ele>
        <time>2022-02-06T09:39:54.000Z</time>
      </trkpt>
      <trkpt lat="47.31208" lon="-2.26042">
        <ele>-37.799999237061</ele>
        <time>2022-02-06T09:39:55.000Z</time>
      </trkpt>
      <trkpt lat="47.31204" lon="-2.26044">
        <ele>-38.200000762939</ele>
        <time>2022-02-06T09:39:56.000Z</time>
      </trkpt>
      <trkpt lat="47.31188" lon="-2.26057">
        <ele>-38.200000762939</ele>
        <time>2022-02-06T09:40:01.000Z</time>
      </trkpt>
      <trkpt lat="47.31185" lon="-2.26057">
        <ele>-38.200000762939</ele>
        <time>2022-02-06T09:40:02.000Z</time>
      </trkpt>
      <trkpt lat="47.31176" lon="-2.26053">
        <ele>-38.200000762939</ele>
        <time>2022-02-06T09:40:05.000Z</time>
      </trkpt>
      <trkpt lat="47.31155" lon="-2.2604">
        <ele>-38.200000762939</ele>
        <time>2022-02-06T09:40:09.000Z</time>
      </trkpt>
      <trkpt lat="47.3115" lon="-2.26037">
        <ele>-38.200000762939</ele>
        <time>2022-02-06T09:40:10.000Z</time>
      </trkpt>
      <trkpt lat="47.31116" lon="-2.26018">
        <ele>-38.200000762939</ele>
        <time>2022-02-06T09:40:17.000Z</time>
      </trkpt>
      <trkpt lat="47.31107" lon="-2.26012">
        <ele>-37.799999237061</ele>
        <time>2022-02-06T09:40:19.000Z</time>
      </trkpt>
      <trkpt lat="47.31102" lon="-2.2601">
        <ele>-37.400001525879</ele>
        <time>2022-02-06T09:40:20.000Z</time>
      </trkpt>
      <trkpt lat="47.31097" lon="-2.26007">
        <ele>-37</ele>
        <time>2022-02-06T09:40:21.000Z</time>
      </trkpt>
      <trkpt lat="47.31093" lon="-2.26005">
        <ele>-36.599998474121</ele>
        <time>2022-02-06T09:40:22.000Z</time>
      </trkpt>
      <trkpt lat="47.31089" lon="-2.26003">
        <ele>-36.200000762939</ele>
        <time>2022-02-06T09:40:23.000Z</time>
      </trkpt>
      <trkpt lat="47.31083" lon="-2.26003">
        <ele>-36.200000762939</ele>
        <time>2022-02-06T09:40:24.000Z</time>
      </trkpt>
      <trkpt lat="47.31074" lon="-2.26009">
        <ele>-36.200000762939</ele>
        <time>2022-02-06T09:40:26.000Z</time>
      </trkpt>
      <trkpt lat="47.31059" lon="-2.26028">
        <ele>-36.200000762939</ele>
        <time>2022-02-06T09:40:30.000Z</time>
      </trkpt>
      <trkpt lat="47.31052" lon="-2.2604">
        <ele>-36.200000762939</ele>
        <time>2022-02-06T09:40:32.000Z</time>
      </trkpt>
      <trkpt lat="47.31049" lon="-2.26047">
        <ele>-36.200000762939</ele>
        <time>2022-02-06T09:40:33.000Z</time>
      </trkpt>
      <trkpt lat="47.31045" lon="-2.26062">
        <ele>-36.200000762939</ele>
        <time>2022-02-06T09:40:35.000Z</time>
      </trkpt>
      <trkpt lat="47.31043" lon="-2.26088">
        <ele>-36.200000762939</ele>
        <time>2022-02-06T09:40:38.000Z</time>
      </trkpt>
      <trkpt lat="47.31041" lon="-2.26105">
        <ele>-36.200000762939</ele>
        <time>2022-02-06T09:40:40.000Z</time>
      </trkpt>
      <trkpt lat="47.31034" lon="-2.26166">
        <ele>-36.200000762939</ele>
        <time>2022-02-06T09:40:47.000Z</time>
      </trkpt>
      <trkpt lat="47.31025" lon="-2.26234">
        <ele>-36.200000762939</ele>
        <time>2022-02-06T09:40:54.000Z</time>
      </trkpt>
      <trkpt lat="47.31022" lon="-2.26262">
        <ele>-36.599998474121</ele>
        <time>2022-02-06T09:40:57.000Z</time>
      </trkpt>
      <trkpt lat="47.31021" lon="-2.26272">
        <ele>-37</ele>
        <time>2022-02-06T09:40:58.000Z</time>
      </trkpt>
      <trkpt lat="47.31019" lon="-2.26281">
        <ele>-37.400001525879</ele>
        <time>2022-02-06T09:40:59.000Z</time>
      </trkpt>
      <trkpt lat="47.31018" lon="-2.26291">
        <ele>-37.799999237061</ele>
        <time>2022-02-06T09:41:00.000Z</time>
      </trkpt>
      <trkpt lat="47.31016" lon="-2.263">
        <ele>-38.200000762939</ele>
        <time>2022-02-06T09:41:01.000Z</time>
      </trkpt>
      <trkpt lat="47.31014" lon="-2.26309">
        <ele>-38.200000762939</ele>
        <time>2022-02-06T09:41:02.000Z</time>
      </trkpt>
      <trkpt lat="47.31" lon="-2.2638">
        <ele>-38.200000762939</ele>
        <time>2022-02-06T09:41:10.000Z</time>
      </trkpt>
      <trkpt lat="47.30985" lon="-2.26458">
        <ele>-38.200000762939</ele>
        <time>2022-02-06T09:41:19.000Z</time>
      </trkpt>
      <trkpt lat="47.30972" lon="-2.26528">
        <ele>-38.200000762939</ele>
        <time>2022-02-06T09:41:27.000Z</time>
      </trkpt>
      <trkpt lat="47.30956" lon="-2.26608">
        <ele>-38.200000762939</ele>
        <time>2022-02-06T09:41:36.000Z</time>
      </trkpt>
      <trkpt lat="47.30955" lon="-2.26616">
        <ele>-38.200000762939</ele>
        <time>2022-02-06T09:41:37.000Z</time>
      </trkpt>
      <trkpt lat="47.3094" lon="-2.26686">
        <ele>-38.200000762939</ele>
        <time>2022-02-06T09:41:45.000Z</time>
      </trkpt>
      <trkpt lat="47.30928" lon="-2.26759">
        <ele>-38.200000762939</ele>
        <time>2022-02-06T09:41:54.000Z</time>
      </trkpt>
      <trkpt lat="47.30913" lon="-2.26837">
        <ele>-38.200000762939</ele>
        <time>2022-02-06T09:42:03.000Z</time>
      </trkpt>
      <trkpt lat="47.30904" lon="-2.26883">
        <ele>-38.200000762939</ele>
        <time>2022-02-06T09:42:09.000Z</time>
      </trkpt>
      <trkpt lat="47.30903" lon="-2.2689">
        <ele>-38.200000762939</ele>
        <time>2022-02-06T09:42:10.000Z</time>
      </trkpt>
      <trkpt lat="47.30908" lon="-2.26917">
        <ele>-38.200000762939</ele>
        <time>2022-02-06T09:42:14.000Z</time>
      </trkpt>
      <trkpt lat="47.3091" lon="-2.26924">
        <ele>-38.599998474121</ele>
        <time>2022-02-06T09:42:15.000Z</time>
      </trkpt>
      <trkpt lat="47.30915" lon="-2.2693">
        <ele>-39</ele>
        <time>2022-02-06T09:42:16.000Z</time>
      </trkpt>
      <trkpt lat="47.30919" lon="-2.26935">
        <ele>-39.400001525879</ele>
        <time>2022-02-06T09:42:17.000Z</time>
      </trkpt>
      <trkpt lat="47.30924" lon="-2.26938">
        <ele>-39.799999237061</ele>
        <time>2022-02-06T09:42:18.000Z</time>
      </trkpt>
      <trkpt lat="47.30929" lon="-2.26942">
        <ele>-40.200000762939</ele>
        <time>2022-02-06T09:42:19.000Z</time>
      </trkpt>
      <trkpt lat="47.30934" lon="-2.26945">
        <ele>-40.200000762939</ele>
        <time>2022-02-06T09:42:20.000Z</time>
      </trkpt>
      <trkpt lat="47.30939" lon="-2.26948">
        <ele>-40.200000762939</ele>
        <time>2022-02-06T09:42:21.000Z</time>
      </trkpt>
      <trkpt lat="47.30951" lon="-2.26954">
        <ele>-40.200000762939</ele>
        <time>2022-02-06T09:42:23.000Z</time>
      </trkpt>
      <trkpt lat="47.30983" lon="-2.26976">
        <ele>-40.200000762939</ele>
        <time>2022-02-06T09:42:29.000Z</time>
      </trkpt>
      <trkpt lat="47.30996" lon="-2.27004">
        <ele>-40.200000762939</ele>
        <time>2022-02-06T09:42:33.000Z</time>
      </trkpt>
      <trkpt lat="47.30998" lon="-2.2702">
        <ele>-39.799999237061</ele>
        <time>2022-02-06T09:42:35.000Z</time>
      </trkpt>
      <trkpt lat="47.30999" lon="-2.27028">
        <ele>-39.400001525879</ele>
        <time>2022-02-06T09:42:36.000Z</time>
      </trkpt>
      <trkpt lat="47.30999" lon="-2.27036">
        <ele>-38.799999237061</ele>
        <time>2022-02-06T09:42:37.000Z</time>
      </trkpt>
      <trkpt lat="47.31" lon="-2.27043">
        <ele>-38.400001525879</ele>
        <time>2022-02-06T09:42:38.000Z</time>
      </trkpt>
      <trkpt lat="47.31" lon="-2.27051">
        <ele>-38</ele>
        <time>2022-02-06T09:42:39.000Z</time>
      </trkpt>
      <trkpt lat="47.31001" lon="-2.27074">
        <ele>-37.599998474121</ele>
        <time>2022-02-06T09:42:42.000Z</time>
      </trkpt>
      <trkpt lat="47.31001" lon="-2.27082">
        <ele>-37.200000762939</ele>
        <time>2022-02-06T09:42:43.000Z</time>
      </trkpt>
      <trkpt lat="47.31001" lon="-2.27088">
        <ele>-36.799999237061</ele>
        <time>2022-02-06T09:42:44.000Z</time>
      </trkpt>
      <trkpt lat="47.31001" lon="-2.27095">
        <ele>-36.400001525879</ele>
        <time>2022-02-06T09:42:45.000Z</time>
      </trkpt>
      <trkpt lat="47.31002" lon="-2.27102">
        <ele>-36</ele>
        <time>2022-02-06T09:42:46.000Z</time>
      </trkpt>
      <trkpt lat="47.31002" lon="-2.27108">
        <ele>-35.599998474121</ele>
        <time>2022-02-06T09:42:47.000Z</time>
      </trkpt>
      <trkpt lat="47.31002" lon="-2.27115">
        <ele>-35</ele>
        <time>2022-02-06T09:42:48.000Z</time>
      </trkpt>
      <trkpt lat="47.31003" lon="-2.27121">
        <ele>-34.599998474121</ele>
        <time>2022-02-06T09:42:49.000Z</time>
      </trkpt>
      <trkpt lat="47.31003" lon="-2.27128">
        <ele>-34.200000762939</ele>
        <time>2022-02-06T09:42:50.000Z</time>
      </trkpt>
      <trkpt lat="47.31004" lon="-2.27134">
        <ele>-33.799999237061</ele>
        <time>2022-02-06T09:42:51.000Z</time>
      </trkpt>
      <trkpt lat="47.31007" lon="-2.27184">
        <ele>-33.799999237061</ele>
        <time>2022-02-06T09:42:58.000Z</time>
      </trkpt>
      <trkpt lat="47.3101" lon="-2.27221">
        <ele>-33.799999237061</ele>
        <time>2022-02-06T09:43:03.000Z</time>
      </trkpt>
      <trkpt lat="47.31015" lon="-2.27234">
        <ele>-33.799999237061</ele>
        <time>2022-02-06T09:43:05.000Z</time>
      </trkpt>
      <trkpt lat="47.31033" lon="-2.27251">
        <ele>-33.799999237061</ele>
        <time>2022-02-06T09:43:09.000Z</time>
      </trkpt>
      <trkpt lat="47.31055" lon="-2.27253">
        <ele>-33.799999237061</ele>
        <time>2022-02-06T09:43:13.000Z</time>
      </trkpt>
      <trkpt lat="47.31066" lon="-2.27249">
        <ele>-33.799999237061</ele>
        <time>2022-02-06T09:43:15.000Z</time>
      </trkpt>
      <trkpt lat="47.31094" lon="-2.27239">
        <ele>-33.799999237061</ele>
        <time>2022-02-06T09:43:20.000Z</time>
      </trkpt>
      <trkpt lat="47.31142" lon="-2.27215">
        <ele>-33.799999237061</ele>
        <time>2022-02-06T09:43:28.000Z</time>
      </trkpt>
      <trkpt lat="47.31175" lon="-2.27185">
        <ele>-33.799999237061</ele>
        <time>2022-02-06T09:43:34.000Z</time>
      </trkpt>
      <trkpt lat="47.31217" lon="-2.27141">
        <ele>-33.799999237061</ele>
        <time>2022-02-06T09:43:42.000Z</time>
      </trkpt>
      <trkpt lat="47.31252" lon="-2.27115">
        <ele>-33.799999237061</ele>
        <time>2022-02-06T09:43:48.000Z</time>
      </trkpt>
      <trkpt lat="47.31297" lon="-2.27085">
        <ele>-33.799999237061</ele>
        <time>2022-02-06T09:43:56.000Z</time>
      </trkpt>
      <trkpt lat="47.31332" lon="-2.27071">
        <ele>-33.799999237061</ele>
        <time>2022-02-06T09:44:02.000Z</time>
      </trkpt>
      <trkpt lat="47.31345" lon="-2.27067">
        <ele>-34.200000762939</ele>
        <time>2022-02-06T09:44:04.000Z</time>
      </trkpt>
      <trkpt lat="47.31351" lon="-2.27065">
        <ele>-34.599998474121</ele>
        <time>2022-02-06T09:44:05.000Z</time>
      </trkpt>
      <trkpt lat="47.31358" lon="-2.27063">
        <ele>-35</ele>
        <time>2022-02-06T09:44:06.000Z</time>
      </trkpt>
      <trkpt lat="47.31364" lon="-2.27061">
        <ele>-35.400001525879</ele>
        <time>2022-02-06T09:44:07.000Z</time>
      </trkpt>
      <trkpt lat="47.31371" lon="-2.27058">
        <ele>-35.799999237061</ele>
        <time>2022-02-06T09:44:08.000Z</time>
      </trkpt>
      <trkpt lat="47.31378" lon="-2.27055">
        <ele>-35.799999237061</ele>
        <time>2022-02-06T09:44:09.000Z</time>
      </trkpt>
      <trkpt lat="47.31423" lon="-2.27027">
        <ele>-35.799999237061</ele>
        <time>2022-02-06T09:44:16.000Z</time>
      </trkpt>
      <trkpt lat="47.31468" lon="-2.26995">
        <ele>-35.799999237061</ele>
        <time>2022-02-06T09:44:23.000Z</time>
      </trkpt>
      <trkpt lat="47.31474" lon="-2.26992">
        <ele>-35.799999237061</ele>
        <time>2022-02-06T09:44:24.000Z</time>
      </trkpt>
      <trkpt lat="47.31485" lon="-2.26986">
        <ele>-36.200000762939</ele>
        <time>2022-02-06T09:44:26.000Z</time>
      </trkpt>
      <trkpt lat="47.31489" lon="-2.2698">
        <ele>-36.799999237061</ele>
        <time>2022-02-06T09:44:27.000Z</time>
      </trkpt>
      <trkpt lat="47.31492" lon="-2.26973">
        <ele>-37.200000762939</ele>
        <time>2022-02-06T09:44:28.000Z</time>
      </trkpt>
      <trkpt lat="47.31494" lon="-2.26966">
        <ele>-37.599998474121</ele>
        <time>2022-02-06T09:44:29.000Z</time>
      </trkpt>
      <trkpt lat="47.31495" lon="-2.26958">
        <ele>-38</ele>
        <time>2022-02-06T09:44:30.000Z</time>
      </trkpt>
      <trkpt lat="47.31503" lon="-2.26921">
        <ele>-38</ele>
        <time>2022-02-06T09:44:35.000Z</time>
      </trkpt>
      <trkpt lat="47.31518" lon="-2.26875">
        <ele>-38.400001525879</ele>
        <time>2022-02-06T09:44:41.000Z</time>
      </trkpt>
      <trkpt lat="47.3152" lon="-2.26868">
        <ele>-38.799999237061</ele>
        <time>2022-02-06T09:44:42.000Z</time>
      </trkpt>
      <trkpt lat="47.31523" lon="-2.2686">
        <ele>-39.400001525879</ele>
        <time>2022-02-06T09:44:43.000Z</time>
      </trkpt>
      <trkpt lat="47.31526" lon="-2.26852">
        <ele>-39.799999237061</ele>
        <time>2022-02-06T09:44:44.000Z</time>
      </trkpt>
      <trkpt lat="47.31529" lon="-2.26844">
        <ele>-40.200000762939</ele>
        <time>2022-02-06T09:44:45.000Z</time>
      </trkpt>
      <trkpt lat="47.31536" lon="-2.26829">
        <ele>-40.200000762939</ele>
        <time>2022-02-06T09:44:47.000Z</time>
      </trkpt>
      <trkpt lat="47.31555" lon="-2.26786">
        <ele>-40.200000762939</ele>
        <time>2022-02-06T09:44:53.000Z</time>
      </trkpt>
      <trkpt lat="47.31563" lon="-2.26773">
        <ele>-40.200000762939</ele>
        <time>2022-02-06T09:44:55.000Z</time>
      </trkpt>
      <trkpt lat="47.31575" lon="-2.26763">
        <ele>-40.200000762939</ele>
        <time>2022-02-06T09:44:58.000Z</time>
      </trkpt>
      <trkpt lat="47.31583" lon="-2.26763">
        <ele>-40.200000762939</ele>
        <time>2022-02-06T09:45:00.000Z</time>
      </trkpt>
      <trkpt lat="47.31594" lon="-2.26762">
        <ele>-40.200000762939</ele>
        <time>2022-02-06T09:45:02.000Z</time>
      </trkpt>
      <trkpt lat="47.31604" lon="-2.26761">
        <ele>-40.200000762939</ele>
        <time>2022-02-06T09:45:04.000Z</time>
      </trkpt>
      <trkpt lat="47.31619" lon="-2.26753">
        <ele>-40.200000762939</ele>
        <time>2022-02-06T09:45:07.000Z</time>
      </trkpt>
      <trkpt lat="47.31632" lon="-2.26744">
        <ele>-40.200000762939</ele>
        <time>2022-02-06T09:45:10.000Z</time>
      </trkpt>
      <trkpt lat="47.3164" lon="-2.26736">
        <ele>-40.200000762939</ele>
        <time>2022-02-06T09:45:12.000Z</time>
      </trkpt>
      <trkpt lat="47.31651" lon="-2.26728">
        <ele>-40.200000762939</ele>
        <time>2022-02-06T09:45:15.000Z</time>
      </trkpt>
      <trkpt lat="47.31663" lon="-2.26725">
        <ele>-40.200000762939</ele>
        <time>2022-02-06T09:45:18.000Z</time>
      </trkpt>
      <trkpt lat="47.31678" lon="-2.26721">
        <ele>-39.799999237061</ele>
        <time>2022-02-06T09:45:22.000Z</time>
      </trkpt>
      <trkpt lat="47.31682" lon="-2.26721">
        <ele>-39.400001525879</ele>
        <time>2022-02-06T09:45:23.000Z</time>
      </trkpt>
      <trkpt lat="47.31685" lon="-2.26722">
        <ele>-39</ele>
        <time>2022-02-06T09:45:24.000Z</time>
      </trkpt>
      <trkpt lat="47.31689" lon="-2.26722">
        <ele>-38.599998474121</ele>
        <time>2022-02-06T09:45:25.000Z</time>
      </trkpt>
      <trkpt lat="47.31694" lon="-2.26721">
        <ele>-38.200000762939</ele>
        <time>2022-02-06T09:45:26.000Z</time>
      </trkpt>
      <trkpt lat="47.31706" lon="-2.26719">
        <ele>-38.200000762939</ele>
        <time>2022-02-06T09:45:29.000Z</time>
      </trkpt>
      <trkpt lat="47.31727" lon="-2.26715">
        <ele>-38.200000762939</ele>
        <time>2022-02-06T09:45:34.000Z</time>
      </trkpt>
      <trkpt lat="47.31752" lon="-2.26708">
        <ele>-38.200000762939</ele>
        <time>2022-02-06T09:45:40.000Z</time>
      </trkpt>
      <trkpt lat="47.31756" lon="-2.26707">
        <ele>-37.799999237061</ele>
        <time>2022-02-06T09:45:41.000Z</time>
      </trkpt>
      <trkpt lat="47.3176" lon="-2.26705">
        <ele>-37.400001525879</ele>
        <time>2022-02-06T09:45:42.000Z</time>
      </trkpt>
      <trkpt lat="47.31764" lon="-2.26704">
        <ele>-36.799999237061</ele>
        <time>2022-02-06T09:45:43.000Z</time>
      </trkpt>
      <trkpt lat="47.31768" lon="-2.26703">
        <ele>-36.400001525879</ele>
        <time>2022-02-06T09:45:44.000Z</time>
      </trkpt>
      <trkpt lat="47.31772" lon="-2.26701">
        <ele>-36</ele>
        <time>2022-02-06T09:45:45.000Z</time>
      </trkpt>
      <trkpt lat="47.31784" lon="-2.26699">
        <ele>-36</ele>
        <time>2022-02-06T09:45:48.000Z</time>
      </trkpt>
      <trkpt lat="47.31801" lon="-2.26697">
        <ele>-36</ele>
        <time>2022-02-06T09:45:53.000Z</time>
      </trkpt>
      <trkpt lat="47.31808" lon="-2.26706">
        <ele>-35.599998474121</ele>
        <time>2022-02-06T09:45:56.000Z</time>
      </trkpt>
      <trkpt lat="47.3181" lon="-2.26711">
        <ele>-35.200000762939</ele>
        <time>2022-02-06T09:45:57.000Z</time>
      </trkpt>
      <trkpt lat="47.31813" lon="-2.26716">
        <ele>-34.799999237061</ele>
        <time>2022-02-06T09:45:58.000Z</time>
      </trkpt>
      <trkpt lat="47.31815" lon="-2.26721">
        <ele>-34.400001525879</ele>
        <time>2022-02-06T09:45:59.000Z</time>
      </trkpt>
      <trkpt lat="47.31818" lon="-2.26726">
        <ele>-34</ele>
        <time>2022-02-06T09:46:00.000Z</time>
      </trkpt>
      <trkpt lat="47.31826" lon="-2.26749">
        <ele>-34</ele>
        <time>2022-02-06T09:46:04.000Z</time>
      </trkpt>
      <trkpt lat="47.31834" lon="-2.26779">
        <ele>-34</ele>
        <time>2022-02-06T09:46:09.000Z</time>
      </trkpt>
      <trkpt lat="47.31836" lon="-2.268">
        <ele>-34</ele>
        <time>2022-02-06T09:46:12.000Z</time>
      </trkpt>
      <trkpt lat="47.31838" lon="-2.26823">
        <ele>-34</ele>
        <time>2022-02-06T09:46:17.000Z</time>
      </trkpt>
      <trkpt lat="47.31838" lon="-2.26832">
        <ele>-34.400001525879</ele>
        <time>2022-02-06T09:46:20.000Z</time>
      </trkpt>
      <trkpt lat="47.31838" lon="-2.26834">
        <ele>-34.799999237061</ele>
        <time>2022-02-06T09:46:21.000Z</time>
      </trkpt>
      <trkpt lat="47.31838" lon="-2.26836">
        <ele>-35.200000762939</ele>
        <time>2022-02-06T09:46:22.000Z</time>
      </trkpt>
      <trkpt lat="47.31838" lon="-2.26839">
        <ele>-35.599998474121</ele>
        <time>2022-02-06T09:46:23.000Z</time>
      </trkpt>
      <trkpt lat="47.31839" lon="-2.26841">
        <ele>-36</ele>
        <time>2022-02-06T09:46:24.000Z</time>
      </trkpt>
      <trkpt lat="47.31839" lon="-2.26859">
        <ele>-36</ele>
        <time>2022-02-06T09:46:28.000Z</time>
      </trkpt>
      <trkpt lat="47.3184" lon="-2.26895">
        <ele>-36</ele>
        <time>2022-02-06T09:46:33.000Z</time>
      </trkpt>
      <trkpt lat="47.31843" lon="-2.26962">
        <ele>-36</ele>
        <time>2022-02-06T09:46:41.000Z</time>
      </trkpt>
      <trkpt lat="47.31846" lon="-2.27015">
        <ele>-36</ele>
        <time>2022-02-06T09:46:48.000Z</time>
      </trkpt>
      <trkpt lat="47.31848" lon="-2.27071">
        <ele>-36</ele>
        <time>2022-02-06T09:46:56.000Z</time>
      </trkpt>
      <trkpt lat="47.3185" lon="-2.27114">
        <ele>-36</ele>
        <time>2022-02-06T09:47:03.000Z</time>
      </trkpt>
      <trkpt lat="47.31852" lon="-2.27152">
        <ele>-36</ele>
        <time>2022-02-06T09:47:09.000Z</time>
      </trkpt>
      <trkpt lat="47.31852" lon="-2.27165">
        <ele>-35.599998474121</ele>
        <time>2022-02-06T09:47:11.000Z</time>
      </trkpt>
      <trkpt lat="47.31851" lon="-2.27172">
        <ele>-35.200000762939</ele>
        <time>2022-02-06T09:47:12.000Z</time>
      </trkpt>
      <trkpt lat="47.31851" lon="-2.27179">
        <ele>-34.799999237061</ele>
        <time>2022-02-06T09:47:13.000Z</time>
      </trkpt>
      <trkpt lat="47.31852" lon="-2.27186">
        <ele>-34.400001525879</ele>
        <time>2022-02-06T09:47:14.000Z</time>
      </trkpt>
      <trkpt lat="47.31852" lon="-2.27193">
        <ele>-34</ele>
        <time>2022-02-06T09:47:15.000Z</time>
      </trkpt>
      <trkpt lat="47.31852" lon="-2.27206">
        <ele>-34</ele>
        <time>2022-02-06T09:47:17.000Z</time>
      </trkpt>
      <trkpt lat="47.31854" lon="-2.27253">
        <ele>-34</ele>
        <time>2022-02-06T09:47:24.000Z</time>
      </trkpt>
      <trkpt lat="47.31854" lon="-2.27303">
        <ele>-34</ele>
        <time>2022-02-06T09:47:31.000Z</time>
      </trkpt>
      <trkpt lat="47.31857" lon="-2.2736">
        <ele>-34</ele>
        <time>2022-02-06T09:47:38.000Z</time>
      </trkpt>
      <trkpt lat="47.31858" lon="-2.2741">
        <ele>-34</ele>
        <time>2022-02-06T09:47:44.000Z</time>
      </trkpt>
      <trkpt lat="47.31859" lon="-2.27462">
        <ele>-34</ele>
        <time>2022-02-06T09:47:50.000Z</time>
      </trkpt>
      <trkpt lat="47.3186" lon="-2.27525">
        <ele>-34</ele>
        <time>2022-02-06T09:47:57.000Z</time>
      </trkpt>
      <trkpt lat="47.31863" lon="-2.27588">
        <ele>-34</ele>
        <time>2022-02-06T09:48:04.000Z</time>
      </trkpt>
      <trkpt lat="47.31866" lon="-2.27659">
        <ele>-34</ele>
        <time>2022-02-06T09:48:12.000Z</time>
      </trkpt>
      <trkpt lat="47.31867" lon="-2.27711">
        <ele>-34</ele>
        <time>2022-02-06T09:48:18.000Z</time>
      </trkpt>
      <trkpt lat="47.31866" lon="-2.27772">
        <ele>-34</ele>
        <time>2022-02-06T09:48:25.000Z</time>
      </trkpt>
      <trkpt lat="47.31865" lon="-2.27844">
        <ele>-34</ele>
        <time>2022-02-06T09:48:33.000Z</time>
      </trkpt>
      <trkpt lat="47.31861" lon="-2.27897">
        <ele>-34</ele>
        <time>2022-02-06T09:48:39.000Z</time>
      </trkpt>
      <trkpt lat="47.31859" lon="-2.2795">
        <ele>-34</ele>
        <time>2022-02-06T09:48:45.000Z</time>
      </trkpt>
      <trkpt lat="47.3186" lon="-2.28004">
        <ele>-34</ele>
        <time>2022-02-06T09:48:51.000Z</time>
      </trkpt>
      <trkpt lat="47.31861" lon="-2.28082">
        <ele>-34</ele>
        <time>2022-02-06T09:49:00.000Z</time>
      </trkpt>
      <trkpt lat="47.31863" lon="-2.28135">
        <ele>-34</ele>
        <time>2022-02-06T09:49:06.000Z</time>
      </trkpt>
      <trkpt lat="47.31862" lon="-2.28162">
        <ele>-34</ele>
        <time>2022-02-06T09:49:09.000Z</time>
      </trkpt>
      <trkpt lat="47.31861" lon="-2.28189">
        <ele>-34</ele>
        <time>2022-02-06T09:49:12.000Z</time>
      </trkpt>
      <trkpt lat="47.31866" lon="-2.28246">
        <ele>-34</ele>
        <time>2022-02-06T09:49:19.000Z</time>
      </trkpt>
      <trkpt lat="47.3187" lon="-2.28284">
        <ele>-34</ele>
        <time>2022-02-06T09:49:26.000Z</time>
      </trkpt>
      <trkpt lat="47.31877" lon="-2.28315">
        <ele>-34</ele>
        <time>2022-02-06T09:49:32.000Z</time>
      </trkpt>
      <trkpt lat="47.31884" lon="-2.28356">
        <ele>-34</ele>
        <time>2022-02-06T09:49:39.000Z</time>
      </trkpt>
      <trkpt lat="47.31894" lon="-2.284">
        <ele>-34</ele>
        <time>2022-02-06T09:49:47.000Z</time>
      </trkpt>
      <trkpt lat="47.31896" lon="-2.28411">
        <ele>-34.400001525879</ele>
        <time>2022-02-06T09:49:49.000Z</time>
      </trkpt>
      <trkpt lat="47.31897" lon="-2.28416">
        <ele>-34.799999237061</ele>
        <time>2022-02-06T09:49:50.000Z</time>
      </trkpt>
      <trkpt lat="47.31898" lon="-2.28421">
        <ele>-35.200000762939</ele>
        <time>2022-02-06T09:49:51.000Z</time>
      </trkpt>
      <trkpt lat="47.31898" lon="-2.28425">
        <ele>-35.599998474121</ele>
        <time>2022-02-06T09:49:52.000Z</time>
      </trkpt>
      <trkpt lat="47.31899" lon="-2.28428">
        <ele>-36</ele>
        <time>2022-02-06T09:49:53.000Z</time>
      </trkpt>
      <trkpt lat="47.31899" lon="-2.2843">
        <ele>-36</ele>
        <time>2022-02-06T09:49:54.000Z</time>
      </trkpt>
      <trkpt lat="47.31901" lon="-2.28435">
        <ele>-36</ele>
        <time>2022-02-06T09:49:58.000Z</time>
      </trkpt>
      <trkpt lat="47.31901" lon="-2.28438">
        <ele>-36</ele>
        <time>2022-02-06T09:50:19.000Z</time>
      </trkpt>
      <trkpt lat="47.31901" lon="-2.28459">
        <ele>-36</ele>
        <time>2022-02-06T09:50:24.000Z</time>
      </trkpt>
      <trkpt lat="47.319" lon="-2.28472">
        <ele>-36</ele>
        <time>2022-02-06T09:50:26.000Z</time>
      </trkpt>
      <trkpt lat="47.31898" lon="-2.28498">
        <ele>-36</ele>
        <time>2022-02-06T09:50:30.000Z</time>
      </trkpt>
      <trkpt lat="47.31899" lon="-2.2854">
        <ele>-36</ele>
        <time>2022-02-06T09:50:37.000Z</time>
      </trkpt>
      <trkpt lat="47.31902" lon="-2.28582">
        <ele>-36</ele>
        <time>2022-02-06T09:50:43.000Z</time>
      </trkpt>
      <trkpt lat="47.31896" lon="-2.28612">
        <ele>-36</ele>
        <time>2022-02-06T09:50:48.000Z</time>
      </trkpt>
      <trkpt lat="47.31892" lon="-2.28639">
        <ele>-36.400001525879</ele>
        <time>2022-02-06T09:50:54.000Z</time>
      </trkpt>
      <trkpt lat="47.31891" lon="-2.28643">
        <ele>-36.799999237061</ele>
        <time>2022-02-06T09:50:55.000Z</time>
      </trkpt>
      <trkpt lat="47.31891" lon="-2.28647">
        <ele>-37.200000762939</ele>
        <time>2022-02-06T09:50:56.000Z</time>
      </trkpt>
      <trkpt lat="47.31891" lon="-2.2865">
        <ele>-37.599998474121</ele>
        <time>2022-02-06T09:50:57.000Z</time>
      </trkpt>
      <trkpt lat="47.3189" lon="-2.28654">
        <ele>-38</ele>
        <time>2022-02-06T09:50:58.000Z</time>
      </trkpt>
      <trkpt lat="47.31889" lon="-2.28662">
        <ele>-38</ele>
        <time>2022-02-06T09:51:00.000Z</time>
      </trkpt>
      <trkpt lat="47.31887" lon="-2.28685">
        <ele>-38</ele>
        <time>2022-02-06T09:51:05.000Z</time>
      </trkpt>
      <trkpt lat="47.31886" lon="-2.28698">
        <ele>-38</ele>
        <time>2022-02-06T09:51:07.000Z</time>
      </trkpt>
      <trkpt lat="47.31884" lon="-2.28719">
        <ele>-38</ele>
        <time>2022-02-06T09:51:10.000Z</time>
      </trkpt>
      <trkpt lat="47.3188" lon="-2.28776">
        <ele>-38</ele>
        <time>2022-02-06T09:51:18.000Z</time>
      </trkpt>
      <trkpt lat="47.31873" lon="-2.28825">
        <ele>-38</ele>
        <time>2022-02-06T09:51:25.000Z</time>
      </trkpt>
      <trkpt lat="47.31871" lon="-2.28831">
        <ele>-38</ele>
        <time>2022-02-06T09:51:28.000Z</time>
      </trkpt>
      <trkpt lat="47.31869" lon="-2.28834">
        <ele>-38</ele>
        <time>2022-02-06T09:51:35.000Z</time>
      </trkpt>
      <trkpt lat="47.31863" lon="-2.28837">
        <ele>-38</ele>
        <time>2022-02-06T09:51:37.000Z</time>
      </trkpt>
      <trkpt lat="47.31841" lon="-2.28834">
        <ele>-38</ele>
        <time>2022-02-06T09:51:43.000Z</time>
      </trkpt>
      <trkpt lat="47.31808" lon="-2.28827">
        <ele>-38</ele>
        <time>2022-02-06T09:51:49.000Z</time>
      </trkpt>
      <trkpt lat="47.31769" lon="-2.28818">
        <ele>-38</ele>
        <time>2022-02-06T09:51:56.000Z</time>
      </trkpt>
      <trkpt lat="47.31742" lon="-2.28809">
        <ele>-38</ele>
        <time>2022-02-06T09:52:01.000Z</time>
      </trkpt>
      <trkpt lat="47.31703" lon="-2.28784">
        <ele>-38</ele>
        <time>2022-02-06T09:52:08.000Z</time>
      </trkpt>
      <trkpt lat="47.31655" lon="-2.28751">
        <ele>-38</ele>
        <time>2022-02-06T09:52:17.000Z</time>
      </trkpt>
      <trkpt lat="47.31639" lon="-2.28743">
        <ele>-38</ele>
        <time>2022-02-06T09:52:20.000Z</time>
      </trkpt>
      <trkpt lat="47.31622" lon="-2.28739">
        <ele>-38</ele>
        <time>2022-02-06T09:52:23.000Z</time>
      </trkpt>
      <trkpt lat="47.31598" lon="-2.28741">
        <ele>-38</ele>
        <time>2022-02-06T09:52:27.000Z</time>
      </trkpt>
      <trkpt lat="47.31592" lon="-2.28743">
        <ele>-38</ele>
        <time>2022-02-06T09:52:28.000Z</time>
      </trkpt>
      <trkpt lat="47.31554" lon="-2.28748">
        <ele>-38</ele>
        <time>2022-02-06T09:52:34.000Z</time>
      </trkpt>
      <trkpt lat="47.31547" lon="-2.28746">
        <ele>-38</ele>
        <time>2022-02-06T09:52:35.000Z</time>
      </trkpt>
      <trkpt lat="47.31529" lon="-2.28735">
        <ele>-38</ele>
        <time>2022-02-06T09:52:38.000Z</time>
      </trkpt>
      <trkpt lat="47.31506" lon="-2.2872">
        <ele>-38</ele>
        <time>2022-02-06T09:52:42.000Z</time>
      </trkpt>
      <trkpt lat="47.31494" lon="-2.2872">
        <ele>-38</ele>
        <time>2022-02-06T09:52:44.000Z</time>
      </trkpt>
      <trkpt lat="47.31477" lon="-2.28726">
        <ele>-38</ele>
        <time>2022-02-06T09:52:47.000Z</time>
      </trkpt>
      <trkpt lat="47.31465" lon="-2.2873">
        <ele>-38</ele>
        <time>2022-02-06T09:52:49.000Z</time>
      </trkpt>
      <trkpt lat="47.31425" lon="-2.2874">
        <ele>-38</ele>
        <time>2022-02-06T09:52:56.000Z</time>
      </trkpt>
      <trkpt lat="47.31385" lon="-2.2875">
        <ele>-38</ele>
        <time>2022-02-06T09:53:03.000Z</time>
      </trkpt>
      <trkpt lat="47.31343" lon="-2.28768">
        <ele>-38</ele>
        <time>2022-02-06T09:53:10.000Z</time>
      </trkpt>
      <trkpt lat="47.31303" lon="-2.28797">
        <ele>-38</ele>
        <time>2022-02-06T09:53:17.000Z</time>
      </trkpt>
      <trkpt lat="47.31263" lon="-2.28826">
        <ele>-38</ele>
        <time>2022-02-06T09:53:24.000Z</time>
      </trkpt>
      <trkpt lat="47.31218" lon="-2.28859">
        <ele>-38</ele>
        <time>2022-02-06T09:53:32.000Z</time>
      </trkpt>
      <trkpt lat="47.31181" lon="-2.28889">
        <ele>-38</ele>
        <time>2022-02-06T09:53:39.000Z</time>
      </trkpt>
      <trkpt lat="47.31177" lon="-2.28912">
        <ele>-38</ele>
        <time>2022-02-06T09:53:42.000Z</time>
      </trkpt>
      <trkpt lat="47.31185" lon="-2.28935">
        <ele>-38</ele>
        <time>2022-02-06T09:53:45.000Z</time>
      </trkpt>
      <trkpt lat="47.31187" lon="-2.28944">
        <ele>-38</ele>
        <time>2022-02-06T09:53:46.000Z</time>
      </trkpt>
      <trkpt lat="47.31195" lon="-2.28984">
        <ele>-38</ele>
        <time>2022-02-06T09:53:51.000Z</time>
      </trkpt>
      <trkpt lat="47.312" lon="-2.29035">
        <ele>-38</ele>
        <time>2022-02-06T09:53:57.000Z</time>
      </trkpt>
      <trkpt lat="47.31206" lon="-2.29103">
        <ele>-38</ele>
        <time>2022-02-06T09:54:05.000Z</time>
      </trkpt>
      <trkpt lat="47.31221" lon="-2.2918">
        <ele>-38</ele>
        <time>2022-02-06T09:54:14.000Z</time>
      </trkpt>
      <trkpt lat="47.31239" lon="-2.2925">
        <ele>-38</ele>
        <time>2022-02-06T09:54:22.000Z</time>
      </trkpt>
      <trkpt lat="47.31252" lon="-2.29305">
        <ele>-38</ele>
        <time>2022-02-06T09:54:29.000Z</time>
      </trkpt>
      <trkpt lat="47.31264" lon="-2.29341">
        <ele>-38</ele>
        <time>2022-02-06T09:54:35.000Z</time>
      </trkpt>
      <trkpt lat="47.3127" lon="-2.29338">
        <ele>-38</ele>
        <time>2022-02-06T09:54:37.000Z</time>
      </trkpt>
      <trkpt lat="47.31273" lon="-2.29329">
        <ele>-38</ele>
        <time>2022-02-06T09:54:39.000Z</time>
      </trkpt>
      <trkpt lat="47.31278" lon="-2.29321">
        <ele>-38</ele>
        <time>2022-02-06T09:54:41.000Z</time>
      </trkpt>
      <trkpt lat="47.31287" lon="-2.29307">
        <ele>-38</ele>
        <time>2022-02-06T09:54:44.000Z</time>
      </trkpt>
      <trkpt lat="47.31295" lon="-2.293">
        <ele>-38</ele>
        <time>2022-02-06T09:54:46.000Z</time>
      </trkpt>
      <trkpt lat="47.31303" lon="-2.29296">
        <ele>-38</ele>
        <time>2022-02-06T09:54:48.000Z</time>
      </trkpt>
      <trkpt lat="47.31307" lon="-2.29295">
        <ele>-38</ele>
        <time>2022-02-06T09:54:49.000Z</time>
      </trkpt>
      <trkpt lat="47.31316" lon="-2.29294">
        <ele>-38</ele>
        <time>2022-02-06T09:54:51.000Z</time>
      </trkpt>
      <trkpt lat="47.3133" lon="-2.29296">
        <ele>-38</ele>
        <time>2022-02-06T09:54:54.000Z</time>
      </trkpt>
      <trkpt lat="47.31339" lon="-2.29299">
        <ele>-37.599998474121</ele>
        <time>2022-02-06T09:54:56.000Z</time>
      </trkpt>
      <trkpt lat="47.31343" lon="-2.293">
        <ele>-37.200000762939</ele>
        <time>2022-02-06T09:54:57.000Z</time>
      </trkpt>
      <trkpt lat="47.31348" lon="-2.29302">
        <ele>-36.799999237061</ele>
        <time>2022-02-06T09:54:58.000Z</time>
      </trkpt>
      <trkpt lat="47.31352" lon="-2.29304">
        <ele>-36.400001525879</ele>
        <time>2022-02-06T09:54:59.000Z</time>
      </trkpt>
      <trkpt lat="47.31356" lon="-2.29306">
        <ele>-36</ele>
        <time>2022-02-06T09:55:00.000Z</time>
      </trkpt>
      <trkpt lat="47.31378" lon="-2.29317">
        <ele>-36</ele>
        <time>2022-02-06T09:55:05.000Z</time>
      </trkpt>
      <trkpt lat="47.3139" lon="-2.29323">
        <ele>-36</ele>
        <time>2022-02-06T09:55:08.000Z</time>
      </trkpt>
      <trkpt lat="47.31406" lon="-2.29335">
        <ele>-36</ele>
        <time>2022-02-06T09:55:12.000Z</time>
      </trkpt>
      <trkpt lat="47.31424" lon="-2.29355">
        <ele>-36</ele>
        <time>2022-02-06T09:55:18.000Z</time>
      </trkpt>
      <trkpt lat="47.31436" lon="-2.29373">
        <ele>-36</ele>
        <time>2022-02-06T09:55:22.000Z</time>
      </trkpt>
      <trkpt lat="47.31442" lon="-2.29382">
        <ele>-36</ele>
        <time>2022-02-06T09:55:24.000Z</time>
      </trkpt>
      <trkpt lat="47.31448" lon="-2.2939">
        <ele>-35.400001525879</ele>
        <time>2022-02-06T09:55:26.000Z</time>
      </trkpt>
      <trkpt lat="47.31452" lon="-2.29394">
        <ele>-35</ele>
        <time>2022-02-06T09:55:27.000Z</time>
      </trkpt>
      <trkpt lat="47.31455" lon="-2.29396">
        <ele>-34.599998474121</ele>
        <time>2022-02-06T09:55:28.000Z</time>
      </trkpt>
      <trkpt lat="47.31459" lon="-2.29399">
        <ele>-34.200000762939</ele>
        <time>2022-02-06T09:55:29.000Z</time>
      </trkpt>
      <trkpt lat="47.31463" lon="-2.294">
        <ele>-33.799999237061</ele>
        <time>2022-02-06T09:55:30.000Z</time>
      </trkpt>
      <trkpt lat="47.31474" lon="-2.29397">
        <ele>-33.799999237061</ele>
        <time>2022-02-06T09:55:33.000Z</time>
      </trkpt>
      <trkpt lat="47.31496" lon="-2.29395">
        <ele>-33.799999237061</ele>
        <time>2022-02-06T09:55:39.000Z</time>
      </trkpt>
      <trkpt lat="47.31507" lon="-2.29407">
        <ele>-33.799999237061</ele>
        <time>2022-02-06T09:55:43.000Z</time>
      </trkpt>
      <trkpt lat="47.31521" lon="-2.29432">
        <ele>-33.799999237061</ele>
        <time>2022-02-06T09:55:48.000Z</time>
      </trkpt>
      <trkpt lat="47.31523" lon="-2.29438">
        <ele>-33.400001525879</ele>
        <time>2022-02-06T09:55:49.000Z</time>
      </trkpt>
      <trkpt lat="47.31525" lon="-2.29444">
        <ele>-33</ele>
        <time>2022-02-06T09:55:50.000Z</time>
      </trkpt>
      <trkpt lat="47.31528" lon="-2.2945">
        <ele>-32.599998474121</ele>
        <time>2022-02-06T09:55:51.000Z</time>
      </trkpt>
      <trkpt lat="47.3153" lon="-2.29455">
        <ele>-32.200000762939</ele>
        <time>2022-02-06T09:55:52.000Z</time>
      </trkpt>
      <trkpt lat="47.31532" lon="-2.2946">
        <ele>-31.799999237061</ele>
        <time>2022-02-06T09:55:53.000Z</time>
      </trkpt>
      <trkpt lat="47.31534" lon="-2.29466">
        <ele>-31.799999237061</ele>
        <time>2022-02-06T09:55:54.000Z</time>
      </trkpt>
      <trkpt lat="47.31538" lon="-2.29492">
        <ele>-31.39999961853</ele>
        <time>2022-02-06T09:55:59.000Z</time>
      </trkpt>
      <trkpt lat="47.31539" lon="-2.29498">
        <ele>-31</ele>
        <time>2022-02-06T09:56:00.000Z</time>
      </trkpt>
      <trkpt lat="47.3154" lon="-2.29504">
        <ele>-30.60000038147</ele>
        <time>2022-02-06T09:56:01.000Z</time>
      </trkpt>
      <trkpt lat="47.31542" lon="-2.2951">
        <ele>-30.200000762939</ele>
        <time>2022-02-06T09:56:02.000Z</time>
      </trkpt>
      <trkpt lat="47.31543" lon="-2.29516">
        <ele>-29.799999237061</ele>
        <time>2022-02-06T09:56:03.000Z</time>
      </trkpt>
      <trkpt lat="47.31546" lon="-2.29527">
        <ele>-29.799999237061</ele>
        <time>2022-02-06T09:56:05.000Z</time>
      </trkpt>
      <trkpt lat="47.3155" lon="-2.29538">
        <ele>-29.799999237061</ele>
        <time>2022-02-06T09:56:07.000Z</time>
      </trkpt>
      <trkpt lat="47.31558" lon="-2.2955">
        <ele>-29.799999237061</ele>
        <time>2022-02-06T09:56:10.000Z</time>
      </trkpt>
      <trkpt lat="47.3158" lon="-2.29581">
        <ele>-29.799999237061</ele>
        <time>2022-02-06T09:56:17.000Z</time>
      </trkpt>
      <trkpt lat="47.31602" lon="-2.29602">
        <ele>-29.799999237061</ele>
        <time>2022-02-06T09:56:23.000Z</time>
      </trkpt>
      <trkpt lat="47.31609" lon="-2.29609">
        <ele>-29.799999237061</ele>
        <time>2022-02-06T09:56:25.000Z</time>
      </trkpt>
      <trkpt lat="47.31617" lon="-2.29623">
        <ele>-29.799999237061</ele>
        <time>2022-02-06T09:56:28.000Z</time>
      </trkpt>
      <trkpt lat="47.31632" lon="-2.29655">
        <ele>-29.799999237061</ele>
        <time>2022-02-06T09:56:34.000Z</time>
      </trkpt>
      <trkpt lat="47.31647" lon="-2.29687">
        <ele>-29.799999237061</ele>
        <time>2022-02-06T09:56:40.000Z</time>
      </trkpt>
      <trkpt lat="47.31659" lon="-2.29718">
        <ele>-29.799999237061</ele>
        <time>2022-02-06T09:56:46.000Z</time>
      </trkpt>
      <trkpt lat="47.31662" lon="-2.29723">
        <ele>-29.799999237061</ele>
        <time>2022-02-06T09:56:47.000Z</time>
      </trkpt>
      <trkpt lat="47.31679" lon="-2.29732">
        <ele>-29.799999237061</ele>
        <time>2022-02-06T09:56:51.000Z</time>
      </trkpt>
      <trkpt lat="47.31693" lon="-2.29728">
        <ele>-29.799999237061</ele>
        <time>2022-02-06T09:56:54.000Z</time>
      </trkpt>
      <trkpt lat="47.31702" lon="-2.29725">
        <ele>-29.799999237061</ele>
        <time>2022-02-06T09:56:56.000Z</time>
      </trkpt>
      <trkpt lat="47.31706" lon="-2.29722">
        <ele>-29.799999237061</ele>
        <time>2022-02-06T09:56:57.000Z</time>
      </trkpt>
      <trkpt lat="47.31728" lon="-2.29707">
        <ele>-29.799999237061</ele>
        <time>2022-02-06T09:57:02.000Z</time>
      </trkpt>
      <trkpt lat="47.31762" lon="-2.2968">
        <ele>-29.799999237061</ele>
        <time>2022-02-06T09:57:09.000Z</time>
      </trkpt>
      <trkpt lat="47.31795" lon="-2.29657">
        <ele>-29.799999237061</ele>
        <time>2022-02-06T09:57:16.000Z</time>
      </trkpt>
      <trkpt lat="47.31819" lon="-2.29641">
        <ele>-29.799999237061</ele>
        <time>2022-02-06T09:57:21.000Z</time>
      </trkpt>
      <trkpt lat="47.31854" lon="-2.2962">
        <ele>-29.799999237061</ele>
        <time>2022-02-06T09:57:28.000Z</time>
      </trkpt>
      <trkpt lat="47.31872" lon="-2.2959">
        <ele>-29.799999237061</ele>
        <time>2022-02-06T09:57:33.000Z</time>
      </trkpt>
      <trkpt lat="47.3187" lon="-2.29565">
        <ele>-29.799999237061</ele>
        <time>2022-02-06T09:57:36.000Z</time>
      </trkpt>
      <trkpt lat="47.31866" lon="-2.2955">
        <ele>-29.799999237061</ele>
        <time>2022-02-06T09:57:38.000Z</time>
      </trkpt>
      <trkpt lat="47.31859" lon="-2.29527">
        <ele>-29.799999237061</ele>
        <time>2022-02-06T09:57:41.000Z</time>
      </trkpt>
      <trkpt lat="47.31846" lon="-2.29479">
        <ele>-29.799999237061</ele>
        <time>2022-02-06T09:57:47.000Z</time>
      </trkpt>
      <trkpt lat="47.31845" lon="-2.29463">
        <ele>-29.799999237061</ele>
        <time>2022-02-06T09:57:49.000Z</time>
      </trkpt>
      <trkpt lat="47.31847" lon="-2.29445">
        <ele>-29.799999237061</ele>
        <time>2022-02-06T09:57:51.000Z</time>
      </trkpt>
      <trkpt lat="47.3185" lon="-2.2942">
        <ele>-29.799999237061</ele>
        <time>2022-02-06T09:57:54.000Z</time>
      </trkpt>
      <trkpt lat="47.3185" lon="-2.29401">
        <ele>-29.799999237061</ele>
        <time>2022-02-06T09:57:56.000Z</time>
      </trkpt>
      <trkpt lat="47.31846" lon="-2.29376">
        <ele>-29.799999237061</ele>
        <time>2022-02-06T09:57:59.000Z</time>
      </trkpt>
      <trkpt lat="47.31834" lon="-2.29318">
        <ele>-29.799999237061</ele>
        <time>2022-02-06T09:58:06.000Z</time>
      </trkpt>
      <trkpt lat="47.31832" lon="-2.29308">
        <ele>-30.200000762939</ele>
        <time>2022-02-06T09:58:07.000Z</time>
      </trkpt>
      <trkpt lat="47.31832" lon="-2.29299">
        <ele>-30.60000038147</ele>
        <time>2022-02-06T09:58:08.000Z</time>
      </trkpt>
      <trkpt lat="47.31831" lon="-2.29289">
        <ele>-31.39999961853</ele>
        <time>2022-02-06T09:58:09.000Z</time>
      </trkpt>
      <trkpt lat="47.3183" lon="-2.29279">
        <ele>-31.799999237061</ele>
        <time>2022-02-06T09:58:10.000Z</time>
      </trkpt>
      <trkpt lat="47.31828" lon="-2.29259">
        <ele>-31.799999237061</ele>
        <time>2022-02-06T09:58:12.000Z</time>
      </trkpt>
      <trkpt lat="47.31827" lon="-2.29248">
        <ele>-32.200000762939</ele>
        <time>2022-02-06T09:58:13.000Z</time>
      </trkpt>
      <trkpt lat="47.31825" lon="-2.29238">
        <ele>-32.599998474121</ele>
        <time>2022-02-06T09:58:14.000Z</time>
      </trkpt>
      <trkpt lat="47.31824" lon="-2.29228">
        <ele>-33</ele>
        <time>2022-02-06T09:58:15.000Z</time>
      </trkpt>
      <trkpt lat="47.31823" lon="-2.29218">
        <ele>-33.599998474121</ele>
        <time>2022-02-06T09:58:16.000Z</time>
      </trkpt>
      <trkpt lat="47.31822" lon="-2.29207">
        <ele>-34</ele>
        <time>2022-02-06T09:58:17.000Z</time>
      </trkpt>
      <trkpt lat="47.31821" lon="-2.29196">
        <ele>-34</ele>
        <time>2022-02-06T09:58:18.000Z</time>
      </trkpt>
      <trkpt lat="47.31822" lon="-2.29185">
        <ele>-34</ele>
        <time>2022-02-06T09:58:19.000Z</time>
      </trkpt>
      <trkpt lat="47.31825" lon="-2.29154">
        <ele>-34</ele>
        <time>2022-02-06T09:58:22.000Z</time>
      </trkpt>
      <trkpt lat="47.31828" lon="-2.29133">
        <ele>-34.400001525879</ele>
        <time>2022-02-06T09:58:24.000Z</time>
      </trkpt>
      <trkpt lat="47.3183" lon="-2.29122">
        <ele>-35</ele>
        <time>2022-02-06T09:58:25.000Z</time>
      </trkpt>
      <trkpt lat="47.31832" lon="-2.2911">
        <ele>-35.400001525879</ele>
        <time>2022-02-06T09:58:26.000Z</time>
      </trkpt>
      <trkpt lat="47.31834" lon="-2.29099">
        <ele>-36</ele>
        <time>2022-02-06T09:58:27.000Z</time>
      </trkpt>
      <trkpt lat="47.31836" lon="-2.29088">
        <ele>-36.400001525879</ele>
        <time>2022-02-06T09:58:28.000Z</time>
      </trkpt>
      <trkpt lat="47.31837" lon="-2.29078">
        <ele>-36.400001525879</ele>
        <time>2022-02-06T09:58:29.000Z</time>
      </trkpt>
      <trkpt lat="47.31847" lon="-2.29029">
        <ele>-36.799999237061</ele>
        <time>2022-02-06T09:58:34.000Z</time>
      </trkpt>
      <trkpt lat="47.31849" lon="-2.2902">
        <ele>-37.200000762939</ele>
        <time>2022-02-06T09:58:35.000Z</time>
      </trkpt>
      <trkpt lat="47.31851" lon="-2.29011">
        <ele>-37.799999237061</ele>
        <time>2022-02-06T09:58:36.000Z</time>
      </trkpt>
      <trkpt lat="47.31854" lon="-2.29002">
        <ele>-38.200000762939</ele>
        <time>2022-02-06T09:58:37.000Z</time>
      </trkpt>
      <trkpt lat="47.31856" lon="-2.28992">
        <ele>-38.599998474121</ele>
        <time>2022-02-06T09:58:38.000Z</time>
      </trkpt>
      <trkpt lat="47.31858" lon="-2.28974">
        <ele>-39</ele>
        <time>2022-02-06T09:58:40.000Z</time>
      </trkpt>
      <trkpt lat="47.31859" lon="-2.28964">
        <ele>-39.400001525879</ele>
        <time>2022-02-06T09:58:41.000Z</time>
      </trkpt>
      <trkpt lat="47.3186" lon="-2.28956">
        <ele>-39.799999237061</ele>
        <time>2022-02-06T09:58:42.000Z</time>
      </trkpt>
      <trkpt lat="47.31861" lon="-2.28949">
        <ele>-40.200000762939</ele>
        <time>2022-02-06T09:58:43.000Z</time>
      </trkpt>
      <trkpt lat="47.31864" lon="-2.28943">
        <ele>-40.599998474121</ele>
        <time>2022-02-06T09:58:44.000Z</time>
      </trkpt>
      <trkpt lat="47.31869" lon="-2.28941">
        <ele>-40.599998474121</ele>
        <time>2022-02-06T09:58:45.000Z</time>
      </trkpt>
      <trkpt lat="47.31877" lon="-2.28941">
        <ele>-40.599998474121</ele>
        <time>2022-02-06T09:58:47.000Z</time>
      </trkpt>
      <trkpt lat="47.3188" lon="-2.2894">
        <ele>-40.599998474121</ele>
        <time>2022-02-06T09:58:48.000Z</time>
      </trkpt>
      <trkpt lat="47.31889" lon="-2.28938">
        <ele>-40.599998474121</ele>
        <time>2022-02-06T09:58:50.000Z</time>
      </trkpt>
      <trkpt lat="47.31905" lon="-2.28932">
        <ele>-40.599998474121</ele>
        <time>2022-02-06T09:58:53.000Z</time>
      </trkpt>
      <trkpt lat="47.31922" lon="-2.28915">
        <ele>-40.599998474121</ele>
        <time>2022-02-06T09:58:57.000Z</time>
      </trkpt>
      <trkpt lat="47.31927" lon="-2.28911">
        <ele>-40.599998474121</ele>
        <time>2022-02-06T09:58:58.000Z</time>
      </trkpt>
      <trkpt lat="47.31946" lon="-2.28898">
        <ele>-40.599998474121</ele>
        <time>2022-02-06T09:59:03.000Z</time>
      </trkpt>
      <trkpt lat="47.31957" lon="-2.28894">
        <ele>-40.599998474121</ele>
        <time>2022-02-06T09:59:08.000Z</time>
      </trkpt>
      <trkpt lat="47.3198" lon="-2.28885">
        <ele>-40.599998474121</ele>
        <time>2022-02-06T09:59:13.000Z</time>
      </trkpt>
      <trkpt lat="47.31986" lon="-2.28885">
        <ele>-40.599998474121</ele>
        <time>2022-02-06T09:59:14.000Z</time>
      </trkpt>
      <trkpt lat="47.32009" lon="-2.2888">
        <ele>-40.599998474121</ele>
        <time>2022-02-06T09:59:18.000Z</time>
      </trkpt>
      <trkpt lat="47.32014" lon="-2.28877">
        <ele>-40.599998474121</ele>
        <time>2022-02-06T09:59:19.000Z</time>
      </trkpt>
      <trkpt lat="47.32029" lon="-2.28868">
        <ele>-40.599998474121</ele>
        <time>2022-02-06T09:59:22.000Z</time>
      </trkpt>
      <trkpt lat="47.32034" lon="-2.28869">
        <ele>-40.599998474121</ele>
        <time>2022-02-06T09:59:23.000Z</time>
      </trkpt>
      <trkpt lat="47.32041" lon="-2.28886">
        <ele>-40.599998474121</ele>
        <time>2022-02-06T09:59:26.000Z</time>
      </trkpt>
      <trkpt lat="47.32043" lon="-2.28892">
        <ele>-40.599998474121</ele>
        <time>2022-02-06T09:59:27.000Z</time>
      </trkpt>
      <trkpt lat="47.32044" lon="-2.28899">
        <ele>-40.599998474121</ele>
        <time>2022-02-06T09:59:28.000Z</time>
      </trkpt>
      <trkpt lat="47.32045" lon="-2.2892">
        <ele>-40.599998474121</ele>
        <time>2022-02-06T09:59:32.000Z</time>
      </trkpt>
      <trkpt lat="47.32047" lon="-2.28935">
        <ele>-40.599998474121</ele>
        <time>2022-02-06T09:59:37.000Z</time>
      </trkpt>
      <trkpt lat="47.32051" lon="-2.28941">
        <ele>-40.599998474121</ele>
        <time>2022-02-06T09:59:39.000Z</time>
      </trkpt>
      <trkpt lat="47.32056" lon="-2.28946">
        <ele>-40.599998474121</ele>
        <time>2022-02-06T09:59:41.000Z</time>
      </trkpt>
      <trkpt lat="47.32063" lon="-2.2895">
        <ele>-40.599998474121</ele>
        <time>2022-02-06T09:59:43.000Z</time>
      </trkpt>
      <trkpt lat="47.32074" lon="-2.28958">
        <ele>-40.599998474121</ele>
        <time>2022-02-06T09:59:46.000Z</time>
      </trkpt>
      <trkpt lat="47.32091" lon="-2.28971">
        <ele>-40.599998474121</ele>
        <time>2022-02-06T09:59:50.000Z</time>
      </trkpt>
      <trkpt lat="47.32098" lon="-2.2898">
        <ele>-40.599998474121</ele>
        <time>2022-02-06T09:59:52.000Z</time>
      </trkpt>
      <trkpt lat="47.32111" lon="-2.28999">
        <ele>-40.599998474121</ele>
        <time>2022-02-06T09:59:57.000Z</time>
      </trkpt>
      <trkpt lat="47.32128" lon="-2.29034">
        <ele>-40.599998474121</ele>
        <time>2022-02-06T10:00:05.000Z</time>
      </trkpt>
      <trkpt lat="47.32134" lon="-2.2906">
        <ele>-40.599998474121</ele>
        <time>2022-02-06T10:00:10.000Z</time>
      </trkpt>
      <trkpt lat="47.32136" lon="-2.29065">
        <ele>-40.200000762939</ele>
        <time>2022-02-06T10:00:11.000Z</time>
      </trkpt>
      <trkpt lat="47.32137" lon="-2.2907">
        <ele>-39.799999237061</ele>
        <time>2022-02-06T10:00:12.000Z</time>
      </trkpt>
      <trkpt lat="47.32139" lon="-2.29075">
        <ele>-39</ele>
        <time>2022-02-06T10:00:13.000Z</time>
      </trkpt>
      <trkpt lat="47.32141" lon="-2.2908">
        <ele>-38.599998474121</ele>
        <time>2022-02-06T10:00:14.000Z</time>
      </trkpt>
      <trkpt lat="47.32149" lon="-2.29093">
        <ele>-38.599998474121</ele>
        <time>2022-02-06T10:00:17.000Z</time>
      </trkpt>
      <trkpt lat="47.3216" lon="-2.29106">
        <ele>-38.599998474121</ele>
        <time>2022-02-06T10:00:20.000Z</time>
      </trkpt>
      <trkpt lat="47.32168" lon="-2.29114">
        <ele>-38.599998474121</ele>
        <time>2022-02-06T10:00:22.000Z</time>
      </trkpt>
      <trkpt lat="47.32179" lon="-2.29125">
        <ele>-38.599998474121</ele>
        <time>2022-02-06T10:00:25.000Z</time>
      </trkpt>
      <trkpt lat="47.32191" lon="-2.29139">
        <ele>-38.599998474121</ele>
        <time>2022-02-06T10:00:28.000Z</time>
      </trkpt>
      <trkpt lat="47.32214" lon="-2.29167">
        <ele>-38.599998474121</ele>
        <time>2022-02-06T10:00:34.000Z</time>
      </trkpt>
      <trkpt lat="47.32218" lon="-2.29172">
        <ele>-38.599998474121</ele>
        <time>2022-02-06T10:00:35.000Z</time>
      </trkpt>
      <trkpt lat="47.32235" lon="-2.29201">
        <ele>-38.599998474121</ele>
        <time>2022-02-06T10:00:41.000Z</time>
      </trkpt>
      <trkpt lat="47.32247" lon="-2.29215">
        <ele>-38.599998474121</ele>
        <time>2022-02-06T10:00:45.000Z</time>
      </trkpt>
      <trkpt lat="47.32261" lon="-2.29213">
        <ele>-38.599998474121</ele>
        <time>2022-02-06T10:00:49.000Z</time>
      </trkpt>
      <trkpt lat="47.3227" lon="-2.2921">
        <ele>-38.599998474121</ele>
        <time>2022-02-06T10:00:51.000Z</time>
      </trkpt>
      <trkpt lat="47.32285" lon="-2.29211">
        <ele>-38.599998474121</ele>
        <time>2022-02-06T10:00:54.000Z</time>
      </trkpt>
      <trkpt lat="47.32303" lon="-2.29213">
        <ele>-38.599998474121</ele>
        <time>2022-02-06T10:00:57.000Z</time>
      </trkpt>
      <trkpt lat="47.3232" lon="-2.2922">
        <ele>-38.599998474121</ele>
        <time>2022-02-06T10:01:00.000Z</time>
      </trkpt>
      <trkpt lat="47.32355" lon="-2.29238">
        <ele>-38.599998474121</ele>
        <time>2022-02-06T10:01:06.000Z</time>
      </trkpt>
      <trkpt lat="47.32398" lon="-2.29263">
        <ele>-38.599998474121</ele>
        <time>2022-02-06T10:01:14.000Z</time>
      </trkpt>
      <trkpt lat="47.32403" lon="-2.29268">
        <ele>-38.599998474121</ele>
        <time>2022-02-06T10:01:15.000Z</time>
      </trkpt>
      <trkpt lat="47.32411" lon="-2.29288">
        <ele>-38.599998474121</ele>
        <time>2022-02-06T10:01:18.000Z</time>
      </trkpt>
      <trkpt lat="47.32415" lon="-2.29303">
        <ele>-38.599998474121</ele>
        <time>2022-02-06T10:01:20.000Z</time>
      </trkpt>
      <trkpt lat="47.32421" lon="-2.2934">
        <ele>-38.599998474121</ele>
        <time>2022-02-06T10:01:25.000Z</time>
      </trkpt>
      <trkpt lat="47.32424" lon="-2.29371">
        <ele>-38.599998474121</ele>
        <time>2022-02-06T10:01:29.000Z</time>
      </trkpt>
      <trkpt lat="47.32427" lon="-2.29386">
        <ele>-38.599998474121</ele>
        <time>2022-02-06T10:01:31.000Z</time>
      </trkpt>
      <trkpt lat="47.32437" lon="-2.29441">
        <ele>-38.599998474121</ele>
        <time>2022-02-06T10:01:39.000Z</time>
      </trkpt>
      <trkpt lat="47.3244" lon="-2.29472">
        <ele>-38.599998474121</ele>
        <time>2022-02-06T10:01:44.000Z</time>
      </trkpt>
      <trkpt lat="47.32442" lon="-2.29478">
        <ele>-38.599998474121</ele>
        <time>2022-02-06T10:01:45.000Z</time>
      </trkpt>
      <trkpt lat="47.32446" lon="-2.2949">
        <ele>-38.200000762939</ele>
        <time>2022-02-06T10:01:47.000Z</time>
      </trkpt>
      <trkpt lat="47.32447" lon="-2.29495">
        <ele>-37.799999237061</ele>
        <time>2022-02-06T10:01:48.000Z</time>
      </trkpt>
      <trkpt lat="47.32449" lon="-2.29501">
        <ele>-37.400001525879</ele>
        <time>2022-02-06T10:01:49.000Z</time>
      </trkpt>
      <trkpt lat="47.32451" lon="-2.29507">
        <ele>-37</ele>
        <time>2022-02-06T10:01:50.000Z</time>
      </trkpt>
      <trkpt lat="47.32452" lon="-2.29513">
        <ele>-36.599998474121</ele>
        <time>2022-02-06T10:01:51.000Z</time>
      </trkpt>
      <trkpt lat="47.32456" lon="-2.29523">
        <ele>-36.200000762939</ele>
        <time>2022-02-06T10:01:53.000Z</time>
      </trkpt>
      <trkpt lat="47.32457" lon="-2.29528">
        <ele>-35.799999237061</ele>
        <time>2022-02-06T10:01:54.000Z</time>
      </trkpt>
      <trkpt lat="47.32459" lon="-2.29533">
        <ele>-35.200000762939</ele>
        <time>2022-02-06T10:01:55.000Z</time>
      </trkpt>
      <trkpt lat="47.3246" lon="-2.29538">
        <ele>-34.799999237061</ele>
        <time>2022-02-06T10:01:56.000Z</time>
      </trkpt>
      <trkpt lat="47.32462" lon="-2.29543">
        <ele>-34.400001525879</ele>
        <time>2022-02-06T10:01:57.000Z</time>
      </trkpt>
      <trkpt lat="47.32472" lon="-2.29571">
        <ele>-34.400001525879</ele>
        <time>2022-02-06T10:02:03.000Z</time>
      </trkpt>
      <trkpt lat="47.32479" lon="-2.29597">
        <ele>-34</ele>
        <time>2022-02-06T10:02:09.000Z</time>
      </trkpt>
      <trkpt lat="47.32481" lon="-2.29601">
        <ele>-33.599998474121</ele>
        <time>2022-02-06T10:02:10.000Z</time>
      </trkpt>
      <trkpt lat="47.32482" lon="-2.29606">
        <ele>-33.200000762939</ele>
        <time>2022-02-06T10:02:11.000Z</time>
      </trkpt>
      <trkpt lat="47.32483" lon="-2.29611">
        <ele>-32.799999237061</ele>
        <time>2022-02-06T10:02:12.000Z</time>
      </trkpt>
      <trkpt lat="47.32484" lon="-2.29615">
        <ele>-32.400001525879</ele>
        <time>2022-02-06T10:02:13.000Z</time>
      </trkpt>
      <trkpt lat="47.32487" lon="-2.29625">
        <ele>-32.400001525879</ele>
        <time>2022-02-06T10:02:15.000Z</time>
      </trkpt>
      <trkpt lat="47.32488" lon="-2.29629">
        <ele>-32</ele>
        <time>2022-02-06T10:02:16.000Z</time>
      </trkpt>
      <trkpt lat="47.3249" lon="-2.29634">
        <ele>-31.60000038147</ele>
        <time>2022-02-06T10:02:17.000Z</time>
      </trkpt>
      <trkpt lat="47.32491" lon="-2.29639">
        <ele>-31.200000762939</ele>
        <time>2022-02-06T10:02:18.000Z</time>
      </trkpt>
      <trkpt lat="47.32492" lon="-2.29643">
        <ele>-30.60000038147</ele>
        <time>2022-02-06T10:02:19.000Z</time>
      </trkpt>
      <trkpt lat="47.32494" lon="-2.29648">
        <ele>-30.200000762939</ele>
        <time>2022-02-06T10:02:20.000Z</time>
      </trkpt>
      <trkpt lat="47.32498" lon="-2.29661">
        <ele>-30.200000762939</ele>
        <time>2022-02-06T10:02:23.000Z</time>
      </trkpt>
      <trkpt lat="47.32503" lon="-2.29687">
        <ele>-30.200000762939</ele>
        <time>2022-02-06T10:02:28.000Z</time>
      </trkpt>
      <trkpt lat="47.32505" lon="-2.29692">
        <ele>-29.799999237061</ele>
        <time>2022-02-06T10:02:29.000Z</time>
      </trkpt>
      <trkpt lat="47.32506" lon="-2.29696">
        <ele>-29.39999961853</ele>
        <time>2022-02-06T10:02:30.000Z</time>
      </trkpt>
      <trkpt lat="47.32508" lon="-2.297">
        <ele>-29</ele>
        <time>2022-02-06T10:02:31.000Z</time>
      </trkpt>
      <trkpt lat="47.32509" lon="-2.29706">
        <ele>-28.60000038147</ele>
        <time>2022-02-06T10:02:32.000Z</time>
      </trkpt>
      <trkpt lat="47.3251" lon="-2.29709">
        <ele>-28</ele>
        <time>2022-02-06T10:02:33.000Z</time>
      </trkpt>
      <trkpt lat="47.32512" lon="-2.29714">
        <ele>-28</ele>
        <time>2022-02-06T10:02:34.000Z</time>
      </trkpt>
      <trkpt lat="47.32519" lon="-2.29741">
        <ele>-28</ele>
        <time>2022-02-06T10:02:41.000Z</time>
      </trkpt>
      <trkpt lat="47.32522" lon="-2.29753">
        <ele>-28</ele>
        <time>2022-02-06T10:02:46.000Z</time>
      </trkpt>
      <trkpt lat="47.32523" lon="-2.29758">
        <ele>-28</ele>
        <time>2022-02-06T10:02:49.000Z</time>
      </trkpt>
      <trkpt lat="47.32522" lon="-2.29771">
        <ele>-28</ele>
        <time>2022-02-06T10:13:47.000Z</time>
      </trkpt>
      <trkpt lat="47.32523" lon="-2.29773">
        <ele>-28</ele>
        <time>2022-02-06T10:13:48.000Z</time>
      </trkpt>
      <trkpt lat="47.32523" lon="-2.29776">
        <ele>-28</ele>
        <time>2022-02-06T10:13:49.000Z</time>
      </trkpt>
      <trkpt lat="47.32525" lon="-2.29786">
        <ele>-28</ele>
        <time>2022-02-06T10:13:52.000Z</time>
      </trkpt>
      <trkpt lat="47.32521" lon="-2.29794">
        <ele>-28</ele>
        <time>2022-02-06T10:13:55.000Z</time>
      </trkpt>
      <trkpt lat="47.32519" lon="-2.29797">
        <ele>-28</ele>
        <time>2022-02-06T10:13:56.000Z</time>
      </trkpt>
      <trkpt lat="47.32503" lon="-2.29815">
        <ele>-28</ele>
        <time>2022-02-06T10:14:02.000Z</time>
      </trkpt>
      <trkpt lat="47.32486" lon="-2.29831">
        <ele>-28</ele>
        <time>2022-02-06T10:14:08.000Z</time>
      </trkpt>
      <trkpt lat="47.32465" lon="-2.29849">
        <ele>-28</ele>
        <time>2022-02-06T10:14:14.000Z</time>
      </trkpt>
      <trkpt lat="47.3245" lon="-2.29864">
        <ele>-28</ele>
        <time>2022-02-06T10:14:18.000Z</time>
      </trkpt>
      <trkpt lat="47.32447" lon="-2.29875">
        <ele>-28</ele>
        <time>2022-02-06T10:14:20.000Z</time>
      </trkpt>
      <trkpt lat="47.32448" lon="-2.29888">
        <ele>-28</ele>
        <time>2022-02-06T10:14:22.000Z</time>
      </trkpt>
      <trkpt lat="47.32451" lon="-2.29907">
        <ele>-28</ele>
        <time>2022-02-06T10:14:25.000Z</time>
      </trkpt>
      <trkpt lat="47.32452" lon="-2.29933">
        <ele>-28</ele>
        <time>2022-02-06T10:14:30.000Z</time>
      </trkpt>
      <trkpt lat="47.32448" lon="-2.29955">
        <ele>-28</ele>
        <time>2022-02-06T10:14:35.000Z</time>
      </trkpt>
      <trkpt lat="47.32455" lon="-2.29975">
        <ele>-28</ele>
        <time>2022-02-06T10:14:39.000Z</time>
      </trkpt>
      <trkpt lat="47.32458" lon="-2.29979">
        <ele>-28</ele>
        <time>2022-02-06T10:14:40.000Z</time>
      </trkpt>
      <trkpt lat="47.32477" lon="-2.30011">
        <ele>-28</ele>
        <time>2022-02-06T10:14:47.000Z</time>
      </trkpt>
      <trkpt lat="47.32479" lon="-2.30016">
        <ele>-28</ele>
        <time>2022-02-06T10:14:48.000Z</time>
      </trkpt>
      <trkpt lat="47.32489" lon="-2.30046">
        <ele>-28</ele>
        <time>2022-02-06T10:14:53.000Z</time>
      </trkpt>
      <trkpt lat="47.32491" lon="-2.30051">
        <ele>-28</ele>
        <time>2022-02-06T10:14:54.000Z</time>
      </trkpt>
      <trkpt lat="47.32498" lon="-2.30076">
        <ele>-28</ele>
        <time>2022-02-06T10:14:58.000Z</time>
      </trkpt>
      <trkpt lat="47.32498" lon="-2.30082">
        <ele>-28</ele>
        <time>2022-02-06T10:14:59.000Z</time>
      </trkpt>
      <trkpt lat="47.32498" lon="-2.30089">
        <ele>-28</ele>
        <time>2022-02-06T10:15:00.000Z</time>
      </trkpt>
      <trkpt lat="47.32497" lon="-2.30102">
        <ele>-28</ele>
        <time>2022-02-06T10:15:02.000Z</time>
      </trkpt>
      <trkpt lat="47.32497" lon="-2.30109">
        <ele>-28</ele>
        <time>2022-02-06T10:15:03.000Z</time>
      </trkpt>
      <trkpt lat="47.32501" lon="-2.30135">
        <ele>-28</ele>
        <time>2022-02-06T10:15:07.000Z</time>
      </trkpt>
      <trkpt lat="47.32502" lon="-2.30148">
        <ele>-28</ele>
        <time>2022-02-06T10:15:09.000Z</time>
      </trkpt>
      <trkpt lat="47.32506" lon="-2.30174">
        <ele>-28</ele>
        <time>2022-02-06T10:15:13.000Z</time>
      </trkpt>
      <trkpt lat="47.32509" lon="-2.30193">
        <ele>-28</ele>
        <time>2022-02-06T10:15:16.000Z</time>
      </trkpt>
      <trkpt lat="47.32515" lon="-2.3024">
        <ele>-28</ele>
        <time>2022-02-06T10:15:23.000Z</time>
      </trkpt>
      <trkpt lat="47.32517" lon="-2.30253">
        <ele>-28</ele>
        <time>2022-02-06T10:15:25.000Z</time>
      </trkpt>
      <trkpt lat="47.32522" lon="-2.30285">
        <ele>-28</ele>
        <time>2022-02-06T10:15:30.000Z</time>
      </trkpt>
      <trkpt lat="47.32526" lon="-2.30305">
        <ele>-28</ele>
        <time>2022-02-06T10:15:33.000Z</time>
      </trkpt>
      <trkpt lat="47.32529" lon="-2.30318">
        <ele>-28.39999961853</ele>
        <time>2022-02-06T10:15:35.000Z</time>
      </trkpt>
      <trkpt lat="47.3253" lon="-2.30325">
        <ele>-28.799999237061</ele>
        <time>2022-02-06T10:15:36.000Z</time>
      </trkpt>
      <trkpt lat="47.32531" lon="-2.30331">
        <ele>-29.200000762939</ele>
        <time>2022-02-06T10:15:37.000Z</time>
      </trkpt>
      <trkpt lat="47.32533" lon="-2.30338">
        <ele>-29.60000038147</ele>
        <time>2022-02-06T10:15:38.000Z</time>
      </trkpt>
      <trkpt lat="47.32534" lon="-2.30344">
        <ele>-30</ele>
        <time>2022-02-06T10:15:39.000Z</time>
      </trkpt>
      <trkpt lat="47.32537" lon="-2.30363">
        <ele>-30</ele>
        <time>2022-02-06T10:15:42.000Z</time>
      </trkpt>
      <trkpt lat="47.32542" lon="-2.30397">
        <ele>-30</ele>
        <time>2022-02-06T10:15:48.000Z</time>
      </trkpt>
      <trkpt lat="47.32537" lon="-2.30402">
        <ele>-31</ele>
        <time>2022-02-06T10:15:51.000Z</time>
      </trkpt>
      <trkpt lat="47.32534" lon="-2.30403">
        <ele>-31.39999961853</ele>
        <time>2022-02-06T10:15:52.000Z</time>
      </trkpt>
      <trkpt lat="47.32531" lon="-2.30405">
        <ele>-31.799999237061</ele>
        <time>2022-02-06T10:15:53.000Z</time>
      </trkpt>
      <trkpt lat="47.32527" lon="-2.30406">
        <ele>-32.200000762939</ele>
        <time>2022-02-06T10:15:54.000Z</time>
      </trkpt>
      <trkpt lat="47.32523" lon="-2.30408">
        <ele>-32.200000762939</ele>
        <time>2022-02-06T10:15:55.000Z</time>
      </trkpt>
      <trkpt lat="47.32504" lon="-2.30416">
        <ele>-32.200000762939</ele>
        <time>2022-02-06T10:16:00.000Z</time>
      </trkpt>
      <trkpt lat="47.32501" lon="-2.3042">
        <ele>-32.200000762939</ele>
        <time>2022-02-06T10:16:01.000Z</time>
      </trkpt>
      <trkpt lat="47.32502" lon="-2.30439">
        <ele>-32.200000762939</ele>
        <time>2022-02-06T10:16:04.000Z</time>
      </trkpt>
      <trkpt lat="47.32503" lon="-2.30445">
        <ele>-32.200000762939</ele>
        <time>2022-02-06T10:16:05.000Z</time>
      </trkpt>
      <trkpt lat="47.32514" lon="-2.30493">
        <ele>-32.200000762939</ele>
        <time>2022-02-06T10:16:12.000Z</time>
      </trkpt>
      <trkpt lat="47.32522" lon="-2.30542">
        <ele>-32.200000762939</ele>
        <time>2022-02-06T10:16:19.000Z</time>
      </trkpt>
      <trkpt lat="47.3253" lon="-2.30598">
        <ele>-32.200000762939</ele>
        <time>2022-02-06T10:16:27.000Z</time>
      </trkpt>
      <trkpt lat="47.32531" lon="-2.30605">
        <ele>-32.200000762939</ele>
        <time>2022-02-06T10:16:28.000Z</time>
      </trkpt>
      <trkpt lat="47.32538" lon="-2.30635">
        <ele>-32.200000762939</ele>
        <time>2022-02-06T10:16:32.000Z</time>
      </trkpt>
      <trkpt lat="47.32541" lon="-2.30649">
        <ele>-32.200000762939</ele>
        <time>2022-02-06T10:16:34.000Z</time>
      </trkpt>
      <trkpt lat="47.32544" lon="-2.3067">
        <ele>-32.200000762939</ele>
        <time>2022-02-06T10:16:37.000Z</time>
      </trkpt>
      <trkpt lat="47.32545" lon="-2.30677">
        <ele>-32.200000762939</ele>
        <time>2022-02-06T10:16:38.000Z</time>
      </trkpt>
      <trkpt lat="47.32551" lon="-2.30714">
        <ele>-32.200000762939</ele>
        <time>2022-02-06T10:16:43.000Z</time>
      </trkpt>
      <trkpt lat="47.32554" lon="-2.30729">
        <ele>-32.200000762939</ele>
        <time>2022-02-06T10:16:45.000Z</time>
      </trkpt>
      <trkpt lat="47.32557" lon="-2.30752">
        <ele>-32.599998474121</ele>
        <time>2022-02-06T10:16:48.000Z</time>
      </trkpt>
      <trkpt lat="47.32558" lon="-2.30759">
        <ele>-33</ele>
        <time>2022-02-06T10:16:49.000Z</time>
      </trkpt>
      <trkpt lat="47.3256" lon="-2.30765">
        <ele>-33.400001525879</ele>
        <time>2022-02-06T10:16:50.000Z</time>
      </trkpt>
      <trkpt lat="47.32562" lon="-2.30772">
        <ele>-33.799999237061</ele>
        <time>2022-02-06T10:16:51.000Z</time>
      </trkpt>
      <trkpt lat="47.32563" lon="-2.30779">
        <ele>-34.200000762939</ele>
        <time>2022-02-06T10:16:52.000Z</time>
      </trkpt>
      <trkpt lat="47.32564" lon="-2.30793">
        <ele>-34.200000762939</ele>
        <time>2022-02-06T10:16:54.000Z</time>
      </trkpt>
      <trkpt lat="47.32565" lon="-2.30801">
        <ele>-34.200000762939</ele>
        <time>2022-02-06T10:16:55.000Z</time>
      </trkpt>
      <trkpt lat="47.32568" lon="-2.3087">
        <ele>-34.200000762939</ele>
        <time>2022-02-06T10:17:04.000Z</time>
      </trkpt>
      <trkpt lat="47.32567" lon="-2.30916">
        <ele>-34.200000762939</ele>
        <time>2022-02-06T10:17:10.000Z</time>
      </trkpt>
      <trkpt lat="47.32564" lon="-2.30965">
        <ele>-34.200000762939</ele>
        <time>2022-02-06T10:17:17.000Z</time>
      </trkpt>
      <trkpt lat="47.32564" lon="-2.30972">
        <ele>-34.200000762939</ele>
        <time>2022-02-06T10:17:18.000Z</time>
      </trkpt>
      <trkpt lat="47.32564" lon="-2.31006">
        <ele>-34.200000762939</ele>
        <time>2022-02-06T10:17:23.000Z</time>
      </trkpt>
      <trkpt lat="47.32571" lon="-2.31048">
        <ele>-34.200000762939</ele>
        <time>2022-02-06T10:17:29.000Z</time>
      </trkpt>
      <trkpt lat="47.32573" lon="-2.31065">
        <ele>-34.200000762939</ele>
        <time>2022-02-06T10:17:31.000Z</time>
      </trkpt>
      <trkpt lat="47.32572" lon="-2.31082">
        <ele>-34.200000762939</ele>
        <time>2022-02-06T10:17:33.000Z</time>
      </trkpt>
      <trkpt lat="47.32567" lon="-2.3114">
        <ele>-34.200000762939</ele>
        <time>2022-02-06T10:17:40.000Z</time>
      </trkpt>
      <trkpt lat="47.32562" lon="-2.31179">
        <ele>-34.200000762939</ele>
        <time>2022-02-06T10:17:46.000Z</time>
      </trkpt>
      <trkpt lat="47.32565" lon="-2.31202">
        <ele>-34.799999237061</ele>
        <time>2022-02-06T10:17:50.000Z</time>
      </trkpt>
      <trkpt lat="47.32567" lon="-2.31207">
        <ele>-35.200000762939</ele>
        <time>2022-02-06T10:17:51.000Z</time>
      </trkpt>
      <trkpt lat="47.3257" lon="-2.31212">
        <ele>-35.799999237061</ele>
        <time>2022-02-06T10:17:52.000Z</time>
      </trkpt>
      <trkpt lat="47.32572" lon="-2.31218">
        <ele>-36.200000762939</ele>
        <time>2022-02-06T10:17:53.000Z</time>
      </trkpt>
      <trkpt lat="47.32573" lon="-2.31225">
        <ele>-36.799999237061</ele>
        <time>2022-02-06T10:17:54.000Z</time>
      </trkpt>
      <trkpt lat="47.32574" lon="-2.31231">
        <ele>-36.799999237061</ele>
        <time>2022-02-06T10:17:55.000Z</time>
      </trkpt>
      <trkpt lat="47.32573" lon="-2.31245">
        <ele>-36.799999237061</ele>
        <time>2022-02-06T10:17:57.000Z</time>
      </trkpt>
      <trkpt lat="47.32571" lon="-2.31274">
        <ele>-36.799999237061</ele>
        <time>2022-02-06T10:18:01.000Z</time>
      </trkpt>
      <trkpt lat="47.32569" lon="-2.31307">
        <ele>-36.799999237061</ele>
        <time>2022-02-06T10:18:06.000Z</time>
      </trkpt>
      <trkpt lat="47.32566" lon="-2.31319">
        <ele>-36.799999237061</ele>
        <time>2022-02-06T10:18:08.000Z</time>
      </trkpt>
      <trkpt lat="47.32561" lon="-2.31328">
        <ele>-36.799999237061</ele>
        <time>2022-02-06T10:18:10.000Z</time>
      </trkpt>
      <trkpt lat="47.32559" lon="-2.31334">
        <ele>-36.400001525879</ele>
        <time>2022-02-06T10:18:11.000Z</time>
      </trkpt>
      <trkpt lat="47.32558" lon="-2.3134">
        <ele>-35.799999237061</ele>
        <time>2022-02-06T10:18:12.000Z</time>
      </trkpt>
      <trkpt lat="47.32556" lon="-2.31346">
        <ele>-35.400001525879</ele>
        <time>2022-02-06T10:18:13.000Z</time>
      </trkpt>
      <trkpt lat="47.32556" lon="-2.31353">
        <ele>-35</ele>
        <time>2022-02-06T10:18:14.000Z</time>
      </trkpt>
      <trkpt lat="47.32556" lon="-2.3136">
        <ele>-34.599998474121</ele>
        <time>2022-02-06T10:18:15.000Z</time>
      </trkpt>
      <trkpt lat="47.32556" lon="-2.31366">
        <ele>-34.599998474121</ele>
        <time>2022-02-06T10:18:16.000Z</time>
      </trkpt>
      <trkpt lat="47.32556" lon="-2.31372">
        <ele>-34.599998474121</ele>
        <time>2022-02-06T10:18:17.000Z</time>
      </trkpt>
      <trkpt lat="47.32556" lon="-2.31393">
        <ele>-34.599998474121</ele>
        <time>2022-02-06T10:18:22.000Z</time>
      </trkpt>
      <trkpt lat="47.32552" lon="-2.31408">
        <ele>-34.599998474121</ele>
        <time>2022-02-06T10:18:27.000Z</time>
      </trkpt>
      <trkpt lat="47.32551" lon="-2.31412">
        <ele>-34.599998474121</ele>
        <time>2022-02-06T10:18:29.000Z</time>
      </trkpt>
      <trkpt lat="47.32553" lon="-2.31419">
        <ele>-34.599998474121</ele>
        <time>2022-02-06T10:18:32.000Z</time>
      </trkpt>
      <trkpt lat="47.32558" lon="-2.31445">
        <ele>-34.599998474121</ele>
        <time>2022-02-06T10:18:39.000Z</time>
      </trkpt>
      <trkpt lat="47.32561" lon="-2.31464">
        <ele>-34.599998474121</ele>
        <time>2022-02-06T10:18:42.000Z</time>
      </trkpt>
      <trkpt lat="47.32562" lon="-2.31479">
        <ele>-34.599998474121</ele>
        <time>2022-02-06T10:18:44.000Z</time>
      </trkpt>
      <trkpt lat="47.32561" lon="-2.31501">
        <ele>-34.599998474121</ele>
        <time>2022-02-06T10:18:47.000Z</time>
      </trkpt>
      <trkpt lat="47.32559" lon="-2.31524">
        <ele>-34.599998474121</ele>
        <time>2022-02-06T10:18:50.000Z</time>
      </trkpt>
      <trkpt lat="47.32558" lon="-2.31567">
        <ele>-34.599998474121</ele>
        <time>2022-02-06T10:18:56.000Z</time>
      </trkpt>
      <trkpt lat="47.32558" lon="-2.31581">
        <ele>-34.599998474121</ele>
        <time>2022-02-06T10:18:58.000Z</time>
      </trkpt>
      <trkpt lat="47.32553" lon="-2.31593">
        <ele>-34.599998474121</ele>
        <time>2022-02-06T10:19:00.000Z</time>
      </trkpt>
      <trkpt lat="47.32546" lon="-2.31602">
        <ele>-34.599998474121</ele>
        <time>2022-02-06T10:19:02.000Z</time>
      </trkpt>
      <trkpt lat="47.32536" lon="-2.31615">
        <ele>-34.599998474121</ele>
        <time>2022-02-06T10:19:05.000Z</time>
      </trkpt>
      <trkpt lat="47.3252" lon="-2.31637">
        <ele>-34.599998474121</ele>
        <time>2022-02-06T10:19:10.000Z</time>
      </trkpt>
      <trkpt lat="47.32517" lon="-2.31642">
        <ele>-34.599998474121</ele>
        <time>2022-02-06T10:19:11.000Z</time>
      </trkpt>
      <trkpt lat="47.32511" lon="-2.31651">
        <ele>-34.599998474121</ele>
        <time>2022-02-06T10:19:13.000Z</time>
      </trkpt>
      <trkpt lat="47.32508" lon="-2.31663">
        <ele>-34.599998474121</ele>
        <time>2022-02-06T10:19:15.000Z</time>
      </trkpt>
      <trkpt lat="47.32509" lon="-2.31686">
        <ele>-34.599998474121</ele>
        <time>2022-02-06T10:19:19.000Z</time>
      </trkpt>
      <trkpt lat="47.3251" lon="-2.31693">
        <ele>-34.599998474121</ele>
        <time>2022-02-06T10:19:20.000Z</time>
      </trkpt>
      <trkpt lat="47.32513" lon="-2.31729">
        <ele>-34.599998474121</ele>
        <time>2022-02-06T10:19:25.000Z</time>
      </trkpt>
      <trkpt lat="47.32517" lon="-2.31779">
        <ele>-34.599998474121</ele>
        <time>2022-02-06T10:19:31.000Z</time>
      </trkpt>
      <trkpt lat="47.32518" lon="-2.31802">
        <ele>-34.599998474121</ele>
        <time>2022-02-06T10:19:34.000Z</time>
      </trkpt>
      <trkpt lat="47.32521" lon="-2.31836">
        <ele>-34.599998474121</ele>
        <time>2022-02-06T10:19:38.000Z</time>
      </trkpt>
      <trkpt lat="47.32521" lon="-2.31854">
        <ele>-34.599998474121</ele>
        <time>2022-02-06T10:19:40.000Z</time>
      </trkpt>
      <trkpt lat="47.32518" lon="-2.3188">
        <ele>-34.599998474121</ele>
        <time>2022-02-06T10:19:43.000Z</time>
      </trkpt>
      <trkpt lat="47.32512" lon="-2.31931">
        <ele>-34.599998474121</ele>
        <time>2022-02-06T10:19:49.000Z</time>
      </trkpt>
      <trkpt lat="47.32505" lon="-2.31985">
        <ele>-34.599998474121</ele>
        <time>2022-02-06T10:19:56.000Z</time>
      </trkpt>
      <trkpt lat="47.32503" lon="-2.32029">
        <ele>-34.599998474121</ele>
        <time>2022-02-06T10:20:02.000Z</time>
      </trkpt>
      <trkpt lat="47.32501" lon="-2.32065">
        <ele>-34.599998474121</ele>
        <time>2022-02-06T10:20:07.000Z</time>
      </trkpt>
      <trkpt lat="47.32497" lon="-2.3209">
        <ele>-34.599998474121</ele>
        <time>2022-02-06T10:20:11.000Z</time>
      </trkpt>
      <trkpt lat="47.32491" lon="-2.32099">
        <ele>-34.599998474121</ele>
        <time>2022-02-06T10:20:13.000Z</time>
      </trkpt>
      <trkpt lat="47.32476" lon="-2.32102">
        <ele>-34.599998474121</ele>
        <time>2022-02-06T10:20:16.000Z</time>
      </trkpt>
      <trkpt lat="47.32442" lon="-2.32103">
        <ele>-34.599998474121</ele>
        <time>2022-02-06T10:20:22.000Z</time>
      </trkpt>
      <trkpt lat="47.32436" lon="-2.32103">
        <ele>-35.400001525879</ele>
        <time>2022-02-06T10:20:23.000Z</time>
      </trkpt>
      <trkpt lat="47.32431" lon="-2.32104">
        <ele>-35.799999237061</ele>
        <time>2022-02-06T10:20:24.000Z</time>
      </trkpt>
      <trkpt lat="47.32426" lon="-2.32104">
        <ele>-36.200000762939</ele>
        <time>2022-02-06T10:20:25.000Z</time>
      </trkpt>
      <trkpt lat="47.32421" lon="-2.32105">
        <ele>-36.599998474121</ele>
        <time>2022-02-06T10:20:26.000Z</time>
      </trkpt>
      <trkpt lat="47.32405" lon="-2.32107">
        <ele>-36.599998474121</ele>
        <time>2022-02-06T10:20:29.000Z</time>
      </trkpt>
      <trkpt lat="47.32374" lon="-2.32108">
        <ele>-36.599998474121</ele>
        <time>2022-02-06T10:20:36.000Z</time>
      </trkpt>
      <trkpt lat="47.32355" lon="-2.32108">
        <ele>-36.599998474121</ele>
        <time>2022-02-06T10:20:42.000Z</time>
      </trkpt>
      <trkpt lat="47.32338" lon="-2.32104">
        <ele>-36.599998474121</ele>
        <time>2022-02-06T10:20:47.000Z</time>
      </trkpt>
      <trkpt lat="47.32329" lon="-2.32103">
        <ele>-36.599998474121</ele>
        <time>2022-02-06T10:20:49.000Z</time>
      </trkpt>
      <trkpt lat="47.32313" lon="-2.32101">
        <ele>-36.599998474121</ele>
        <time>2022-02-06T10:20:53.000Z</time>
      </trkpt>
      <trkpt lat="47.32283" lon="-2.32101">
        <ele>-36.599998474121</ele>
        <time>2022-02-06T10:20:59.000Z</time>
      </trkpt>
      <trkpt lat="47.32244" lon="-2.32106">
        <ele>-36.599998474121</ele>
        <time>2022-02-06T10:21:06.000Z</time>
      </trkpt>
      <trkpt lat="47.3221" lon="-2.32116">
        <ele>-36.599998474121</ele>
        <time>2022-02-06T10:21:13.000Z</time>
      </trkpt>
      <trkpt lat="47.32194" lon="-2.32122">
        <ele>-36.599998474121</ele>
        <time>2022-02-06T10:21:17.000Z</time>
      </trkpt>
      <trkpt lat="47.32186" lon="-2.32127">
        <ele>-36.599998474121</ele>
        <time>2022-02-06T10:21:19.000Z</time>
      </trkpt>
      <trkpt lat="47.32157" lon="-2.32151">
        <ele>-36.599998474121</ele>
        <time>2022-02-06T10:21:25.000Z</time>
      </trkpt>
      <trkpt lat="47.32122" lon="-2.32176">
        <ele>-36.599998474121</ele>
        <time>2022-02-06T10:21:32.000Z</time>
      </trkpt>
      <trkpt lat="47.32089" lon="-2.32181">
        <ele>-36.599998474121</ele>
        <time>2022-02-06T10:21:38.000Z</time>
      </trkpt>
      <trkpt lat="47.32046" lon="-2.32187">
        <ele>-36.599998474121</ele>
        <time>2022-02-06T10:21:46.000Z</time>
      </trkpt>
      <trkpt lat="47.32021" lon="-2.32191">
        <ele>-36.599998474121</ele>
        <time>2022-02-06T10:21:51.000Z</time>
      </trkpt>
      <trkpt lat="47.32016" lon="-2.32194">
        <ele>-36.599998474121</ele>
        <time>2022-02-06T10:21:52.000Z</time>
      </trkpt>
      <trkpt lat="47.31994" lon="-2.32214">
        <ele>-36.599998474121</ele>
        <time>2022-02-06T10:21:57.000Z</time>
      </trkpt>
      <trkpt lat="47.31973" lon="-2.32235">
        <ele>-35</ele>
        <time>2022-02-06T10:22:02.000Z</time>
      </trkpt>
      <trkpt lat="47.3197" lon="-2.3224">
        <ele>-34.599998474121</ele>
        <time>2022-02-06T10:22:03.000Z</time>
      </trkpt>
      <trkpt lat="47.31965" lon="-2.32246">
        <ele>-34.599998474121</ele>
        <time>2022-02-06T10:22:05.000Z</time>
      </trkpt>
      <trkpt lat="47.31963" lon="-2.3225">
        <ele>-34.200000762939</ele>
        <time>2022-02-06T10:22:06.000Z</time>
      </trkpt>
      <trkpt lat="47.31961" lon="-2.32254">
        <ele>-33.599998474121</ele>
        <time>2022-02-06T10:22:07.000Z</time>
      </trkpt>
      <trkpt lat="47.31959" lon="-2.32258">
        <ele>-33.200000762939</ele>
        <time>2022-02-06T10:22:08.000Z</time>
      </trkpt>
      <trkpt lat="47.31957" lon="-2.32261">
        <ele>-32.799999237061</ele>
        <time>2022-02-06T10:22:09.000Z</time>
      </trkpt>
      <trkpt lat="47.31955" lon="-2.32264">
        <ele>-32.400001525879</ele>
        <time>2022-02-06T10:22:10.000Z</time>
      </trkpt>
      <trkpt lat="47.31952" lon="-2.32266">
        <ele>-32.400001525879</ele>
        <time>2022-02-06T10:22:11.000Z</time>
      </trkpt>
      <trkpt lat="47.31949" lon="-2.32261">
        <ele>-32</ele>
        <time>2022-02-06T10:22:13.000Z</time>
      </trkpt>
      <trkpt lat="47.3195" lon="-2.32258">
        <ele>-31.60000038147</ele>
        <time>2022-02-06T10:22:14.000Z</time>
      </trkpt>
      <trkpt lat="47.3195" lon="-2.32254">
        <ele>-31.200000762939</ele>
        <time>2022-02-06T10:22:15.000Z</time>
      </trkpt>
      <trkpt lat="47.31951" lon="-2.3225">
        <ele>-30.799999237061</ele>
        <time>2022-02-06T10:22:16.000Z</time>
      </trkpt>
      <trkpt lat="47.31952" lon="-2.32246">
        <ele>-30.39999961853</ele>
        <time>2022-02-06T10:22:17.000Z</time>
      </trkpt>
      <trkpt lat="47.31954" lon="-2.32237">
        <ele>-30.39999961853</ele>
        <time>2022-02-06T10:22:19.000Z</time>
      </trkpt>
      <trkpt lat="47.31958" lon="-2.32222">
        <ele>-30.39999961853</ele>
        <time>2022-02-06T10:22:22.000Z</time>
      </trkpt>
      <trkpt lat="47.31953" lon="-2.32216">
        <ele>-30.39999961853</ele>
        <time>2022-02-06T10:22:24.000Z</time>
      </trkpt>
      <trkpt lat="47.31946" lon="-2.32214">
        <ele>-29.39999961853</ele>
        <time>2022-02-06T10:22:26.000Z</time>
      </trkpt>
      <trkpt lat="47.31943" lon="-2.32213">
        <ele>-29</ele>
        <time>2022-02-06T10:22:27.000Z</time>
      </trkpt>
      <trkpt lat="47.3194" lon="-2.32213">
        <ele>-28.39999961853</ele>
        <time>2022-02-06T10:22:28.000Z</time>
      </trkpt>
      <trkpt lat="47.31937" lon="-2.32213">
        <ele>-28</ele>
        <time>2022-02-06T10:22:29.000Z</time>
      </trkpt>
      <trkpt lat="47.31923" lon="-2.32208">
        <ele>-27.60000038147</ele>
        <time>2022-02-06T10:22:34.000Z</time>
      </trkpt>
      <trkpt lat="47.31921" lon="-2.32208">
        <ele>-27.200000762939</ele>
        <time>2022-02-06T10:22:35.000Z</time>
      </trkpt>
      <trkpt lat="47.31919" lon="-2.32207">
        <ele>-26.60000038147</ele>
        <time>2022-02-06T10:22:36.000Z</time>
      </trkpt>
      <trkpt lat="47.31917" lon="-2.32206">
        <ele>-26.200000762939</ele>
        <time>2022-02-06T10:22:37.000Z</time>
      </trkpt>
      <trkpt lat="47.31914" lon="-2.32206">
        <ele>-25.799999237061</ele>
        <time>2022-02-06T10:22:38.000Z</time>
      </trkpt>
      <trkpt lat="47.31909" lon="-2.32205">
        <ele>-25.799999237061</ele>
        <time>2022-02-06T10:22:41.000Z</time>
      </trkpt>
      <trkpt lat="47.31902" lon="-2.32205">
        <ele>-25.39999961853</ele>
        <time>2022-02-06T10:22:44.000Z</time>
      </trkpt>
      <trkpt lat="47.319" lon="-2.32206">
        <ele>-25</ele>
        <time>2022-02-06T10:22:45.000Z</time>
      </trkpt>
      <trkpt lat="47.31898" lon="-2.32206">
        <ele>-24.60000038147</ele>
        <time>2022-02-06T10:22:47.000Z</time>
      </trkpt>
      <trkpt lat="47.31895" lon="-2.32207">
        <ele>-24.200000762939</ele>
        <time>2022-02-06T10:22:48.000Z</time>
      </trkpt>
      <trkpt lat="47.31893" lon="-2.32207">
        <ele>-23.799999237061</ele>
        <time>2022-02-06T10:22:49.000Z</time>
      </trkpt>
      <trkpt lat="47.31873" lon="-2.32211">
        <ele>-23.799999237061</ele>
        <time>2022-02-06T10:22:56.000Z</time>
      </trkpt>
      <trkpt lat="47.31866" lon="-2.32212">
        <ele>-23.39999961853</ele>
        <time>2022-02-06T10:22:59.000Z</time>
      </trkpt>
      <trkpt lat="47.31863" lon="-2.32212">
        <ele>-23</ele>
        <time>2022-02-06T10:23:00.000Z</time>
      </trkpt>
      <trkpt lat="47.31861" lon="-2.32213">
        <ele>-22.60000038147</ele>
        <time>2022-02-06T10:23:01.000Z</time>
      </trkpt>
      <trkpt lat="47.31858" lon="-2.32213">
        <ele>-22</ele>
        <time>2022-02-06T10:23:02.000Z</time>
      </trkpt>
      <trkpt lat="47.31856" lon="-2.32214">
        <ele>-21.60000038147</ele>
        <time>2022-02-06T10:23:03.000Z</time>
      </trkpt>
      <trkpt lat="47.31843" lon="-2.32219">
        <ele>-21.60000038147</ele>
        <time>2022-02-06T10:23:08.000Z</time>
      </trkpt>
      <trkpt lat="47.3184" lon="-2.32219">
        <ele>-21.200000762939</ele>
        <time>2022-02-06T10:23:09.000Z</time>
      </trkpt>
      <trkpt lat="47.31838" lon="-2.3222">
        <ele>-20.799999237061</ele>
        <time>2022-02-06T10:23:10.000Z</time>
      </trkpt>
      <trkpt lat="47.31835" lon="-2.3222">
        <ele>-20.39999961853</ele>
        <time>2022-02-06T10:23:11.000Z</time>
      </trkpt>
      <trkpt lat="47.31832" lon="-2.32221">
        <ele>-20</ele>
        <time>2022-02-06T10:23:12.000Z</time>
      </trkpt>
      <trkpt lat="47.3183" lon="-2.32221">
        <ele>-19.60000038147</ele>
        <time>2022-02-06T10:23:13.000Z</time>
      </trkpt>
      <trkpt lat="47.31825" lon="-2.32222">
        <ele>-19.60000038147</ele>
        <time>2022-02-06T10:23:15.000Z</time>
      </trkpt>
      <trkpt lat="47.31809" lon="-2.32224">
        <ele>-19.200000762939</ele>
        <time>2022-02-06T10:23:21.000Z</time>
      </trkpt>
      <trkpt lat="47.31806" lon="-2.32224">
        <ele>-18.799999237061</ele>
        <time>2022-02-06T10:23:22.000Z</time>
      </trkpt>
      <trkpt lat="47.31804" lon="-2.32224">
        <ele>-18.39999961853</ele>
        <time>2022-02-06T10:23:23.000Z</time>
      </trkpt>
      <trkpt lat="47.31801" lon="-2.32224">
        <ele>-17.799999237061</ele>
        <time>2022-02-06T10:23:24.000Z</time>
      </trkpt>
      <trkpt lat="47.31798" lon="-2.32225">
        <ele>-17.39999961853</ele>
        <time>2022-02-06T10:23:25.000Z</time>
      </trkpt>
      <trkpt lat="47.31787" lon="-2.32226">
        <ele>-17.39999961853</ele>
        <time>2022-02-06T10:23:29.000Z</time>
      </trkpt>
      <trkpt lat="47.31769" lon="-2.32231">
        <ele>-17.39999961853</ele>
        <time>2022-02-06T10:23:35.000Z</time>
      </trkpt>
      <trkpt lat="47.31754" lon="-2.32241">
        <ele>-17.39999961853</ele>
        <time>2022-02-06T10:23:41.000Z</time>
      </trkpt>
      <trkpt lat="47.31757" lon="-2.32261">
        <ele>-17.39999961853</ele>
        <time>2022-02-06T10:23:45.000Z</time>
      </trkpt>
      <trkpt lat="47.31764" lon="-2.32298">
        <ele>-17</ele>
        <time>2022-02-06T10:23:51.000Z</time>
      </trkpt>
      <trkpt lat="47.31765" lon="-2.32304">
        <ele>-16.60000038147</ele>
        <time>2022-02-06T10:23:52.000Z</time>
      </trkpt>
      <trkpt lat="47.31766" lon="-2.32311">
        <ele>-16.200000762939</ele>
        <time>2022-02-06T10:23:53.000Z</time>
      </trkpt>
      <trkpt lat="47.31768" lon="-2.32318">
        <ele>-15.800000190735</ele>
        <time>2022-02-06T10:23:54.000Z</time>
      </trkpt>
      <trkpt lat="47.31769" lon="-2.32324">
        <ele>-15.39999961853</ele>
        <time>2022-02-06T10:23:55.000Z</time>
      </trkpt>
      <trkpt lat="47.31774" lon="-2.32352">
        <ele>-15.39999961853</ele>
        <time>2022-02-06T10:23:59.000Z</time>
      </trkpt>
      <trkpt lat="47.31781" lon="-2.32389">
        <ele>-15.800000190735</ele>
        <time>2022-02-06T10:24:04.000Z</time>
      </trkpt>
      <trkpt lat="47.31783" lon="-2.32397">
        <ele>-16.200000762939</ele>
        <time>2022-02-06T10:24:05.000Z</time>
      </trkpt>
      <trkpt lat="47.31784" lon="-2.32405">
        <ele>-17</ele>
        <time>2022-02-06T10:24:06.000Z</time>
      </trkpt>
      <trkpt lat="47.31785" lon="-2.32413">
        <ele>-17.39999961853</ele>
        <time>2022-02-06T10:24:07.000Z</time>
      </trkpt>
      <trkpt lat="47.3179" lon="-2.32448">
        <ele>-17.39999961853</ele>
        <time>2022-02-06T10:24:11.000Z</time>
      </trkpt>
      <trkpt lat="47.31791" lon="-2.32456">
        <ele>-17.799999237061</ele>
        <time>2022-02-06T10:24:12.000Z</time>
      </trkpt>
      <trkpt lat="47.31793" lon="-2.32464">
        <ele>-18.200000762939</ele>
        <time>2022-02-06T10:24:13.000Z</time>
      </trkpt>
      <trkpt lat="47.31794" lon="-2.32472">
        <ele>-18.799999237061</ele>
        <time>2022-02-06T10:24:14.000Z</time>
      </trkpt>
      <trkpt lat="47.31796" lon="-2.32481">
        <ele>-19.200000762939</ele>
        <time>2022-02-06T10:24:15.000Z</time>
      </trkpt>
      <trkpt lat="47.31799" lon="-2.3249">
        <ele>-19.60000038147</ele>
        <time>2022-02-06T10:24:16.000Z</time>
      </trkpt>
      <trkpt lat="47.31802" lon="-2.325">
        <ele>-20</ele>
        <time>2022-02-06T10:24:17.000Z</time>
      </trkpt>
      <trkpt lat="47.31805" lon="-2.32509">
        <ele>-20.39999961853</ele>
        <time>2022-02-06T10:24:18.000Z</time>
      </trkpt>
      <trkpt lat="47.31807" lon="-2.32518">
        <ele>-21</ele>
        <time>2022-02-06T10:24:19.000Z</time>
      </trkpt>
      <trkpt lat="47.31808" lon="-2.32527">
        <ele>-21.39999961853</ele>
        <time>2022-02-06T10:24:20.000Z</time>
      </trkpt>
      <trkpt lat="47.3181" lon="-2.32537">
        <ele>-21.799999237061</ele>
        <time>2022-02-06T10:24:21.000Z</time>
      </trkpt>
      <trkpt lat="47.31812" lon="-2.32546">
        <ele>-21.799999237061</ele>
        <time>2022-02-06T10:24:22.000Z</time>
      </trkpt>
      <trkpt lat="47.31818" lon="-2.32572">
        <ele>-22.200000762939</ele>
        <time>2022-02-06T10:24:25.000Z</time>
      </trkpt>
      <trkpt lat="47.3182" lon="-2.32579">
        <ele>-22.60000038147</ele>
        <time>2022-02-06T10:24:26.000Z</time>
      </trkpt>
      <trkpt lat="47.31822" lon="-2.32586">
        <ele>-23</ele>
        <time>2022-02-06T10:24:27.000Z</time>
      </trkpt>
      <trkpt lat="47.31824" lon="-2.32593">
        <ele>-23.39999961853</ele>
        <time>2022-02-06T10:24:28.000Z</time>
      </trkpt>
      <trkpt lat="47.31826" lon="-2.326">
        <ele>-23.799999237061</ele>
        <time>2022-02-06T10:24:29.000Z</time>
      </trkpt>
      <trkpt lat="47.31829" lon="-2.32612">
        <ele>-24.200000762939</ele>
        <time>2022-02-06T10:24:31.000Z</time>
      </trkpt>
      <trkpt lat="47.3183" lon="-2.32618">
        <ele>-24.60000038147</ele>
        <time>2022-02-06T10:24:32.000Z</time>
      </trkpt>
      <trkpt lat="47.31831" lon="-2.32624">
        <ele>-25</ele>
        <time>2022-02-06T10:24:33.000Z</time>
      </trkpt>
      <trkpt lat="47.31832" lon="-2.3263">
        <ele>-25.39999961853</ele>
        <time>2022-02-06T10:24:34.000Z</time>
      </trkpt>
      <trkpt lat="47.31832" lon="-2.32636">
        <ele>-26</ele>
        <time>2022-02-06T10:24:35.000Z</time>
      </trkpt>
      <trkpt lat="47.31835" lon="-2.3265">
        <ele>-26</ele>
        <time>2022-02-06T10:24:37.000Z</time>
      </trkpt>
      <trkpt lat="47.31841" lon="-2.32663">
        <ele>-26</ele>
        <time>2022-02-06T10:24:39.000Z</time>
      </trkpt>
      <trkpt lat="47.31861" lon="-2.32712">
        <ele>-26</ele>
        <time>2022-02-06T10:24:46.000Z</time>
      </trkpt>
      <trkpt lat="47.31864" lon="-2.32719">
        <ele>-26.39999961853</ele>
        <time>2022-02-06T10:24:47.000Z</time>
      </trkpt>
      <trkpt lat="47.31866" lon="-2.32726">
        <ele>-26.799999237061</ele>
        <time>2022-02-06T10:24:48.000Z</time>
      </trkpt>
      <trkpt lat="47.31868" lon="-2.32733">
        <ele>-27.200000762939</ele>
        <time>2022-02-06T10:24:49.000Z</time>
      </trkpt>
      <trkpt lat="47.31871" lon="-2.3274">
        <ele>-27.60000038147</ele>
        <time>2022-02-06T10:24:50.000Z</time>
      </trkpt>
      <trkpt lat="47.31873" lon="-2.32747">
        <ele>-28</ele>
        <time>2022-02-06T10:24:51.000Z</time>
      </trkpt>
      <trkpt lat="47.31875" lon="-2.32755">
        <ele>-28</ele>
        <time>2022-02-06T10:24:52.000Z</time>
      </trkpt>
      <trkpt lat="47.31878" lon="-2.32771">
        <ele>-28</ele>
        <time>2022-02-06T10:24:54.000Z</time>
      </trkpt>
      <trkpt lat="47.31881" lon="-2.32797">
        <ele>-28</ele>
        <time>2022-02-06T10:24:57.000Z</time>
      </trkpt>
      <trkpt lat="47.31883" lon="-2.32851">
        <ele>-28</ele>
        <time>2022-02-06T10:25:03.000Z</time>
      </trkpt>
      <trkpt lat="47.31881" lon="-2.32899">
        <ele>-28</ele>
        <time>2022-02-06T10:25:09.000Z</time>
      </trkpt>
      <trkpt lat="47.31882" lon="-2.32932">
        <ele>-28</ele>
        <time>2022-02-06T10:25:14.000Z</time>
      </trkpt>
      <trkpt lat="47.31882" lon="-2.32947">
        <ele>-28</ele>
        <time>2022-02-06T10:25:16.000Z</time>
      </trkpt>
      <trkpt lat="47.3188" lon="-2.32965">
        <ele>-28.60000038147</ele>
        <time>2022-02-06T10:25:18.000Z</time>
      </trkpt>
      <trkpt lat="47.31879" lon="-2.32972">
        <ele>-29</ele>
        <time>2022-02-06T10:25:19.000Z</time>
      </trkpt>
      <trkpt lat="47.31878" lon="-2.3298">
        <ele>-29.799999237061</ele>
        <time>2022-02-06T10:25:20.000Z</time>
      </trkpt>
      <trkpt lat="47.31878" lon="-2.32989">
        <ele>-30.200000762939</ele>
        <time>2022-02-06T10:25:21.000Z</time>
      </trkpt>
      <trkpt lat="47.31879" lon="-2.33006">
        <ele>-30.200000762939</ele>
        <time>2022-02-06T10:25:23.000Z</time>
      </trkpt>
      <trkpt lat="47.31879" lon="-2.33015">
        <ele>-30.200000762939</ele>
        <time>2022-02-06T10:25:24.000Z</time>
      </trkpt>
      <trkpt lat="47.3188" lon="-2.33032">
        <ele>-30.200000762939</ele>
        <time>2022-02-06T10:25:26.000Z</time>
      </trkpt>
      <trkpt lat="47.31879" lon="-2.33056">
        <ele>-30.200000762939</ele>
        <time>2022-02-06T10:25:29.000Z</time>
      </trkpt>
      <trkpt lat="47.31878" lon="-2.33092">
        <ele>-30.200000762939</ele>
        <time>2022-02-06T10:25:34.000Z</time>
      </trkpt>
      <trkpt lat="47.31876" lon="-2.33129">
        <ele>-30.200000762939</ele>
        <time>2022-02-06T10:25:40.000Z</time>
      </trkpt>
      <trkpt lat="47.31872" lon="-2.33153">
        <ele>-29.799999237061</ele>
        <time>2022-02-06T10:25:45.000Z</time>
      </trkpt>
      <trkpt lat="47.31871" lon="-2.33158">
        <ele>-29.39999961853</ele>
        <time>2022-02-06T10:25:46.000Z</time>
      </trkpt>
      <trkpt lat="47.31871" lon="-2.33165">
        <ele>-29</ele>
        <time>2022-02-06T10:25:47.000Z</time>
      </trkpt>
      <trkpt lat="47.31871" lon="-2.33169">
        <ele>-28.60000038147</ele>
        <time>2022-02-06T10:25:48.000Z</time>
      </trkpt>
      <trkpt lat="47.31872" lon="-2.33173">
        <ele>-28.200000762939</ele>
        <time>2022-02-06T10:25:49.000Z</time>
      </trkpt>
      <trkpt lat="47.31872" lon="-2.33198">
        <ele>-28.200000762939</ele>
        <time>2022-02-06T10:25:54.000Z</time>
      </trkpt>
      <trkpt lat="47.31869" lon="-2.33227">
        <ele>-28.200000762939</ele>
        <time>2022-02-06T10:25:59.000Z</time>
      </trkpt>
      <trkpt lat="47.31862" lon="-2.33249">
        <ele>-27.799999237061</ele>
        <time>2022-02-06T10:26:03.000Z</time>
      </trkpt>
      <trkpt lat="47.3186" lon="-2.33254">
        <ele>-27.39999961853</ele>
        <time>2022-02-06T10:26:04.000Z</time>
      </trkpt>
      <trkpt lat="47.31857" lon="-2.33258">
        <ele>-27</ele>
        <time>2022-02-06T10:26:05.000Z</time>
      </trkpt>
      <trkpt lat="47.31855" lon="-2.33262">
        <ele>-26.60000038147</ele>
        <time>2022-02-06T10:26:06.000Z</time>
      </trkpt>
      <trkpt lat="47.31853" lon="-2.33267">
        <ele>-26.200000762939</ele>
        <time>2022-02-06T10:26:07.000Z</time>
      </trkpt>
      <trkpt lat="47.31845" lon="-2.33278">
        <ele>-26.200000762939</ele>
        <time>2022-02-06T10:26:10.000Z</time>
      </trkpt>
      <trkpt lat="47.3183" lon="-2.33292">
        <ele>-26.200000762939</ele>
        <time>2022-02-06T10:26:16.000Z</time>
      </trkpt>
      <trkpt lat="47.31827" lon="-2.33296">
        <ele>-25.799999237061</ele>
        <time>2022-02-06T10:26:18.000Z</time>
      </trkpt>
      <trkpt lat="47.31824" lon="-2.33299">
        <ele>-25.39999961853</ele>
        <time>2022-02-06T10:26:19.000Z</time>
      </trkpt>
      <trkpt lat="47.31822" lon="-2.33301">
        <ele>-25</ele>
        <time>2022-02-06T10:26:20.000Z</time>
      </trkpt>
      <trkpt lat="47.31819" lon="-2.33302">
        <ele>-24.39999961853</ele>
        <time>2022-02-06T10:26:21.000Z</time>
      </trkpt>
      <trkpt lat="47.31816" lon="-2.33305">
        <ele>-24</ele>
        <time>2022-02-06T10:26:22.000Z</time>
      </trkpt>
      <trkpt lat="47.31805" lon="-2.33315">
        <ele>-23.60000038147</ele>
        <time>2022-02-06T10:26:26.000Z</time>
      </trkpt>
      <trkpt lat="47.31802" lon="-2.33317">
        <ele>-23.200000762939</ele>
        <time>2022-02-06T10:26:27.000Z</time>
      </trkpt>
      <trkpt lat="47.31798" lon="-2.33319">
        <ele>-22.60000038147</ele>
        <time>2022-02-06T10:26:28.000Z</time>
      </trkpt>
      <trkpt lat="47.31796" lon="-2.33321">
        <ele>-22.200000762939</ele>
        <time>2022-02-06T10:26:29.000Z</time>
      </trkpt>
      <trkpt lat="47.31791" lon="-2.33324">
        <ele>-21.799999237061</ele>
        <time>2022-02-06T10:26:30.000Z</time>
      </trkpt>
      <trkpt lat="47.31784" lon="-2.33327">
        <ele>-21.799999237061</ele>
        <time>2022-02-06T10:26:32.000Z</time>
      </trkpt>
      <trkpt lat="47.3178" lon="-2.33327">
        <ele>-21.799999237061</ele>
        <time>2022-02-06T10:26:33.000Z</time>
      </trkpt>
      <trkpt lat="47.3177" lon="-2.33323">
        <ele>-21.39999961853</ele>
        <time>2022-02-06T10:26:36.000Z</time>
      </trkpt>
      <trkpt lat="47.31767" lon="-2.3332">
        <ele>-20.799999237061</ele>
        <time>2022-02-06T10:26:37.000Z</time>
      </trkpt>
      <trkpt lat="47.31765" lon="-2.33318">
        <ele>-20.39999961853</ele>
        <time>2022-02-06T10:26:38.000Z</time>
      </trkpt>
      <trkpt lat="47.31763" lon="-2.33316">
        <ele>-20</ele>
        <time>2022-02-06T10:26:39.000Z</time>
      </trkpt>
      <trkpt lat="47.31761" lon="-2.33314">
        <ele>-19.60000038147</ele>
        <time>2022-02-06T10:26:40.000Z</time>
      </trkpt>
      <trkpt lat="47.31756" lon="-2.33302">
        <ele>-19.60000038147</ele>
        <time>2022-02-06T10:26:44.000Z</time>
      </trkpt>
      <trkpt lat="47.3175" lon="-2.33276">
        <ele>-19.60000038147</ele>
        <time>2022-02-06T10:26:50.000Z</time>
      </trkpt>
      <trkpt lat="47.31746" lon="-2.33252">
        <ele>-19.60000038147</ele>
        <time>2022-02-06T10:26:55.000Z</time>
      </trkpt>
      <trkpt lat="47.31741" lon="-2.33248">
        <ele>-19.200000762939</ele>
        <time>2022-02-06T10:26:57.000Z</time>
      </trkpt>
      <trkpt lat="47.31739" lon="-2.33249">
        <ele>-18.799999237061</ele>
        <time>2022-02-06T10:26:58.000Z</time>
      </trkpt>
      <trkpt lat="47.31736" lon="-2.3325">
        <ele>-18</ele>
        <time>2022-02-06T10:26:59.000Z</time>
      </trkpt>
      <trkpt lat="47.31733" lon="-2.33251">
        <ele>-17.60000038147</ele>
        <time>2022-02-06T10:27:00.000Z</time>
      </trkpt>
      <trkpt lat="47.31712" lon="-2.33257">
        <ele>-17.60000038147</ele>
        <time>2022-02-06T10:27:07.000Z</time>
      </trkpt>
      <trkpt lat="47.31703" lon="-2.33261">
        <ele>-17.200000762939</ele>
        <time>2022-02-06T10:27:11.000Z</time>
      </trkpt>
      <trkpt lat="47.317" lon="-2.33263">
        <ele>-16.60000038147</ele>
        <time>2022-02-06T10:27:12.000Z</time>
      </trkpt>
      <trkpt lat="47.31697" lon="-2.33264">
        <ele>-16.200000762939</ele>
        <time>2022-02-06T10:27:13.000Z</time>
      </trkpt>
      <trkpt lat="47.31694" lon="-2.33265">
        <ele>-15.800000190735</ele>
        <time>2022-02-06T10:27:14.000Z</time>
      </trkpt>
      <trkpt lat="47.31692" lon="-2.33266">
        <ele>-15.39999961853</ele>
        <time>2022-02-06T10:27:15.000Z</time>
      </trkpt>
      <trkpt lat="47.31673" lon="-2.33274">
        <ele>-15.39999961853</ele>
        <time>2022-02-06T10:27:21.000Z</time>
      </trkpt>
      <trkpt lat="47.31645" lon="-2.3329">
        <ele>-15.39999961853</ele>
        <time>2022-02-06T10:27:29.000Z</time>
      </trkpt>
      <trkpt lat="47.31632" lon="-2.33298">
        <ele>-15</ele>
        <time>2022-02-06T10:27:33.000Z</time>
      </trkpt>
      <trkpt lat="47.31629" lon="-2.333">
        <ele>-14.60000038147</ele>
        <time>2022-02-06T10:27:34.000Z</time>
      </trkpt>
      <trkpt lat="47.31625" lon="-2.33301">
        <ele>-14.199999809265</ele>
        <time>2022-02-06T10:27:35.000Z</time>
      </trkpt>
      <trkpt lat="47.31621" lon="-2.33303">
        <ele>-13.800000190735</ele>
        <time>2022-02-06T10:27:36.000Z</time>
      </trkpt>
      <trkpt lat="47.31618" lon="-2.33305">
        <ele>-13.39999961853</ele>
        <time>2022-02-06T10:27:37.000Z</time>
      </trkpt>
      <trkpt lat="47.31609" lon="-2.33309">
        <ele>-13.39999961853</ele>
        <time>2022-02-06T10:27:39.000Z</time>
      </trkpt>
      <trkpt lat="47.3158" lon="-2.33324">
        <ele>-13.39999961853</ele>
        <time>2022-02-06T10:27:46.000Z</time>
      </trkpt>
      <trkpt lat="47.31546" lon="-2.33339">
        <ele>-13.39999961853</ele>
        <time>2022-02-06T10:27:54.000Z</time>
      </trkpt>
      <trkpt lat="47.31515" lon="-2.33356">
        <ele>-13.39999961853</ele>
        <time>2022-02-06T10:28:01.000Z</time>
      </trkpt>
      <trkpt lat="47.31488" lon="-2.33371">
        <ele>-13.39999961853</ele>
        <time>2022-02-06T10:28:08.000Z</time>
      </trkpt>
      <trkpt lat="47.31482" lon="-2.3337">
        <ele>-13.39999961853</ele>
        <time>2022-02-06T10:28:10.000Z</time>
      </trkpt>
      <trkpt lat="47.31477" lon="-2.33361">
        <ele>-13.39999961853</ele>
        <time>2022-02-06T10:28:12.000Z</time>
      </trkpt>
      <trkpt lat="47.31471" lon="-2.33349">
        <ele>-13.39999961853</ele>
        <time>2022-02-06T10:28:15.000Z</time>
      </trkpt>
      <trkpt lat="47.31464" lon="-2.33334">
        <ele>-13.39999961853</ele>
        <time>2022-02-06T10:28:18.000Z</time>
      </trkpt>
      <trkpt lat="47.31447" lon="-2.33303">
        <ele>-13.39999961853</ele>
        <time>2022-02-06T10:28:24.000Z</time>
      </trkpt>
      <trkpt lat="47.31432" lon="-2.33282">
        <ele>-13.39999961853</ele>
        <time>2022-02-06T10:28:28.000Z</time>
      </trkpt>
      <trkpt lat="47.31423" lon="-2.33273">
        <ele>-13.39999961853</ele>
        <time>2022-02-06T10:28:30.000Z</time>
      </trkpt>
      <trkpt lat="47.31394" lon="-2.33248">
        <ele>-13.39999961853</ele>
        <time>2022-02-06T10:28:36.000Z</time>
      </trkpt>
      <trkpt lat="47.31389" lon="-2.33245">
        <ele>-13.39999961853</ele>
        <time>2022-02-06T10:28:37.000Z</time>
      </trkpt>
      <trkpt lat="47.31369" lon="-2.33231">
        <ele>-13.39999961853</ele>
        <time>2022-02-06T10:28:41.000Z</time>
      </trkpt>
      <trkpt lat="47.31345" lon="-2.33214">
        <ele>-13.39999961853</ele>
        <time>2022-02-06T10:28:46.000Z</time>
      </trkpt>
      <trkpt lat="47.31341" lon="-2.3321">
        <ele>-13.800000190735</ele>
        <time>2022-02-06T10:28:47.000Z</time>
      </trkpt>
      <trkpt lat="47.31336" lon="-2.33207">
        <ele>-14.199999809265</ele>
        <time>2022-02-06T10:28:48.000Z</time>
      </trkpt>
      <trkpt lat="47.31331" lon="-2.33202">
        <ele>-14.60000038147</ele>
        <time>2022-02-06T10:28:49.000Z</time>
      </trkpt>
      <trkpt lat="47.31327" lon="-2.33198">
        <ele>-15</ele>
        <time>2022-02-06T10:28:50.000Z</time>
      </trkpt>
      <trkpt lat="47.31322" lon="-2.33193">
        <ele>-15.39999961853</ele>
        <time>2022-02-06T10:28:51.000Z</time>
      </trkpt>
      <trkpt lat="47.31303" lon="-2.33177">
        <ele>-15.39999961853</ele>
        <time>2022-02-06T10:28:55.000Z</time>
      </trkpt>
      <trkpt lat="47.31271" lon="-2.33158">
        <ele>-15.39999961853</ele>
        <time>2022-02-06T10:29:01.000Z</time>
      </trkpt>
      <trkpt lat="47.31245" lon="-2.3315">
        <ele>-15.39999961853</ele>
        <time>2022-02-06T10:29:07.000Z</time>
      </trkpt>
      <trkpt lat="47.31231" lon="-2.33144">
        <ele>-15.39999961853</ele>
        <time>2022-02-06T10:29:12.000Z</time>
      </trkpt>
      <trkpt lat="47.31231" lon="-2.33143">
        <ele>-15.39999961853</ele>
        <time>2022-02-06T10:29:13.000Z</time>
      </trkpt>
      <trkpt lat="47.3123" lon="-2.33142">
        <ele>-15.39999961853</ele>
        <time>2022-02-06T10:29:16.000Z</time>
      </trkpt>
      <trkpt lat="47.31231" lon="-2.33137">
        <ele>-15.39999961853</ele>
        <time>2022-02-06T10:31:20.000Z</time>
      </trkpt>
      <trkpt lat="47.31232" lon="-2.33131">
        <ele>-15.39999961853</ele>
        <time>2022-02-06T10:31:23.000Z</time>
      </trkpt>
      <trkpt lat="47.31235" lon="-2.33119">
        <ele>-15.39999961853</ele>
        <time>2022-02-06T10:31:27.000Z</time>
      </trkpt>
      <trkpt lat="47.31237" lon="-2.33115">
        <ele>-15.39999961853</ele>
        <time>2022-02-06T10:31:28.000Z</time>
      </trkpt>
      <trkpt lat="47.31247" lon="-2.33095">
        <ele>-15.39999961853</ele>
        <time>2022-02-06T10:31:35.000Z</time>
      </trkpt>
      <trkpt lat="47.31252" lon="-2.33084">
        <ele>-15.39999961853</ele>
        <time>2022-02-06T10:31:41.000Z</time>
      </trkpt>
      <trkpt lat="47.31253" lon="-2.33082">
        <ele>-15.39999961853</ele>
        <time>2022-02-06T10:31:43.000Z</time>
      </trkpt>
      <trkpt lat="47.31258" lon="-2.33075">
        <ele>-15.39999961853</ele>
        <time>2022-02-06T10:31:48.000Z</time>
      </trkpt>
      <trkpt lat="47.3126" lon="-2.33071">
        <ele>-15.39999961853</ele>
        <time>2022-02-06T10:31:50.000Z</time>
      </trkpt>
      <trkpt lat="47.31271" lon="-2.33053">
        <ele>-15.39999961853</ele>
        <time>2022-02-06T10:31:57.000Z</time>
      </trkpt>
      <trkpt lat="47.31286" lon="-2.33027">
        <ele>-15.39999961853</ele>
        <time>2022-02-06T10:32:02.000Z</time>
      </trkpt>
      <trkpt lat="47.3131" lon="-2.32985">
        <ele>-15.39999961853</ele>
        <time>2022-02-06T10:32:08.000Z</time>
      </trkpt>
      <trkpt lat="47.31334" lon="-2.32941">
        <ele>-15.800000190735</ele>
        <time>2022-02-06T10:32:14.000Z</time>
      </trkpt>
      <trkpt lat="47.31337" lon="-2.32934">
        <ele>-16.39999961853</ele>
        <time>2022-02-06T10:32:15.000Z</time>
      </trkpt>
      <trkpt lat="47.31341" lon="-2.32927">
        <ele>-16.799999237061</ele>
        <time>2022-02-06T10:32:16.000Z</time>
      </trkpt>
      <trkpt lat="47.31345" lon="-2.3292">
        <ele>-17.200000762939</ele>
        <time>2022-02-06T10:32:17.000Z</time>
      </trkpt>
      <trkpt lat="47.31349" lon="-2.32914">
        <ele>-17.60000038147</ele>
        <time>2022-02-06T10:32:18.000Z</time>
      </trkpt>
      <trkpt lat="47.31352" lon="-2.32907">
        <ele>-17.60000038147</ele>
        <time>2022-02-06T10:32:19.000Z</time>
      </trkpt>
      <trkpt lat="47.31354" lon="-2.32893">
        <ele>-17.60000038147</ele>
        <time>2022-02-06T10:32:21.000Z</time>
      </trkpt>
      <trkpt lat="47.31342" lon="-2.32878">
        <ele>-17.60000038147</ele>
        <time>2022-02-06T10:32:24.000Z</time>
      </trkpt>
      <trkpt lat="47.31311" lon="-2.32835">
        <ele>-17.60000038147</ele>
        <time>2022-02-06T10:32:31.000Z</time>
      </trkpt>
      <trkpt lat="47.31292" lon="-2.32804">
        <ele>-17.60000038147</ele>
        <time>2022-02-06T10:32:36.000Z</time>
      </trkpt>
      <trkpt lat="47.31288" lon="-2.32797">
        <ele>-17.60000038147</ele>
        <time>2022-02-06T10:32:37.000Z</time>
      </trkpt>
      <trkpt lat="47.31278" lon="-2.32779">
        <ele>-17.60000038147</ele>
        <time>2022-02-06T10:32:40.000Z</time>
      </trkpt>
      <trkpt lat="47.31273" lon="-2.32775">
        <ele>-17.60000038147</ele>
        <time>2022-02-06T10:32:41.000Z</time>
      </trkpt>
      <trkpt lat="47.3125" lon="-2.3276">
        <ele>-17.60000038147</ele>
        <time>2022-02-06T10:32:46.000Z</time>
      </trkpt>
      <trkpt lat="47.31246" lon="-2.32757">
        <ele>-17.60000038147</ele>
        <time>2022-02-06T10:32:47.000Z</time>
      </trkpt>
      <trkpt lat="47.31237" lon="-2.32751">
        <ele>-17.60000038147</ele>
        <time>2022-02-06T10:32:49.000Z</time>
      </trkpt>
      <trkpt lat="47.31215" lon="-2.32736">
        <ele>-17.60000038147</ele>
        <time>2022-02-06T10:32:54.000Z</time>
      </trkpt>
      <trkpt lat="47.31211" lon="-2.32731">
        <ele>-17.60000038147</ele>
        <time>2022-02-06T10:32:55.000Z</time>
      </trkpt>
      <trkpt lat="47.31208" lon="-2.32716">
        <ele>-17.60000038147</ele>
        <time>2022-02-06T10:32:57.000Z</time>
      </trkpt>
      <trkpt lat="47.31203" lon="-2.32699">
        <ele>-17.60000038147</ele>
        <time>2022-02-06T10:32:59.000Z</time>
      </trkpt>
      <trkpt lat="47.31192" lon="-2.32668">
        <ele>-17.60000038147</ele>
        <time>2022-02-06T10:33:03.000Z</time>
      </trkpt>
      <trkpt lat="47.31179" lon="-2.32631">
        <ele>-17.60000038147</ele>
        <time>2022-02-06T10:33:08.000Z</time>
      </trkpt>
      <trkpt lat="47.31178" lon="-2.32614">
        <ele>-17.60000038147</ele>
        <time>2022-02-06T10:33:10.000Z</time>
      </trkpt>
      <trkpt lat="47.31177" lon="-2.32597">
        <ele>-17.60000038147</ele>
        <time>2022-02-06T10:33:12.000Z</time>
      </trkpt>
      <trkpt lat="47.31177" lon="-2.32561">
        <ele>-17.60000038147</ele>
        <time>2022-02-06T10:33:16.000Z</time>
      </trkpt>
      <trkpt lat="47.3118" lon="-2.32484">
        <ele>-17.60000038147</ele>
        <time>2022-02-06T10:33:25.000Z</time>
      </trkpt>
      <trkpt lat="47.31182" lon="-2.32447">
        <ele>-17.60000038147</ele>
        <time>2022-02-06T10:33:30.000Z</time>
      </trkpt>
      <trkpt lat="47.31179" lon="-2.32433">
        <ele>-17.60000038147</ele>
        <time>2022-02-06T10:33:32.000Z</time>
      </trkpt>
      <trkpt lat="47.31166" lon="-2.32425">
        <ele>-18</ele>
        <time>2022-02-06T10:33:35.000Z</time>
      </trkpt>
      <trkpt lat="47.31161" lon="-2.32424">
        <ele>-18.39999961853</ele>
        <time>2022-02-06T10:33:36.000Z</time>
      </trkpt>
      <trkpt lat="47.31156" lon="-2.32423">
        <ele>-18.799999237061</ele>
        <time>2022-02-06T10:33:37.000Z</time>
      </trkpt>
      <trkpt lat="47.31152" lon="-2.32421">
        <ele>-19.200000762939</ele>
        <time>2022-02-06T10:33:38.000Z</time>
      </trkpt>
      <trkpt lat="47.3115" lon="-2.32417">
        <ele>-19.60000038147</ele>
        <time>2022-02-06T10:33:39.000Z</time>
      </trkpt>
      <trkpt lat="47.3115" lon="-2.32399">
        <ele>-19.60000038147</ele>
        <time>2022-02-06T10:33:42.000Z</time>
      </trkpt>
      <trkpt lat="47.31148" lon="-2.32361">
        <ele>-19.60000038147</ele>
        <time>2022-02-06T10:33:47.000Z</time>
      </trkpt>
      <trkpt lat="47.31139" lon="-2.32316">
        <ele>-19.60000038147</ele>
        <time>2022-02-06T10:33:52.000Z</time>
      </trkpt>
      <trkpt lat="47.31133" lon="-2.32299">
        <ele>-20</ele>
        <time>2022-02-06T10:33:54.000Z</time>
      </trkpt>
      <trkpt lat="47.3113" lon="-2.32291">
        <ele>-20.39999961853</ele>
        <time>2022-02-06T10:33:55.000Z</time>
      </trkpt>
      <trkpt lat="47.31127" lon="-2.32283">
        <ele>-20.799999237061</ele>
        <time>2022-02-06T10:33:56.000Z</time>
      </trkpt>
      <trkpt lat="47.31124" lon="-2.32276">
        <ele>-21.200000762939</ele>
        <time>2022-02-06T10:33:57.000Z</time>
      </trkpt>
      <trkpt lat="47.3112" lon="-2.32269">
        <ele>-21.60000038147</ele>
        <time>2022-02-06T10:33:58.000Z</time>
      </trkpt>
      <trkpt lat="47.31108" lon="-2.32242">
        <ele>-22.200000762939</ele>
        <time>2022-02-06T10:34:02.000Z</time>
      </trkpt>
      <trkpt lat="47.31106" lon="-2.32235">
        <ele>-22.60000038147</ele>
        <time>2022-02-06T10:34:03.000Z</time>
      </trkpt>
      <trkpt lat="47.31103" lon="-2.32228">
        <ele>-23</ele>
        <time>2022-02-06T10:34:04.000Z</time>
      </trkpt>
      <trkpt lat="47.31101" lon="-2.32221">
        <ele>-23.39999961853</ele>
        <time>2022-02-06T10:34:05.000Z</time>
      </trkpt>
      <trkpt lat="47.31098" lon="-2.32214">
        <ele>-23.799999237061</ele>
        <time>2022-02-06T10:34:06.000Z</time>
      </trkpt>
      <trkpt lat="47.31095" lon="-2.32204">
        <ele>-24.200000762939</ele>
        <time>2022-02-06T10:34:08.000Z</time>
      </trkpt>
      <trkpt lat="47.31093" lon="-2.322">
        <ele>-24.60000038147</ele>
        <time>2022-02-06T10:34:09.000Z</time>
      </trkpt>
      <trkpt lat="47.31091" lon="-2.32197">
        <ele>-25</ele>
        <time>2022-02-06T10:34:10.000Z</time>
      </trkpt>
      <trkpt lat="47.31089" lon="-2.32193">
        <ele>-25.39999961853</ele>
        <time>2022-02-06T10:34:11.000Z</time>
      </trkpt>
      <trkpt lat="47.31088" lon="-2.3219">
        <ele>-25.799999237061</ele>
        <time>2022-02-06T10:34:12.000Z</time>
      </trkpt>
      <trkpt lat="47.31085" lon="-2.32184">
        <ele>-25.799999237061</ele>
        <time>2022-02-06T10:34:14.000Z</time>
      </trkpt>
      <trkpt lat="47.3108" lon="-2.32174">
        <ele>-25.799999237061</ele>
        <time>2022-02-06T10:34:16.000Z</time>
      </trkpt>
      <trkpt lat="47.31074" lon="-2.32163">
        <ele>-25.799999237061</ele>
        <time>2022-02-06T10:34:18.000Z</time>
      </trkpt>
      <trkpt lat="47.3106" lon="-2.3214">
        <ele>-25.799999237061</ele>
        <time>2022-02-06T10:34:22.000Z</time>
      </trkpt>
      <trkpt lat="47.31053" lon="-2.3213">
        <ele>-25.799999237061</ele>
        <time>2022-02-06T10:34:24.000Z</time>
      </trkpt>
      <trkpt lat="47.31048" lon="-2.32124">
        <ele>-25.799999237061</ele>
        <time>2022-02-06T10:34:25.000Z</time>
      </trkpt>
      <trkpt lat="47.31044" lon="-2.32119">
        <ele>-26.200000762939</ele>
        <time>2022-02-06T10:34:26.000Z</time>
      </trkpt>
      <trkpt lat="47.3104" lon="-2.32114">
        <ele>-26.60000038147</ele>
        <time>2022-02-06T10:34:27.000Z</time>
      </trkpt>
      <trkpt lat="47.31036" lon="-2.32109">
        <ele>-27</ele>
        <time>2022-02-06T10:34:28.000Z</time>
      </trkpt>
      <trkpt lat="47.31033" lon="-2.32103">
        <ele>-27.39999961853</ele>
        <time>2022-02-06T10:34:29.000Z</time>
      </trkpt>
      <trkpt lat="47.31029" lon="-2.32097">
        <ele>-27.799999237061</ele>
        <time>2022-02-06T10:34:30.000Z</time>
      </trkpt>
      <trkpt lat="47.31015" lon="-2.32074">
        <ele>-27.799999237061</ele>
        <time>2022-02-06T10:34:34.000Z</time>
      </trkpt>
      <trkpt lat="47.31007" lon="-2.32062">
        <ele>-27.799999237061</ele>
        <time>2022-02-06T10:34:36.000Z</time>
      </trkpt>
      <trkpt lat="47.30993" lon="-2.32036">
        <ele>-27.799999237061</ele>
        <time>2022-02-06T10:34:40.000Z</time>
      </trkpt>
      <trkpt lat="47.3099" lon="-2.32029">
        <ele>-27.799999237061</ele>
        <time>2022-02-06T10:34:41.000Z</time>
      </trkpt>
      <trkpt lat="47.30976" lon="-2.31998">
        <ele>-28.200000762939</ele>
        <time>2022-02-06T10:34:45.000Z</time>
      </trkpt>
      <trkpt lat="47.30973" lon="-2.3199">
        <ele>-28.60000038147</ele>
        <time>2022-02-06T10:34:46.000Z</time>
      </trkpt>
      <trkpt lat="47.3097" lon="-2.31983">
        <ele>-29</ele>
        <time>2022-02-06T10:34:47.000Z</time>
      </trkpt>
      <trkpt lat="47.30967" lon="-2.31975">
        <ele>-30</ele>
        <time>2022-02-06T10:34:48.000Z</time>
      </trkpt>
      <trkpt lat="47.30963" lon="-2.31959">
        <ele>-30</ele>
        <time>2022-02-06T10:34:50.000Z</time>
      </trkpt>
      <trkpt lat="47.30969" lon="-2.31934">
        <ele>-30</ele>
        <time>2022-02-06T10:34:53.000Z</time>
      </trkpt>
      <trkpt lat="47.30971" lon="-2.31927">
        <ele>-30</ele>
        <time>2022-02-06T10:34:54.000Z</time>
      </trkpt>
      <trkpt lat="47.3098" lon="-2.31896">
        <ele>-30</ele>
        <time>2022-02-06T10:34:58.000Z</time>
      </trkpt>
      <trkpt lat="47.30982" lon="-2.3188">
        <ele>-30</ele>
        <time>2022-02-06T10:35:00.000Z</time>
      </trkpt>
      <trkpt lat="47.30985" lon="-2.31866">
        <ele>-30</ele>
        <time>2022-02-06T10:35:02.000Z</time>
      </trkpt>
      <trkpt lat="47.30987" lon="-2.3186">
        <ele>-30</ele>
        <time>2022-02-06T10:35:03.000Z</time>
      </trkpt>
      <trkpt lat="47.30996" lon="-2.31831">
        <ele>-30</ele>
        <time>2022-02-06T10:35:07.000Z</time>
      </trkpt>
      <trkpt lat="47.30988" lon="-2.31808">
        <ele>-30</ele>
        <time>2022-02-06T10:35:11.000Z</time>
      </trkpt>
      <trkpt lat="47.30984" lon="-2.31803">
        <ele>-30</ele>
        <time>2022-02-06T10:35:12.000Z</time>
      </trkpt>
      <trkpt lat="47.30969" lon="-2.31787">
        <ele>-30</ele>
        <time>2022-02-06T10:35:15.000Z</time>
      </trkpt>
      <trkpt lat="47.30936" lon="-2.31751">
        <ele>-30</ele>
        <time>2022-02-06T10:35:22.000Z</time>
      </trkpt>
      <trkpt lat="47.309" lon="-2.31708">
        <ele>-30</ele>
        <time>2022-02-06T10:35:30.000Z</time>
      </trkpt>
      <trkpt lat="47.30874" lon="-2.31676">
        <ele>-30</ele>
        <time>2022-02-06T10:35:36.000Z</time>
      </trkpt>
      <trkpt lat="47.30847" lon="-2.31646">
        <ele>-30</ele>
        <time>2022-02-06T10:35:42.000Z</time>
      </trkpt>
      <trkpt lat="47.30842" lon="-2.31645">
        <ele>-30</ele>
        <time>2022-02-06T10:35:43.000Z</time>
      </trkpt>
      <trkpt lat="47.30832" lon="-2.31656">
        <ele>-30</ele>
        <time>2022-02-06T10:35:45.000Z</time>
      </trkpt>
      <trkpt lat="47.30827" lon="-2.31662">
        <ele>-30</ele>
        <time>2022-02-06T10:35:46.000Z</time>
      </trkpt>
      <trkpt lat="47.30792" lon="-2.31705">
        <ele>-30</ele>
        <time>2022-02-06T10:35:53.000Z</time>
      </trkpt>
      <trkpt lat="47.30783" lon="-2.31717">
        <ele>-30.39999961853</ele>
        <time>2022-02-06T10:35:55.000Z</time>
      </trkpt>
      <trkpt lat="47.30778" lon="-2.31722">
        <ele>-30.799999237061</ele>
        <time>2022-02-06T10:35:56.000Z</time>
      </trkpt>
      <trkpt lat="47.30773" lon="-2.31728">
        <ele>-31.200000762939</ele>
        <time>2022-02-06T10:35:57.000Z</time>
      </trkpt>
      <trkpt lat="47.30769" lon="-2.31733">
        <ele>-31.60000038147</ele>
        <time>2022-02-06T10:35:58.000Z</time>
      </trkpt>
      <trkpt lat="47.30764" lon="-2.31739">
        <ele>-32</ele>
        <time>2022-02-06T10:35:59.000Z</time>
      </trkpt>
      <trkpt lat="47.30759" lon="-2.31743">
        <ele>-32</ele>
        <time>2022-02-06T10:36:00.000Z</time>
      </trkpt>
      <trkpt lat="47.3074" lon="-2.31755">
        <ele>-32</ele>
        <time>2022-02-06T10:36:04.000Z</time>
      </trkpt>
      <trkpt lat="47.30735" lon="-2.31758">
        <ele>-32</ele>
        <time>2022-02-06T10:36:05.000Z</time>
      </trkpt>
      <trkpt lat="47.3072" lon="-2.31746">
        <ele>-32</ele>
        <time>2022-02-06T10:36:08.000Z</time>
      </trkpt>
      <trkpt lat="47.30718" lon="-2.31738">
        <ele>-32.400001525879</ele>
        <time>2022-02-06T10:36:09.000Z</time>
      </trkpt>
      <trkpt lat="47.30716" lon="-2.31731">
        <ele>-33</ele>
        <time>2022-02-06T10:36:10.000Z</time>
      </trkpt>
      <trkpt lat="47.30713" lon="-2.31723">
        <ele>-33.400001525879</ele>
        <time>2022-02-06T10:36:11.000Z</time>
      </trkpt>
      <trkpt lat="47.3071" lon="-2.31716">
        <ele>-33.799999237061</ele>
        <time>2022-02-06T10:36:12.000Z</time>
      </trkpt>
      <trkpt lat="47.30708" lon="-2.31708">
        <ele>-34.200000762939</ele>
        <time>2022-02-06T10:36:13.000Z</time>
      </trkpt>
      <trkpt lat="47.3069" lon="-2.3166">
        <ele>-34.200000762939</ele>
        <time>2022-02-06T10:36:19.000Z</time>
      </trkpt>
      <trkpt lat="47.30667" lon="-2.31597">
        <ele>-34.200000762939</ele>
        <time>2022-02-06T10:36:26.000Z</time>
      </trkpt>
      <trkpt lat="47.30652" lon="-2.31563">
        <ele>-34.200000762939</ele>
        <time>2022-02-06T10:36:31.000Z</time>
      </trkpt>
      <trkpt lat="47.30627" lon="-2.31511">
        <ele>-34.200000762939</ele>
        <time>2022-02-06T10:36:39.000Z</time>
      </trkpt>
      <trkpt lat="47.30612" lon="-2.31473">
        <ele>-34.200000762939</ele>
        <time>2022-02-06T10:36:45.000Z</time>
      </trkpt>
      <trkpt lat="47.30597" lon="-2.31434">
        <ele>-33.799999237061</ele>
        <time>2022-02-06T10:36:51.000Z</time>
      </trkpt>
      <trkpt lat="47.30594" lon="-2.31428">
        <ele>-33</ele>
        <time>2022-02-06T10:36:52.000Z</time>
      </trkpt>
      <trkpt lat="47.30592" lon="-2.31422">
        <ele>-32.599998474121</ele>
        <time>2022-02-06T10:36:53.000Z</time>
      </trkpt>
      <trkpt lat="47.30591" lon="-2.31415">
        <ele>-32.200000762939</ele>
        <time>2022-02-06T10:36:54.000Z</time>
      </trkpt>
      <trkpt lat="47.30584" lon="-2.31398">
        <ele>-32.200000762939</ele>
        <time>2022-02-06T10:36:57.000Z</time>
      </trkpt>
      <trkpt lat="47.30569" lon="-2.31376">
        <ele>-32.200000762939</ele>
        <time>2022-02-06T10:37:01.000Z</time>
      </trkpt>
      <trkpt lat="47.30566" lon="-2.3137">
        <ele>-32.200000762939</ele>
        <time>2022-02-06T10:37:02.000Z</time>
      </trkpt>
      <trkpt lat="47.30547" lon="-2.31338">
        <ele>-32.200000762939</ele>
        <time>2022-02-06T10:37:07.000Z</time>
      </trkpt>
      <trkpt lat="47.30516" lon="-2.31288">
        <ele>-32.200000762939</ele>
        <time>2022-02-06T10:37:15.000Z</time>
      </trkpt>
      <trkpt lat="47.3049" lon="-2.31247">
        <ele>-32.200000762939</ele>
        <time>2022-02-06T10:37:22.000Z</time>
      </trkpt>
      <trkpt lat="47.30475" lon="-2.31216">
        <ele>-32.200000762939</ele>
        <time>2022-02-06T10:37:27.000Z</time>
      </trkpt>
      <trkpt lat="47.30473" lon="-2.3121">
        <ele>-32.200000762939</ele>
        <time>2022-02-06T10:37:28.000Z</time>
      </trkpt>
      <trkpt lat="47.30468" lon="-2.31189">
        <ele>-32.200000762939</ele>
        <time>2022-02-06T10:37:31.000Z</time>
      </trkpt>
      <trkpt lat="47.30463" lon="-2.31175">
        <ele>-32.200000762939</ele>
        <time>2022-02-06T10:37:33.000Z</time>
      </trkpt>
      <trkpt lat="47.30452" lon="-2.31139">
        <ele>-32.200000762939</ele>
        <time>2022-02-06T10:37:38.000Z</time>
      </trkpt>
      <trkpt lat="47.30448" lon="-2.31132">
        <ele>-32.200000762939</ele>
        <time>2022-02-06T10:37:39.000Z</time>
      </trkpt>
      <trkpt lat="47.30436" lon="-2.31115">
        <ele>-32.200000762939</ele>
        <time>2022-02-06T10:37:42.000Z</time>
      </trkpt>
      <trkpt lat="47.30426" lon="-2.31106">
        <ele>-32.200000762939</ele>
        <time>2022-02-06T10:37:44.000Z</time>
      </trkpt>
      <trkpt lat="47.30394" lon="-2.31073">
        <ele>-32.200000762939</ele>
        <time>2022-02-06T10:37:50.000Z</time>
      </trkpt>
      <trkpt lat="47.30362" lon="-2.3103">
        <ele>-32.200000762939</ele>
        <time>2022-02-06T10:37:56.000Z</time>
      </trkpt>
      <trkpt lat="47.30335" lon="-2.30997">
        <ele>-32.599998474121</ele>
        <time>2022-02-06T10:38:01.000Z</time>
      </trkpt>
      <trkpt lat="47.3033" lon="-2.3099">
        <ele>-33</ele>
        <time>2022-02-06T10:38:02.000Z</time>
      </trkpt>
      <trkpt lat="47.30325" lon="-2.30983">
        <ele>-33.400001525879</ele>
        <time>2022-02-06T10:38:03.000Z</time>
      </trkpt>
      <trkpt lat="47.30319" lon="-2.30975">
        <ele>-33.799999237061</ele>
        <time>2022-02-06T10:38:04.000Z</time>
      </trkpt>
      <trkpt lat="47.30313" lon="-2.30966">
        <ele>-34.200000762939</ele>
        <time>2022-02-06T10:38:05.000Z</time>
      </trkpt>
      <trkpt lat="47.30307" lon="-2.30958">
        <ele>-34.599998474121</ele>
        <time>2022-02-06T10:38:06.000Z</time>
      </trkpt>
      <trkpt lat="47.30302" lon="-2.3095">
        <ele>-35</ele>
        <time>2022-02-06T10:38:07.000Z</time>
      </trkpt>
      <trkpt lat="47.30296" lon="-2.30942">
        <ele>-35.400001525879</ele>
        <time>2022-02-06T10:38:08.000Z</time>
      </trkpt>
      <trkpt lat="47.3029" lon="-2.30933">
        <ele>-35.799999237061</ele>
        <time>2022-02-06T10:38:09.000Z</time>
      </trkpt>
      <trkpt lat="47.30285" lon="-2.30924">
        <ele>-36.200000762939</ele>
        <time>2022-02-06T10:38:10.000Z</time>
      </trkpt>
      <trkpt lat="47.30261" lon="-2.30893">
        <ele>-36.799999237061</ele>
        <time>2022-02-06T10:38:14.000Z</time>
      </trkpt>
      <trkpt lat="47.30254" lon="-2.30886">
        <ele>-37.200000762939</ele>
        <time>2022-02-06T10:38:15.000Z</time>
      </trkpt>
      <trkpt lat="47.30249" lon="-2.30878">
        <ele>-37.799999237061</ele>
        <time>2022-02-06T10:38:16.000Z</time>
      </trkpt>
      <trkpt lat="47.30242" lon="-2.30872">
        <ele>-38.200000762939</ele>
        <time>2022-02-06T10:38:17.000Z</time>
      </trkpt>
      <trkpt lat="47.30236" lon="-2.30865">
        <ele>-38.599998474121</ele>
        <time>2022-02-06T10:38:18.000Z</time>
      </trkpt>
      <trkpt lat="47.30217" lon="-2.30846">
        <ele>-38.599998474121</ele>
        <time>2022-02-06T10:38:21.000Z</time>
      </trkpt>
      <trkpt lat="47.30211" lon="-2.3084">
        <ele>-39</ele>
        <time>2022-02-06T10:38:22.000Z</time>
      </trkpt>
      <trkpt lat="47.30205" lon="-2.30834">
        <ele>-39.599998474121</ele>
        <time>2022-02-06T10:38:23.000Z</time>
      </trkpt>
      <trkpt lat="47.30199" lon="-2.30827">
        <ele>-40</ele>
        <time>2022-02-06T10:38:24.000Z</time>
      </trkpt>
      <trkpt lat="47.30194" lon="-2.30821">
        <ele>-40.400001525879</ele>
        <time>2022-02-06T10:38:25.000Z</time>
      </trkpt>
      <trkpt lat="47.30188" lon="-2.30816">
        <ele>-40.799999237061</ele>
        <time>2022-02-06T10:38:26.000Z</time>
      </trkpt>
      <trkpt lat="47.30183" lon="-2.3081">
        <ele>-41.400001525879</ele>
        <time>2022-02-06T10:38:27.000Z</time>
      </trkpt>
      <trkpt lat="47.30178" lon="-2.30804">
        <ele>-42</ele>
        <time>2022-02-06T10:38:28.000Z</time>
      </trkpt>
      <trkpt lat="47.30173" lon="-2.30799">
        <ele>-42.400001525879</ele>
        <time>2022-02-06T10:38:29.000Z</time>
      </trkpt>
      <trkpt lat="47.30169" lon="-2.30795">
        <ele>-43</ele>
        <time>2022-02-06T10:38:30.000Z</time>
      </trkpt>
      <trkpt lat="47.30162" lon="-2.30784">
        <ele>-43</ele>
        <time>2022-02-06T10:38:32.000Z</time>
      </trkpt>
      <trkpt lat="47.30163" lon="-2.30765">
        <ele>-43</ele>
        <time>2022-02-06T10:38:35.000Z</time>
      </trkpt>
      <trkpt lat="47.30168" lon="-2.30723">
        <ele>-43</ele>
        <time>2022-02-06T10:38:40.000Z</time>
      </trkpt>
      <trkpt lat="47.30167" lon="-2.30714">
        <ele>-43</ele>
        <time>2022-02-06T10:38:41.000Z</time>
      </trkpt>
      <trkpt lat="47.30163" lon="-2.30689">
        <ele>-43</ele>
        <time>2022-02-06T10:38:44.000Z</time>
      </trkpt>
      <trkpt lat="47.3016" lon="-2.30659">
        <ele>-43</ele>
        <time>2022-02-06T10:38:48.000Z</time>
      </trkpt>
      <trkpt lat="47.3016" lon="-2.30651">
        <ele>-43</ele>
        <time>2022-02-06T10:38:49.000Z</time>
      </trkpt>
      <trkpt lat="47.30166" lon="-2.30625">
        <ele>-43</ele>
        <time>2022-02-06T10:38:53.000Z</time>
      </trkpt>
      <trkpt lat="47.30169" lon="-2.30605">
        <ele>-43</ele>
        <time>2022-02-06T10:38:56.000Z</time>
      </trkpt>
      <trkpt lat="47.30172" lon="-2.30593">
        <ele>-43</ele>
        <time>2022-02-06T10:38:58.000Z</time>
      </trkpt>
      <trkpt lat="47.30186" lon="-2.30584">
        <ele>-43</ele>
        <time>2022-02-06T10:39:01.000Z</time>
      </trkpt>
      <trkpt lat="47.30191" lon="-2.30584">
        <ele>-43</ele>
        <time>2022-02-06T10:39:02.000Z</time>
      </trkpt>
      <trkpt lat="47.30206" lon="-2.30582">
        <ele>-43</ele>
        <time>2022-02-06T10:39:05.000Z</time>
      </trkpt>
      <trkpt lat="47.30221" lon="-2.30575">
        <ele>-43</ele>
        <time>2022-02-06T10:39:08.000Z</time>
      </trkpt>
      <trkpt lat="47.30228" lon="-2.30565">
        <ele>-43</ele>
        <time>2022-02-06T10:39:10.000Z</time>
      </trkpt>
      <trkpt lat="47.30227" lon="-2.30542">
        <ele>-43</ele>
        <time>2022-02-06T10:39:13.000Z</time>
      </trkpt>
      <trkpt lat="47.30216" lon="-2.30525">
        <ele>-43</ele>
        <time>2022-02-06T10:39:16.000Z</time>
      </trkpt>
      <trkpt lat="47.30202" lon="-2.30514">
        <ele>-43</ele>
        <time>2022-02-06T10:39:19.000Z</time>
      </trkpt>
      <trkpt lat="47.30193" lon="-2.30508">
        <ele>-43</ele>
        <time>2022-02-06T10:39:21.000Z</time>
      </trkpt>
      <trkpt lat="47.30188" lon="-2.30503">
        <ele>-43</ele>
        <time>2022-02-06T10:39:22.000Z</time>
      </trkpt>
      <trkpt lat="47.30176" lon="-2.30487">
        <ele>-43</ele>
        <time>2022-02-06T10:39:25.000Z</time>
      </trkpt>
      <trkpt lat="47.30156" lon="-2.30457">
        <ele>-43</ele>
        <time>2022-02-06T10:39:30.000Z</time>
      </trkpt>
      <trkpt lat="47.30146" lon="-2.30436">
        <ele>-43</ele>
        <time>2022-02-06T10:39:33.000Z</time>
      </trkpt>
      <trkpt lat="47.30129" lon="-2.30381">
        <ele>-43</ele>
        <time>2022-02-06T10:39:40.000Z</time>
      </trkpt>
      <trkpt lat="47.30109" lon="-2.30312">
        <ele>-43</ele>
        <time>2022-02-06T10:39:49.000Z</time>
      </trkpt>
      <trkpt lat="47.30106" lon="-2.30296">
        <ele>-43</ele>
        <time>2022-02-06T10:39:51.000Z</time>
      </trkpt>
      <trkpt lat="47.30109" lon="-2.30278">
        <ele>-43</ele>
        <time>2022-02-06T10:39:53.000Z</time>
      </trkpt>
      <trkpt lat="47.30123" lon="-2.30261">
        <ele>-43</ele>
        <time>2022-02-06T10:39:56.000Z</time>
      </trkpt>
      <trkpt lat="47.30135" lon="-2.30256">
        <ele>-43</ele>
        <time>2022-02-06T10:39:58.000Z</time>
      </trkpt>
      <trkpt lat="47.30153" lon="-2.30252">
        <ele>-43</ele>
        <time>2022-02-06T10:40:01.000Z</time>
      </trkpt>
      <trkpt lat="47.30198" lon="-2.30232">
        <ele>-43</ele>
        <time>2022-02-06T10:40:09.000Z</time>
      </trkpt>
      <trkpt lat="47.30205" lon="-2.30214">
        <ele>-43</ele>
        <time>2022-02-06T10:40:12.000Z</time>
      </trkpt>
      <trkpt lat="47.30203" lon="-2.302">
        <ele>-43</ele>
        <time>2022-02-06T10:40:14.000Z</time>
      </trkpt>
      <trkpt lat="47.30201" lon="-2.30194">
        <ele>-43</ele>
        <time>2022-02-06T10:40:15.000Z</time>
      </trkpt>
      <trkpt lat="47.30199" lon="-2.30188">
        <ele>-43</ele>
        <time>2022-02-06T10:40:16.000Z</time>
      </trkpt>
      <trkpt lat="47.30188" lon="-2.30163">
        <ele>-43</ele>
        <time>2022-02-06T10:40:20.000Z</time>
      </trkpt>
      <trkpt lat="47.30185" lon="-2.30156">
        <ele>-43</ele>
        <time>2022-02-06T10:40:21.000Z</time>
      </trkpt>
      <trkpt lat="47.3017" lon="-2.30111">
        <ele>-43</ele>
        <time>2022-02-06T10:40:28.000Z</time>
      </trkpt>
      <trkpt lat="47.30159" lon="-2.30082">
        <ele>-43</ele>
        <time>2022-02-06T10:40:32.000Z</time>
      </trkpt>
      <trkpt lat="47.30152" lon="-2.30069">
        <ele>-43.400001525879</ele>
        <time>2022-02-06T10:40:34.000Z</time>
      </trkpt>
      <trkpt lat="47.30148" lon="-2.30062">
        <ele>-43.799999237061</ele>
        <time>2022-02-06T10:40:35.000Z</time>
      </trkpt>
      <trkpt lat="47.30145" lon="-2.30056">
        <ele>-44.400001525879</ele>
        <time>2022-02-06T10:40:36.000Z</time>
      </trkpt>
      <trkpt lat="47.30141" lon="-2.3005">
        <ele>-44.799999237061</ele>
        <time>2022-02-06T10:40:37.000Z</time>
      </trkpt>
      <trkpt lat="47.30138" lon="-2.30043">
        <ele>-45.200000762939</ele>
        <time>2022-02-06T10:40:38.000Z</time>
      </trkpt>
      <trkpt lat="47.3013" lon="-2.30025">
        <ele>-45.200000762939</ele>
        <time>2022-02-06T10:40:41.000Z</time>
      </trkpt>
      <trkpt lat="47.30114" lon="-2.30005">
        <ele>-45.200000762939</ele>
        <time>2022-02-06T10:40:46.000Z</time>
      </trkpt>
      <trkpt lat="47.30105" lon="-2.29994">
        <ele>-45.200000762939</ele>
        <time>2022-02-06T10:40:50.000Z</time>
      </trkpt>
      <trkpt lat="47.30101" lon="-2.29984">
        <ele>-45.200000762939</ele>
        <time>2022-02-06T10:40:53.000Z</time>
      </trkpt>
      <trkpt lat="47.30099" lon="-2.29973">
        <ele>-45.200000762939</ele>
        <time>2022-02-06T10:40:56.000Z</time>
      </trkpt>
      <trkpt lat="47.30099" lon="-2.29951">
        <ele>-45.200000762939</ele>
        <time>2022-02-06T10:41:02.000Z</time>
      </trkpt>
      <trkpt lat="47.30093" lon="-2.29925">
        <ele>-45.200000762939</ele>
        <time>2022-02-06T10:41:08.000Z</time>
      </trkpt>
      <trkpt lat="47.30095" lon="-2.29919">
        <ele>-45.200000762939</ele>
        <time>2022-02-06T10:41:10.000Z</time>
      </trkpt>
      <trkpt lat="47.30097" lon="-2.29917">
        <ele>-45.200000762939</ele>
        <time>2022-02-06T10:41:11.000Z</time>
      </trkpt>
      <trkpt lat="47.30108" lon="-2.29905">
        <ele>-45.200000762939</ele>
        <time>2022-02-06T10:41:15.000Z</time>
      </trkpt>
      <trkpt lat="47.30131" lon="-2.29882">
        <ele>-45.200000762939</ele>
        <time>2022-02-06T10:41:22.000Z</time>
      </trkpt>
      <trkpt lat="47.30144" lon="-2.29873">
        <ele>-45.200000762939</ele>
        <time>2022-02-06T10:41:26.000Z</time>
      </trkpt>
      <trkpt lat="47.30162" lon="-2.29847">
        <ele>-45.200000762939</ele>
        <time>2022-02-06T10:41:33.000Z</time>
      </trkpt>
      <trkpt lat="47.3017" lon="-2.29835">
        <ele>-45.200000762939</ele>
        <time>2022-02-06T10:41:38.000Z</time>
      </trkpt>
      <trkpt lat="47.30174" lon="-2.29831">
        <ele>-45.599998474121</ele>
        <time>2022-02-06T10:41:40.000Z</time>
      </trkpt>
      <trkpt lat="47.30174" lon="-2.29829">
        <ele>-46</ele>
        <time>2022-02-06T10:41:41.000Z</time>
      </trkpt>
      <trkpt lat="47.30175" lon="-2.29827">
        <ele>-46.400001525879</ele>
        <time>2022-02-06T10:41:42.000Z</time>
      </trkpt>
      <trkpt lat="47.30176" lon="-2.29826">
        <ele>-46.799999237061</ele>
        <time>2022-02-06T10:41:43.000Z</time>
      </trkpt>
      <trkpt lat="47.30177" lon="-2.29824">
        <ele>-47.200000762939</ele>
        <time>2022-02-06T10:41:44.000Z</time>
      </trkpt>
      <trkpt lat="47.30184" lon="-2.29814">
        <ele>-47.200000762939</ele>
        <time>2022-02-06T10:41:48.000Z</time>
      </trkpt>
      <trkpt lat="47.30195" lon="-2.29796">
        <ele>-47.200000762939</ele>
        <time>2022-02-06T10:41:54.000Z</time>
      </trkpt>
      <trkpt lat="47.30203" lon="-2.29787">
        <ele>-47.200000762939</ele>
        <time>2022-02-06T10:41:58.000Z</time>
      </trkpt>
      <trkpt lat="47.30205" lon="-2.29784">
        <ele>-47.200000762939</ele>
        <time>2022-02-06T10:41:59.000Z</time>
      </trkpt>
      <trkpt lat="47.30217" lon="-2.29764">
        <ele>-47.200000762939</ele>
        <time>2022-02-06T10:42:04.000Z</time>
      </trkpt>
      <trkpt lat="47.3023" lon="-2.29745">
        <ele>-47.200000762939</ele>
        <time>2022-02-06T10:42:12.000Z</time>
      </trkpt>
      <trkpt lat="47.3024" lon="-2.29731">
        <ele>-47.200000762939</ele>
        <time>2022-02-06T10:42:18.000Z</time>
      </trkpt>
      <trkpt lat="47.30247" lon="-2.29715">
        <ele>-47.200000762939</ele>
        <time>2022-02-06T10:42:24.000Z</time>
      </trkpt>
      <trkpt lat="47.30241" lon="-2.29709">
        <ele>-47.200000762939</ele>
        <time>2022-02-06T10:42:27.000Z</time>
      </trkpt>
      <trkpt lat="47.30222" lon="-2.29702">
        <ele>-47.200000762939</ele>
        <time>2022-02-06T10:42:32.000Z</time>
      </trkpt>
      <trkpt lat="47.30199" lon="-2.29689">
        <ele>-47.200000762939</ele>
        <time>2022-02-06T10:42:38.000Z</time>
      </trkpt>
      <trkpt lat="47.30171" lon="-2.29675">
        <ele>-47.200000762939</ele>
        <time>2022-02-06T10:42:45.000Z</time>
      </trkpt>
      <trkpt lat="47.3014" lon="-2.29661">
        <ele>-47.200000762939</ele>
        <time>2022-02-06T10:42:52.000Z</time>
      </trkpt>
      <trkpt lat="47.30135" lon="-2.29659">
        <ele>-47.200000762939</ele>
        <time>2022-02-06T10:42:53.000Z</time>
      </trkpt>
      <trkpt lat="47.30106" lon="-2.29653">
        <ele>-47.200000762939</ele>
        <time>2022-02-06T10:42:59.000Z</time>
      </trkpt>
      <trkpt lat="47.30083" lon="-2.29646">
        <ele>-46.799999237061</ele>
        <time>2022-02-06T10:43:04.000Z</time>
      </trkpt>
      <trkpt lat="47.30078" lon="-2.29645">
        <ele>-46.400001525879</ele>
        <time>2022-02-06T10:43:05.000Z</time>
      </trkpt>
      <trkpt lat="47.30074" lon="-2.29644">
        <ele>-46</ele>
        <time>2022-02-06T10:43:06.000Z</time>
      </trkpt>
      <trkpt lat="47.30069" lon="-2.29642">
        <ele>-45.599998474121</ele>
        <time>2022-02-06T10:43:07.000Z</time>
      </trkpt>
      <trkpt lat="47.30065" lon="-2.29641">
        <ele>-45.200000762939</ele>
        <time>2022-02-06T10:43:08.000Z</time>
      </trkpt>
      <trkpt lat="47.30033" lon="-2.29635">
        <ele>-45.200000762939</ele>
        <time>2022-02-06T10:43:15.000Z</time>
      </trkpt>
      <trkpt lat="47.29996" lon="-2.29636">
        <ele>-45.200000762939</ele>
        <time>2022-02-06T10:43:23.000Z</time>
      </trkpt>
      <trkpt lat="47.29971" lon="-2.29638">
        <ele>-45.200000762939</ele>
        <time>2022-02-06T10:43:29.000Z</time>
      </trkpt>
      <trkpt lat="47.29947" lon="-2.29644">
        <ele>-45.200000762939</ele>
        <time>2022-02-06T10:43:35.000Z</time>
      </trkpt>
      <trkpt lat="47.29943" lon="-2.29646">
        <ele>-45.200000762939</ele>
        <time>2022-02-06T10:43:36.000Z</time>
      </trkpt>
      <trkpt lat="47.29929" lon="-2.29655">
        <ele>-44.799999237061</ele>
        <time>2022-02-06T10:43:40.000Z</time>
      </trkpt>
      <trkpt lat="47.29925" lon="-2.29657">
        <ele>-44.400001525879</ele>
        <time>2022-02-06T10:43:41.000Z</time>
      </trkpt>
      <trkpt lat="47.29922" lon="-2.29659">
        <ele>-43.799999237061</ele>
        <time>2022-02-06T10:43:42.000Z</time>
      </trkpt>
      <trkpt lat="47.29919" lon="-2.29662">
        <ele>-43.400001525879</ele>
        <time>2022-02-06T10:43:43.000Z</time>
      </trkpt>
      <trkpt lat="47.29916" lon="-2.29665">
        <ele>-43</ele>
        <time>2022-02-06T10:43:44.000Z</time>
      </trkpt>
      <trkpt lat="47.29917" lon="-2.2968">
        <ele>-43</ele>
        <time>2022-02-06T10:43:47.000Z</time>
      </trkpt>
      <trkpt lat="47.29923" lon="-2.29703">
        <ele>-43</ele>
        <time>2022-02-06T10:43:51.000Z</time>
      </trkpt>
      <trkpt lat="47.29928" lon="-2.29715">
        <ele>-43</ele>
        <time>2022-02-06T10:43:53.000Z</time>
      </trkpt>
      <trkpt lat="47.29947" lon="-2.29764">
        <ele>-43</ele>
        <time>2022-02-06T10:44:01.000Z</time>
      </trkpt>
      <trkpt lat="47.29954" lon="-2.29792">
        <ele>-43</ele>
        <time>2022-02-06T10:44:06.000Z</time>
      </trkpt>
      <trkpt lat="47.29953" lon="-2.29797">
        <ele>-43</ele>
        <time>2022-02-06T10:44:07.000Z</time>
      </trkpt>
      <trkpt lat="47.29948" lon="-2.29804">
        <ele>-43</ele>
        <time>2022-02-06T10:44:09.000Z</time>
      </trkpt>
      <trkpt lat="47.29935" lon="-2.29816">
        <ele>-43</ele>
        <time>2022-02-06T10:44:12.000Z</time>
      </trkpt>
      <trkpt lat="47.29927" lon="-2.29822">
        <ele>-43</ele>
        <time>2022-02-06T10:44:14.000Z</time>
      </trkpt>
      <trkpt lat="47.29909" lon="-2.29838">
        <ele>-43</ele>
        <time>2022-02-06T10:44:18.000Z</time>
      </trkpt>
      <trkpt lat="47.29905" lon="-2.29852">
        <ele>-43</ele>
        <time>2022-02-06T10:44:20.000Z</time>
      </trkpt>
      <trkpt lat="47.29906" lon="-2.2988">
        <ele>-43</ele>
        <time>2022-02-06T10:44:24.000Z</time>
      </trkpt>
      <trkpt lat="47.29907" lon="-2.29888">
        <ele>-43</ele>
        <time>2022-02-06T10:44:25.000Z</time>
      </trkpt>
      <trkpt lat="47.2991" lon="-2.29913">
        <ele>-43</ele>
        <time>2022-02-06T10:44:28.000Z</time>
      </trkpt>
      <trkpt lat="47.29907" lon="-2.2993">
        <ele>-43</ele>
        <time>2022-02-06T10:44:30.000Z</time>
      </trkpt>
      <trkpt lat="47.29892" lon="-2.29941">
        <ele>-43</ele>
        <time>2022-02-06T10:44:33.000Z</time>
      </trkpt>
      <trkpt lat="47.2988" lon="-2.29944">
        <ele>-43</ele>
        <time>2022-02-06T10:44:35.000Z</time>
      </trkpt>
      <trkpt lat="47.29859" lon="-2.29948">
        <ele>-43</ele>
        <time>2022-02-06T10:44:39.000Z</time>
      </trkpt>
      <trkpt lat="47.29853" lon="-2.29949">
        <ele>-43</ele>
        <time>2022-02-06T10:44:40.000Z</time>
      </trkpt>
      <trkpt lat="47.29831" lon="-2.29954">
        <ele>-43</ele>
        <time>2022-02-06T10:44:44.000Z</time>
      </trkpt>
      <trkpt lat="47.29804" lon="-2.29953">
        <ele>-43</ele>
        <time>2022-02-06T10:44:49.000Z</time>
      </trkpt>
      <trkpt lat="47.29793" lon="-2.29952">
        <ele>-43</ele>
        <time>2022-02-06T10:44:51.000Z</time>
      </trkpt>
      <trkpt lat="47.29777" lon="-2.29959">
        <ele>-43</ele>
        <time>2022-02-06T10:44:54.000Z</time>
      </trkpt>
      <trkpt lat="47.29773" lon="-2.29963">
        <ele>-43</ele>
        <time>2022-02-06T10:44:55.000Z</time>
      </trkpt>
      <trkpt lat="47.29742" lon="-2.29986">
        <ele>-43</ele>
        <time>2022-02-06T10:45:01.000Z</time>
      </trkpt>
      <trkpt lat="47.29716" lon="-2.29999">
        <ele>-43</ele>
        <time>2022-02-06T10:45:06.000Z</time>
      </trkpt>
      <trkpt lat="47.29711" lon="-2.30001">
        <ele>-43</ele>
        <time>2022-02-06T10:45:07.000Z</time>
      </trkpt>
      <trkpt lat="47.29693" lon="-2.30001">
        <ele>-43.400001525879</ele>
        <time>2022-02-06T10:45:10.000Z</time>
      </trkpt>
      <trkpt lat="47.29688" lon="-2.30001">
        <ele>-44</ele>
        <time>2022-02-06T10:45:11.000Z</time>
      </trkpt>
      <trkpt lat="47.29682" lon="-2.30001">
        <ele>-44.400001525879</ele>
        <time>2022-02-06T10:45:12.000Z</time>
      </trkpt>
      <trkpt lat="47.29676" lon="-2.3">
        <ele>-44.799999237061</ele>
        <time>2022-02-06T10:45:13.000Z</time>
      </trkpt>
      <trkpt lat="47.29671" lon="-2.29999">
        <ele>-45.200000762939</ele>
        <time>2022-02-06T10:45:14.000Z</time>
      </trkpt>
      <trkpt lat="47.29651" lon="-2.29989">
        <ele>-45.200000762939</ele>
        <time>2022-02-06T10:45:18.000Z</time>
      </trkpt>
      <trkpt lat="47.29647" lon="-2.29987">
        <ele>-45.200000762939</ele>
        <time>2022-02-06T10:45:19.000Z</time>
      </trkpt>
      <trkpt lat="47.29642" lon="-2.29986">
        <ele>-45.200000762939</ele>
        <time>2022-02-06T10:45:20.000Z</time>
      </trkpt>
      <trkpt lat="47.29634" lon="-2.29991">
        <ele>-44.799999237061</ele>
        <time>2022-02-06T10:45:22.000Z</time>
      </trkpt>
      <trkpt lat="47.29629" lon="-2.29995">
        <ele>-44.400001525879</ele>
        <time>2022-02-06T10:45:23.000Z</time>
      </trkpt>
      <trkpt lat="47.29624" lon="-2.29998">
        <ele>-44</ele>
        <time>2022-02-06T10:45:24.000Z</time>
      </trkpt>
      <trkpt lat="47.29618" lon="-2.3">
        <ele>-43.599998474121</ele>
        <time>2022-02-06T10:45:25.000Z</time>
      </trkpt>
      <trkpt lat="47.29612" lon="-2.30002">
        <ele>-43.200000762939</ele>
        <time>2022-02-06T10:45:26.000Z</time>
      </trkpt>
      <trkpt lat="47.29606" lon="-2.30004">
        <ele>-43.200000762939</ele>
        <time>2022-02-06T10:45:27.000Z</time>
      </trkpt>
      <trkpt lat="47.29563" lon="-2.30016">
        <ele>-43.200000762939</ele>
        <time>2022-02-06T10:45:34.000Z</time>
      </trkpt>
      <trkpt lat="47.29528" lon="-2.30029">
        <ele>-43.200000762939</ele>
        <time>2022-02-06T10:45:40.000Z</time>
      </trkpt>
      <trkpt lat="47.29507" lon="-2.30025">
        <ele>-43.200000762939</ele>
        <time>2022-02-06T10:45:44.000Z</time>
      </trkpt>
      <trkpt lat="47.29491" lon="-2.30028">
        <ele>-43.200000762939</ele>
        <time>2022-02-06T10:45:47.000Z</time>
      </trkpt>
      <trkpt lat="47.29486" lon="-2.30029">
        <ele>-43.200000762939</ele>
        <time>2022-02-06T10:45:48.000Z</time>
      </trkpt>
      <trkpt lat="47.29481" lon="-2.30029">
        <ele>-43.200000762939</ele>
        <time>2022-02-06T10:45:49.000Z</time>
      </trkpt>
      <trkpt lat="47.29454" lon="-2.30028">
        <ele>-43.200000762939</ele>
        <time>2022-02-06T10:45:54.000Z</time>
      </trkpt>
      <trkpt lat="47.29444" lon="-2.30029">
        <ele>-42.599998474121</ele>
        <time>2022-02-06T10:45:56.000Z</time>
      </trkpt>
      <trkpt lat="47.29439" lon="-2.30029">
        <ele>-42.200000762939</ele>
        <time>2022-02-06T10:45:57.000Z</time>
      </trkpt>
      <trkpt lat="47.29434" lon="-2.30029">
        <ele>-41.799999237061</ele>
        <time>2022-02-06T10:45:58.000Z</time>
      </trkpt>
      <trkpt lat="47.29429" lon="-2.30029">
        <ele>-41.200000762939</ele>
        <time>2022-02-06T10:45:59.000Z</time>
      </trkpt>
      <trkpt lat="47.29425" lon="-2.30029">
        <ele>-40.799999237061</ele>
        <time>2022-02-06T10:46:00.000Z</time>
      </trkpt>
      <trkpt lat="47.2942" lon="-2.30029">
        <ele>-40.799999237061</ele>
        <time>2022-02-06T10:46:01.000Z</time>
      </trkpt>
      <trkpt lat="47.29388" lon="-2.3002">
        <ele>-40.799999237061</ele>
        <time>2022-02-06T10:46:08.000Z</time>
      </trkpt>
      <trkpt lat="47.29375" lon="-2.30014">
        <ele>-40.799999237061</ele>
        <time>2022-02-06T10:46:11.000Z</time>
      </trkpt>
      <trkpt lat="47.29363" lon="-2.30009">
        <ele>-40.799999237061</ele>
        <time>2022-02-06T10:46:14.000Z</time>
      </trkpt>
      <trkpt lat="47.29348" lon="-2.30004">
        <ele>-40.799999237061</ele>
        <time>2022-02-06T10:46:19.000Z</time>
      </trkpt>
      <trkpt lat="47.29346" lon="-2.30016">
        <ele>-40.799999237061</ele>
        <time>2022-02-06T10:46:22.000Z</time>
      </trkpt>
      <trkpt lat="47.29344" lon="-2.30052">
        <ele>-40.799999237061</ele>
        <time>2022-02-06T10:46:28.000Z</time>
      </trkpt>
      <trkpt lat="47.2934" lon="-2.30091">
        <ele>-40.799999237061</ele>
        <time>2022-02-06T10:46:34.000Z</time>
      </trkpt>
      <trkpt lat="47.29339" lon="-2.30098">
        <ele>-40.799999237061</ele>
        <time>2022-02-06T10:46:35.000Z</time>
      </trkpt>
      <trkpt lat="47.29336" lon="-2.30111">
        <ele>-40.799999237061</ele>
        <time>2022-02-06T10:46:37.000Z</time>
      </trkpt>
      <trkpt lat="47.2933" lon="-2.30128">
        <ele>-40.799999237061</ele>
        <time>2022-02-06T10:46:40.000Z</time>
      </trkpt>
      <trkpt lat="47.2932" lon="-2.30137">
        <ele>-40.799999237061</ele>
        <time>2022-02-06T10:46:43.000Z</time>
      </trkpt>
      <trkpt lat="47.29315" lon="-2.30137">
        <ele>-40.799999237061</ele>
        <time>2022-02-06T10:46:44.000Z</time>
      </trkpt>
      <trkpt lat="47.29306" lon="-2.30138">
        <ele>-40.799999237061</ele>
        <time>2022-02-06T10:46:46.000Z</time>
      </trkpt>
      <trkpt lat="47.29297" lon="-2.30138">
        <ele>-40.799999237061</ele>
        <time>2022-02-06T10:46:48.000Z</time>
      </trkpt>
      <trkpt lat="47.29292" lon="-2.30138">
        <ele>-40.799999237061</ele>
        <time>2022-02-06T10:46:49.000Z</time>
      </trkpt>
      <trkpt lat="47.29263" lon="-2.30141">
        <ele>-40.799999237061</ele>
        <time>2022-02-06T10:46:55.000Z</time>
      </trkpt>
      <trkpt lat="47.29232" lon="-2.30153">
        <ele>-40.799999237061</ele>
        <time>2022-02-06T10:47:02.000Z</time>
      </trkpt>
      <trkpt lat="47.29202" lon="-2.30167">
        <ele>-40.799999237061</ele>
        <time>2022-02-06T10:47:09.000Z</time>
      </trkpt>
      <trkpt lat="47.29168" lon="-2.30185">
        <ele>-40.799999237061</ele>
        <time>2022-02-06T10:47:17.000Z</time>
      </trkpt>
      <trkpt lat="47.29134" lon="-2.30203">
        <ele>-40.799999237061</ele>
        <time>2022-02-06T10:47:25.000Z</time>
      </trkpt>
      <trkpt lat="47.29106" lon="-2.30219">
        <ele>-40.400001525879</ele>
        <time>2022-02-06T10:47:32.000Z</time>
      </trkpt>
      <trkpt lat="47.29102" lon="-2.30221">
        <ele>-39.599998474121</ele>
        <time>2022-02-06T10:47:33.000Z</time>
      </trkpt>
      <trkpt lat="47.29098" lon="-2.30223">
        <ele>-39.200000762939</ele>
        <time>2022-02-06T10:47:34.000Z</time>
      </trkpt>
      <trkpt lat="47.29094" lon="-2.30225">
        <ele>-38.799999237061</ele>
        <time>2022-02-06T10:47:35.000Z</time>
      </trkpt>
      <trkpt lat="47.29073" lon="-2.30236">
        <ele>-38.799999237061</ele>
        <time>2022-02-06T10:47:40.000Z</time>
      </trkpt>
      <trkpt lat="47.29038" lon="-2.30249">
        <ele>-38.799999237061</ele>
        <time>2022-02-06T10:47:48.000Z</time>
      </trkpt>
      <trkpt lat="47.29011" lon="-2.30256">
        <ele>-38.799999237061</ele>
        <time>2022-02-06T10:47:54.000Z</time>
      </trkpt>
      <trkpt lat="47.29007" lon="-2.30256">
        <ele>-38.799999237061</ele>
        <time>2022-02-06T10:47:55.000Z</time>
      </trkpt>
      <trkpt lat="47.28988" lon="-2.30259">
        <ele>-38.799999237061</ele>
        <time>2022-02-06T10:48:01.000Z</time>
      </trkpt>
      <trkpt lat="47.28977" lon="-2.30257">
        <ele>-38.799999237061</ele>
        <time>2022-02-06T10:48:07.000Z</time>
      </trkpt>
      <trkpt lat="47.28976" lon="-2.30259">
        <ele>-38.799999237061</ele>
        <time>2022-02-06T10:48:08.000Z</time>
      </trkpt>
      <trkpt lat="47.28974" lon="-2.30283">
        <ele>-38.799999237061</ele>
        <time>2022-02-06T10:48:13.000Z</time>
      </trkpt>
      <trkpt lat="47.28975" lon="-2.30289">
        <ele>-38.799999237061</ele>
        <time>2022-02-06T10:48:14.000Z</time>
      </trkpt>
      <trkpt lat="47.28975" lon="-2.30301">
        <ele>-38.799999237061</ele>
        <time>2022-02-06T10:48:16.000Z</time>
      </trkpt>
      <trkpt lat="47.28977" lon="-2.3033">
        <ele>-38.799999237061</ele>
        <time>2022-02-06T10:48:21.000Z</time>
      </trkpt>
      <trkpt lat="47.28977" lon="-2.30355">
        <ele>-38.400001525879</ele>
        <time>2022-02-06T10:48:26.000Z</time>
      </trkpt>
      <trkpt lat="47.28977" lon="-2.3036">
        <ele>-37.799999237061</ele>
        <time>2022-02-06T10:48:27.000Z</time>
      </trkpt>
      <trkpt lat="47.28977" lon="-2.30365">
        <ele>-37.400001525879</ele>
        <time>2022-02-06T10:48:28.000Z</time>
      </trkpt>
      <trkpt lat="47.28977" lon="-2.3037">
        <ele>-37</ele>
        <time>2022-02-06T10:48:29.000Z</time>
      </trkpt>
      <trkpt lat="47.28977" lon="-2.30375">
        <ele>-36.599998474121</ele>
        <time>2022-02-06T10:48:30.000Z</time>
      </trkpt>
      <trkpt lat="47.28977" lon="-2.30399">
        <ele>-36.599998474121</ele>
        <time>2022-02-06T10:48:35.000Z</time>
      </trkpt>
      <trkpt lat="47.28981" lon="-2.30425">
        <ele>-36.599998474121</ele>
        <time>2022-02-06T10:48:41.000Z</time>
      </trkpt>
      <trkpt lat="47.28985" lon="-2.30455">
        <ele>-36.599998474121</ele>
        <time>2022-02-06T10:48:46.000Z</time>
      </trkpt>
      <trkpt lat="47.28985" lon="-2.30461">
        <ele>-36.599998474121</ele>
        <time>2022-02-06T10:48:47.000Z</time>
      </trkpt>
      <trkpt lat="47.28993" lon="-2.30516">
        <ele>-36.599998474121</ele>
        <time>2022-02-06T10:48:56.000Z</time>
      </trkpt>
      <trkpt lat="47.28997" lon="-2.30545">
        <ele>-36.599998474121</ele>
        <time>2022-02-06T10:49:01.000Z</time>
      </trkpt>
      <trkpt lat="47.29004" lon="-2.30591">
        <ele>-36.599998474121</ele>
        <time>2022-02-06T10:49:09.000Z</time>
      </trkpt>
      <trkpt lat="47.29002" lon="-2.30618">
        <ele>-36.599998474121</ele>
        <time>2022-02-06T10:49:14.000Z</time>
      </trkpt>
      <trkpt lat="47.28989" lon="-2.30632">
        <ele>-36.599998474121</ele>
        <time>2022-02-06T10:49:18.000Z</time>
      </trkpt>
      <trkpt lat="47.28965" lon="-2.30651">
        <ele>-36.599998474121</ele>
        <time>2022-02-06T10:49:24.000Z</time>
      </trkpt>
      <trkpt lat="47.28938" lon="-2.30679">
        <ele>-36.599998474121</ele>
        <time>2022-02-06T10:49:31.000Z</time>
      </trkpt>
      <trkpt lat="47.28912" lon="-2.30716">
        <ele>-36.599998474121</ele>
        <time>2022-02-06T10:49:39.000Z</time>
      </trkpt>
      <trkpt lat="47.28884" lon="-2.30759">
        <ele>-36.599998474121</ele>
        <time>2022-02-06T10:49:48.000Z</time>
      </trkpt>
      <trkpt lat="47.28857" lon="-2.30801">
        <ele>-36.599998474121</ele>
        <time>2022-02-06T10:49:56.000Z</time>
      </trkpt>
      <trkpt lat="47.28854" lon="-2.30807">
        <ele>-36.599998474121</ele>
        <time>2022-02-06T10:49:57.000Z</time>
      </trkpt>
      <trkpt lat="47.28842" lon="-2.3083">
        <ele>-36.599998474121</ele>
        <time>2022-02-06T10:50:01.000Z</time>
      </trkpt>
      <trkpt lat="47.28833" lon="-2.30847">
        <ele>-36.200000762939</ele>
        <time>2022-02-06T10:50:04.000Z</time>
      </trkpt>
      <trkpt lat="47.2883" lon="-2.30852">
        <ele>-35.799999237061</ele>
        <time>2022-02-06T10:50:05.000Z</time>
      </trkpt>
      <trkpt lat="47.28827" lon="-2.30858">
        <ele>-35.400001525879</ele>
        <time>2022-02-06T10:50:06.000Z</time>
      </trkpt>
      <trkpt lat="47.28824" lon="-2.30863">
        <ele>-34.799999237061</ele>
        <time>2022-02-06T10:50:07.000Z</time>
      </trkpt>
      <trkpt lat="47.28821" lon="-2.30869">
        <ele>-34.400001525879</ele>
        <time>2022-02-06T10:50:08.000Z</time>
      </trkpt>
      <trkpt lat="47.288" lon="-2.30913">
        <ele>-34.400001525879</ele>
        <time>2022-02-06T10:50:17.000Z</time>
      </trkpt>
      <trkpt lat="47.28798" lon="-2.30918">
        <ele>-34</ele>
        <time>2022-02-06T10:50:18.000Z</time>
      </trkpt>
      <trkpt lat="47.28795" lon="-2.30923">
        <ele>-33.599998474121</ele>
        <time>2022-02-06T10:50:19.000Z</time>
      </trkpt>
      <trkpt lat="47.28793" lon="-2.30928">
        <ele>-33.200000762939</ele>
        <time>2022-02-06T10:50:20.000Z</time>
      </trkpt>
      <trkpt lat="47.28791" lon="-2.30934">
        <ele>-32.799999237061</ele>
        <time>2022-02-06T10:50:21.000Z</time>
      </trkpt>
      <trkpt lat="47.28788" lon="-2.30939">
        <ele>-32.400001525879</ele>
        <time>2022-02-06T10:50:22.000Z</time>
      </trkpt>
      <trkpt lat="47.28782" lon="-2.30954">
        <ele>-32.400001525879</ele>
        <time>2022-02-06T10:50:25.000Z</time>
      </trkpt>
      <trkpt lat="47.28768" lon="-2.30991">
        <ele>-32.400001525879</ele>
        <time>2022-02-06T10:50:32.000Z</time>
      </trkpt>
      <trkpt lat="47.28758" lon="-2.31025">
        <ele>-32</ele>
        <time>2022-02-06T10:50:38.000Z</time>
      </trkpt>
      <trkpt lat="47.28756" lon="-2.3103">
        <ele>-31.60000038147</ele>
        <time>2022-02-06T10:50:39.000Z</time>
      </trkpt>
      <trkpt lat="47.28754" lon="-2.31035">
        <ele>-31.200000762939</ele>
        <time>2022-02-06T10:50:40.000Z</time>
      </trkpt>
      <trkpt lat="47.28752" lon="-2.3104">
        <ele>-30.799999237061</ele>
        <time>2022-02-06T10:50:41.000Z</time>
      </trkpt>
      <trkpt lat="47.28751" lon="-2.31045">
        <ele>-30.39999961853</ele>
        <time>2022-02-06T10:50:42.000Z</time>
      </trkpt>
      <trkpt lat="47.28744" lon="-2.31067">
        <ele>-30.39999961853</ele>
        <time>2022-02-06T10:50:46.000Z</time>
      </trkpt>
      <trkpt lat="47.28733" lon="-2.31106">
        <ele>-30.39999961853</ele>
        <time>2022-02-06T10:50:53.000Z</time>
      </trkpt>
      <trkpt lat="47.28726" lon="-2.31147">
        <ele>-30.39999961853</ele>
        <time>2022-02-06T10:51:00.000Z</time>
      </trkpt>
      <trkpt lat="47.28725" lon="-2.31153">
        <ele>-30</ele>
        <time>2022-02-06T10:51:01.000Z</time>
      </trkpt>
      <trkpt lat="47.28723" lon="-2.31159">
        <ele>-29.60000038147</ele>
        <time>2022-02-06T10:51:02.000Z</time>
      </trkpt>
      <trkpt lat="47.28721" lon="-2.31165">
        <ele>-29.200000762939</ele>
        <time>2022-02-06T10:51:03.000Z</time>
      </trkpt>
      <trkpt lat="47.28718" lon="-2.3117">
        <ele>-28.799999237061</ele>
        <time>2022-02-06T10:51:04.000Z</time>
      </trkpt>
      <trkpt lat="47.28716" lon="-2.31175">
        <ele>-28.39999961853</ele>
        <time>2022-02-06T10:51:05.000Z</time>
      </trkpt>
      <trkpt lat="47.28701" lon="-2.31197">
        <ele>-28.39999961853</ele>
        <time>2022-02-06T10:51:10.000Z</time>
      </trkpt>
      <trkpt lat="47.28694" lon="-2.31203">
        <ele>-28.39999961853</ele>
        <time>2022-02-06T10:51:12.000Z</time>
      </trkpt>
      <trkpt lat="47.28682" lon="-2.31217">
        <ele>-28.39999961853</ele>
        <time>2022-02-06T10:51:16.000Z</time>
      </trkpt>
      <trkpt lat="47.28661" lon="-2.31245">
        <ele>-28</ele>
        <time>2022-02-06T10:51:23.000Z</time>
      </trkpt>
      <trkpt lat="47.28658" lon="-2.3125">
        <ele>-27.60000038147</ele>
        <time>2022-02-06T10:51:24.000Z</time>
      </trkpt>
      <trkpt lat="47.28656" lon="-2.31256">
        <ele>-27.200000762939</ele>
        <time>2022-02-06T10:51:25.000Z</time>
      </trkpt>
      <trkpt lat="47.28654" lon="-2.31262">
        <ele>-26.60000038147</ele>
        <time>2022-02-06T10:51:26.000Z</time>
      </trkpt>
      <trkpt lat="47.28653" lon="-2.31268">
        <ele>-26.200000762939</ele>
        <time>2022-02-06T10:51:27.000Z</time>
      </trkpt>
      <trkpt lat="47.28653" lon="-2.31274">
        <ele>-26.200000762939</ele>
        <time>2022-02-06T10:51:28.000Z</time>
      </trkpt>
      <trkpt lat="47.28652" lon="-2.3128">
        <ele>-26.200000762939</ele>
        <time>2022-02-06T10:51:29.000Z</time>
      </trkpt>
      <trkpt lat="47.28655" lon="-2.31308">
        <ele>-26.200000762939</ele>
        <time>2022-02-06T10:51:34.000Z</time>
      </trkpt>
      <trkpt lat="47.2866" lon="-2.31325">
        <ele>-25.799999237061</ele>
        <time>2022-02-06T10:51:37.000Z</time>
      </trkpt>
      <trkpt lat="47.28661" lon="-2.31331">
        <ele>-25.39999961853</ele>
        <time>2022-02-06T10:51:38.000Z</time>
      </trkpt>
      <trkpt lat="47.28662" lon="-2.31336">
        <ele>-24.60000038147</ele>
        <time>2022-02-06T10:51:39.000Z</time>
      </trkpt>
      <trkpt lat="47.28664" lon="-2.31342">
        <ele>-24.200000762939</ele>
        <time>2022-02-06T10:51:40.000Z</time>
      </trkpt>
      <trkpt lat="47.28666" lon="-2.31347">
        <ele>-24.200000762939</ele>
        <time>2022-02-06T10:51:41.000Z</time>
      </trkpt>
      <trkpt lat="47.28685" lon="-2.31385">
        <ele>-24.200000762939</ele>
        <time>2022-02-06T10:51:49.000Z</time>
      </trkpt>
      <trkpt lat="47.28687" lon="-2.31389">
        <ele>-23.799999237061</ele>
        <time>2022-02-06T10:51:50.000Z</time>
      </trkpt>
      <trkpt lat="47.28689" lon="-2.31394">
        <ele>-23.200000762939</ele>
        <time>2022-02-06T10:51:51.000Z</time>
      </trkpt>
      <trkpt lat="47.2869" lon="-2.31399">
        <ele>-22.799999237061</ele>
        <time>2022-02-06T10:51:52.000Z</time>
      </trkpt>
      <trkpt lat="47.28692" lon="-2.31404">
        <ele>-22.200000762939</ele>
        <time>2022-02-06T10:51:53.000Z</time>
      </trkpt>
      <trkpt lat="47.28692" lon="-2.3141">
        <ele>-21.799999237061</ele>
        <time>2022-02-06T10:51:54.000Z</time>
      </trkpt>
      <trkpt lat="47.28692" lon="-2.31415">
        <ele>-21.799999237061</ele>
        <time>2022-02-06T10:51:55.000Z</time>
      </trkpt>
      <trkpt lat="47.28685" lon="-2.31436">
        <ele>-21.799999237061</ele>
        <time>2022-02-06T10:51:59.000Z</time>
      </trkpt>
      <trkpt lat="47.28674" lon="-2.3145">
        <ele>-21.799999237061</ele>
        <time>2022-02-06T10:52:03.000Z</time>
      </trkpt>
      <trkpt lat="47.28663" lon="-2.31455">
        <ele>-21.200000762939</ele>
        <time>2022-02-06T10:52:06.000Z</time>
      </trkpt>
      <trkpt lat="47.2866" lon="-2.31457">
        <ele>-20.799999237061</ele>
        <time>2022-02-06T10:52:07.000Z</time>
      </trkpt>
      <trkpt lat="47.28656" lon="-2.31459">
        <ele>-20.39999961853</ele>
        <time>2022-02-06T10:52:08.000Z</time>
      </trkpt>
      <trkpt lat="47.28652" lon="-2.3146">
        <ele>-20</ele>
        <time>2022-02-06T10:52:09.000Z</time>
      </trkpt>
      <trkpt lat="47.28649" lon="-2.31462">
        <ele>-19.60000038147</ele>
        <time>2022-02-06T10:52:10.000Z</time>
      </trkpt>
      <trkpt lat="47.28641" lon="-2.31466">
        <ele>-19.60000038147</ele>
        <time>2022-02-06T10:52:12.000Z</time>
      </trkpt>
      <trkpt lat="47.28629" lon="-2.31471">
        <ele>-19.60000038147</ele>
        <time>2022-02-06T10:52:15.000Z</time>
      </trkpt>
      <trkpt lat="47.28616" lon="-2.31478">
        <ele>-19.60000038147</ele>
        <time>2022-02-06T10:52:18.000Z</time>
      </trkpt>
      <trkpt lat="47.28598" lon="-2.31486">
        <ele>-19.60000038147</ele>
        <time>2022-02-06T10:52:22.000Z</time>
      </trkpt>
      <trkpt lat="47.28564" lon="-2.31497">
        <ele>-19.60000038147</ele>
        <time>2022-02-06T10:52:29.000Z</time>
      </trkpt>
      <trkpt lat="47.28554" lon="-2.31499">
        <ele>-20.200000762939</ele>
        <time>2022-02-06T10:52:31.000Z</time>
      </trkpt>
      <trkpt lat="47.28549" lon="-2.31501">
        <ele>-20.60000038147</ele>
        <time>2022-02-06T10:52:32.000Z</time>
      </trkpt>
      <trkpt lat="47.28543" lon="-2.31502">
        <ele>-21</ele>
        <time>2022-02-06T10:52:33.000Z</time>
      </trkpt>
      <trkpt lat="47.28537" lon="-2.31503">
        <ele>-21.39999961853</ele>
        <time>2022-02-06T10:52:34.000Z</time>
      </trkpt>
      <trkpt lat="47.28532" lon="-2.31504">
        <ele>-21.799999237061</ele>
        <time>2022-02-06T10:52:35.000Z</time>
      </trkpt>
      <trkpt lat="47.28508" lon="-2.31509">
        <ele>-22.39999961853</ele>
        <time>2022-02-06T10:52:39.000Z</time>
      </trkpt>
      <trkpt lat="47.28502" lon="-2.3151">
        <ele>-22.799999237061</ele>
        <time>2022-02-06T10:52:40.000Z</time>
      </trkpt>
      <trkpt lat="47.28496" lon="-2.31511">
        <ele>-23.200000762939</ele>
        <time>2022-02-06T10:52:41.000Z</time>
      </trkpt>
      <trkpt lat="47.2849" lon="-2.31512">
        <ele>-23.60000038147</ele>
        <time>2022-02-06T10:52:42.000Z</time>
      </trkpt>
      <trkpt lat="47.28484" lon="-2.31513">
        <ele>-24</ele>
        <time>2022-02-06T10:52:43.000Z</time>
      </trkpt>
      <trkpt lat="47.28473" lon="-2.31515">
        <ele>-24</ele>
        <time>2022-02-06T10:52:45.000Z</time>
      </trkpt>
      <trkpt lat="47.28446" lon="-2.31529">
        <ele>-24</ele>
        <time>2022-02-06T10:52:50.000Z</time>
      </trkpt>
      <trkpt lat="47.28422" lon="-2.31554">
        <ele>-24</ele>
        <time>2022-02-06T10:52:55.000Z</time>
      </trkpt>
      <trkpt lat="47.28392" lon="-2.3157">
        <ele>-24</ele>
        <time>2022-02-06T10:53:01.000Z</time>
      </trkpt>
      <trkpt lat="47.28354" lon="-2.31583">
        <ele>-24</ele>
        <time>2022-02-06T10:53:09.000Z</time>
      </trkpt>
      <trkpt lat="47.28318" lon="-2.31594">
        <ele>-24</ele>
        <time>2022-02-06T10:53:17.000Z</time>
      </trkpt>
      <trkpt lat="47.28308" lon="-2.31594">
        <ele>-24</ele>
        <time>2022-02-06T10:53:19.000Z</time>
      </trkpt>
      <trkpt lat="47.28293" lon="-2.31594">
        <ele>-24</ele>
        <time>2022-02-06T10:53:22.000Z</time>
      </trkpt>
      <trkpt lat="47.28288" lon="-2.31595">
        <ele>-24</ele>
        <time>2022-02-06T10:53:23.000Z</time>
      </trkpt>
      <trkpt lat="47.28259" lon="-2.31606">
        <ele>-24</ele>
        <time>2022-02-06T10:53:29.000Z</time>
      </trkpt>
      <trkpt lat="47.2822" lon="-2.31616">
        <ele>-24</ele>
        <time>2022-02-06T10:53:37.000Z</time>
      </trkpt>
      <trkpt lat="47.2818" lon="-2.31625">
        <ele>-24.39999961853</ele>
        <time>2022-02-06T10:53:45.000Z</time>
      </trkpt>
      <trkpt lat="47.28175" lon="-2.31626">
        <ele>-25</ele>
        <time>2022-02-06T10:53:46.000Z</time>
      </trkpt>
      <trkpt lat="47.28169" lon="-2.31627">
        <ele>-25.39999961853</ele>
        <time>2022-02-06T10:53:47.000Z</time>
      </trkpt>
      <trkpt lat="47.28164" lon="-2.31627">
        <ele>-25.799999237061</ele>
        <time>2022-02-06T10:53:48.000Z</time>
      </trkpt>
      <trkpt lat="47.28158" lon="-2.31628">
        <ele>-26.200000762939</ele>
        <time>2022-02-06T10:53:49.000Z</time>
      </trkpt>
      <trkpt lat="47.28142" lon="-2.31628">
        <ele>-26.200000762939</ele>
        <time>2022-02-06T10:53:52.000Z</time>
      </trkpt>
      <trkpt lat="47.28099" lon="-2.31629">
        <ele>-26.200000762939</ele>
        <time>2022-02-06T10:54:00.000Z</time>
      </trkpt>
      <trkpt lat="47.28069" lon="-2.31628">
        <ele>-26.200000762939</ele>
        <time>2022-02-06T10:54:05.000Z</time>
      </trkpt>
      <trkpt lat="47.2803" lon="-2.31639">
        <ele>-26.200000762939</ele>
        <time>2022-02-06T10:54:11.000Z</time>
      </trkpt>
      <trkpt lat="47.27995" lon="-2.31655">
        <ele>-26.200000762939</ele>
        <time>2022-02-06T10:54:17.000Z</time>
      </trkpt>
      <trkpt lat="47.27962" lon="-2.31675">
        <ele>-26.200000762939</ele>
        <time>2022-02-06T10:54:24.000Z</time>
      </trkpt>
      <trkpt lat="47.27933" lon="-2.31701">
        <ele>-26.200000762939</ele>
        <time>2022-02-06T10:54:31.000Z</time>
      </trkpt>
      <trkpt lat="47.27912" lon="-2.31719">
        <ele>-25.799999237061</ele>
        <time>2022-02-06T10:54:36.000Z</time>
      </trkpt>
      <trkpt lat="47.27907" lon="-2.31722">
        <ele>-25.39999961853</ele>
        <time>2022-02-06T10:54:37.000Z</time>
      </trkpt>
      <trkpt lat="47.27903" lon="-2.31725">
        <ele>-24.799999237061</ele>
        <time>2022-02-06T10:54:38.000Z</time>
      </trkpt>
      <trkpt lat="47.27899" lon="-2.31728">
        <ele>-24.39999961853</ele>
        <time>2022-02-06T10:54:39.000Z</time>
      </trkpt>
      <trkpt lat="47.27895" lon="-2.31731">
        <ele>-24</ele>
        <time>2022-02-06T10:54:40.000Z</time>
      </trkpt>
      <trkpt lat="47.2788" lon="-2.31746">
        <ele>-24</ele>
        <time>2022-02-06T10:54:44.000Z</time>
      </trkpt>
      <trkpt lat="47.27877" lon="-2.31751">
        <ele>-24</ele>
        <time>2022-02-06T10:54:45.000Z</time>
      </trkpt>
      <trkpt lat="47.27875" lon="-2.31771">
        <ele>-24</ele>
        <time>2022-02-06T10:54:48.000Z</time>
      </trkpt>
      <trkpt lat="47.27876" lon="-2.31778">
        <ele>-24</ele>
        <time>2022-02-06T10:54:49.000Z</time>
      </trkpt>
      <trkpt lat="47.2788" lon="-2.31826">
        <ele>-24</ele>
        <time>2022-02-06T10:54:56.000Z</time>
      </trkpt>
      <trkpt lat="47.27885" lon="-2.31875">
        <ele>-24</ele>
        <time>2022-02-06T10:55:03.000Z</time>
      </trkpt>
      <trkpt lat="47.27885" lon="-2.31882">
        <ele>-24</ele>
        <time>2022-02-06T10:55:04.000Z</time>
      </trkpt>
      <trkpt lat="47.27881" lon="-2.31908">
        <ele>-24</ele>
        <time>2022-02-06T10:55:08.000Z</time>
      </trkpt>
      <trkpt lat="47.27878" lon="-2.31921">
        <ele>-24</ele>
        <time>2022-02-06T10:55:10.000Z</time>
      </trkpt>
      <trkpt lat="47.27871" lon="-2.31939">
        <ele>-24</ele>
        <time>2022-02-06T10:55:13.000Z</time>
      </trkpt>
      <trkpt lat="47.27869" lon="-2.31945">
        <ele>-23.60000038147</ele>
        <time>2022-02-06T10:55:14.000Z</time>
      </trkpt>
      <trkpt lat="47.27866" lon="-2.3195">
        <ele>-23.200000762939</ele>
        <time>2022-02-06T10:55:15.000Z</time>
      </trkpt>
      <trkpt lat="47.27862" lon="-2.31955">
        <ele>-22.799999237061</ele>
        <time>2022-02-06T10:55:16.000Z</time>
      </trkpt>
      <trkpt lat="47.27858" lon="-2.31958">
        <ele>-22.39999961853</ele>
        <time>2022-02-06T10:55:17.000Z</time>
      </trkpt>
      <trkpt lat="47.27854" lon="-2.3196">
        <ele>-22</ele>
        <time>2022-02-06T10:55:18.000Z</time>
      </trkpt>
      <trkpt lat="47.2785" lon="-2.31962">
        <ele>-22</ele>
        <time>2022-02-06T10:55:19.000Z</time>
      </trkpt>
      <trkpt lat="47.27841" lon="-2.31967">
        <ele>-22</ele>
        <time>2022-02-06T10:55:21.000Z</time>
      </trkpt>
      <trkpt lat="47.27828" lon="-2.31976">
        <ele>-22</ele>
        <time>2022-02-06T10:55:24.000Z</time>
      </trkpt>
      <trkpt lat="47.27822" lon="-2.31988">
        <ele>-22</ele>
        <time>2022-02-06T10:55:26.000Z</time>
      </trkpt>
      <trkpt lat="47.27812" lon="-2.32007">
        <ele>-22</ele>
        <time>2022-02-06T10:55:29.000Z</time>
      </trkpt>
      <trkpt lat="47.27802" lon="-2.32028">
        <ele>-22.39999961853</ele>
        <time>2022-02-06T10:55:32.000Z</time>
      </trkpt>
      <trkpt lat="47.27798" lon="-2.32036">
        <ele>-22.799999237061</ele>
        <time>2022-02-06T10:55:33.000Z</time>
      </trkpt>
      <trkpt lat="47.27795" lon="-2.32044">
        <ele>-23.200000762939</ele>
        <time>2022-02-06T10:55:34.000Z</time>
      </trkpt>
      <trkpt lat="47.27791" lon="-2.32051">
        <ele>-23.60000038147</ele>
        <time>2022-02-06T10:55:35.000Z</time>
      </trkpt>
      <trkpt lat="47.27787" lon="-2.32059">
        <ele>-24</ele>
        <time>2022-02-06T10:55:36.000Z</time>
      </trkpt>
      <trkpt lat="47.27771" lon="-2.32074">
        <ele>-24</ele>
        <time>2022-02-06T10:55:39.000Z</time>
      </trkpt>
      <trkpt lat="47.27752" lon="-2.32078">
        <ele>-24.60000038147</ele>
        <time>2022-02-06T10:55:42.000Z</time>
      </trkpt>
      <trkpt lat="47.27745" lon="-2.32077">
        <ele>-25</ele>
        <time>2022-02-06T10:55:43.000Z</time>
      </trkpt>
      <trkpt lat="47.27739" lon="-2.32076">
        <ele>-25.39999961853</ele>
        <time>2022-02-06T10:55:44.000Z</time>
      </trkpt>
      <trkpt lat="47.27732" lon="-2.32075">
        <ele>-26</ele>
        <time>2022-02-06T10:55:45.000Z</time>
      </trkpt>
      <trkpt lat="47.27725" lon="-2.32074">
        <ele>-26.39999961853</ele>
        <time>2022-02-06T10:55:47.000Z</time>
      </trkpt>
      <trkpt lat="47.27706" lon="-2.32073">
        <ele>-26.799999237061</ele>
        <time>2022-02-06T10:55:50.000Z</time>
      </trkpt>
      <trkpt lat="47.277" lon="-2.32074">
        <ele>-27.200000762939</ele>
        <time>2022-02-06T10:55:51.000Z</time>
      </trkpt>
      <trkpt lat="47.27693" lon="-2.32076">
        <ele>-27.60000038147</ele>
        <time>2022-02-06T10:55:52.000Z</time>
      </trkpt>
      <trkpt lat="47.27687" lon="-2.32081">
        <ele>-28</ele>
        <time>2022-02-06T10:55:53.000Z</time>
      </trkpt>
      <trkpt lat="47.27683" lon="-2.32088">
        <ele>-28.39999961853</ele>
        <time>2022-02-06T10:55:54.000Z</time>
      </trkpt>
      <trkpt lat="47.27673" lon="-2.3211">
        <ele>-28.39999961853</ele>
        <time>2022-02-06T10:55:57.000Z</time>
      </trkpt>
      <trkpt lat="47.27671" lon="-2.32117">
        <ele>-28.39999961853</ele>
        <time>2022-02-06T10:55:58.000Z</time>
      </trkpt>
      <trkpt lat="47.27661" lon="-2.32154">
        <ele>-28.39999961853</ele>
        <time>2022-02-06T10:56:04.000Z</time>
      </trkpt>
      <trkpt lat="47.27651" lon="-2.3219">
        <ele>-28.39999961853</ele>
        <time>2022-02-06T10:56:10.000Z</time>
      </trkpt>
      <trkpt lat="47.2765" lon="-2.32196">
        <ele>-28</ele>
        <time>2022-02-06T10:56:11.000Z</time>
      </trkpt>
      <trkpt lat="47.27648" lon="-2.32201">
        <ele>-27</ele>
        <time>2022-02-06T10:56:12.000Z</time>
      </trkpt>
      <trkpt lat="47.27646" lon="-2.32207">
        <ele>-26.39999961853</ele>
        <time>2022-02-06T10:56:13.000Z</time>
      </trkpt>
      <trkpt lat="47.27645" lon="-2.32213">
        <ele>-26</ele>
        <time>2022-02-06T10:56:14.000Z</time>
      </trkpt>
      <trkpt lat="47.27639" lon="-2.32229">
        <ele>-26</ele>
        <time>2022-02-06T10:56:17.000Z</time>
      </trkpt>
      <trkpt lat="47.27632" lon="-2.32251">
        <ele>-26</ele>
        <time>2022-02-06T10:56:21.000Z</time>
      </trkpt>
      <trkpt lat="47.27627" lon="-2.32262">
        <ele>-26</ele>
        <time>2022-02-06T10:56:23.000Z</time>
      </trkpt>
      <trkpt lat="47.27625" lon="-2.32268">
        <ele>-26</ele>
        <time>2022-02-06T10:56:24.000Z</time>
      </trkpt>
      <trkpt lat="47.27609" lon="-2.32309">
        <ele>-26</ele>
        <time>2022-02-06T10:56:30.000Z</time>
      </trkpt>
      <trkpt lat="47.276" lon="-2.3233">
        <ele>-26</ele>
        <time>2022-02-06T10:56:33.000Z</time>
      </trkpt>
      <trkpt lat="47.27589" lon="-2.32359">
        <ele>-26</ele>
        <time>2022-02-06T10:56:37.000Z</time>
      </trkpt>
      <trkpt lat="47.27578" lon="-2.32392">
        <ele>-26</ele>
        <time>2022-02-06T10:56:42.000Z</time>
      </trkpt>
      <trkpt lat="47.27577" lon="-2.32398">
        <ele>-26</ele>
        <time>2022-02-06T10:56:43.000Z</time>
      </trkpt>
      <trkpt lat="47.27576" lon="-2.32415">
        <ele>-26</ele>
        <time>2022-02-06T10:56:47.000Z</time>
      </trkpt>
      <trkpt lat="47.27568" lon="-2.32431">
        <ele>-26</ele>
        <time>2022-02-06T10:56:51.000Z</time>
      </trkpt>
      <trkpt lat="47.2756" lon="-2.32456">
        <ele>-26</ele>
        <time>2022-02-06T10:56:55.000Z</time>
      </trkpt>
      <trkpt lat="47.27559" lon="-2.32462">
        <ele>-26</ele>
        <time>2022-02-06T10:56:56.000Z</time>
      </trkpt>
      <trkpt lat="47.27557" lon="-2.32467">
        <ele>-26</ele>
        <time>2022-02-06T10:56:57.000Z</time>
      </trkpt>
      <trkpt lat="47.27554" lon="-2.32478">
        <ele>-26.39999961853</ele>
        <time>2022-02-06T10:56:59.000Z</time>
      </trkpt>
      <trkpt lat="47.27553" lon="-2.32484">
        <ele>-27</ele>
        <time>2022-02-06T10:57:00.000Z</time>
      </trkpt>
      <trkpt lat="47.27551" lon="-2.32489">
        <ele>-27.799999237061</ele>
        <time>2022-02-06T10:57:01.000Z</time>
      </trkpt>
      <trkpt lat="47.2755" lon="-2.32495">
        <ele>-28.39999961853</ele>
        <time>2022-02-06T10:57:02.000Z</time>
      </trkpt>
      <trkpt lat="47.27548" lon="-2.32501">
        <ele>-28.799999237061</ele>
        <time>2022-02-06T10:57:03.000Z</time>
      </trkpt>
      <trkpt lat="47.27545" lon="-2.32508">
        <ele>-29.39999961853</ele>
        <time>2022-02-06T10:57:04.000Z</time>
      </trkpt>
      <trkpt lat="47.27542" lon="-2.32515">
        <ele>-29.799999237061</ele>
        <time>2022-02-06T10:57:05.000Z</time>
      </trkpt>
      <trkpt lat="47.2754" lon="-2.32522">
        <ele>-30.39999961853</ele>
        <time>2022-02-06T10:57:06.000Z</time>
      </trkpt>
      <trkpt lat="47.27539" lon="-2.32529">
        <ele>-31</ele>
        <time>2022-02-06T10:57:07.000Z</time>
      </trkpt>
      <trkpt lat="47.27539" lon="-2.32536">
        <ele>-31.60000038147</ele>
        <time>2022-02-06T10:57:08.000Z</time>
      </trkpt>
      <trkpt lat="47.27539" lon="-2.32543">
        <ele>-32.400001525879</ele>
        <time>2022-02-06T10:57:09.000Z</time>
      </trkpt>
      <trkpt lat="47.27542" lon="-2.32551">
        <ele>-33</ele>
        <time>2022-02-06T10:57:10.000Z</time>
      </trkpt>
      <trkpt lat="47.27545" lon="-2.32559">
        <ele>-33.799999237061</ele>
        <time>2022-02-06T10:57:11.000Z</time>
      </trkpt>
      <trkpt lat="47.27549" lon="-2.32566">
        <ele>-34.599998474121</ele>
        <time>2022-02-06T10:57:12.000Z</time>
      </trkpt>
      <trkpt lat="47.27552" lon="-2.32573">
        <ele>-35.200000762939</ele>
        <time>2022-02-06T10:57:13.000Z</time>
      </trkpt>
      <trkpt lat="47.27555" lon="-2.32579">
        <ele>-35.799999237061</ele>
        <time>2022-02-06T10:57:14.000Z</time>
      </trkpt>
      <trkpt lat="47.27556" lon="-2.32585">
        <ele>-36.200000762939</ele>
        <time>2022-02-06T10:57:15.000Z</time>
      </trkpt>
      <trkpt lat="47.27555" lon="-2.3259">
        <ele>-36.799999237061</ele>
        <time>2022-02-06T10:57:16.000Z</time>
      </trkpt>
      <trkpt lat="47.27554" lon="-2.32595">
        <ele>-37.400001525879</ele>
        <time>2022-02-06T10:57:17.000Z</time>
      </trkpt>
      <trkpt lat="47.27542" lon="-2.3261">
        <ele>-37.400001525879</ele>
        <time>2022-02-06T10:57:20.000Z</time>
      </trkpt>
      <trkpt lat="47.2752" lon="-2.32624">
        <ele>-37.400001525879</ele>
        <time>2022-02-06T10:57:24.000Z</time>
      </trkpt>
      <trkpt lat="47.27513" lon="-2.32643">
        <ele>-37.400001525879</ele>
        <time>2022-02-06T10:57:27.000Z</time>
      </trkpt>
      <trkpt lat="47.27496" lon="-2.32673">
        <ele>-37.400001525879</ele>
        <time>2022-02-06T10:57:32.000Z</time>
      </trkpt>
      <trkpt lat="47.27478" lon="-2.32683">
        <ele>-37.400001525879</ele>
        <time>2022-02-06T10:57:36.000Z</time>
      </trkpt>
      <trkpt lat="47.27474" lon="-2.32687">
        <ele>-37.400001525879</ele>
        <time>2022-02-06T10:57:37.000Z</time>
      </trkpt>
      <trkpt lat="47.27472" lon="-2.32692">
        <ele>-37</ele>
        <time>2022-02-06T10:57:38.000Z</time>
      </trkpt>
      <trkpt lat="47.27469" lon="-2.32697">
        <ele>-36.599998474121</ele>
        <time>2022-02-06T10:57:39.000Z</time>
      </trkpt>
      <trkpt lat="47.27467" lon="-2.32702">
        <ele>-36.200000762939</ele>
        <time>2022-02-06T10:57:40.000Z</time>
      </trkpt>
      <trkpt lat="47.27464" lon="-2.32707">
        <ele>-35.799999237061</ele>
        <time>2022-02-06T10:57:41.000Z</time>
      </trkpt>
      <trkpt lat="47.27463" lon="-2.32712">
        <ele>-35.200000762939</ele>
        <time>2022-02-06T10:57:42.000Z</time>
      </trkpt>
      <trkpt lat="47.27458" lon="-2.32725">
        <ele>-35.200000762939</ele>
        <time>2022-02-06T10:57:45.000Z</time>
      </trkpt>
      <trkpt lat="47.27452" lon="-2.3274">
        <ele>-34.799999237061</ele>
        <time>2022-02-06T10:57:48.000Z</time>
      </trkpt>
      <trkpt lat="47.2745" lon="-2.32746">
        <ele>-34.400001525879</ele>
        <time>2022-02-06T10:57:49.000Z</time>
      </trkpt>
      <trkpt lat="47.27448" lon="-2.3275">
        <ele>-33.400001525879</ele>
        <time>2022-02-06T10:57:50.000Z</time>
      </trkpt>
      <trkpt lat="47.27446" lon="-2.32754">
        <ele>-33</ele>
        <time>2022-02-06T10:57:51.000Z</time>
      </trkpt>
      <trkpt lat="47.27441" lon="-2.32773">
        <ele>-32.599998474121</ele>
        <time>2022-02-06T10:57:55.000Z</time>
      </trkpt>
      <trkpt lat="47.2744" lon="-2.32777">
        <ele>-32.200000762939</ele>
        <time>2022-02-06T10:57:56.000Z</time>
      </trkpt>
      <trkpt lat="47.27439" lon="-2.32783">
        <ele>-31.799999237061</ele>
        <time>2022-02-06T10:57:57.000Z</time>
      </trkpt>
      <trkpt lat="47.27438" lon="-2.32788">
        <ele>-31.39999961853</ele>
        <time>2022-02-06T10:57:58.000Z</time>
      </trkpt>
      <trkpt lat="47.27437" lon="-2.32792">
        <ele>-31</ele>
        <time>2022-02-06T10:57:59.000Z</time>
      </trkpt>
      <trkpt lat="47.27434" lon="-2.32813">
        <ele>-31</ele>
        <time>2022-02-06T10:58:03.000Z</time>
      </trkpt>
      <trkpt lat="47.27424" lon="-2.32844">
        <ele>-31</ele>
        <time>2022-02-06T10:58:09.000Z</time>
      </trkpt>
      <trkpt lat="47.27421" lon="-2.32854">
        <ele>-30.60000038147</ele>
        <time>2022-02-06T10:58:11.000Z</time>
      </trkpt>
      <trkpt lat="47.27419" lon="-2.32859">
        <ele>-30</ele>
        <time>2022-02-06T10:58:12.000Z</time>
      </trkpt>
      <trkpt lat="47.27418" lon="-2.32863">
        <ele>-29.60000038147</ele>
        <time>2022-02-06T10:58:13.000Z</time>
      </trkpt>
      <trkpt lat="47.27416" lon="-2.32868">
        <ele>-28.799999237061</ele>
        <time>2022-02-06T10:58:14.000Z</time>
      </trkpt>
      <trkpt lat="47.27413" lon="-2.32875">
        <ele>-28.799999237061</ele>
        <time>2022-02-06T10:58:16.000Z</time>
      </trkpt>
      <trkpt lat="47.27405" lon="-2.32891">
        <ele>-28.799999237061</ele>
        <time>2022-02-06T10:58:20.000Z</time>
      </trkpt>
      <trkpt lat="47.27395" lon="-2.32912">
        <ele>-28.799999237061</ele>
        <time>2022-02-06T10:58:25.000Z</time>
      </trkpt>
      <trkpt lat="47.27387" lon="-2.32934">
        <ele>-28.799999237061</ele>
        <time>2022-02-06T10:58:30.000Z</time>
      </trkpt>
      <trkpt lat="47.27376" lon="-2.32955">
        <ele>-28.799999237061</ele>
        <time>2022-02-06T10:58:35.000Z</time>
      </trkpt>
      <trkpt lat="47.27372" lon="-2.32963">
        <ele>-28.39999961853</ele>
        <time>2022-02-06T10:58:37.000Z</time>
      </trkpt>
      <trkpt lat="47.2737" lon="-2.32967">
        <ele>-27.799999237061</ele>
        <time>2022-02-06T10:58:38.000Z</time>
      </trkpt>
      <trkpt lat="47.27368" lon="-2.32971">
        <ele>-27</ele>
        <time>2022-02-06T10:58:39.000Z</time>
      </trkpt>
      <trkpt lat="47.27366" lon="-2.32975">
        <ele>-26.60000038147</ele>
        <time>2022-02-06T10:58:40.000Z</time>
      </trkpt>
      <trkpt lat="47.27362" lon="-2.32983">
        <ele>-26.60000038147</ele>
        <time>2022-02-06T10:58:42.000Z</time>
      </trkpt>
      <trkpt lat="47.27348" lon="-2.33019">
        <ele>-26.60000038147</ele>
        <time>2022-02-06T10:58:50.000Z</time>
      </trkpt>
      <trkpt lat="47.27334" lon="-2.33061">
        <ele>-26.60000038147</ele>
        <time>2022-02-06T10:58:58.000Z</time>
      </trkpt>
      <trkpt lat="47.27328" lon="-2.3308">
        <ele>-26.200000762939</ele>
        <time>2022-02-06T10:59:02.000Z</time>
      </trkpt>
      <trkpt lat="47.27326" lon="-2.33084">
        <ele>-25.39999961853</ele>
        <time>2022-02-06T10:59:03.000Z</time>
      </trkpt>
      <trkpt lat="47.27324" lon="-2.33089">
        <ele>-25</ele>
        <time>2022-02-06T10:59:04.000Z</time>
      </trkpt>
      <trkpt lat="47.27321" lon="-2.33094">
        <ele>-24.39999961853</ele>
        <time>2022-02-06T10:59:05.000Z</time>
      </trkpt>
      <trkpt lat="47.27306" lon="-2.33114">
        <ele>-24.39999961853</ele>
        <time>2022-02-06T10:59:11.000Z</time>
      </trkpt>
      <trkpt lat="47.27296" lon="-2.33104">
        <ele>-24.39999961853</ele>
        <time>2022-02-06T10:59:14.000Z</time>
      </trkpt>
      <trkpt lat="47.27292" lon="-2.331">
        <ele>-24.39999961853</ele>
        <time>2022-02-06T10:59:15.000Z</time>
      </trkpt>
      <trkpt lat="47.2728" lon="-2.33083">
        <ele>-24.39999961853</ele>
        <time>2022-02-06T10:59:19.000Z</time>
      </trkpt>
      <trkpt lat="47.27274" lon="-2.33075">
        <ele>-24.39999961853</ele>
        <time>2022-02-06T10:59:21.000Z</time>
      </trkpt>
      <trkpt lat="47.27253" lon="-2.33042">
        <ele>-24.39999961853</ele>
        <time>2022-02-06T10:59:27.000Z</time>
      </trkpt>
      <trkpt lat="47.27226" lon="-2.32997">
        <ele>-24.39999961853</ele>
        <time>2022-02-06T10:59:34.000Z</time>
      </trkpt>
      <trkpt lat="47.27222" lon="-2.3299">
        <ele>-25</ele>
        <time>2022-02-06T10:59:35.000Z</time>
      </trkpt>
      <trkpt lat="47.27218" lon="-2.32985">
        <ele>-25.39999961853</ele>
        <time>2022-02-06T10:59:36.000Z</time>
      </trkpt>
      <trkpt lat="47.27213" lon="-2.32982">
        <ele>-25.799999237061</ele>
        <time>2022-02-06T10:59:37.000Z</time>
      </trkpt>
      <trkpt lat="47.27208" lon="-2.32983">
        <ele>-26.39999961853</ele>
        <time>2022-02-06T10:59:38.000Z</time>
      </trkpt>
      <trkpt lat="47.27204" lon="-2.32986">
        <ele>-26.799999237061</ele>
        <time>2022-02-06T10:59:39.000Z</time>
      </trkpt>
      <trkpt lat="47.27197" lon="-2.32993">
        <ele>-26.799999237061</ele>
        <time>2022-02-06T10:59:41.000Z</time>
      </trkpt>
      <trkpt lat="47.27189" lon="-2.32999">
        <ele>-26.799999237061</ele>
        <time>2022-02-06T10:59:43.000Z</time>
      </trkpt>
      <trkpt lat="47.27168" lon="-2.33013">
        <ele>-26.799999237061</ele>
        <time>2022-02-06T10:59:48.000Z</time>
      </trkpt>
      <trkpt lat="47.27139" lon="-2.33035">
        <ele>-26.799999237061</ele>
        <time>2022-02-06T10:59:55.000Z</time>
      </trkpt>
      <trkpt lat="47.27112" lon="-2.33056">
        <ele>-26.799999237061</ele>
        <time>2022-02-06T11:00:01.000Z</time>
      </trkpt>
      <trkpt lat="47.27091" lon="-2.33075">
        <ele>-26.799999237061</ele>
        <time>2022-02-06T11:00:06.000Z</time>
      </trkpt>
      <trkpt lat="47.27083" lon="-2.33084">
        <ele>-26.799999237061</ele>
        <time>2022-02-06T11:00:08.000Z</time>
      </trkpt>
      <trkpt lat="47.27054" lon="-2.33116">
        <ele>-26.799999237061</ele>
        <time>2022-02-06T11:00:15.000Z</time>
      </trkpt>
      <trkpt lat="47.27024" lon="-2.33146">
        <ele>-26.799999237061</ele>
        <time>2022-02-06T11:00:22.000Z</time>
      </trkpt>
      <trkpt lat="47.2699" lon="-2.33176">
        <ele>-26.799999237061</ele>
        <time>2022-02-06T11:00:30.000Z</time>
      </trkpt>
      <trkpt lat="47.26981" lon="-2.33185">
        <ele>-26.799999237061</ele>
        <time>2022-02-06T11:00:32.000Z</time>
      </trkpt>
      <trkpt lat="47.26977" lon="-2.3319">
        <ele>-26.39999961853</ele>
        <time>2022-02-06T11:00:33.000Z</time>
      </trkpt>
      <trkpt lat="47.26973" lon="-2.33195">
        <ele>-26</ele>
        <time>2022-02-06T11:00:34.000Z</time>
      </trkpt>
      <trkpt lat="47.26969" lon="-2.332">
        <ele>-25.60000038147</ele>
        <time>2022-02-06T11:00:35.000Z</time>
      </trkpt>
      <trkpt lat="47.26965" lon="-2.33203">
        <ele>-25.200000762939</ele>
        <time>2022-02-06T11:00:36.000Z</time>
      </trkpt>
      <trkpt lat="47.2696" lon="-2.33206">
        <ele>-24.799999237061</ele>
        <time>2022-02-06T11:00:37.000Z</time>
      </trkpt>
      <trkpt lat="47.26947" lon="-2.33217">
        <ele>-24.799999237061</ele>
        <time>2022-02-06T11:00:40.000Z</time>
      </trkpt>
      <trkpt lat="47.26938" lon="-2.33223">
        <ele>-24.799999237061</ele>
        <time>2022-02-06T11:00:42.000Z</time>
      </trkpt>
      <trkpt lat="47.2693" lon="-2.33232">
        <ele>-24.799999237061</ele>
        <time>2022-02-06T11:00:45.000Z</time>
      </trkpt>
      <trkpt lat="47.26933" lon="-2.33251">
        <ele>-24.799999237061</ele>
        <time>2022-02-06T11:00:48.000Z</time>
      </trkpt>
      <trkpt lat="47.26936" lon="-2.33262">
        <ele>-24.799999237061</ele>
        <time>2022-02-06T11:00:50.000Z</time>
      </trkpt>
      <trkpt lat="47.26944" lon="-2.33283">
        <ele>-24.799999237061</ele>
        <time>2022-02-06T11:00:54.000Z</time>
      </trkpt>
      <trkpt lat="47.26959" lon="-2.3333">
        <ele>-24.799999237061</ele>
        <time>2022-02-06T11:01:02.000Z</time>
      </trkpt>
      <trkpt lat="47.2697" lon="-2.33368">
        <ele>-24.799999237061</ele>
        <time>2022-02-06T11:01:09.000Z</time>
      </trkpt>
      <trkpt lat="47.2697" lon="-2.33373">
        <ele>-24.799999237061</ele>
        <time>2022-02-06T11:01:10.000Z</time>
      </trkpt>
      <trkpt lat="47.26965" lon="-2.33381">
        <ele>-24.799999237061</ele>
        <time>2022-02-06T11:01:12.000Z</time>
      </trkpt>
      <trkpt lat="47.26958" lon="-2.33384">
        <ele>-24.799999237061</ele>
        <time>2022-02-06T11:01:14.000Z</time>
      </trkpt>
      <trkpt lat="47.26954" lon="-2.33385">
        <ele>-25.200000762939</ele>
        <time>2022-02-06T11:01:15.000Z</time>
      </trkpt>
      <trkpt lat="47.26951" lon="-2.33386">
        <ele>-25.60000038147</ele>
        <time>2022-02-06T11:01:16.000Z</time>
      </trkpt>
      <trkpt lat="47.26947" lon="-2.33388">
        <ele>-26</ele>
        <time>2022-02-06T11:01:17.000Z</time>
      </trkpt>
      <trkpt lat="47.26943" lon="-2.3339">
        <ele>-26.60000038147</ele>
        <time>2022-02-06T11:01:18.000Z</time>
      </trkpt>
      <trkpt lat="47.26939" lon="-2.33392">
        <ele>-27</ele>
        <time>2022-02-06T11:01:19.000Z</time>
      </trkpt>
      <trkpt lat="47.26923" lon="-2.334">
        <ele>-27</ele>
        <time>2022-02-06T11:01:22.000Z</time>
      </trkpt>
      <trkpt lat="47.26896" lon="-2.33414">
        <ele>-27.39999961853</ele>
        <time>2022-02-06T11:01:27.000Z</time>
      </trkpt>
      <trkpt lat="47.26891" lon="-2.33416">
        <ele>-27.799999237061</ele>
        <time>2022-02-06T11:01:28.000Z</time>
      </trkpt>
      <trkpt lat="47.26886" lon="-2.33419">
        <ele>-28.200000762939</ele>
        <time>2022-02-06T11:01:29.000Z</time>
      </trkpt>
      <trkpt lat="47.26883" lon="-2.33423">
        <ele>-28.60000038147</ele>
        <time>2022-02-06T11:01:30.000Z</time>
      </trkpt>
      <trkpt lat="47.26881" lon="-2.33429">
        <ele>-29</ele>
        <time>2022-02-06T11:01:31.000Z</time>
      </trkpt>
      <trkpt lat="47.26879" lon="-2.33436">
        <ele>-29.39999961853</ele>
        <time>2022-02-06T11:01:32.000Z</time>
      </trkpt>
      <trkpt lat="47.26877" lon="-2.33444">
        <ele>-30</ele>
        <time>2022-02-06T11:01:33.000Z</time>
      </trkpt>
      <trkpt lat="47.26878" lon="-2.33454">
        <ele>-30.39999961853</ele>
        <time>2022-02-06T11:01:34.000Z</time>
      </trkpt>
      <trkpt lat="47.26879" lon="-2.33464">
        <ele>-30.799999237061</ele>
        <time>2022-02-06T11:01:35.000Z</time>
      </trkpt>
      <trkpt lat="47.26881" lon="-2.33475">
        <ele>-31.39999961853</ele>
        <time>2022-02-06T11:01:36.000Z</time>
      </trkpt>
      <trkpt lat="47.26884" lon="-2.33486">
        <ele>-31.799999237061</ele>
        <time>2022-02-06T11:01:37.000Z</time>
      </trkpt>
      <trkpt lat="47.26886" lon="-2.33497">
        <ele>-32.400001525879</ele>
        <time>2022-02-06T11:01:38.000Z</time>
      </trkpt>
      <trkpt lat="47.26889" lon="-2.33507">
        <ele>-33.200000762939</ele>
        <time>2022-02-06T11:01:39.000Z</time>
      </trkpt>
      <trkpt lat="47.26891" lon="-2.33517">
        <ele>-34</ele>
        <time>2022-02-06T11:01:40.000Z</time>
      </trkpt>
      <trkpt lat="47.26891" lon="-2.33525">
        <ele>-34.799999237061</ele>
        <time>2022-02-06T11:01:41.000Z</time>
      </trkpt>
      <trkpt lat="47.26889" lon="-2.33531">
        <ele>-35.599998474121</ele>
        <time>2022-02-06T11:01:42.000Z</time>
      </trkpt>
      <trkpt lat="47.26884" lon="-2.33536">
        <ele>-36.400001525879</ele>
        <time>2022-02-06T11:01:43.000Z</time>
      </trkpt>
      <trkpt lat="47.26879" lon="-2.33538">
        <ele>-37.200000762939</ele>
        <time>2022-02-06T11:01:44.000Z</time>
      </trkpt>
      <trkpt lat="47.26873" lon="-2.3354">
        <ele>-38</ele>
        <time>2022-02-06T11:01:45.000Z</time>
      </trkpt>
      <trkpt lat="47.26866" lon="-2.33541">
        <ele>-38.799999237061</ele>
        <time>2022-02-06T11:01:46.000Z</time>
      </trkpt>
      <trkpt lat="47.26853" lon="-2.33545">
        <ele>-39.200000762939</ele>
        <time>2022-02-06T11:01:48.000Z</time>
      </trkpt>
      <trkpt lat="47.26846" lon="-2.33547">
        <ele>-39.799999237061</ele>
        <time>2022-02-06T11:01:49.000Z</time>
      </trkpt>
      <trkpt lat="47.2684" lon="-2.3355">
        <ele>-40.200000762939</ele>
        <time>2022-02-06T11:01:50.000Z</time>
      </trkpt>
      <trkpt lat="47.26834" lon="-2.33552">
        <ele>-40.599998474121</ele>
        <time>2022-02-06T11:01:51.000Z</time>
      </trkpt>
      <trkpt lat="47.26828" lon="-2.33553">
        <ele>-41.200000762939</ele>
        <time>2022-02-06T11:01:52.000Z</time>
      </trkpt>
      <trkpt lat="47.26822" lon="-2.33554">
        <ele>-41.200000762939</ele>
        <time>2022-02-06T11:01:53.000Z</time>
      </trkpt>
      <trkpt lat="47.26791" lon="-2.33565">
        <ele>-41.200000762939</ele>
        <time>2022-02-06T11:01:59.000Z</time>
      </trkpt>
      <trkpt lat="47.26787" lon="-2.33568">
        <ele>-41.200000762939</ele>
        <time>2022-02-06T11:02:00.000Z</time>
      </trkpt>
      <trkpt lat="47.26779" lon="-2.33586">
        <ele>-41.200000762939</ele>
        <time>2022-02-06T11:02:03.000Z</time>
      </trkpt>
      <trkpt lat="47.2678" lon="-2.33601">
        <ele>-41.200000762939</ele>
        <time>2022-02-06T11:02:05.000Z</time>
      </trkpt>
      <trkpt lat="47.26779" lon="-2.33616">
        <ele>-41.200000762939</ele>
        <time>2022-02-06T11:02:07.000Z</time>
      </trkpt>
      <trkpt lat="47.26778" lon="-2.33676">
        <ele>-41.200000762939</ele>
        <time>2022-02-06T11:02:16.000Z</time>
      </trkpt>
      <trkpt lat="47.26777" lon="-2.33689">
        <ele>-40.599998474121</ele>
        <time>2022-02-06T11:02:19.000Z</time>
      </trkpt>
      <trkpt lat="47.26777" lon="-2.33693">
        <ele>-40.200000762939</ele>
        <time>2022-02-06T11:02:20.000Z</time>
      </trkpt>
      <trkpt lat="47.26776" lon="-2.33696">
        <ele>-39.400001525879</ele>
        <time>2022-02-06T11:02:21.000Z</time>
      </trkpt>
      <trkpt lat="47.26776" lon="-2.33698">
        <ele>-38.799999237061</ele>
        <time>2022-02-06T11:02:22.000Z</time>
      </trkpt>
      <trkpt lat="47.26772" lon="-2.33707">
        <ele>-38.799999237061</ele>
        <time>2022-02-06T11:02:27.000Z</time>
      </trkpt>
      <trkpt lat="47.26772" lon="-2.33707">
        <ele>-38.799999237061</ele>
        <time>2022-02-06T11:02:28.000Z</time>
      </trkpt>
      <trkpt lat="47.26769" lon="-2.33707">
        <ele>-38.799999237061</ele>
        <time>2022-02-06T11:02:46.000Z</time>
      </trkpt>
      <trkpt lat="47.26764" lon="-2.33705">
        <ele>-38.799999237061</ele>
        <time>2022-02-06T11:02:48.000Z</time>
      </trkpt>
      <trkpt lat="47.26748" lon="-2.33702">
        <ele>-38.799999237061</ele>
        <time>2022-02-06T11:02:53.000Z</time>
      </trkpt>
      <trkpt lat="47.26723" lon="-2.33702">
        <ele>-38.799999237061</ele>
        <time>2022-02-06T11:02:59.000Z</time>
      </trkpt>
      <trkpt lat="47.26692" lon="-2.33701">
        <ele>-38.799999237061</ele>
        <time>2022-02-06T11:03:06.000Z</time>
      </trkpt>
      <trkpt lat="47.26656" lon="-2.33701">
        <ele>-38.799999237061</ele>
        <time>2022-02-06T11:03:14.000Z</time>
      </trkpt>
      <trkpt lat="47.26648" lon="-2.33702">
        <ele>-38.799999237061</ele>
        <time>2022-02-06T11:03:16.000Z</time>
      </trkpt>
      <trkpt lat="47.2663" lon="-2.33702">
        <ele>-38.799999237061</ele>
        <time>2022-02-06T11:03:20.000Z</time>
      </trkpt>
      <trkpt lat="47.26602" lon="-2.33703">
        <ele>-38.799999237061</ele>
        <time>2022-02-06T11:03:27.000Z</time>
      </trkpt>
      <trkpt lat="47.26588" lon="-2.33692">
        <ele>-38.799999237061</ele>
        <time>2022-02-06T11:03:32.000Z</time>
      </trkpt>
      <trkpt lat="47.26572" lon="-2.33688">
        <ele>-38.799999237061</ele>
        <time>2022-02-06T11:03:36.000Z</time>
      </trkpt>
      <trkpt lat="47.26564" lon="-2.33687">
        <ele>-38.799999237061</ele>
        <time>2022-02-06T11:03:38.000Z</time>
      </trkpt>
      <trkpt lat="47.26536" lon="-2.33679">
        <ele>-38.799999237061</ele>
        <time>2022-02-06T11:03:44.000Z</time>
      </trkpt>
      <trkpt lat="47.26526" lon="-2.33676">
        <ele>-38.400001525879</ele>
        <time>2022-02-06T11:03:46.000Z</time>
      </trkpt>
      <trkpt lat="47.26521" lon="-2.33674">
        <ele>-38</ele>
        <time>2022-02-06T11:03:47.000Z</time>
      </trkpt>
      <trkpt lat="47.26517" lon="-2.33673">
        <ele>-37.599998474121</ele>
        <time>2022-02-06T11:03:48.000Z</time>
      </trkpt>
      <trkpt lat="47.26512" lon="-2.33671">
        <ele>-37.200000762939</ele>
        <time>2022-02-06T11:03:49.000Z</time>
      </trkpt>
      <trkpt lat="47.26508" lon="-2.3367">
        <ele>-36.799999237061</ele>
        <time>2022-02-06T11:03:50.000Z</time>
      </trkpt>
      <trkpt lat="47.26473" lon="-2.33652">
        <ele>-36.799999237061</ele>
        <time>2022-02-06T11:03:58.000Z</time>
      </trkpt>
      <trkpt lat="47.26451" lon="-2.33631">
        <ele>-36.799999237061</ele>
        <time>2022-02-06T11:04:04.000Z</time>
      </trkpt>
      <trkpt lat="47.26447" lon="-2.33626">
        <ele>-36.799999237061</ele>
        <time>2022-02-06T11:04:05.000Z</time>
      </trkpt>
      <trkpt lat="47.26444" lon="-2.33622">
        <ele>-36.799999237061</ele>
        <time>2022-02-06T11:04:06.000Z</time>
      </trkpt>
      <trkpt lat="47.26433" lon="-2.33611">
        <ele>-36.799999237061</ele>
        <time>2022-02-06T11:04:09.000Z</time>
      </trkpt>
      <trkpt lat="47.26423" lon="-2.33607">
        <ele>-36.799999237061</ele>
        <time>2022-02-06T11:04:11.000Z</time>
      </trkpt>
      <trkpt lat="47.26403" lon="-2.3361">
        <ele>-36.799999237061</ele>
        <time>2022-02-06T11:04:15.000Z</time>
      </trkpt>
      <trkpt lat="47.26394" lon="-2.33616">
        <ele>-36.799999237061</ele>
        <time>2022-02-06T11:04:17.000Z</time>
      </trkpt>
      <trkpt lat="47.26376" lon="-2.33626">
        <ele>-36.799999237061</ele>
        <time>2022-02-06T11:04:21.000Z</time>
      </trkpt>
      <trkpt lat="47.26349" lon="-2.33642">
        <ele>-36.799999237061</ele>
        <time>2022-02-06T11:04:27.000Z</time>
      </trkpt>
      <trkpt lat="47.26319" lon="-2.33652">
        <ele>-37.200000762939</ele>
        <time>2022-02-06T11:04:34.000Z</time>
      </trkpt>
      <trkpt lat="47.26317" lon="-2.33647">
        <ele>-37.799999237061</ele>
        <time>2022-02-06T11:04:35.000Z</time>
      </trkpt>
      <trkpt lat="47.26315" lon="-2.33641">
        <ele>-38.200000762939</ele>
        <time>2022-02-06T11:04:36.000Z</time>
      </trkpt>
      <trkpt lat="47.26313" lon="-2.33634">
        <ele>-38.599998474121</ele>
        <time>2022-02-06T11:04:37.000Z</time>
      </trkpt>
      <trkpt lat="47.26311" lon="-2.33627">
        <ele>-39</ele>
        <time>2022-02-06T11:04:38.000Z</time>
      </trkpt>
      <trkpt lat="47.2631" lon="-2.33613">
        <ele>-39</ele>
        <time>2022-02-06T11:04:40.000Z</time>
      </trkpt>
      <trkpt lat="47.2631" lon="-2.33605">
        <ele>-39</ele>
        <time>2022-02-06T11:04:41.000Z</time>
      </trkpt>
      <trkpt lat="47.26311" lon="-2.33598">
        <ele>-39</ele>
        <time>2022-02-06T11:04:42.000Z</time>
      </trkpt>
      <trkpt lat="47.26316" lon="-2.33559">
        <ele>-39</ele>
        <time>2022-02-06T11:04:48.000Z</time>
      </trkpt>
      <trkpt lat="47.26317" lon="-2.33553">
        <ele>-39.799999237061</ele>
        <time>2022-02-06T11:04:49.000Z</time>
      </trkpt>
      <trkpt lat="47.26318" lon="-2.33546">
        <ele>-40.200000762939</ele>
        <time>2022-02-06T11:04:50.000Z</time>
      </trkpt>
      <trkpt lat="47.26319" lon="-2.33539">
        <ele>-40.599998474121</ele>
        <time>2022-02-06T11:04:51.000Z</time>
      </trkpt>
      <trkpt lat="47.2632" lon="-2.33532">
        <ele>-41</ele>
        <time>2022-02-06T11:04:52.000Z</time>
      </trkpt>
      <trkpt lat="47.26324" lon="-2.33512">
        <ele>-41</ele>
        <time>2022-02-06T11:04:55.000Z</time>
      </trkpt>
      <trkpt lat="47.26326" lon="-2.33483">
        <ele>-41</ele>
        <time>2022-02-06T11:04:59.000Z</time>
      </trkpt>
      <trkpt lat="47.26326" lon="-2.33468">
        <ele>-41</ele>
        <time>2022-02-06T11:05:01.000Z</time>
      </trkpt>
      <trkpt lat="47.26327" lon="-2.33441">
        <ele>-41</ele>
        <time>2022-02-06T11:05:05.000Z</time>
      </trkpt>
      <trkpt lat="47.26322" lon="-2.33429">
        <ele>-41</ele>
        <time>2022-02-06T11:05:07.000Z</time>
      </trkpt>
      <trkpt lat="47.26308" lon="-2.33426">
        <ele>-41</ele>
        <time>2022-02-06T11:05:10.000Z</time>
      </trkpt>
      <trkpt lat="47.26297" lon="-2.33429">
        <ele>-41</ele>
        <time>2022-02-06T11:05:12.000Z</time>
      </trkpt>
      <trkpt lat="47.26281" lon="-2.33433">
        <ele>-41</ele>
        <time>2022-02-06T11:05:15.000Z</time>
      </trkpt>
      <trkpt lat="47.26245" lon="-2.33442">
        <ele>-41</ele>
        <time>2022-02-06T11:05:21.000Z</time>
      </trkpt>
      <trkpt lat="47.26233" lon="-2.33445">
        <ele>-40.599998474121</ele>
        <time>2022-02-06T11:05:23.000Z</time>
      </trkpt>
      <trkpt lat="47.26227" lon="-2.33446">
        <ele>-40.200000762939</ele>
        <time>2022-02-06T11:05:24.000Z</time>
      </trkpt>
      <trkpt lat="47.26221" lon="-2.33447">
        <ele>-39.799999237061</ele>
        <time>2022-02-06T11:05:25.000Z</time>
      </trkpt>
      <trkpt lat="47.26216" lon="-2.33448">
        <ele>-39.400001525879</ele>
        <time>2022-02-06T11:05:26.000Z</time>
      </trkpt>
      <trkpt lat="47.2621" lon="-2.33449">
        <ele>-39</ele>
        <time>2022-02-06T11:05:27.000Z</time>
      </trkpt>
      <trkpt lat="47.26205" lon="-2.3345">
        <ele>-39</ele>
        <time>2022-02-06T11:05:28.000Z</time>
      </trkpt>
      <trkpt lat="47.26174" lon="-2.33455">
        <ele>-39</ele>
        <time>2022-02-06T11:05:34.000Z</time>
      </trkpt>
      <trkpt lat="47.2613" lon="-2.33452">
        <ele>-39</ele>
        <time>2022-02-06T11:05:43.000Z</time>
      </trkpt>
      <trkpt lat="47.26116" lon="-2.33453">
        <ele>-39</ele>
        <time>2022-02-06T11:05:46.000Z</time>
      </trkpt>
      <trkpt lat="47.26108" lon="-2.33462">
        <ele>-39</ele>
        <time>2022-02-06T11:05:48.000Z</time>
      </trkpt>
      <trkpt lat="47.261" lon="-2.33469">
        <ele>-39</ele>
        <time>2022-02-06T11:05:50.000Z</time>
      </trkpt>
      <trkpt lat="47.26085" lon="-2.33471">
        <ele>-39</ele>
        <time>2022-02-06T11:05:53.000Z</time>
      </trkpt>
      <trkpt lat="47.26071" lon="-2.33462">
        <ele>-39</ele>
        <time>2022-02-06T11:05:56.000Z</time>
      </trkpt>
      <trkpt lat="47.26066" lon="-2.33457">
        <ele>-39</ele>
        <time>2022-02-06T11:05:57.000Z</time>
      </trkpt>
      <trkpt lat="47.26056" lon="-2.33452">
        <ele>-39</ele>
        <time>2022-02-06T11:05:59.000Z</time>
      </trkpt>
      <trkpt lat="47.26047" lon="-2.3346">
        <ele>-39</ele>
        <time>2022-02-06T11:06:01.000Z</time>
      </trkpt>
      <trkpt lat="47.26033" lon="-2.33483">
        <ele>-39</ele>
        <time>2022-02-06T11:06:05.000Z</time>
      </trkpt>
      <trkpt lat="47.26013" lon="-2.33492">
        <ele>-39</ele>
        <time>2022-02-06T11:06:09.000Z</time>
      </trkpt>
      <trkpt lat="47.26008" lon="-2.33493">
        <ele>-39</ele>
        <time>2022-02-06T11:06:10.000Z</time>
      </trkpt>
      <trkpt lat="47.25988" lon="-2.335">
        <ele>-39</ele>
        <time>2022-02-06T11:06:14.000Z</time>
      </trkpt>
      <trkpt lat="47.25983" lon="-2.33505">
        <ele>-39</ele>
        <time>2022-02-06T11:06:15.000Z</time>
      </trkpt>
      <trkpt lat="47.25968" lon="-2.33509">
        <ele>-39</ele>
        <time>2022-02-06T11:06:18.000Z</time>
      </trkpt>
      <trkpt lat="47.25959" lon="-2.33509">
        <ele>-39</ele>
        <time>2022-02-06T11:06:20.000Z</time>
      </trkpt>
      <trkpt lat="47.25954" lon="-2.33511">
        <ele>-39</ele>
        <time>2022-02-06T11:06:21.000Z</time>
      </trkpt>
      <trkpt lat="47.2595" lon="-2.33515">
        <ele>-39</ele>
        <time>2022-02-06T11:06:22.000Z</time>
      </trkpt>
      <trkpt lat="47.25928" lon="-2.33538">
        <ele>-39</ele>
        <time>2022-02-06T11:06:28.000Z</time>
      </trkpt>
      <trkpt lat="47.25902" lon="-2.33561">
        <ele>-39</ele>
        <time>2022-02-06T11:06:35.000Z</time>
      </trkpt>
      <trkpt lat="47.25883" lon="-2.33575">
        <ele>-39</ele>
        <time>2022-02-06T11:06:40.000Z</time>
      </trkpt>
      <trkpt lat="47.25878" lon="-2.33577">
        <ele>-39</ele>
        <time>2022-02-06T11:06:41.000Z</time>
      </trkpt>
      <trkpt lat="47.25864" lon="-2.33577">
        <ele>-39</ele>
        <time>2022-02-06T11:06:44.000Z</time>
      </trkpt>
      <trkpt lat="47.25855" lon="-2.3358">
        <ele>-39</ele>
        <time>2022-02-06T11:06:46.000Z</time>
      </trkpt>
      <trkpt lat="47.2583" lon="-2.33581">
        <ele>-39</ele>
        <time>2022-02-06T11:06:51.000Z</time>
      </trkpt>
      <trkpt lat="47.25792" lon="-2.33582">
        <ele>-38.599998474121</ele>
        <time>2022-02-06T11:06:59.000Z</time>
      </trkpt>
      <trkpt lat="47.25787" lon="-2.33582">
        <ele>-38.200000762939</ele>
        <time>2022-02-06T11:07:00.000Z</time>
      </trkpt>
      <trkpt lat="47.25782" lon="-2.33583">
        <ele>-37.799999237061</ele>
        <time>2022-02-06T11:07:01.000Z</time>
      </trkpt>
      <trkpt lat="47.25778" lon="-2.33583">
        <ele>-37.200000762939</ele>
        <time>2022-02-06T11:07:02.000Z</time>
      </trkpt>
      <trkpt lat="47.25773" lon="-2.33583">
        <ele>-36.799999237061</ele>
        <time>2022-02-06T11:07:03.000Z</time>
      </trkpt>
      <trkpt lat="47.25749" lon="-2.33587">
        <ele>-36.799999237061</ele>
        <time>2022-02-06T11:07:08.000Z</time>
      </trkpt>
      <trkpt lat="47.2573" lon="-2.33586">
        <ele>-36.799999237061</ele>
        <time>2022-02-06T11:07:12.000Z</time>
      </trkpt>
      <trkpt lat="47.25715" lon="-2.33586">
        <ele>-36.799999237061</ele>
        <time>2022-02-06T11:07:15.000Z</time>
      </trkpt>
      <trkpt lat="47.257" lon="-2.33587">
        <ele>-36.799999237061</ele>
        <time>2022-02-06T11:07:18.000Z</time>
      </trkpt>
      <trkpt lat="47.25691" lon="-2.33586">
        <ele>-36.799999237061</ele>
        <time>2022-02-06T11:07:20.000Z</time>
      </trkpt>
      <trkpt lat="47.25671" lon="-2.33582">
        <ele>-36.799999237061</ele>
        <time>2022-02-06T11:07:24.000Z</time>
      </trkpt>
      <trkpt lat="47.25642" lon="-2.33569">
        <ele>-36.799999237061</ele>
        <time>2022-02-06T11:07:30.000Z</time>
      </trkpt>
      <trkpt lat="47.25611" lon="-2.33548">
        <ele>-36.799999237061</ele>
        <time>2022-02-06T11:07:37.000Z</time>
      </trkpt>
      <trkpt lat="47.25578" lon="-2.33512">
        <ele>-36.799999237061</ele>
        <time>2022-02-06T11:07:45.000Z</time>
      </trkpt>
      <trkpt lat="47.25553" lon="-2.33466">
        <ele>-36.799999237061</ele>
        <time>2022-02-06T11:07:53.000Z</time>
      </trkpt>
      <trkpt lat="47.25534" lon="-2.33413">
        <ele>-36.799999237061</ele>
        <time>2022-02-06T11:08:01.000Z</time>
      </trkpt>
      <trkpt lat="47.25526" lon="-2.33359">
        <ele>-36.799999237061</ele>
        <time>2022-02-06T11:08:08.000Z</time>
      </trkpt>
      <trkpt lat="47.25518" lon="-2.3329">
        <ele>-36.799999237061</ele>
        <time>2022-02-06T11:08:17.000Z</time>
      </trkpt>
      <trkpt lat="47.25509" lon="-2.33228">
        <ele>-36.799999237061</ele>
        <time>2022-02-06T11:08:25.000Z</time>
      </trkpt>
      <trkpt lat="47.255" lon="-2.33151">
        <ele>-36.799999237061</ele>
        <time>2022-02-06T11:08:35.000Z</time>
      </trkpt>
      <trkpt lat="47.25493" lon="-2.331">
        <ele>-36.799999237061</ele>
        <time>2022-02-06T11:08:42.000Z</time>
      </trkpt>
      <trkpt lat="47.25489" lon="-2.33095">
        <ele>-36.799999237061</ele>
        <time>2022-02-06T11:08:43.000Z</time>
      </trkpt>
      <trkpt lat="47.25476" lon="-2.33098">
        <ele>-36.799999237061</ele>
        <time>2022-02-06T11:08:46.000Z</time>
      </trkpt>
      <trkpt lat="47.25472" lon="-2.33101">
        <ele>-36.799999237061</ele>
        <time>2022-02-06T11:08:47.000Z</time>
      </trkpt>
      <trkpt lat="47.25468" lon="-2.33103">
        <ele>-36.799999237061</ele>
        <time>2022-02-06T11:08:48.000Z</time>
      </trkpt>
      <trkpt lat="47.25449" lon="-2.3311">
        <ele>-36.799999237061</ele>
        <time>2022-02-06T11:08:52.000Z</time>
      </trkpt>
      <trkpt lat="47.25415" lon="-2.33125">
        <ele>-36.799999237061</ele>
        <time>2022-02-06T11:09:00.000Z</time>
      </trkpt>
      <trkpt lat="47.25393" lon="-2.33137">
        <ele>-36.799999237061</ele>
        <time>2022-02-06T11:09:06.000Z</time>
      </trkpt>
      <trkpt lat="47.2538" lon="-2.33133">
        <ele>-36.799999237061</ele>
        <time>2022-02-06T11:09:10.000Z</time>
      </trkpt>
      <trkpt lat="47.25374" lon="-2.33118">
        <ele>-36.799999237061</ele>
        <time>2022-02-06T11:09:14.000Z</time>
      </trkpt>
      <trkpt lat="47.2537" lon="-2.33106">
        <ele>-36.799999237061</ele>
        <time>2022-02-06T11:09:19.000Z</time>
      </trkpt>
      <trkpt lat="47.25368" lon="-2.33099">
        <ele>-36.799999237061</ele>
        <time>2022-02-06T11:09:25.000Z</time>
      </trkpt>
      <trkpt lat="47.25366" lon="-2.33094">
        <ele>-41</ele>
        <time>2022-02-06T11:22:41.000Z</time>
      </trkpt>
      <trkpt lat="47.25364" lon="-2.33089">
        <ele>-41</ele>
        <time>2022-02-06T11:22:44.000Z</time>
      </trkpt>
      <trkpt lat="47.25361" lon="-2.33083">
        <ele>-41</ele>
        <time>2022-02-06T11:22:49.000Z</time>
      </trkpt>
      <trkpt lat="47.2536" lon="-2.33076">
        <ele>-41</ele>
        <time>2022-02-06T11:24:26.000Z</time>
      </trkpt>
      <trkpt lat="47.25353" lon="-2.3306">
        <ele>-41</ele>
        <time>2022-02-06T11:24:32.000Z</time>
      </trkpt>
      <trkpt lat="47.25343" lon="-2.33031">
        <ele>-40.400001525879</ele>
        <time>2022-02-06T11:24:39.000Z</time>
      </trkpt>
      <trkpt lat="47.25341" lon="-2.33026">
        <ele>-40</ele>
        <time>2022-02-06T11:24:40.000Z</time>
      </trkpt>
      <trkpt lat="47.25339" lon="-2.33022">
        <ele>-39.599998474121</ele>
        <time>2022-02-06T11:24:41.000Z</time>
      </trkpt>
      <trkpt lat="47.25337" lon="-2.33017">
        <ele>-39.200000762939</ele>
        <time>2022-02-06T11:24:42.000Z</time>
      </trkpt>
      <trkpt lat="47.25335" lon="-2.33011">
        <ele>-38.799999237061</ele>
        <time>2022-02-06T11:24:43.000Z</time>
      </trkpt>
      <trkpt lat="47.25326" lon="-2.32988">
        <ele>-38.799999237061</ele>
        <time>2022-02-06T11:24:47.000Z</time>
      </trkpt>
      <trkpt lat="47.25318" lon="-2.32966">
        <ele>-38.799999237061</ele>
        <time>2022-02-06T11:24:51.000Z</time>
      </trkpt>
      <trkpt lat="47.25316" lon="-2.32961">
        <ele>-38.799999237061</ele>
        <time>2022-02-06T11:24:52.000Z</time>
      </trkpt>
      <trkpt lat="47.25309" lon="-2.32926">
        <ele>-38.799999237061</ele>
        <time>2022-02-06T11:24:58.000Z</time>
      </trkpt>
      <trkpt lat="47.2532" lon="-2.32908">
        <ele>-38.799999237061</ele>
        <time>2022-02-06T11:25:02.000Z</time>
      </trkpt>
      <trkpt lat="47.25331" lon="-2.32897">
        <ele>-38.799999237061</ele>
        <time>2022-02-06T11:25:05.000Z</time>
      </trkpt>
      <trkpt lat="47.25342" lon="-2.32887">
        <ele>-38.799999237061</ele>
        <time>2022-02-06T11:25:08.000Z</time>
      </trkpt>
      <trkpt lat="47.25372" lon="-2.32859">
        <ele>-38.799999237061</ele>
        <time>2022-02-06T11:25:16.000Z</time>
      </trkpt>
      <trkpt lat="47.25401" lon="-2.32827">
        <ele>-38.799999237061</ele>
        <time>2022-02-06T11:25:24.000Z</time>
      </trkpt>
      <trkpt lat="47.25408" lon="-2.32817">
        <ele>-38.799999237061</ele>
        <time>2022-02-06T11:25:26.000Z</time>
      </trkpt>
      <trkpt lat="47.2542" lon="-2.32799">
        <ele>-38.799999237061</ele>
        <time>2022-02-06T11:25:30.000Z</time>
      </trkpt>
      <trkpt lat="47.2543" lon="-2.32775">
        <ele>-38.400001525879</ele>
        <time>2022-02-06T11:25:35.000Z</time>
      </trkpt>
      <trkpt lat="47.25432" lon="-2.32771">
        <ele>-37.799999237061</ele>
        <time>2022-02-06T11:25:36.000Z</time>
      </trkpt>
      <trkpt lat="47.25435" lon="-2.32767">
        <ele>-37.400001525879</ele>
        <time>2022-02-06T11:25:37.000Z</time>
      </trkpt>
      <trkpt lat="47.25438" lon="-2.32763">
        <ele>-37</ele>
        <time>2022-02-06T11:25:38.000Z</time>
      </trkpt>
      <trkpt lat="47.25441" lon="-2.32758">
        <ele>-36.599998474121</ele>
        <time>2022-02-06T11:25:39.000Z</time>
      </trkpt>
      <trkpt lat="47.25448" lon="-2.32748">
        <ele>-36.599998474121</ele>
        <time>2022-02-06T11:25:41.000Z</time>
      </trkpt>
      <trkpt lat="47.25475" lon="-2.32715">
        <ele>-36.599998474121</ele>
        <time>2022-02-06T11:25:49.000Z</time>
      </trkpt>
      <trkpt lat="47.25484" lon="-2.32701">
        <ele>-36.599998474121</ele>
        <time>2022-02-06T11:25:52.000Z</time>
      </trkpt>
      <trkpt lat="47.25489" lon="-2.32683">
        <ele>-36.599998474121</ele>
        <time>2022-02-06T11:25:55.000Z</time>
      </trkpt>
      <trkpt lat="47.25486" lon="-2.32651">
        <ele>-36.599998474121</ele>
        <time>2022-02-06T11:26:00.000Z</time>
      </trkpt>
      <trkpt lat="47.25485" lon="-2.32644">
        <ele>-36.599998474121</ele>
        <time>2022-02-06T11:26:01.000Z</time>
      </trkpt>
      <trkpt lat="47.25483" lon="-2.32631">
        <ele>-36.200000762939</ele>
        <time>2022-02-06T11:26:03.000Z</time>
      </trkpt>
      <trkpt lat="47.25482" lon="-2.32625">
        <ele>-35.799999237061</ele>
        <time>2022-02-06T11:26:04.000Z</time>
      </trkpt>
      <trkpt lat="47.25481" lon="-2.32619">
        <ele>-35.400001525879</ele>
        <time>2022-02-06T11:26:05.000Z</time>
      </trkpt>
      <trkpt lat="47.25479" lon="-2.32613">
        <ele>-35</ele>
        <time>2022-02-06T11:26:06.000Z</time>
      </trkpt>
      <trkpt lat="47.25479" lon="-2.32607">
        <ele>-34.599998474121</ele>
        <time>2022-02-06T11:26:07.000Z</time>
      </trkpt>
      <trkpt lat="47.25478" lon="-2.32601">
        <ele>-34.599998474121</ele>
        <time>2022-02-06T11:26:08.000Z</time>
      </trkpt>
      <trkpt lat="47.25479" lon="-2.32573">
        <ele>-34.599998474121</ele>
        <time>2022-02-06T11:26:13.000Z</time>
      </trkpt>
      <trkpt lat="47.25482" lon="-2.32568">
        <ele>-34.599998474121</ele>
        <time>2022-02-06T11:26:14.000Z</time>
      </trkpt>
      <trkpt lat="47.25497" lon="-2.3255">
        <ele>-34.599998474121</ele>
        <time>2022-02-06T11:26:18.000Z</time>
      </trkpt>
      <trkpt lat="47.25501" lon="-2.32545">
        <ele>-34.599998474121</ele>
        <time>2022-02-06T11:26:19.000Z</time>
      </trkpt>
      <trkpt lat="47.25517" lon="-2.32527">
        <ele>-34.599998474121</ele>
        <time>2022-02-06T11:26:23.000Z</time>
      </trkpt>
      <trkpt lat="47.25552" lon="-2.32495">
        <ele>-35</ele>
        <time>2022-02-06T11:26:30.000Z</time>
      </trkpt>
      <trkpt lat="47.25557" lon="-2.3249">
        <ele>-35.400001525879</ele>
        <time>2022-02-06T11:26:31.000Z</time>
      </trkpt>
      <trkpt lat="47.25563" lon="-2.32484">
        <ele>-36</ele>
        <time>2022-02-06T11:26:32.000Z</time>
      </trkpt>
      <trkpt lat="47.25569" lon="-2.32478">
        <ele>-36.400001525879</ele>
        <time>2022-02-06T11:26:33.000Z</time>
      </trkpt>
      <trkpt lat="47.25575" lon="-2.32473">
        <ele>-36.799999237061</ele>
        <time>2022-02-06T11:26:34.000Z</time>
      </trkpt>
      <trkpt lat="47.25588" lon="-2.32461">
        <ele>-36.799999237061</ele>
        <time>2022-02-06T11:26:36.000Z</time>
      </trkpt>
      <trkpt lat="47.25606" lon="-2.32441">
        <ele>-37.799999237061</ele>
        <time>2022-02-06T11:26:39.000Z</time>
      </trkpt>
      <trkpt lat="47.25613" lon="-2.32434">
        <ele>-38.200000762939</ele>
        <time>2022-02-06T11:26:40.000Z</time>
      </trkpt>
      <trkpt lat="47.25619" lon="-2.32427">
        <ele>-38.799999237061</ele>
        <time>2022-02-06T11:26:41.000Z</time>
      </trkpt>
      <trkpt lat="47.25625" lon="-2.3242">
        <ele>-39.200000762939</ele>
        <time>2022-02-06T11:26:42.000Z</time>
      </trkpt>
      <trkpt lat="47.25632" lon="-2.32414">
        <ele>-39.200000762939</ele>
        <time>2022-02-06T11:26:43.000Z</time>
      </trkpt>
      <trkpt lat="47.25644" lon="-2.32406">
        <ele>-39.599998474121</ele>
        <time>2022-02-06T11:26:45.000Z</time>
      </trkpt>
      <trkpt lat="47.2565" lon="-2.32404">
        <ele>-40</ele>
        <time>2022-02-06T11:26:46.000Z</time>
      </trkpt>
      <trkpt lat="47.25656" lon="-2.32404">
        <ele>-40.400001525879</ele>
        <time>2022-02-06T11:26:47.000Z</time>
      </trkpt>
      <trkpt lat="47.25661" lon="-2.32404">
        <ele>-40.799999237061</ele>
        <time>2022-02-06T11:26:48.000Z</time>
      </trkpt>
      <trkpt lat="47.25666" lon="-2.32406">
        <ele>-41.200000762939</ele>
        <time>2022-02-06T11:26:49.000Z</time>
      </trkpt>
      <trkpt lat="47.25671" lon="-2.32409">
        <ele>-41.200000762939</ele>
        <time>2022-02-06T11:26:50.000Z</time>
      </trkpt>
      <trkpt lat="47.2568" lon="-2.32417">
        <ele>-41.200000762939</ele>
        <time>2022-02-06T11:26:52.000Z</time>
      </trkpt>
      <trkpt lat="47.25692" lon="-2.3242">
        <ele>-41.200000762939</ele>
        <time>2022-02-06T11:26:54.000Z</time>
      </trkpt>
      <trkpt lat="47.25734" lon="-2.32422">
        <ele>-41.200000762939</ele>
        <time>2022-02-06T11:27:01.000Z</time>
      </trkpt>
      <trkpt lat="47.2576" lon="-2.32422">
        <ele>-41.200000762939</ele>
        <time>2022-02-06T11:27:06.000Z</time>
      </trkpt>
      <trkpt lat="47.25763" lon="-2.3242">
        <ele>-41.200000762939</ele>
        <time>2022-02-06T11:27:07.000Z</time>
      </trkpt>
      <trkpt lat="47.25775" lon="-2.32412">
        <ele>-41.200000762939</ele>
        <time>2022-02-06T11:27:10.000Z</time>
      </trkpt>
      <trkpt lat="47.2578" lon="-2.32413">
        <ele>-41.200000762939</ele>
        <time>2022-02-06T11:27:11.000Z</time>
      </trkpt>
      <trkpt lat="47.25792" lon="-2.32428">
        <ele>-41.200000762939</ele>
        <time>2022-02-06T11:27:14.000Z</time>
      </trkpt>
      <trkpt lat="47.25795" lon="-2.32435">
        <ele>-41.200000762939</ele>
        <time>2022-02-06T11:27:15.000Z</time>
      </trkpt>
      <trkpt lat="47.25803" lon="-2.32448">
        <ele>-41.200000762939</ele>
        <time>2022-02-06T11:27:17.000Z</time>
      </trkpt>
      <trkpt lat="47.25808" lon="-2.32453">
        <ele>-41.200000762939</ele>
        <time>2022-02-06T11:27:18.000Z</time>
      </trkpt>
      <trkpt lat="47.25824" lon="-2.32463">
        <ele>-41.200000762939</ele>
        <time>2022-02-06T11:27:21.000Z</time>
      </trkpt>
      <trkpt lat="47.25835" lon="-2.32469">
        <ele>-41.200000762939</ele>
        <time>2022-02-06T11:27:23.000Z</time>
      </trkpt>
      <trkpt lat="47.25847" lon="-2.32473">
        <ele>-41.200000762939</ele>
        <time>2022-02-06T11:27:25.000Z</time>
      </trkpt>
      <trkpt lat="47.25863" lon="-2.32474">
        <ele>-41.200000762939</ele>
        <time>2022-02-06T11:27:28.000Z</time>
      </trkpt>
      <trkpt lat="47.25869" lon="-2.32474">
        <ele>-41.599998474121</ele>
        <time>2022-02-06T11:27:29.000Z</time>
      </trkpt>
      <trkpt lat="47.25874" lon="-2.32473">
        <ele>-42</ele>
        <time>2022-02-06T11:27:30.000Z</time>
      </trkpt>
      <trkpt lat="47.2588" lon="-2.32472">
        <ele>-42.400001525879</ele>
        <time>2022-02-06T11:27:31.000Z</time>
      </trkpt>
      <trkpt lat="47.25886" lon="-2.3247">
        <ele>-42.799999237061</ele>
        <time>2022-02-06T11:27:32.000Z</time>
      </trkpt>
      <trkpt lat="47.25891" lon="-2.32469">
        <ele>-43.200000762939</ele>
        <time>2022-02-06T11:27:33.000Z</time>
      </trkpt>
      <trkpt lat="47.25897" lon="-2.32466">
        <ele>-43.200000762939</ele>
        <time>2022-02-06T11:27:34.000Z</time>
      </trkpt>
      <trkpt lat="47.25915" lon="-2.32444">
        <ele>-43.200000762939</ele>
        <time>2022-02-06T11:27:38.000Z</time>
      </trkpt>
      <trkpt lat="47.25943" lon="-2.32408">
        <ele>-43.200000762939</ele>
        <time>2022-02-06T11:27:44.000Z</time>
      </trkpt>
      <trkpt lat="47.25948" lon="-2.32402">
        <ele>-43.200000762939</ele>
        <time>2022-02-06T11:27:45.000Z</time>
      </trkpt>
      <trkpt lat="47.25981" lon="-2.32359">
        <ele>-43.200000762939</ele>
        <time>2022-02-06T11:27:52.000Z</time>
      </trkpt>
      <trkpt lat="47.26019" lon="-2.32313">
        <ele>-43.200000762939</ele>
        <time>2022-02-06T11:28:00.000Z</time>
      </trkpt>
      <trkpt lat="47.26065" lon="-2.32258">
        <ele>-43.200000762939</ele>
        <time>2022-02-06T11:28:10.000Z</time>
      </trkpt>
      <trkpt lat="47.26083" lon="-2.32235">
        <ele>-43.200000762939</ele>
        <time>2022-02-06T11:28:14.000Z</time>
      </trkpt>
      <trkpt lat="47.2609" lon="-2.32223">
        <ele>-43.200000762939</ele>
        <time>2022-02-06T11:28:16.000Z</time>
      </trkpt>
      <trkpt lat="47.26114" lon="-2.32175">
        <ele>-43.200000762939</ele>
        <time>2022-02-06T11:28:23.000Z</time>
      </trkpt>
      <trkpt lat="47.26132" lon="-2.32123">
        <ele>-43.200000762939</ele>
        <time>2022-02-06T11:28:31.000Z</time>
      </trkpt>
      <trkpt lat="47.26148" lon="-2.32069">
        <ele>-43.200000762939</ele>
        <time>2022-02-06T11:28:38.000Z</time>
      </trkpt>
      <trkpt lat="47.26164" lon="-2.32029">
        <ele>-43.200000762939</ele>
        <time>2022-02-06T11:28:44.000Z</time>
      </trkpt>
      <trkpt lat="47.26171" lon="-2.32022">
        <ele>-43.200000762939</ele>
        <time>2022-02-06T11:28:46.000Z</time>
      </trkpt>
      <trkpt lat="47.26186" lon="-2.32023">
        <ele>-43.200000762939</ele>
        <time>2022-02-06T11:28:50.000Z</time>
      </trkpt>
      <trkpt lat="47.26196" lon="-2.32023">
        <ele>-43.200000762939</ele>
        <time>2022-02-06T11:28:55.000Z</time>
      </trkpt>
      <trkpt lat="47.26196" lon="-2.32016">
        <ele>-43.200000762939</ele>
        <time>2022-02-06T11:28:58.000Z</time>
      </trkpt>
      <trkpt lat="47.26197" lon="-2.32012">
        <ele>-43.200000762939</ele>
        <time>2022-02-06T11:28:59.000Z</time>
      </trkpt>
      <trkpt lat="47.26203" lon="-2.32008">
        <ele>-43.200000762939</ele>
        <time>2022-02-06T11:29:01.000Z</time>
      </trkpt>
      <trkpt lat="47.26211" lon="-2.32">
        <ele>-43.200000762939</ele>
        <time>2022-02-06T11:29:04.000Z</time>
      </trkpt>
      <trkpt lat="47.26216" lon="-2.31993">
        <ele>-43.200000762939</ele>
        <time>2022-02-06T11:29:06.000Z</time>
      </trkpt>
      <trkpt lat="47.26229" lon="-2.31974">
        <ele>-43.200000762939</ele>
        <time>2022-02-06T11:29:11.000Z</time>
      </trkpt>
      <trkpt lat="47.26248" lon="-2.31954">
        <ele>-43.200000762939</ele>
        <time>2022-02-06T11:29:17.000Z</time>
      </trkpt>
      <trkpt lat="47.2626" lon="-2.31931">
        <ele>-43.200000762939</ele>
        <time>2022-02-06T11:29:23.000Z</time>
      </trkpt>
      <trkpt lat="47.26267" lon="-2.31918">
        <ele>-43.200000762939</ele>
        <time>2022-02-06T11:29:26.000Z</time>
      </trkpt>
      <trkpt lat="47.26269" lon="-2.31914">
        <ele>-43.200000762939</ele>
        <time>2022-02-06T11:29:27.000Z</time>
      </trkpt>
      <trkpt lat="47.26288" lon="-2.31897">
        <ele>-43.200000762939</ele>
        <time>2022-02-06T11:29:32.000Z</time>
      </trkpt>
      <trkpt lat="47.26293" lon="-2.31889">
        <ele>-43.200000762939</ele>
        <time>2022-02-06T11:29:34.000Z</time>
      </trkpt>
      <trkpt lat="47.26293" lon="-2.31886">
        <ele>-43.200000762939</ele>
        <time>2022-02-06T11:29:35.000Z</time>
      </trkpt>
      <trkpt lat="47.26295" lon="-2.31862">
        <ele>-43.200000762939</ele>
        <time>2022-02-06T11:29:40.000Z</time>
      </trkpt>
      <trkpt lat="47.263" lon="-2.31825">
        <ele>-43.200000762939</ele>
        <time>2022-02-06T11:29:46.000Z</time>
      </trkpt>
      <trkpt lat="47.26303" lon="-2.31787">
        <ele>-43.200000762939</ele>
        <time>2022-02-06T11:29:52.000Z</time>
      </trkpt>
      <trkpt lat="47.26302" lon="-2.31755">
        <ele>-43.200000762939</ele>
        <time>2022-02-06T11:29:57.000Z</time>
      </trkpt>
      <trkpt lat="47.26302" lon="-2.31729">
        <ele>-43.200000762939</ele>
        <time>2022-02-06T11:30:01.000Z</time>
      </trkpt>
      <trkpt lat="47.26304" lon="-2.31723">
        <ele>-43.200000762939</ele>
        <time>2022-02-06T11:30:02.000Z</time>
      </trkpt>
      <trkpt lat="47.26316" lon="-2.31715">
        <ele>-43.200000762939</ele>
        <time>2022-02-06T11:30:05.000Z</time>
      </trkpt>
      <trkpt lat="47.26329" lon="-2.31706">
        <ele>-42.799999237061</ele>
        <time>2022-02-06T11:30:09.000Z</time>
      </trkpt>
      <trkpt lat="47.26332" lon="-2.31703">
        <ele>-42.400001525879</ele>
        <time>2022-02-06T11:30:10.000Z</time>
      </trkpt>
      <trkpt lat="47.26333" lon="-2.31699">
        <ele>-42</ele>
        <time>2022-02-06T11:30:11.000Z</time>
      </trkpt>
      <trkpt lat="47.26334" lon="-2.31695">
        <ele>-41.599998474121</ele>
        <time>2022-02-06T11:30:12.000Z</time>
      </trkpt>
      <trkpt lat="47.26336" lon="-2.31692">
        <ele>-41</ele>
        <time>2022-02-06T11:30:13.000Z</time>
      </trkpt>
      <trkpt lat="47.26341" lon="-2.31689">
        <ele>-41</ele>
        <time>2022-02-06T11:30:15.000Z</time>
      </trkpt>
      <trkpt lat="47.26359" lon="-2.31678">
        <ele>-41</ele>
        <time>2022-02-06T11:30:21.000Z</time>
      </trkpt>
      <trkpt lat="47.26378" lon="-2.3167">
        <ele>-40.599998474121</ele>
        <time>2022-02-06T11:30:27.000Z</time>
      </trkpt>
      <trkpt lat="47.26382" lon="-2.31668">
        <ele>-40.200000762939</ele>
        <time>2022-02-06T11:30:28.000Z</time>
      </trkpt>
      <trkpt lat="47.26385" lon="-2.31666">
        <ele>-39.799999237061</ele>
        <time>2022-02-06T11:30:29.000Z</time>
      </trkpt>
      <trkpt lat="47.26388" lon="-2.31664">
        <ele>-39.400001525879</ele>
        <time>2022-02-06T11:30:30.000Z</time>
      </trkpt>
      <trkpt lat="47.26391" lon="-2.31663">
        <ele>-39</ele>
        <time>2022-02-06T11:30:31.000Z</time>
      </trkpt>
      <trkpt lat="47.26403" lon="-2.31656">
        <ele>-39</ele>
        <time>2022-02-06T11:30:35.000Z</time>
      </trkpt>
      <trkpt lat="47.2641" lon="-2.31646">
        <ele>-39</ele>
        <time>2022-02-06T11:30:38.000Z</time>
      </trkpt>
      <trkpt lat="47.2641" lon="-2.31642">
        <ele>-39</ele>
        <time>2022-02-06T11:30:39.000Z</time>
      </trkpt>
      <trkpt lat="47.26411" lon="-2.31611">
        <ele>-39</ele>
        <time>2022-02-06T11:30:45.000Z</time>
      </trkpt>
      <trkpt lat="47.26411" lon="-2.31581">
        <ele>-39</ele>
        <time>2022-02-06T11:30:51.000Z</time>
      </trkpt>
      <trkpt lat="47.26411" lon="-2.31568">
        <ele>-38.599998474121</ele>
        <time>2022-02-06T11:30:54.000Z</time>
      </trkpt>
      <trkpt lat="47.2641" lon="-2.31563">
        <ele>-38.200000762939</ele>
        <time>2022-02-06T11:30:55.000Z</time>
      </trkpt>
      <trkpt lat="47.26411" lon="-2.31559">
        <ele>-37.799999237061</ele>
        <time>2022-02-06T11:30:56.000Z</time>
      </trkpt>
      <trkpt lat="47.26412" lon="-2.31555">
        <ele>-37.400001525879</ele>
        <time>2022-02-06T11:30:57.000Z</time>
      </trkpt>
      <trkpt lat="47.26414" lon="-2.31553">
        <ele>-37</ele>
        <time>2022-02-06T11:30:58.000Z</time>
      </trkpt>
      <trkpt lat="47.26418" lon="-2.31553">
        <ele>-37</ele>
        <time>2022-02-06T11:31:01.000Z</time>
      </trkpt>
      <trkpt lat="47.26418" lon="-2.31554">
        <ele>-37</ele>
        <time>2022-02-06T11:31:03.000Z</time>
      </trkpt>
    </trkseg>
  </trk>
</gpx>